<?xml version='1.0' encoding='UTF-8'?><gpx version="1.1" creator="JPX - https://github.com/jenetics/jpx" xmlns="http://www.topografix.com/GPX/1/1"><trk><trkseg><trkpt lat="42.153668378743454" lon="14.482075981016397"><ele>79.0</ele><time>2026-04-06T04:45:50Z</time></trkpt><trkpt lat="42.153724240501006" lon="14.482017610348633"><ele>79.0</ele><time>2026-04-06T04:46:02Z</time></trkpt><trkpt lat="42.153658806047794" lon="14.482083669323142"><ele>79.0</ele><time>2026-04-06T04:47:37.001Z</time></trkpt><trkpt lat="42.153720638326305" lon="14.482146408243947"><ele>79.0</ele><time>2026-04-06T04:47:42.001Z</time></trkpt><trkpt lat="42.153788574708" lon="14.482210083193308"><ele>79.0</ele><time>2026-04-06T04:47:47.001Z</time></trkpt><trkpt lat="42.15385721580561" lon="14.482195549393166"><ele>79.0</ele><time>2026-04-06T04:47:51Z</time></trkpt><trkpt lat="42.15392137943362" lon="14.482133715427468"><ele>79.0</ele><time>2026-04-06T04:47:55Z</time></trkpt><trkpt lat="42.15397750820032" lon="14.482091950806334"><ele>79.0</ele><time>2026-04-06T04:47:58Z</time></trkpt><trkpt lat="42.154032963186815" lon="14.482044073420045"><ele>79.0</ele><time>2026-04-06T04:48:01Z</time></trkpt><trkpt lat="42.15408499428547" lon="14.481963813675822"><ele>79.0</ele><time>2026-04-06T04:48:05Z</time></trkpt><trkpt lat="42.15409871485488" lon="14.481855983320164"><ele>79.0</ele><time>2026-04-06T04:48:09Z</time></trkpt><trkpt lat="42.15409365310956" lon="14.481730734047023"><ele>79.0</ele><time>2026-04-06T04:48:12Z</time></trkpt><trkpt lat="42.154091952099115" lon="14.481639315429648"><ele>79.0</ele><time>2026-04-06T04:48:14Z</time></trkpt><trkpt lat="42.15408489997589" lon="14.48154772359887"><ele>79.0</ele><time>2026-04-06T04:48:16Z</time></trkpt><trkpt lat="42.15405472283441" lon="14.481467452661782"><ele>79.0</ele><time>2026-04-06T04:48:18Z</time></trkpt><trkpt lat="42.15401727887307" lon="14.481397656847216"><ele>79.0</ele><time>2026-04-06T04:48:20Z</time></trkpt><trkpt lat="42.15395124024137" lon="14.481311928422338"><ele>79.0</ele><time>2026-04-06T04:48:23Z</time></trkpt><trkpt lat="42.15388282370615" lon="14.481230217239279"><ele>79.0</ele><time>2026-04-06T04:48:26Z</time></trkpt><trkpt lat="42.1538159034483" lon="14.481149418447057"><ele>79.0</ele><time>2026-04-06T04:48:29Z</time></trkpt><trkpt lat="42.15375231757818" lon="14.481061684819203"><ele>79.0</ele><time>2026-04-06T04:48:32Z</time></trkpt><trkpt lat="42.15369683638752" lon="14.480970478211878"><ele>79.0</ele><time>2026-04-06T04:48:35Z</time></trkpt><trkpt lat="42.153638865133445" lon="14.48088348554593"><ele>79.0</ele><time>2026-04-06T04:48:37.999Z</time></trkpt><trkpt lat="42.15359674943545" lon="14.480787781018398"><ele>79.0</ele><time>2026-04-06T04:48:40.999Z</time></trkpt><trkpt lat="42.153553200286204" lon="14.480702005189821"><ele>79.0</ele><time>2026-04-06T04:48:43.999Z</time></trkpt><trkpt lat="42.153513282641306" lon="14.480612021301278"><ele>79.0</ele><time>2026-04-06T04:48:46.999Z</time></trkpt><trkpt lat="42.1534741764145" lon="14.480521447293878"><ele>79.0</ele><time>2026-04-06T04:48:49.999Z</time></trkpt><trkpt lat="42.15343620286351" lon="14.480420123921407"><ele>79.0</ele><time>2026-04-06T04:48:52.999Z</time></trkpt><trkpt lat="42.15339369533515" lon="14.4803087613091"><ele>79.0</ele><time>2026-04-06T04:48:55.999Z</time></trkpt><trkpt lat="42.15335534559024" lon="14.48019608024333"><ele>79.0</ele><time>2026-04-06T04:48:58.999Z</time></trkpt><trkpt lat="42.15332018803377" lon="14.480078514421068"><ele>79.0</ele><time>2026-04-06T04:49:01.999Z</time></trkpt><trkpt lat="42.153289841637466" lon="14.479967269590077"><ele>79.5</ele><time>2026-04-06T04:49:04.999Z</time></trkpt><trkpt lat="42.15327105002273" lon="14.479856934935208"><ele>80.0</ele><time>2026-04-06T04:49:07.999Z</time></trkpt><trkpt lat="42.153258087498386" lon="14.479742872838099"><ele>80.5</ele><time>2026-04-06T04:49:10.999Z</time></trkpt><trkpt lat="42.15325711598977" lon="14.479623467681765"><ele>81.0</ele><time>2026-04-06T04:49:13.999Z</time></trkpt><trkpt lat="42.153279492370025" lon="14.47950618850678"><ele>81.5</ele><time>2026-04-06T04:49:16.999Z</time></trkpt><trkpt lat="42.15331664606533" lon="14.479401604500078"><ele>82.0</ele><time>2026-04-06T04:49:19.999Z</time></trkpt><trkpt lat="42.15336256918337" lon="14.479303235179072"><ele>83.0</ele><time>2026-04-06T04:49:22.999Z</time></trkpt><trkpt lat="42.15341754628273" lon="14.479216469286985"><ele>84.0</ele><time>2026-04-06T04:49:25.999Z</time></trkpt><trkpt lat="42.153470733130746" lon="14.479130038219377"><ele>85.0</ele><time>2026-04-06T04:49:28.999Z</time></trkpt><trkpt lat="42.15352043032523" lon="14.479044379005721"><ele>86.0</ele><time>2026-04-06T04:49:31.999Z</time></trkpt><trkpt lat="42.15356835657057" lon="14.478954685755932"><ele>87.0</ele><time>2026-04-06T04:49:35.001Z</time></trkpt><trkpt lat="42.153612302022275" lon="14.478862025563151"><ele>88.0</ele><time>2026-04-06T04:49:38.001Z</time></trkpt><trkpt lat="42.15364253181082" lon="14.47876956758765"><ele>87.85714285714286</ele><time>2026-04-06T04:49:41.001Z</time></trkpt><trkpt lat="42.15365833523723" lon="14.4786842262598"><ele>87.71428571428571</ele><time>2026-04-06T04:49:44.001Z</time></trkpt><trkpt lat="42.15366655700108" lon="14.47859955743194"><ele>87.57142857142857</ele><time>2026-04-06T04:49:47Z</time></trkpt><trkpt lat="42.15365588795665" lon="14.478497211150957"><ele>87.42857142857143</ele><time>2026-04-06T04:49:51Z</time></trkpt><trkpt lat="42.153633175962874" lon="14.478405646135924"><ele>87.28571428571429</ele><time>2026-04-06T04:49:54Z</time></trkpt><trkpt lat="42.153614414591985" lon="14.478321485913732"><ele>87.14285714285714</ele><time>2026-04-06T04:49:56Z</time></trkpt><trkpt lat="42.1535737977231" lon="14.47820440197226"><ele>87.0</ele><time>2026-04-06T04:49:59Z</time></trkpt><trkpt lat="42.15354833560567" lon="14.47811296720645"><ele>87.0</ele><time>2026-04-06T04:50:01Z</time></trkpt><trkpt lat="42.15353386699131" lon="14.478004251374063"><ele>87.0</ele><time>2026-04-06T04:50:03Z</time></trkpt><trkpt lat="42.153533688750684" lon="14.477878263724962"><ele>87.0</ele><time>2026-04-06T04:50:05Z</time></trkpt><trkpt lat="42.15353188147187" lon="14.477744149973834"><ele>87.0</ele><time>2026-04-06T04:50:07Z</time></trkpt><trkpt lat="42.15353581517811" lon="14.477615299145038"><ele>87.0</ele><time>2026-04-06T04:50:09Z</time></trkpt><trkpt lat="42.15354082498234" lon="14.477483378890437"><ele>85.39999999999999</ele><time>2026-04-06T04:50:11Z</time></trkpt><trkpt lat="42.15353280601034" lon="14.477355417283512"><ele>83.8</ele><time>2026-04-06T04:50:13Z</time></trkpt><trkpt lat="42.153529336434616" lon="14.477217880535896"><ele>82.2</ele><time>2026-04-06T04:50:15Z</time></trkpt><trkpt lat="42.15354704263237" lon="14.477069538940933"><ele>80.6</ele><time>2026-04-06T04:50:17Z</time></trkpt><trkpt lat="42.15357444801062" lon="14.476928017633071"><ele>79.0</ele><time>2026-04-06T04:50:19Z</time></trkpt><trkpt lat="42.153603062188715" lon="14.476767228765997"><ele>78.14285714285715</ele><time>2026-04-06T04:50:21Z</time></trkpt><trkpt lat="42.15361731080598" lon="14.476679247140712"><ele>77.28571428571429</ele><time>2026-04-06T04:50:22Z</time></trkpt><trkpt lat="42.153631267358" lon="14.476588656480882"><ele>76.42857142857143</ele><time>2026-04-06T04:50:23Z</time></trkpt><trkpt lat="42.15363754569135" lon="14.476488944427775"><ele>75.57142857142858</ele><time>2026-04-06T04:50:24Z</time></trkpt><trkpt lat="42.15363360278885" lon="14.476392553250278"><ele>74.71428571428572</ele><time>2026-04-06T04:50:25Z</time></trkpt><trkpt lat="42.15362552944698" lon="14.47629765914395"><ele>73.85714285714286</ele><time>2026-04-06T04:50:26Z</time></trkpt><trkpt lat="42.15361427226351" lon="14.476209608794447"><ele>73.0</ele><time>2026-04-06T04:50:27Z</time></trkpt><trkpt lat="42.15359639061155" lon="14.47612023091911"><ele>72.33333333333333</ele><time>2026-04-06T04:50:28Z</time></trkpt><trkpt lat="42.15357592969101" lon="14.476035166434272"><ele>71.66666666666666</ele><time>2026-04-06T04:50:29Z</time></trkpt><trkpt lat="42.153552639796104" lon="14.475955689024305"><ele>71.0</ele><time>2026-04-06T04:50:30Z</time></trkpt><trkpt lat="42.153489756460246" lon="14.475806372431926"><ele>70.33333333333333</ele><time>2026-04-06T04:50:32Z</time></trkpt><trkpt lat="42.15341283859872" lon="14.47567253995255"><ele>69.66666666666667</ele><time>2026-04-06T04:50:34Z</time></trkpt><trkpt lat="42.153370596303816" lon="14.475606653545052"><ele>69.0</ele><time>2026-04-06T04:50:34.999Z</time></trkpt><trkpt lat="42.15328812717335" lon="14.47548135103026"><ele>68.5</ele><time>2026-04-06T04:50:36.999Z</time></trkpt><trkpt lat="42.15323734220081" lon="14.475425142332272"><ele>68.0</ele><time>2026-04-06T04:50:37.999Z</time></trkpt><trkpt lat="42.15315448017442" lon="14.475294992045539"><ele>67.5</ele><time>2026-04-06T04:50:39.999Z</time></trkpt><trkpt lat="42.15309357427493" lon="14.475253182658715"><ele>67.0</ele><time>2026-04-06T04:50:40.999Z</time></trkpt><trkpt lat="42.15304163661681" lon="14.475195607567361"><ele>66.5</ele><time>2026-04-06T04:50:41.999Z</time></trkpt><trkpt lat="42.15299080444113" lon="14.475135381154374"><ele>66.0</ele><time>2026-04-06T04:50:42.999Z</time></trkpt><trkpt lat="42.15294378767403" lon="14.475075394520468"><ele>65.25</ele><time>2026-04-06T04:50:43.999Z</time></trkpt><trkpt lat="42.152862284250915" lon="14.474949319760148"><ele>64.5</ele><time>2026-04-06T04:50:45.999Z</time></trkpt><trkpt lat="42.152782737497674" lon="14.47484079707885"><ele>63.75</ele><time>2026-04-06T04:50:47.999Z</time></trkpt><trkpt lat="42.152704646400025" lon="14.47474654945957"><ele>63.0</ele><time>2026-04-06T04:50:49.999Z</time></trkpt><trkpt lat="42.15263617489675" lon="14.474632983502124"><ele>62.8</ele><time>2026-04-06T04:50:51.999Z</time></trkpt><trkpt lat="42.15255578222028" lon="14.474532786232745"><ele>62.599999999999994</ele><time>2026-04-06T04:50:53.999Z</time></trkpt><trkpt lat="42.15248783337597" lon="14.474435794348357"><ele>62.400000000000006</ele><time>2026-04-06T04:50:55.999Z</time></trkpt><trkpt lat="42.152432212995635" lon="14.474354724293837"><ele>62.2</ele><time>2026-04-06T04:50:57.999Z</time></trkpt><trkpt lat="42.15239443744292" lon="14.474263366163513"><ele>62.0</ele><time>2026-04-06T04:51:00.999Z</time></trkpt><trkpt lat="42.15244978423014" lon="14.47416549756244"><ele>62.00000000000001</ele><time>2026-04-06T04:51:03.999Z</time></trkpt><trkpt lat="42.152509277291074" lon="14.474117792710565"><ele>62.0</ele><time>2026-04-06T04:51:05.999Z</time></trkpt><trkpt lat="42.15257767292615" lon="14.47406639674518"><ele>62.0</ele><time>2026-04-06T04:51:07.999Z</time></trkpt><trkpt lat="42.15264918602252" lon="14.47400262557171"><ele>62.0</ele><time>2026-04-06T04:51:09.999Z</time></trkpt><trkpt lat="42.1527279059618" lon="14.473936337361792"><ele>62.00000000000001</ele><time>2026-04-06T04:51:11.999Z</time></trkpt><trkpt lat="42.15281672493295" lon="14.473869821253876"><ele>62.0</ele><time>2026-04-06T04:51:13.999Z</time></trkpt><trkpt lat="42.15290674961394" lon="14.473789389850792"><ele>61.8</ele><time>2026-04-06T04:51:15.999Z</time></trkpt><trkpt lat="42.15299994609942" lon="14.473710506141797"><ele>61.6</ele><time>2026-04-06T04:51:17.999Z</time></trkpt><trkpt lat="42.153094135763965" lon="14.473634115103746"><ele>61.39999999999999</ele><time>2026-04-06T04:51:19.999Z</time></trkpt><trkpt lat="42.153189320528924" lon="14.47355854571013"><ele>61.199999999999996</ele><time>2026-04-06T04:51:21.999Z</time></trkpt><trkpt lat="42.15328709079908" lon="14.473488018458255"><ele>61.0</ele><time>2026-04-06T04:51:23.999Z</time></trkpt><trkpt lat="42.15339531580808" lon="14.47345073813854"><ele>59.0</ele><time>2026-04-06T04:51:25.999Z</time></trkpt><trkpt lat="42.15349835988403" lon="14.473453603611802"><ele>57.0</ele><time>2026-04-06T04:51:27.999Z</time></trkpt><trkpt lat="42.153589350426486" lon="14.473467214896397"><ele>55.0</ele><time>2026-04-06T04:51:29.999Z</time></trkpt><trkpt lat="42.15366700947195" lon="14.473477086134702"><ele>53.0</ele><time>2026-04-06T04:51:31.998Z</time></trkpt><trkpt lat="42.15372605412091" lon="14.473244668546014"><ele>53.00000000000001</ele><time>2026-04-06T04:51:34.998Z</time></trkpt><trkpt lat="42.15364875992136" lon="14.47316050133741"><ele>53.0</ele><time>2026-04-06T04:51:36.998Z</time></trkpt><trkpt lat="42.15359761276721" lon="14.473095296908026"><ele>53.0</ele><time>2026-04-06T04:51:39Z</time></trkpt><trkpt lat="42.15354084615496" lon="14.472998729108358"><ele>53.0</ele><time>2026-04-06T04:51:42Z</time></trkpt><trkpt lat="42.15347937465758" lon="14.47291825027754"><ele>53.00000000000001</ele><time>2026-04-06T04:51:45Z</time></trkpt><trkpt lat="42.15342371340035" lon="14.472828440316432"><ele>53.0</ele><time>2026-04-06T04:51:48Z</time></trkpt><trkpt lat="42.15336970943753" lon="14.472753700812797"><ele>52.85714285714286</ele><time>2026-04-06T04:51:51Z</time></trkpt><trkpt lat="42.153317020298665" lon="14.472691778370228"><ele>52.71428571428571</ele><time>2026-04-06T04:51:54Z</time></trkpt><trkpt lat="42.15327028979783" lon="14.472625231002953"><ele>52.57142857142857</ele><time>2026-04-06T04:51:57Z</time></trkpt><trkpt lat="42.15320760626529" lon="14.472580140558282"><ele>52.42857142857143</ele><time>2026-04-06T04:52:00Z</time></trkpt><trkpt lat="42.15315820655446" lon="14.472513008127228"><ele>52.28571428571429</ele><time>2026-04-06T04:52:03Z</time></trkpt><trkpt lat="42.15310261191046" lon="14.472458729385936"><ele>52.14285714285714</ele><time>2026-04-06T04:52:06Z</time></trkpt><trkpt lat="42.15304827855596" lon="14.47239811263486"><ele>52.0</ele><time>2026-04-06T04:52:09Z</time></trkpt><trkpt lat="42.152994784838775" lon="14.472325537673663"><ele>51.83333333333333</ele><time>2026-04-06T04:52:12Z</time></trkpt><trkpt lat="42.15293544252898" lon="14.472262065860628"><ele>51.666666666666664</ele><time>2026-04-06T04:52:15Z</time></trkpt><trkpt lat="42.15287322570807" lon="14.472194083627903"><ele>51.5</ele><time>2026-04-06T04:52:18Z</time></trkpt><trkpt lat="42.15281567408702" lon="14.472129190938261"><ele>51.33333333333333</ele><time>2026-04-06T04:52:21Z</time></trkpt><trkpt lat="42.15275744519079" lon="14.472063882638677"><ele>51.166666666666664</ele><time>2026-04-06T04:52:24Z</time></trkpt><trkpt lat="42.15270104635862" lon="14.471993679661182"><ele>51.0</ele><time>2026-04-06T04:52:27Z</time></trkpt><trkpt lat="42.15264404444618" lon="14.47192048835227"><ele>51.0</ele><time>2026-04-06T04:52:30Z</time></trkpt><trkpt lat="42.15258515274822" lon="14.47185556118044"><ele>51.0</ele><time>2026-04-06T04:52:33Z</time></trkpt><trkpt lat="42.152529555526655" lon="14.471791064507007"><ele>51.0</ele><time>2026-04-06T04:52:35.999Z</time></trkpt><trkpt lat="42.15247761145195" lon="14.47171454034967"><ele>51.0</ele><time>2026-04-06T04:52:38.999Z</time></trkpt><trkpt lat="42.152421784038076" lon="14.471634687094815"><ele>51.0</ele><time>2026-04-06T04:52:41.999Z</time></trkpt><trkpt lat="42.152367570708996" lon="14.471556786045149"><ele>51.0</ele><time>2026-04-06T04:52:44.999Z</time></trkpt><trkpt lat="42.1523112963932" lon="14.471475158338084"><ele>51.166666666666664</ele><time>2026-04-06T04:52:47.999Z</time></trkpt><trkpt lat="42.15226192199182" lon="14.471390814627865"><ele>51.33333333333333</ele><time>2026-04-06T04:52:50.999Z</time></trkpt><trkpt lat="42.15221034017635" lon="14.471313184511567"><ele>51.5</ele><time>2026-04-06T04:52:53.999Z</time></trkpt><trkpt lat="42.15215847888838" lon="14.471233933879965"><ele>51.666666666666664</ele><time>2026-04-06T04:52:56.999Z</time></trkpt><trkpt lat="42.152101754137846" lon="14.471154150477714"><ele>51.83333333333333</ele><time>2026-04-06T04:52:59.999Z</time></trkpt><trkpt lat="42.152049000504164" lon="14.471069003239785"><ele>52.0</ele><time>2026-04-06T04:53:02.999Z</time></trkpt><trkpt lat="42.151992609395876" lon="14.470983867280918"><ele>51.99999999999999</ele><time>2026-04-06T04:53:05.999Z</time></trkpt><trkpt lat="42.151934425427314" lon="14.47090012333713"><ele>52.0</ele><time>2026-04-06T04:53:08.999Z</time></trkpt><trkpt lat="42.15187902616786" lon="14.47081672958021"><ele>52.0</ele><time>2026-04-06T04:53:11.999Z</time></trkpt><trkpt lat="42.151828552277195" lon="14.470733550313724"><ele>52.0</ele><time>2026-04-06T04:53:14.999Z</time></trkpt><trkpt lat="42.151770258580086" lon="14.470654260821492"><ele>51.99999999999999</ele><time>2026-04-06T04:53:17.999Z</time></trkpt><trkpt lat="42.15171877442359" lon="14.470574312980771"><ele>52.0</ele><time>2026-04-06T04:53:20.999Z</time></trkpt><trkpt lat="42.1516656426937" lon="14.470497223155483"><ele>52.0</ele><time>2026-04-06T04:53:23.999Z</time></trkpt><trkpt lat="42.15161760290525" lon="14.470418970171073"><ele>52.0</ele><time>2026-04-06T04:53:26.999Z</time></trkpt><trkpt lat="42.15156772552331" lon="14.470349842074434"><ele>52.0</ele><time>2026-04-06T04:53:29.998Z</time></trkpt><trkpt lat="42.151524258620995" lon="14.470260233041644"><ele>52.0</ele><time>2026-04-06T04:53:32.998Z</time></trkpt><trkpt lat="42.15148879336095" lon="14.470163437773028"><ele>52.0</ele><time>2026-04-06T04:53:35.998Z</time></trkpt><trkpt lat="42.15147190690191" lon="14.47006799205545"><ele>52.0</ele><time>2026-04-06T04:53:38.998Z</time></trkpt><trkpt lat="42.151464693013835" lon="14.469978860501536"><ele>52.0</ele><time>2026-04-06T04:53:41.998Z</time></trkpt><trkpt lat="42.15147018886097" lon="14.469880563450497"><ele>51.99999999999999</ele><time>2026-04-06T04:53:46Z</time></trkpt><trkpt lat="42.151473385930466" lon="14.469786314178886"><ele>52.0</ele><time>2026-04-06T04:53:51Z</time></trkpt><trkpt lat="42.15147805959598" lon="14.469680013108237"><ele>52.0</ele><time>2026-04-06T04:53:55Z</time></trkpt><trkpt lat="42.15149466001077" lon="14.469582774906327"><ele>52.0</ele><time>2026-04-06T04:53:58Z</time></trkpt><trkpt lat="42.15152333718663" lon="14.469484885855575"><ele>51.99999999999999</ele><time>2026-04-06T04:54:01Z</time></trkpt><trkpt lat="42.151565278216964" lon="14.469394722144395"><ele>52.0</ele><time>2026-04-06T04:54:04Z</time></trkpt><trkpt lat="42.15155779851136" lon="14.469290469512762"><ele>52.42857142857142</ele><time>2026-04-06T04:54:07Z</time></trkpt><trkpt lat="42.15148875823486" lon="14.469303483678438"><ele>52.85714285714286</ele><time>2026-04-06T04:54:10Z</time></trkpt><trkpt lat="42.15145715879804" lon="14.469395511784045"><ele>53.285714285714285</ele><time>2026-04-06T04:54:14Z</time></trkpt><trkpt lat="42.151449310530445" lon="14.469488791543132"><ele>53.71428571428571</ele><time>2026-04-06T04:54:18Z</time></trkpt><trkpt lat="42.151453823162775" lon="14.469578543798143"><ele>54.14285714285714</ele><time>2026-04-06T04:54:22Z</time></trkpt><trkpt lat="42.15144705927904" lon="14.469673628572288"><ele>54.57142857142857</ele><time>2026-04-06T04:54:26Z</time></trkpt><trkpt lat="42.15144717836942" lon="14.469771077618276"><ele>55.0</ele><time>2026-04-06T04:54:30Z</time></trkpt><trkpt lat="42.15144787350456" lon="14.469865789082473"><ele>55.42857142857142</ele><time>2026-04-06T04:54:33.999Z</time></trkpt><trkpt lat="42.151441468221584" lon="14.469971318153416"><ele>55.85714285714286</ele><time>2026-04-06T04:54:37.999Z</time></trkpt><trkpt lat="42.15144236914711" lon="14.470060600689155"><ele>56.28571428571429</ele><time>2026-04-06T04:54:40.999Z</time></trkpt><trkpt lat="42.1514563327029" lon="14.470145232609651"><ele>56.714285714285715</ele><time>2026-04-06T04:54:43.999Z</time></trkpt><trkpt lat="42.15148003118515" lon="14.470225732344987"><ele>57.142857142857146</ele><time>2026-04-06T04:54:46.999Z</time></trkpt><trkpt lat="42.1515087309004" lon="14.470309109297478"><ele>57.57142857142858</ele><time>2026-04-06T04:54:49.999Z</time></trkpt><trkpt lat="42.151554292984535" lon="14.470382497261461"><ele>58.00000000000001</ele><time>2026-04-06T04:54:52.999Z</time></trkpt><trkpt lat="42.15160765297191" lon="14.47044576814827"><ele>57.14285714285715</ele><time>2026-04-06T04:54:55.999Z</time></trkpt><trkpt lat="42.15164700762057" lon="14.470529875161276"><ele>56.28571428571429</ele><time>2026-04-06T04:54:58.999Z</time></trkpt><trkpt lat="42.15171115509599" lon="14.470613937240934"><ele>55.42857142857143</ele><time>2026-04-06T04:55:01.999Z</time></trkpt><trkpt lat="42.15174789566711" lon="14.47068407739233"><ele>54.57142857142858</ele><time>2026-04-06T04:55:03.999Z</time></trkpt><trkpt lat="42.15179149703631" lon="14.47074668026444"><ele>53.71428571428572</ele><time>2026-04-06T04:55:05.999Z</time></trkpt><trkpt lat="42.1518340642744" lon="14.470811418349529"><ele>52.857142857142854</ele><time>2026-04-06T04:55:07.999Z</time></trkpt><trkpt lat="42.15189420114549" lon="14.470902081326107"><ele>52.0</ele><time>2026-04-06T04:55:10.999Z</time></trkpt><trkpt lat="42.15194950390895" lon="14.470995542382074"><ele>51.99999999999999</ele><time>2026-04-06T04:55:13.999Z</time></trkpt><trkpt lat="42.152006506999896" lon="14.47107646926717"><ele>52.0</ele><time>2026-04-06T04:55:16.999Z</time></trkpt><trkpt lat="42.15206156580785" lon="14.471164556520211"><ele>52.0</ele><time>2026-04-06T04:55:19.999Z</time></trkpt><trkpt lat="42.152122652976345" lon="14.471247942369242"><ele>52.0</ele><time>2026-04-06T04:55:22.999Z</time></trkpt><trkpt lat="42.15218040690302" lon="14.471328769907883"><ele>51.99999999999999</ele><time>2026-04-06T04:55:25.999Z</time></trkpt><trkpt lat="42.15223558709469" lon="14.471410538908726"><ele>52.0</ele><time>2026-04-06T04:55:28.998Z</time></trkpt><trkpt lat="42.15228863225571" lon="14.471493464214026"><ele>52.166666666666664</ele><time>2026-04-06T04:55:31.998Z</time></trkpt><trkpt lat="42.15233898707112" lon="14.471589421837745"><ele>52.33333333333333</ele><time>2026-04-06T04:55:34.998Z</time></trkpt><trkpt lat="42.152399568113935" lon="14.471677349662897"><ele>52.5</ele><time>2026-04-06T04:55:37.998Z</time></trkpt><trkpt lat="42.15245770223172" lon="14.471752101153433"><ele>52.66666666666667</ele><time>2026-04-06T04:55:40.998Z</time></trkpt><trkpt lat="42.152506202837095" lon="14.471822803354069"><ele>52.833333333333336</ele><time>2026-04-06T04:55:43.998Z</time></trkpt><trkpt lat="42.15256257023681" lon="14.471885319694346"><ele>53.0</ele><time>2026-04-06T04:55:46.998Z</time></trkpt><trkpt lat="42.152617343535766" lon="14.471958646824922"><ele>52.66666666666667</ele><time>2026-04-06T04:55:50Z</time></trkpt><trkpt lat="42.15268015241395" lon="14.472032447420533"><ele>52.333333333333336</ele><time>2026-04-06T04:55:53Z</time></trkpt><trkpt lat="42.15274831487993" lon="14.472112370391029"><ele>52.0</ele><time>2026-04-06T04:55:56Z</time></trkpt><trkpt lat="42.152816888709" lon="14.47219592833919"><ele>51.66666666666667</ele><time>2026-04-06T04:55:59Z</time></trkpt><trkpt lat="42.15288683950441" lon="14.472272648677217"><ele>51.333333333333336</ele><time>2026-04-06T04:56:02Z</time></trkpt><trkpt lat="42.15295859200276" lon="14.472351554997129"><ele>51.0</ele><time>2026-04-06T04:56:05Z</time></trkpt><trkpt lat="42.153026523333914" lon="14.472426000473584"><ele>51.166666666666664</ele><time>2026-04-06T04:56:08Z</time></trkpt><trkpt lat="42.153093034299125" lon="14.472495256474856"><ele>51.33333333333333</ele><time>2026-04-06T04:56:11Z</time></trkpt><trkpt lat="42.15315215252335" lon="14.472565435884873"><ele>51.5</ele><time>2026-04-06T04:56:14Z</time></trkpt><trkpt lat="42.15321261142214" lon="14.472619266119182"><ele>51.666666666666664</ele><time>2026-04-06T04:56:17Z</time></trkpt><trkpt lat="42.15326405860566" lon="14.47267857685554"><ele>51.83333333333333</ele><time>2026-04-06T04:56:20Z</time></trkpt><trkpt lat="42.153335579894836" lon="14.472711596481643"><ele>52.0</ele><time>2026-04-06T04:56:24Z</time></trkpt><trkpt lat="42.153502872712146" lon="14.472442671771573"><ele>52.0</ele><time>2026-04-06T05:02:38Z</time></trkpt><trkpt lat="42.153475331634645" lon="14.47253187938401"><ele>52.0</ele><time>2026-04-06T05:02:41.999Z</time></trkpt><trkpt lat="42.15342728480084" lon="14.472612898980623"><ele>52.0</ele><time>2026-04-06T05:02:44.999Z</time></trkpt><trkpt lat="42.153398529194426" lon="14.47268969053876"><ele>52.0</ele><time>2026-04-06T05:02:49.999Z</time></trkpt><trkpt lat="42.15338670099294" lon="14.472774631825132"><ele>52.0</ele><time>2026-04-06T05:03:11.999Z</time></trkpt><trkpt lat="42.153436226806804" lon="14.47287490662309"><ele>52.0</ele><time>2026-04-06T05:03:14.999Z</time></trkpt><trkpt lat="42.15348407942499" lon="14.47294212473939"><ele>52.0</ele><time>2026-04-06T05:03:16.999Z</time></trkpt><trkpt lat="42.15353307882324" lon="14.473014727377713"><ele>52.14285714285714</ele><time>2026-04-06T05:03:18.999Z</time></trkpt><trkpt lat="42.15358259948181" lon="14.473089032532368"><ele>52.28571428571429</ele><time>2026-04-06T05:03:20.999Z</time></trkpt><trkpt lat="42.15362450399343" lon="14.473164581276015"><ele>52.42857142857143</ele><time>2026-04-06T05:03:22.999Z</time></trkpt><trkpt lat="42.15366510947419" lon="14.473234900780099"><ele>52.57142857142857</ele><time>2026-04-06T05:03:24.999Z</time></trkpt><trkpt lat="42.153698518618285" lon="14.473316988320477"><ele>52.71428571428571</ele><time>2026-04-06T05:03:26.999Z</time></trkpt><trkpt lat="42.153732156930126" lon="14.473398282313743"><ele>52.85714285714286</ele><time>2026-04-06T05:03:28.999Z</time></trkpt><trkpt lat="42.15377955532665" lon="14.473456928021522"><ele>53.0</ele><time>2026-04-06T05:03:30.999Z</time></trkpt><trkpt lat="42.15384971657381" lon="14.473489670649707"><ele>53.0</ele><time>2026-04-06T05:03:32.999Z</time></trkpt><trkpt lat="42.15393579993755" lon="14.47351699728724"><ele>53.0</ele><time>2026-04-06T05:03:34.998Z</time></trkpt><trkpt lat="42.15403221177986" lon="14.473538982025676"><ele>53.0</ele><time>2026-04-06T05:03:36.998Z</time></trkpt><trkpt lat="42.15413355479855" lon="14.473555323218376"><ele>53.0</ele><time>2026-04-06T05:03:38.998Z</time></trkpt><trkpt lat="42.15424072025995" lon="14.4735728084176"><ele>53.0</ele><time>2026-04-06T05:03:40.998Z</time></trkpt><trkpt lat="42.154349204485875" lon="14.473600208001477"><ele>52.2</ele><time>2026-04-06T05:03:42.998Z</time></trkpt><trkpt lat="42.15445902844238" lon="14.47361977297577"><ele>51.4</ele><time>2026-04-06T05:03:44.998Z</time></trkpt><trkpt lat="42.154567138252084" lon="14.473639997674809"><ele>50.6</ele><time>2026-04-06T05:03:46.998Z</time></trkpt><trkpt lat="42.15467389245921" lon="14.473662896167657"><ele>49.800000000000004</ele><time>2026-04-06T05:03:48.998Z</time></trkpt><trkpt lat="42.15477933182474" lon="14.47368172091934"><ele>49.0</ele><time>2026-04-06T05:03:50.998Z</time></trkpt><trkpt lat="42.15488467068082" lon="14.473699174585558"><ele>49.0</ele><time>2026-04-06T05:03:52.998Z</time></trkpt><trkpt lat="42.15499278761755" lon="14.47371812138243"><ele>49.0</ele><time>2026-04-06T05:03:54.998Z</time></trkpt><trkpt lat="42.15510097770681" lon="14.47373855796662"><ele>49.0</ele><time>2026-04-06T05:03:56.998Z</time></trkpt><trkpt lat="42.15521263027534" lon="14.473774143146864"><ele>49.0</ele><time>2026-04-06T05:03:58.998Z</time></trkpt><trkpt lat="42.15532157127067" lon="14.473824054664174"><ele>49.0</ele><time>2026-04-06T05:04:00.998Z</time></trkpt><trkpt lat="42.155427276860465" lon="14.473872453284427"><ele>49.25</ele><time>2026-04-06T05:04:02.998Z</time></trkpt><trkpt lat="42.155531675143074" lon="14.473923506479174"><ele>49.5</ele><time>2026-04-06T05:04:04.998Z</time></trkpt><trkpt lat="42.15563741868607" lon="14.47397360976115"><ele>49.75</ele><time>2026-04-06T05:04:06.998Z</time></trkpt><trkpt lat="42.15574484736391" lon="14.474028332782336"><ele>50.0</ele><time>2026-04-06T05:04:08.998Z</time></trkpt><trkpt lat="42.15585143314165" lon="14.47408287087089"><ele>48.75</ele><time>2026-04-06T05:04:10.998Z</time></trkpt><trkpt lat="42.15595811756764" lon="14.474133184512112"><ele>47.5</ele><time>2026-04-06T05:04:12.998Z</time></trkpt><trkpt lat="42.15606883981876" lon="14.474165553298382"><ele>46.25</ele><time>2026-04-06T05:04:15Z</time></trkpt><trkpt lat="42.15618044965813" lon="14.474191706522483"><ele>45.0</ele><time>2026-04-06T05:04:17Z</time></trkpt><trkpt lat="42.15629509550252" lon="14.474186459584827"><ele>45.0</ele><time>2026-04-06T05:04:19Z</time></trkpt><trkpt lat="42.15640727400814" lon="14.474165695787244"><ele>45.0</ele><time>2026-04-06T05:04:21Z</time></trkpt><trkpt lat="42.15652395710185" lon="14.474141796164819"><ele>45.0</ele><time>2026-04-06T05:04:23Z</time></trkpt><trkpt lat="42.15663925881998" lon="14.474117982125268"><ele>45.0</ele><time>2026-04-06T05:04:25Z</time></trkpt><trkpt lat="42.15675632174279" lon="14.474086039353297"><ele>44.75</ele><time>2026-04-06T05:04:27Z</time></trkpt><trkpt lat="42.156871059201485" lon="14.474055230474287"><ele>44.5</ele><time>2026-04-06T05:04:29Z</time></trkpt><trkpt lat="42.15698604566496" lon="14.47403442196723"><ele>44.25</ele><time>2026-04-06T05:04:31Z</time></trkpt><trkpt lat="42.15710600965329" lon="14.474040653856566"><ele>44.0</ele><time>2026-04-06T05:04:33Z</time></trkpt><trkpt lat="42.157221361713326" lon="14.474086902196051"><ele>44.0</ele><time>2026-04-06T05:04:35Z</time></trkpt><trkpt lat="42.15732582765713" lon="14.474163134920765"><ele>44.0</ele><time>2026-04-06T05:04:37Z</time></trkpt><trkpt lat="42.15742403480229" lon="14.474254078361682"><ele>44.0</ele><time>2026-04-06T05:04:39Z</time></trkpt><trkpt lat="42.157520966548546" lon="14.474345759511431"><ele>44.0</ele><time>2026-04-06T05:04:41Z</time></trkpt><trkpt lat="42.157618195085604" lon="14.474437198599665"><ele>44.0</ele><time>2026-04-06T05:04:42.999Z</time></trkpt><trkpt lat="42.157715473440604" lon="14.474527681016891"><ele>44.0</ele><time>2026-04-06T05:04:44.999Z</time></trkpt><trkpt lat="42.15781088279292" lon="14.474619702903762"><ele>44.0</ele><time>2026-04-06T05:04:46.999Z</time></trkpt><trkpt lat="42.15790861226514" lon="14.474710019373077"><ele>44.0</ele><time>2026-04-06T05:04:48.999Z</time></trkpt><trkpt lat="42.1580039823611" lon="14.474803841028146"><ele>44.25</ele><time>2026-04-06T05:04:50.999Z</time></trkpt><trkpt lat="42.15810299622484" lon="14.474890172270023"><ele>44.5</ele><time>2026-04-06T05:04:52.999Z</time></trkpt><trkpt lat="42.158206888327975" lon="14.474972122494998"><ele>44.75</ele><time>2026-04-06T05:04:54.999Z</time></trkpt><trkpt lat="42.1583116377428" lon="14.475044147968694"><ele>45.0</ele><time>2026-04-06T05:04:56.999Z</time></trkpt><trkpt lat="42.15842324646933" lon="14.475106534703965"><ele>45.25</ele><time>2026-04-06T05:04:58.999Z</time></trkpt><trkpt lat="42.15853282139308" lon="14.475161858079723"><ele>45.5</ele><time>2026-04-06T05:05:00.999Z</time></trkpt><trkpt lat="42.15864468615147" lon="14.47521275161815"><ele>45.75</ele><time>2026-04-06T05:05:02.999Z</time></trkpt><trkpt lat="42.158755581363636" lon="14.47526204370753"><ele>46.0</ele><time>2026-04-06T05:05:04.999Z</time></trkpt><trkpt lat="42.158867838013954" lon="14.475310324588774"><ele>46.0</ele><time>2026-04-06T05:05:06.999Z</time></trkpt><trkpt lat="42.15897930000161" lon="14.475356765616073"><ele>46.0</ele><time>2026-04-06T05:05:08.999Z</time></trkpt><trkpt lat="42.15908960785617" lon="14.475408618570533"><ele>46.0</ele><time>2026-04-06T05:05:10.999Z</time></trkpt><trkpt lat="42.15919824655579" lon="14.475458051296108"><ele>46.0</ele><time>2026-04-06T05:05:12.999Z</time></trkpt><trkpt lat="42.15930500527694" lon="14.475508405253846"><ele>45.75</ele><time>2026-04-06T05:05:14.999Z</time></trkpt><trkpt lat="42.15941329014805" lon="14.475555666126219"><ele>45.5</ele><time>2026-04-06T05:05:16.999Z</time></trkpt><trkpt lat="42.159520461124494" lon="14.475603437628887"><ele>45.25</ele><time>2026-04-06T05:05:18.999Z</time></trkpt><trkpt lat="42.15963083719415" lon="14.475651000902483"><ele>45.0</ele><time>2026-04-06T05:05:20.999Z</time></trkpt><trkpt lat="42.15973892995662" lon="14.475700702042776"><ele>45.0</ele><time>2026-04-06T05:05:22.999Z</time></trkpt><trkpt lat="42.159847426673956" lon="14.475750162369085"><ele>45.0</ele><time>2026-04-06T05:05:24.999Z</time></trkpt><trkpt lat="42.1599558048119" lon="14.475797274298365"><ele>45.0</ele><time>2026-04-06T05:05:26.999Z</time></trkpt><trkpt lat="42.160065209941116" lon="14.475841656892404"><ele>45.0</ele><time>2026-04-06T05:05:28.999Z</time></trkpt><trkpt lat="42.16017243630254" lon="14.475886830084304"><ele>44.75</ele><time>2026-04-06T05:05:30.999Z</time></trkpt><trkpt lat="42.16028047562422" lon="14.475933674685944"><ele>44.5</ele><time>2026-04-06T05:05:32.999Z</time></trkpt><trkpt lat="42.16038785019875" lon="14.475987587432794"><ele>44.25</ele><time>2026-04-06T05:05:34.999Z</time></trkpt><trkpt lat="42.16049496509379" lon="14.476050998366325"><ele>44.0</ele><time>2026-04-06T05:05:36.998Z</time></trkpt><trkpt lat="42.1605926082409" lon="14.476125699388747"><ele>44.0</ele><time>2026-04-06T05:05:38.998Z</time></trkpt><trkpt lat="42.160690131515004" lon="14.476203913978466"><ele>44.0</ele><time>2026-04-06T05:05:40.998Z</time></trkpt><trkpt lat="42.16078325975583" lon="14.47627839006961"><ele>44.0</ele><time>2026-04-06T05:05:42.998Z</time></trkpt><trkpt lat="42.16087553663651" lon="14.476352806369007"><ele>44.0</ele><time>2026-04-06T05:05:44.998Z</time></trkpt><trkpt lat="42.16096901086403" lon="14.476410985220392"><ele>44.0</ele><time>2026-04-06T05:05:46.998Z</time></trkpt><trkpt lat="42.16105610112935" lon="14.476436108891258"><ele>44.0</ele><time>2026-04-06T05:05:48.998Z</time></trkpt><trkpt lat="42.16113234548825" lon="14.476388038694425"><ele>44.0</ele><time>2026-04-06T05:05:50.998Z</time></trkpt><trkpt lat="42.16119545254999" lon="14.47631818667801"><ele>44.0</ele><time>2026-04-06T05:05:52.998Z</time></trkpt><trkpt lat="42.161257152184454" lon="14.476223939388216"><ele>44.0</ele><time>2026-04-06T05:05:54.998Z</time></trkpt><trkpt lat="42.16131535331002" lon="14.476104646695925"><ele>44.0</ele><time>2026-04-06T05:05:56.998Z</time></trkpt><trkpt lat="42.161373363975024" lon="14.475973997366767"><ele>44.0</ele><time>2026-04-06T05:05:58.998Z</time></trkpt><trkpt lat="42.16143370031648" lon="14.475836116956373"><ele>44.0</ele><time>2026-04-06T05:06:00.998Z</time></trkpt><trkpt lat="42.16149326377453" lon="14.475704658580439"><ele>44.0</ele><time>2026-04-06T05:06:02.998Z</time></trkpt><trkpt lat="42.161551362707016" lon="14.475576533678998"><ele>44.0</ele><time>2026-04-06T05:06:04.998Z</time></trkpt><trkpt lat="42.161613284847874" lon="14.475442037994824"><ele>43.5</ele><time>2026-04-06T05:06:06.998Z</time></trkpt><trkpt lat="42.161674225723395" lon="14.475303369699441"><ele>43.0</ele><time>2026-04-06T05:06:08.998Z</time></trkpt><trkpt lat="42.16173597325702" lon="14.475165041445138"><ele>42.5</ele><time>2026-04-06T05:06:10.998Z</time></trkpt><trkpt lat="42.16179890185621" lon="14.475026506843488"><ele>42.0</ele><time>2026-04-06T05:06:12.998Z</time></trkpt><trkpt lat="42.16186029221745" lon="14.47488788138102"><ele>42.0</ele><time>2026-04-06T05:06:14.998Z</time></trkpt><trkpt lat="42.16192286846466" lon="14.474749076171186"><ele>42.0</ele><time>2026-04-06T05:06:16.998Z</time></trkpt><trkpt lat="42.161986595967655" lon="14.474612213633538"><ele>42.0</ele><time>2026-04-06T05:06:18.998Z</time></trkpt><trkpt lat="42.16205280990475" lon="14.474477148161705"><ele>42.0</ele><time>2026-04-06T05:06:21Z</time></trkpt><trkpt lat="42.162130887938034" lon="14.474346261007467"><ele>42.0</ele><time>2026-04-06T05:06:23Z</time></trkpt><trkpt lat="42.162214017240736" lon="14.474224638596553"><ele>42.0</ele><time>2026-04-06T05:06:25Z</time></trkpt><trkpt lat="42.162307271393956" lon="14.474116485237877"><ele>42.0</ele><time>2026-04-06T05:06:27Z</time></trkpt><trkpt lat="42.16239814081376" lon="14.474008349798405"><ele>42.0</ele><time>2026-04-06T05:06:29Z</time></trkpt><trkpt lat="42.16249282244483" lon="14.47390473538115"><ele>42.0</ele><time>2026-04-06T05:06:31Z</time></trkpt><trkpt lat="42.16258769261429" lon="14.4738025897826"><ele>42.0</ele><time>2026-04-06T05:06:33Z</time></trkpt><trkpt lat="42.162680871301085" lon="14.473699465503959"><ele>42.0</ele><time>2026-04-06T05:06:35Z</time></trkpt><trkpt lat="42.162777160527696" lon="14.473595213649128"><ele>42.0</ele><time>2026-04-06T05:06:37Z</time></trkpt><trkpt lat="42.16287775750678" lon="14.473495662646979"><ele>42.0</ele><time>2026-04-06T05:06:39Z</time></trkpt><trkpt lat="42.162989029367445" lon="14.473417316671256"><ele>42.0</ele><time>2026-04-06T05:06:41Z</time></trkpt><trkpt lat="42.16310347069399" lon="14.473357218900262"><ele>42.0</ele><time>2026-04-06T05:06:43Z</time></trkpt><trkpt lat="42.16321753218882" lon="14.473303410848176"><ele>42.0</ele><time>2026-04-06T05:06:44.999Z</time></trkpt><trkpt lat="42.16333385300071" lon="14.47325171082427"><ele>42.0</ele><time>2026-04-06T05:06:46.999Z</time></trkpt><trkpt lat="42.163448803824075" lon="14.473199785425956"><ele>42.0</ele><time>2026-04-06T05:06:48.999Z</time></trkpt><trkpt lat="42.16356410869195" lon="14.473150125353074"><ele>42.0</ele><time>2026-04-06T05:06:50.999Z</time></trkpt><trkpt lat="42.16367792625819" lon="14.473096887096938"><ele>42.0</ele><time>2026-04-06T05:06:52.999Z</time></trkpt><trkpt lat="42.163791360044975" lon="14.473045652569278"><ele>42.0</ele><time>2026-04-06T05:06:54.999Z</time></trkpt><trkpt lat="42.16390186705759" lon="14.472996318997302"><ele>42.0</ele><time>2026-04-06T05:06:56.999Z</time></trkpt><trkpt lat="42.16401171370582" lon="14.472945145623525"><ele>42.0</ele><time>2026-04-06T05:06:58.999Z</time></trkpt><trkpt lat="42.164122117024306" lon="14.47289767081576"><ele>42.0</ele><time>2026-04-06T05:07:00.999Z</time></trkpt><trkpt lat="42.164229625377004" lon="14.472844691393046"><ele>41.5</ele><time>2026-04-06T05:07:02.999Z</time></trkpt><trkpt lat="42.164335848152724" lon="14.47279268589497"><ele>41.0</ele><time>2026-04-06T05:07:04.999Z</time></trkpt><trkpt lat="42.164443720210215" lon="14.472742910761632"><ele>40.5</ele><time>2026-04-06T05:07:06.999Z</time></trkpt><trkpt lat="42.16455111543286" lon="14.472686266301231"><ele>40.0</ele><time>2026-04-06T05:07:08.999Z</time></trkpt><trkpt lat="42.16465450632341" lon="14.472614403424414"><ele>40.0</ele><time>2026-04-06T05:07:10.999Z</time></trkpt><trkpt lat="42.16475675224439" lon="14.472536249554455"><ele>40.0</ele><time>2026-04-06T05:07:12.999Z</time></trkpt><trkpt lat="42.16485429765914" lon="14.47245789276344"><ele>40.0</ele><time>2026-04-06T05:07:14.999Z</time></trkpt><trkpt lat="42.16495361956104" lon="14.472392636445065"><ele>40.0</ele><time>2026-04-06T05:07:16.999Z</time></trkpt><trkpt lat="42.16505621968089" lon="14.472325017377038"><ele>40.2</ele><time>2026-04-06T05:07:18.999Z</time></trkpt><trkpt lat="42.16515454206587" lon="14.472248727754586"><ele>40.4</ele><time>2026-04-06T05:07:20.999Z</time></trkpt><trkpt lat="42.16524952611826" lon="14.472174634425407"><ele>40.599999999999994</ele><time>2026-04-06T05:07:22.999Z</time></trkpt><trkpt lat="42.16533710259012" lon="14.47210124759662"><ele>40.8</ele><time>2026-04-06T05:07:24.999Z</time></trkpt><trkpt lat="42.165416636838664" lon="14.472028521389685"><ele>41.0</ele><time>2026-04-06T05:07:26.999Z</time></trkpt><trkpt lat="42.16547232969158" lon="14.47197942663471"><ele>40.99999999999999</ele><time>2026-04-06T05:07:28.999Z</time></trkpt><trkpt lat="42.16551472749633" lon="14.471892228730841"><ele>41.0</ele><time>2026-04-06T05:07:32.999Z</time></trkpt><trkpt lat="42.16556018120698" lon="14.471829914963777"><ele>41.0</ele><time>2026-04-06T05:07:34.999Z</time></trkpt><trkpt lat="42.16560661285523" lon="14.471770132692647"><ele>41.0</ele><time>2026-04-06T05:07:36.999Z</time></trkpt><trkpt lat="42.16565492695841" lon="14.471715577203492"><ele>41.0</ele><time>2026-04-06T05:07:38.998Z</time></trkpt><trkpt lat="42.16569539860765" lon="14.471639004562686"><ele>40.99999999999999</ele><time>2026-04-06T05:07:40.998Z</time></trkpt><trkpt lat="42.16574635850605" lon="14.471573836086847"><ele>41.0</ele><time>2026-04-06T05:07:42.998Z</time></trkpt><trkpt lat="42.165809516743224" lon="14.471517468164077"><ele>41.0</ele><time>2026-04-06T05:07:44.998Z</time></trkpt><trkpt lat="42.16587275900012" lon="14.471450371420477"><ele>41.0</ele><time>2026-04-06T05:07:46.998Z</time></trkpt><trkpt lat="42.16593727515892" lon="14.47138007051864"><ele>41.0</ele><time>2026-04-06T05:07:48.998Z</time></trkpt><trkpt lat="42.166002638536995" lon="14.471306297875968"><ele>41.0</ele><time>2026-04-06T05:07:50.998Z</time></trkpt><trkpt lat="42.16607118986488" lon="14.471226692030507"><ele>41.0</ele><time>2026-04-06T05:07:52.998Z</time></trkpt><trkpt lat="42.16614009891655" lon="14.471150998231481"><ele>41.0</ele><time>2026-04-06T05:07:54.998Z</time></trkpt><trkpt lat="42.16621052386598" lon="14.47107274759918"><ele>41.0</ele><time>2026-04-06T05:07:56.998Z</time></trkpt><trkpt lat="42.16628183819051" lon="14.470990917647242"><ele>41.0</ele><time>2026-04-06T05:07:58.998Z</time></trkpt><trkpt lat="42.16635755436028" lon="14.470909810079021"><ele>41.0</ele><time>2026-04-06T05:08:00.998Z</time></trkpt><trkpt lat="42.166432771533884" lon="14.470828646391498"><ele>41.0</ele><time>2026-04-06T05:08:02.998Z</time></trkpt><trkpt lat="42.16650217870897" lon="14.470754879464653"><ele>41.0</ele><time>2026-04-06T05:08:04.998Z</time></trkpt><trkpt lat="42.16657872239775" lon="14.470676786735986"><ele>40.8</ele><time>2026-04-06T05:08:06.998Z</time></trkpt><trkpt lat="42.16665962530607" lon="14.470601363798776"><ele>40.599999999999994</ele><time>2026-04-06T05:08:08.998Z</time></trkpt><trkpt lat="42.16673799456582" lon="14.47052698954124"><ele>40.4</ele><time>2026-04-06T05:08:10.998Z</time></trkpt><trkpt lat="42.166818844746565" lon="14.470451875632364"><ele>40.2</ele><time>2026-04-06T05:08:12.998Z</time></trkpt><trkpt lat="42.16690181250988" lon="14.470387879269552"><ele>40.0</ele><time>2026-04-06T05:08:14.998Z</time></trkpt><trkpt lat="42.166989892810655" lon="14.470322847154451"><ele>40.0</ele><time>2026-04-06T05:08:16.998Z</time></trkpt><trkpt lat="42.16708618697018" lon="14.470256229031104"><ele>40.0</ele><time>2026-04-06T05:08:18.998Z</time></trkpt><trkpt lat="42.16719261459571" lon="14.470212453682285"><ele>40.0</ele><time>2026-04-06T05:08:20.998Z</time></trkpt><trkpt lat="42.167290462780365" lon="14.470143253078007"><ele>40.0</ele><time>2026-04-06T05:08:22.998Z</time></trkpt><trkpt lat="42.1673906877479" lon="14.47007146576115"><ele>40.0</ele><time>2026-04-06T05:08:24.998Z</time></trkpt><trkpt lat="42.16749424175417" lon="14.469997293861239"><ele>40.0</ele><time>2026-04-06T05:08:27Z</time></trkpt><trkpt lat="42.16758539218143" lon="14.469900422521219"><ele>40.0</ele><time>2026-04-06T05:08:29Z</time></trkpt><trkpt lat="42.167687846679726" lon="14.46982880302499"><ele>40.0</ele><time>2026-04-06T05:08:31Z</time></trkpt><trkpt lat="42.167788140503404" lon="14.469757260985197"><ele>40.0</ele><time>2026-04-06T05:08:33Z</time></trkpt><trkpt lat="42.16788773872906" lon="14.469687240125511"><ele>40.0</ele><time>2026-04-06T05:08:35Z</time></trkpt><trkpt lat="42.167988831094235" lon="14.469621053538699"><ele>40.0</ele><time>2026-04-06T05:08:37Z</time></trkpt><trkpt lat="42.16808672894377" lon="14.469553028006382"><ele>40.0</ele><time>2026-04-06T05:08:39Z</time></trkpt><trkpt lat="42.16818528686511" lon="14.469481479399047"><ele>40.0</ele><time>2026-04-06T05:08:41Z</time></trkpt><trkpt lat="42.1682864064115" lon="14.469412231509066"><ele>40.0</ele><time>2026-04-06T05:08:43Z</time></trkpt><trkpt lat="42.16839026794091" lon="14.469346395122026"><ele>40.2</ele><time>2026-04-06T05:08:45Z</time></trkpt><trkpt lat="42.16849230508114" lon="14.469281754785959"><ele>40.4</ele><time>2026-04-06T05:08:46.999Z</time></trkpt><trkpt lat="42.16859387890364" lon="14.469223493068021"><ele>40.599999999999994</ele><time>2026-04-06T05:08:48.999Z</time></trkpt><trkpt lat="42.168696408417375" lon="14.469174269525675"><ele>40.8</ele><time>2026-04-06T05:08:50.999Z</time></trkpt><trkpt lat="42.16880141927429" lon="14.469179531914879"><ele>41.0</ele><time>2026-04-06T05:08:52.999Z</time></trkpt><trkpt lat="42.1688987000749" lon="14.469246040458797"><ele>41.0</ele><time>2026-04-06T05:08:54.999Z</time></trkpt><trkpt lat="42.16899733172712" lon="14.469324971489018"><ele>41.0</ele><time>2026-04-06T05:08:56.999Z</time></trkpt><trkpt lat="42.16909640370607" lon="14.469405085242617"><ele>41.0</ele><time>2026-04-06T05:08:58.999Z</time></trkpt><trkpt lat="42.169196723967005" lon="14.469482268891799"><ele>41.0</ele><time>2026-04-06T05:09:00.999Z</time></trkpt><trkpt lat="42.169299484155964" lon="14.46955525611864"><ele>41.0</ele><time>2026-04-06T05:09:02.999Z</time></trkpt><trkpt lat="42.16940206688549" lon="14.4696242382723"><ele>41.0</ele><time>2026-04-06T05:09:04.999Z</time></trkpt><trkpt lat="42.169504663917664" lon="14.46968051061364"><ele>41.0</ele><time>2026-04-06T05:09:06.999Z</time></trkpt><trkpt lat="42.16961146857062" lon="14.469706317907471"><ele>41.0</ele><time>2026-04-06T05:09:08.999Z</time></trkpt><trkpt lat="42.16971788785214" lon="14.46973205742702"><ele>41.0</ele><time>2026-04-06T05:09:10.999Z</time></trkpt><trkpt lat="42.169824180671945" lon="14.469765177893137"><ele>42.0</ele><time>2026-04-06T05:09:12.999Z</time></trkpt><trkpt lat="42.169933027561974" lon="14.469800941214844"><ele>43.0</ele><time>2026-04-06T05:09:14.999Z</time></trkpt><trkpt lat="42.170043570478576" lon="14.469850549721329"><ele>44.0</ele><time>2026-04-06T05:09:16.999Z</time></trkpt><trkpt lat="42.17014296137465" lon="14.469934358353669"><ele>45.0</ele><time>2026-04-06T05:09:18.999Z</time></trkpt><trkpt lat="42.17022420031324" lon="14.47005630823729"><ele>45.0</ele><time>2026-04-06T05:09:20.999Z</time></trkpt><trkpt lat="42.17028909607161" lon="14.470193379648554"><ele>45.0</ele><time>2026-04-06T05:09:22.999Z</time></trkpt><trkpt lat="42.17035363164457" lon="14.470329447633501"><ele>45.0</ele><time>2026-04-06T05:09:24.999Z</time></trkpt><trkpt lat="42.17041523095257" lon="14.470465005423572"><ele>45.0</ele><time>2026-04-06T05:09:26.999Z</time></trkpt><trkpt lat="42.170480937781385" lon="14.470596472556224"><ele>44.75</ele><time>2026-04-06T05:09:28.999Z</time></trkpt><trkpt lat="42.170541852802664" lon="14.47072895284088"><ele>44.5</ele><time>2026-04-06T05:09:30.999Z</time></trkpt><trkpt lat="42.170603894109895" lon="14.470859801001605"><ele>44.25</ele><time>2026-04-06T05:09:32.999Z</time></trkpt><trkpt lat="42.17066890806648" lon="14.470989936426593"><ele>44.0</ele><time>2026-04-06T05:09:34.999Z</time></trkpt><trkpt lat="42.1707312445436" lon="14.471121653657645"><ele>44.0</ele><time>2026-04-06T05:09:36.999Z</time></trkpt><trkpt lat="42.170797141037866" lon="14.47125183819477"><ele>44.0</ele><time>2026-04-06T05:09:38.999Z</time></trkpt><trkpt lat="42.17087098135676" lon="14.47137448462127"><ele>44.0</ele><time>2026-04-06T05:09:40.999Z</time></trkpt><trkpt lat="42.17095759204737" lon="14.471486076095179"><ele>44.0</ele><time>2026-04-06T05:09:42.998Z</time></trkpt><trkpt lat="42.17105155168068" lon="14.471586234517225"><ele>42.75</ele><time>2026-04-06T05:09:44.998Z</time></trkpt><trkpt lat="42.171156025773406" lon="14.471653144146249"><ele>41.5</ele><time>2026-04-06T05:09:46.998Z</time></trkpt><trkpt lat="42.171259298325786" lon="14.47171281406605"><ele>40.25</ele><time>2026-04-06T05:09:48.998Z</time></trkpt><trkpt lat="42.17136386441454" lon="14.471768859605016"><ele>39.0</ele><time>2026-04-06T05:09:50.998Z</time></trkpt><trkpt lat="42.171469356034095" lon="14.471826526281282"><ele>39.25</ele><time>2026-04-06T05:09:52.998Z</time></trkpt><trkpt lat="42.17157084639015" lon="14.47189111585158"><ele>39.5</ele><time>2026-04-06T05:09:54.998Z</time></trkpt><trkpt lat="42.17167176069877" lon="14.471956532741066"><ele>39.75</ele><time>2026-04-06T05:09:56.998Z</time></trkpt><trkpt lat="42.17177449181423" lon="14.472019824403304"><ele>40.0</ele><time>2026-04-06T05:09:58.998Z</time></trkpt><trkpt lat="42.17187864971066" lon="14.472082647520693"><ele>39.75</ele><time>2026-04-06T05:10:00.998Z</time></trkpt><trkpt lat="42.171981340488855" lon="14.472148514973055"><ele>39.5</ele><time>2026-04-06T05:10:02.998Z</time></trkpt><trkpt lat="42.172086048678935" lon="14.472205737696225"><ele>39.25</ele><time>2026-04-06T05:10:04.998Z</time></trkpt><trkpt lat="42.1721942938549" lon="14.47225649954639"><ele>39.0</ele><time>2026-04-06T05:10:06.998Z</time></trkpt><trkpt lat="42.17230272515953" lon="14.472310076159664"><ele>39.25</ele><time>2026-04-06T05:10:08.998Z</time></trkpt><trkpt lat="42.17241314939839" lon="14.47236906796629"><ele>39.5</ele><time>2026-04-06T05:10:10.998Z</time></trkpt><trkpt lat="42.172525114162376" lon="14.472418330568365"><ele>39.75</ele><time>2026-04-06T05:10:12.998Z</time></trkpt><trkpt lat="42.17263728871486" lon="14.472473992736127"><ele>40.0</ele><time>2026-04-06T05:10:14.998Z</time></trkpt><trkpt lat="42.17275039413118" lon="14.472524543828834"><ele>40.0</ele><time>2026-04-06T05:10:16.998Z</time></trkpt><trkpt lat="42.17286770388547" lon="14.472571122097033"><ele>40.0</ele><time>2026-04-06T05:10:18.998Z</time></trkpt><trkpt lat="42.17298269721609" lon="14.472617722637432"><ele>40.0</ele><time>2026-04-06T05:10:20.998Z</time></trkpt><trkpt lat="42.173098685812604" lon="14.472657814433614"><ele>40.0</ele><time>2026-04-06T05:10:22.998Z</time></trkpt><trkpt lat="42.173219257815106" lon="14.472686184457045"><ele>40.5</ele><time>2026-04-06T05:10:24.998Z</time></trkpt><trkpt lat="42.17334085637319" lon="14.472700290077364"><ele>41.0</ele><time>2026-04-06T05:10:26.998Z</time></trkpt><trkpt lat="42.17346092595788" lon="14.472702968187498"><ele>41.5</ele><time>2026-04-06T05:10:28.998Z</time></trkpt><trkpt lat="42.1735790264985" lon="14.472716227590418"><ele>42.0</ele><time>2026-04-06T05:10:30.998Z</time></trkpt><trkpt lat="42.173695572562096" lon="14.472727924824989"><ele>42.0</ele><time>2026-04-06T05:10:33Z</time></trkpt><trkpt lat="42.173817412548914" lon="14.472734187077744"><ele>42.0</ele><time>2026-04-06T05:10:35Z</time></trkpt><trkpt lat="42.17393886100411" lon="14.472735703546428"><ele>42.0</ele><time>2026-04-06T05:10:37Z</time></trkpt><trkpt lat="42.174061232057205" lon="14.472738290273456"><ele>42.0</ele><time>2026-04-06T05:10:39Z</time></trkpt><trkpt lat="42.17418194900114" lon="14.472736814732523"><ele>41.75</ele><time>2026-04-06T05:10:41Z</time></trkpt><trkpt lat="42.17430512225866" lon="14.472736272873592"><ele>41.5</ele><time>2026-04-06T05:10:43Z</time></trkpt><trkpt lat="42.17442788949043" lon="14.472727962895421"><ele>41.25</ele><time>2026-04-06T05:10:45Z</time></trkpt><trkpt lat="42.17455010778709" lon="14.472724246860492"><ele>41.0</ele><time>2026-04-06T05:10:47Z</time></trkpt><trkpt lat="42.17466930208597" lon="14.47272844897161"><ele>41.0</ele><time>2026-04-06T05:10:48.999Z</time></trkpt><trkpt lat="42.17478207746138" lon="14.472747237700563"><ele>41.0</ele><time>2026-04-06T05:10:50.999Z</time></trkpt><trkpt lat="42.17490732178883" lon="14.472766257112738"><ele>41.0</ele><time>2026-04-06T05:10:52.999Z</time></trkpt><trkpt lat="42.17502468836245" lon="14.472798363077064"><ele>41.0</ele><time>2026-04-06T05:10:54.999Z</time></trkpt><trkpt lat="42.17514419701878" lon="14.472833416147932"><ele>40.5</ele><time>2026-04-06T05:10:56.999Z</time></trkpt><trkpt lat="42.175255363778085" lon="14.472871083171563"><ele>40.0</ele><time>2026-04-06T05:10:58.999Z</time></trkpt><trkpt lat="42.175365209381965" lon="14.472913475882356"><ele>39.5</ele><time>2026-04-06T05:11:00.999Z</time></trkpt><trkpt lat="42.175474755885865" lon="14.472958754321668"><ele>39.0</ele><time>2026-04-06T05:11:02.999Z</time></trkpt><trkpt lat="42.17557896971257" lon="14.473016393262904"><ele>39.0</ele><time>2026-04-06T05:11:04.999Z</time></trkpt><trkpt lat="42.17568524181903" lon="14.473073222057996"><ele>39.0</ele><time>2026-04-06T05:11:06.999Z</time></trkpt><trkpt lat="42.17578868268796" lon="14.473136149736249"><ele>39.0</ele><time>2026-04-06T05:11:08.999Z</time></trkpt><trkpt lat="42.175890032263645" lon="14.473201033875018"><ele>39.0</ele><time>2026-04-06T05:11:10.999Z</time></trkpt><trkpt lat="42.17599357480235" lon="14.47327079795653"><ele>39.25</ele><time>2026-04-06T05:11:12.999Z</time></trkpt><trkpt lat="42.1760931641413" lon="14.473346165001558"><ele>39.5</ele><time>2026-04-06T05:11:14.999Z</time></trkpt><trkpt lat="42.17619253461467" lon="14.473418677795955"><ele>39.75</ele><time>2026-04-06T05:11:16.999Z</time></trkpt><trkpt lat="42.17629384216021" lon="14.473488167014665"><ele>40.0</ele><time>2026-04-06T05:11:18.999Z</time></trkpt><trkpt lat="42.1763955140613" lon="14.473560662595128"><ele>40.0</ele><time>2026-04-06T05:11:20.999Z</time></trkpt><trkpt lat="42.176500153406096" lon="14.473627723589809"><ele>40.0</ele><time>2026-04-06T05:11:22.999Z</time></trkpt><trkpt lat="42.176607061011474" lon="14.473694778675691"><ele>40.0</ele><time>2026-04-06T05:11:24.999Z</time></trkpt><trkpt lat="42.17671142727949" lon="14.473765027755675"><ele>40.0</ele><time>2026-04-06T05:11:26.999Z</time></trkpt><trkpt lat="42.17681468311893" lon="14.473831703075403"><ele>39.0</ele><time>2026-04-06T05:11:28.999Z</time></trkpt><trkpt lat="42.17692237294053" lon="14.473887363085021"><ele>38.0</ele><time>2026-04-06T05:11:30.999Z</time></trkpt><trkpt lat="42.177032987370545" lon="14.47393351775652"><ele>37.0</ele><time>2026-04-06T05:11:32.999Z</time></trkpt><trkpt lat="42.177151241269584" lon="14.473955524074517"><ele>36.0</ele><time>2026-04-06T05:11:34.999Z</time></trkpt><trkpt lat="42.177263471355516" lon="14.473981421078745"><ele>37.0</ele><time>2026-04-06T05:11:36.999Z</time></trkpt><trkpt lat="42.17738108028062" lon="14.473997341827621"><ele>38.0</ele><time>2026-04-06T05:11:38.999Z</time></trkpt><trkpt lat="42.177497503315884" lon="14.474019235863842"><ele>39.0</ele><time>2026-04-06T05:11:40.999Z</time></trkpt><trkpt lat="42.17761859644354" lon="14.474037645235114"><ele>40.0</ele><time>2026-04-06T05:11:42.998Z</time></trkpt><trkpt lat="42.177737659535495" lon="14.474057326751256"><ele>40.0</ele><time>2026-04-06T05:11:44.998Z</time></trkpt><trkpt lat="42.17785566212128" lon="14.474076883888504"><ele>40.0</ele><time>2026-04-06T05:11:46.998Z</time></trkpt><trkpt lat="42.17797798662766" lon="14.474096411095456"><ele>40.0</ele><time>2026-04-06T05:11:48.998Z</time></trkpt><trkpt lat="42.17810125093123" lon="14.47411413150598"><ele>40.0</ele><time>2026-04-06T05:11:50.998Z</time></trkpt><trkpt lat="42.17822181709947" lon="14.47413715390831"><ele>40.25</ele><time>2026-04-06T05:11:52.998Z</time></trkpt><trkpt lat="42.1783429513244" lon="14.474154728308156"><ele>40.5</ele><time>2026-04-06T05:11:54.998Z</time></trkpt><trkpt lat="42.17846336467492" lon="14.474179761234568"><ele>40.75</ele><time>2026-04-06T05:11:56.998Z</time></trkpt><trkpt lat="42.17858196698586" lon="14.474217542790992"><ele>41.0</ele><time>2026-04-06T05:11:58.998Z</time></trkpt><trkpt lat="42.178698545645055" lon="14.474270848815971"><ele>41.0</ele><time>2026-04-06T05:12:00.998Z</time></trkpt><trkpt lat="42.17875289067644" lon="14.474316923415563"><ele>41.0</ele><time>2026-04-06T05:12:01.998Z</time></trkpt><trkpt lat="42.17881912180164" lon="14.474459775632873"><ele>41.0</ele><time>2026-04-06T05:12:03.998Z</time></trkpt><trkpt lat="42.17883368603338" lon="14.474544155043326"><ele>41.0</ele><time>2026-04-06T05:12:04.998Z</time></trkpt><trkpt lat="42.178845061907914" lon="14.474709519135953"><ele>41.0</ele><time>2026-04-06T05:12:06.998Z</time></trkpt><trkpt lat="42.178862894605096" lon="14.474867786756919"><ele>40.4</ele><time>2026-04-06T05:12:08.998Z</time></trkpt><trkpt lat="42.1788992395688" lon="14.475022557239297"><ele>39.8</ele><time>2026-04-06T05:12:10.998Z</time></trkpt><trkpt lat="42.17897106103724" lon="14.475154777383324"><ele>39.199999999999996</ele><time>2026-04-06T05:12:12.998Z</time></trkpt><trkpt lat="42.179012511119836" lon="14.475219483401347"><ele>38.599999999999994</ele><time>2026-04-06T05:12:13.998Z</time></trkpt><trkpt lat="42.179091167845534" lon="14.475346016681128"><ele>38.0</ele><time>2026-04-06T05:12:15.998Z</time></trkpt><trkpt lat="42.17913192345192" lon="14.475410803320882"><ele>38.0</ele><time>2026-04-06T05:12:16.998Z</time></trkpt><trkpt lat="42.17920728967705" lon="14.475551815908073"><ele>38.0</ele><time>2026-04-06T05:12:18.998Z</time></trkpt><trkpt lat="42.17923751720505" lon="14.475628225673887"><ele>38.0</ele><time>2026-04-06T05:12:19.998Z</time></trkpt><trkpt lat="42.179264339043634" lon="14.475705494686263"><ele>38.0</ele><time>2026-04-06T05:12:20.998Z</time></trkpt><trkpt lat="42.17928879551834" lon="14.475786175385423"><ele>38.0</ele><time>2026-04-06T05:12:21.998Z</time></trkpt><trkpt lat="42.17931569748205" lon="14.47586876439495"><ele>38.0</ele><time>2026-04-06T05:12:22.998Z</time></trkpt><trkpt lat="42.17934051070032" lon="14.475950202910155"><ele>38.0</ele><time>2026-04-06T05:12:23.998Z</time></trkpt><trkpt lat="42.1793640810437" lon="14.47603434050943"><ele>38.0</ele><time>2026-04-06T05:12:24.998Z</time></trkpt><trkpt lat="42.1793929100361" lon="14.476110790400645"><ele>38.0</ele><time>2026-04-06T05:12:25.998Z</time></trkpt><trkpt lat="42.179420597665754" lon="14.4761896874443"><ele>38.0</ele><time>2026-04-06T05:12:26.998Z</time></trkpt><trkpt lat="42.179457698971824" lon="14.476263749563529"><ele>38.0</ele><time>2026-04-06T05:12:27.998Z</time></trkpt><trkpt lat="42.17953586251324" lon="14.476395283184235"><ele>38.0</ele><time>2026-04-06T05:12:29.998Z</time></trkpt><trkpt lat="42.17962343075391" lon="14.47651705420738"><ele>37.83333333333333</ele><time>2026-04-06T05:12:31.998Z</time></trkpt><trkpt lat="42.17971344581221" lon="14.476636315603288"><ele>37.666666666666664</ele><time>2026-04-06T05:12:33.998Z</time></trkpt><trkpt lat="42.179764604310314" lon="14.476687424219541"><ele>37.5</ele><time>2026-04-06T05:12:34.998Z</time></trkpt><trkpt lat="42.17981697257676" lon="14.476737231741618"><ele>37.333333333333336</ele><time>2026-04-06T05:12:35.998Z</time></trkpt><trkpt lat="42.17992151275621" lon="14.47683172296788"><ele>37.16666666666667</ele><time>2026-04-06T05:12:37.999Z</time></trkpt><trkpt lat="42.17997676848011" lon="14.476875390089036"><ele>37.0</ele><time>2026-04-06T05:12:39Z</time></trkpt><trkpt lat="42.180034220551654" lon="14.47691588087321"><ele>37.0</ele><time>2026-04-06T05:12:39.999Z</time></trkpt><trkpt lat="42.180145564314095" lon="14.476998359401138"><ele>37.0</ele><time>2026-04-06T05:12:42Z</time></trkpt><trkpt lat="42.180256933029774" lon="14.477077289511131"><ele>37.0</ele><time>2026-04-06T05:12:43.999Z</time></trkpt><trkpt lat="42.18036581740135" lon="14.477154357517932"><ele>37.0</ele><time>2026-04-06T05:12:45.999Z</time></trkpt><trkpt lat="42.18047447047229" lon="14.477230887255457"><ele>37.0</ele><time>2026-04-06T05:12:47.999Z</time></trkpt><trkpt lat="42.18058153846889" lon="14.477308303109403"><ele>37.0</ele><time>2026-04-06T05:12:50Z</time></trkpt><trkpt lat="42.18068902521583" lon="14.477388053796858"><ele>37.0</ele><time>2026-04-06T05:12:52Z</time></trkpt><trkpt lat="42.180798160610166" lon="14.477463802931052"><ele>37.0</ele><time>2026-04-06T05:12:54Z</time></trkpt><trkpt lat="42.18090690471805" lon="14.47754276732127"><ele>37.0</ele><time>2026-04-06T05:12:56Z</time></trkpt><trkpt lat="42.181017058544946" lon="14.47761267828006"><ele>37.0</ele><time>2026-04-06T05:12:58Z</time></trkpt><trkpt lat="42.18113185793447" lon="14.477675297706284"><ele>37.0</ele><time>2026-04-06T05:13:00Z</time></trkpt><trkpt lat="42.18124850892058" lon="14.477730311147207"><ele>37.0</ele><time>2026-04-06T05:13:02Z</time></trkpt><trkpt lat="42.18136556422475" lon="14.477782791548051"><ele>37.0</ele><time>2026-04-06T05:13:04Z</time></trkpt><trkpt lat="42.181481433901375" lon="14.477830446739473"><ele>37.0</ele><time>2026-04-06T05:13:06Z</time></trkpt><trkpt lat="42.18159597229068" lon="14.477880880930302"><ele>37.0</ele><time>2026-04-06T05:13:08Z</time></trkpt><trkpt lat="42.18170854382813" lon="14.477941708266847"><ele>37.0</ele><time>2026-04-06T05:13:10Z</time></trkpt><trkpt lat="42.18180548427571" lon="14.478038395570113"><ele>37.0</ele><time>2026-04-06T05:13:12Z</time></trkpt><trkpt lat="42.181888023047435" lon="14.478162724391044"><ele>37.0</ele><time>2026-04-06T05:13:14Z</time></trkpt><trkpt lat="42.181950558939185" lon="14.478307687839955"><ele>37.0</ele><time>2026-04-06T05:13:16Z</time></trkpt><trkpt lat="42.18201616023855" lon="14.478452094108066"><ele>37.0</ele><time>2026-04-06T05:13:18Z</time></trkpt><trkpt lat="42.18208374814078" lon="14.478598940302952"><ele>37.0</ele><time>2026-04-06T05:13:20Z</time></trkpt><trkpt lat="42.1821462563673" lon="14.47874457513677"><ele>37.0</ele><time>2026-04-06T05:13:22Z</time></trkpt><trkpt lat="42.18222482119645" lon="14.478875174267067"><ele>37.0</ele><time>2026-04-06T05:13:24Z</time></trkpt><trkpt lat="42.182273797029325" lon="14.478930371348762"><ele>37.0</ele><time>2026-04-06T05:13:25Z</time></trkpt><trkpt lat="42.182369515372905" lon="14.479038041056018"><ele>37.0</ele><time>2026-04-06T05:13:27Z</time></trkpt><trkpt lat="42.18247602208565" lon="14.47913134462778"><ele>36.5</ele><time>2026-04-06T05:13:29Z</time></trkpt><trkpt lat="42.182588627331256" lon="14.479207508531875"><ele>36.0</ele><time>2026-04-06T05:13:31Z</time></trkpt><trkpt lat="42.18270341004083" lon="14.479276781922794"><ele>35.5</ele><time>2026-04-06T05:13:33Z</time></trkpt><trkpt lat="42.18281473263364" lon="14.479355811603604"><ele>35.0</ele><time>2026-04-06T05:13:35Z</time></trkpt><trkpt lat="42.18292473012775" lon="14.479428826426457"><ele>35.0</ele><time>2026-04-06T05:13:37Z</time></trkpt><trkpt lat="42.1830361628481" lon="14.479499386402487"><ele>35.0</ele><time>2026-04-06T05:13:39Z</time></trkpt><trkpt lat="42.18315133664393" lon="14.47956158399663"><ele>35.0</ele><time>2026-04-06T05:13:41Z</time></trkpt><trkpt lat="42.18326608140995" lon="14.47962126560289"><ele>35.0</ele><time>2026-04-06T05:13:43Z</time></trkpt><trkpt lat="42.183382957457994" lon="14.479681265285226"><ele>35.0</ele><time>2026-04-06T05:13:45Z</time></trkpt><trkpt lat="42.183499930050715" lon="14.4797367110807"><ele>35.0</ele><time>2026-04-06T05:13:47Z</time></trkpt><trkpt lat="42.183617630239084" lon="14.479786182975749"><ele>35.0</ele><time>2026-04-06T05:13:48.999Z</time></trkpt><trkpt lat="42.18367797066937" lon="14.479813693647168"><ele>35.0</ele><time>2026-04-06T05:13:49.999Z</time></trkpt><trkpt lat="42.18376788307464" lon="14.479924338197298"><ele>35.0</ele><time>2026-04-06T05:13:51.999Z</time></trkpt><trkpt lat="42.183787730975844" lon="14.48000657908716"><ele>35.0</ele><time>2026-04-06T05:13:52.999Z</time></trkpt><trkpt lat="42.18379227360714" lon="14.480094656797682"><ele>35.0</ele><time>2026-04-06T05:13:53.999Z</time></trkpt><trkpt lat="42.18377991238849" lon="14.48018342382276"><ele>35.0</ele><time>2026-04-06T05:13:54.999Z</time></trkpt><trkpt lat="42.183746571812016" lon="14.480262134198526"><ele>35.0</ele><time>2026-04-06T05:13:55.999Z</time></trkpt><trkpt lat="42.18370398236847" lon="14.480328108733676"><ele>35.0</ele><time>2026-04-06T05:13:56.999Z</time></trkpt><trkpt lat="42.183618788333135" lon="14.480445351441338"><ele>35.0</ele><time>2026-04-06T05:13:58.999Z</time></trkpt><trkpt lat="42.18354582784746" lon="14.480570171047757"><ele>34.25</ele><time>2026-04-06T05:14:00.999Z</time></trkpt><trkpt lat="42.183468882822595" lon="14.480688864199216"><ele>33.5</ele><time>2026-04-06T05:14:02.999Z</time></trkpt><trkpt lat="42.18340444011712" lon="14.480818433812795"><ele>32.75</ele><time>2026-04-06T05:14:04.999Z</time></trkpt><trkpt lat="42.18336768258916" lon="14.480966796508824"><ele>32.0</ele><time>2026-04-06T05:14:06.999Z</time></trkpt><trkpt lat="42.18336360994935" lon="14.481126701983337"><ele>31.75</ele><time>2026-04-06T05:14:08.999Z</time></trkpt><trkpt lat="42.18337345400207" lon="14.481287430469177"><ele>31.5</ele><time>2026-04-06T05:14:10.999Z</time></trkpt><trkpt lat="42.18338230479872" lon="14.48144926558513"><ele>31.25</ele><time>2026-04-06T05:14:12.999Z</time></trkpt><trkpt lat="42.183386320402214" lon="14.481613210410286"><ele>31.0</ele><time>2026-04-06T05:14:14.999Z</time></trkpt><trkpt lat="42.18337950063869" lon="14.481778171922365"><ele>31.0</ele><time>2026-04-06T05:14:16.999Z</time></trkpt><trkpt lat="42.18335792585864" lon="14.481931145403008"><ele>31.0</ele><time>2026-04-06T05:14:18.999Z</time></trkpt><trkpt lat="42.18332822426633" lon="14.482075318278856"><ele>31.0</ele><time>2026-04-06T05:14:20.999Z</time></trkpt><trkpt lat="42.18330019857545" lon="14.482216004432214"><ele>31.0</ele><time>2026-04-06T05:14:22.999Z</time></trkpt><trkpt lat="42.18327985976728" lon="14.482349055664338"><ele>31.0</ele><time>2026-04-06T05:14:24.999Z</time></trkpt><trkpt lat="42.18327252752286" lon="14.482474386120876"><ele>31.166666666666668</ele><time>2026-04-06T05:14:26.999Z</time></trkpt><trkpt lat="42.18327715518784" lon="14.482590284892918"><ele>31.333333333333336</ele><time>2026-04-06T05:14:28.999Z</time></trkpt><trkpt lat="42.183297695352515" lon="14.482689817422877"><ele>31.5</ele><time>2026-04-06T05:14:30.999Z</time></trkpt><trkpt lat="42.18333053656218" lon="14.482766396251836"><ele>31.666666666666664</ele><time>2026-04-06T05:14:32.999Z</time></trkpt><trkpt lat="42.183393857497954" lon="14.4828319815646"><ele>31.833333333333332</ele><time>2026-04-06T05:14:35.999Z</time></trkpt><trkpt lat="42.183461841840845" lon="14.48282607454434"><ele>32.0</ele><time>2026-04-06T05:14:38.999Z</time></trkpt><trkpt lat="42.18354221161046" lon="14.482771839877506"><ele>31.999999999999996</ele><time>2026-04-06T05:14:41.998Z</time></trkpt><trkpt lat="42.1835999155819" lon="14.482724651327786"><ele>32.0</ele><time>2026-04-06T05:14:44Z</time></trkpt><trkpt lat="42.18366227701067" lon="14.4826789732871"><ele>32.0</ele><time>2026-04-06T05:14:46Z</time></trkpt><trkpt lat="42.18372761141849" lon="14.482626767631647"><ele>32.0</ele><time>2026-04-06T05:14:48Z</time></trkpt><trkpt lat="42.18379348580272" lon="14.482565860067057"><ele>31.999999999999996</ele><time>2026-04-06T05:14:50Z</time></trkpt><trkpt lat="42.183870787431246" lon="14.482507255963915"><ele>32.0</ele><time>2026-04-06T05:14:52Z</time></trkpt><trkpt lat="42.183947997048975" lon="14.482445523401644"><ele>32.0</ele><time>2026-04-06T05:14:54Z</time></trkpt><trkpt lat="42.18402379609366" lon="14.482377851203697"><ele>32.0</ele><time>2026-04-06T05:14:56Z</time></trkpt><trkpt lat="42.184102360349435" lon="14.482316207046003"><ele>32.0</ele><time>2026-04-06T05:14:58Z</time></trkpt><trkpt lat="42.184179535034204" lon="14.482246380738937"><ele>32.0</ele><time>2026-04-06T05:15:00Z</time></trkpt><trkpt lat="42.18426150723263" lon="14.482178680364909"><ele>32.0</ele><time>2026-04-06T05:15:02Z</time></trkpt><trkpt lat="42.184344778468" lon="14.482109748516686"><ele>32.4</ele><time>2026-04-06T05:15:04Z</time></trkpt><trkpt lat="42.184432309293655" lon="14.48204278663424"><ele>32.800000000000004</ele><time>2026-04-06T05:15:06Z</time></trkpt><trkpt lat="42.18452193804553" lon="14.481969082159868"><ele>33.2</ele><time>2026-04-06T05:15:08Z</time></trkpt><trkpt lat="42.1846129728979" lon="14.481895488127885"><ele>33.6</ele><time>2026-04-06T05:15:10Z</time></trkpt><trkpt lat="42.18470753735996" lon="14.481821611433816"><ele>34.0</ele><time>2026-04-06T05:15:12Z</time></trkpt><trkpt lat="42.18479884460876" lon="14.481745753436599"><ele>34.0</ele><time>2026-04-06T05:15:14Z</time></trkpt><trkpt lat="42.18488984978801" lon="14.481673136318925"><ele>34.0</ele><time>2026-04-06T05:15:16Z</time></trkpt><trkpt lat="42.18497747932255" lon="14.481598397586016"><ele>34.0</ele><time>2026-04-06T05:15:18Z</time></trkpt><trkpt lat="42.1850652428941" lon="14.481526908573946"><ele>34.0</ele><time>2026-04-06T05:15:20Z</time></trkpt><trkpt lat="42.18515427582203" lon="14.481459568129429"><ele>34.0</ele><time>2026-04-06T05:15:22Z</time></trkpt><trkpt lat="42.18524625466584" lon="14.481396582835272"><ele>34.0</ele><time>2026-04-06T05:15:24Z</time></trkpt><trkpt lat="42.18533239137985" lon="14.481323533849862"><ele>34.0</ele><time>2026-04-06T05:15:26Z</time></trkpt><trkpt lat="42.18541728894151" lon="14.481249951646777"><ele>34.0</ele><time>2026-04-06T05:15:28Z</time></trkpt><trkpt lat="42.18550733965689" lon="14.481175537685774"><ele>34.0</ele><time>2026-04-06T05:15:30Z</time></trkpt><trkpt lat="42.18559384667628" lon="14.481101396671333"><ele>34.0</ele><time>2026-04-06T05:15:32Z</time></trkpt><trkpt lat="42.185679004247795" lon="14.481028834477176"><ele>33.4</ele><time>2026-04-06T05:15:34Z</time></trkpt><trkpt lat="42.18576478437913" lon="14.480957549977278"><ele>32.8</ele><time>2026-04-06T05:15:36Z</time></trkpt><trkpt lat="42.18585233053852" lon="14.480881273367256"><ele>32.2</ele><time>2026-04-06T05:15:38Z</time></trkpt><trkpt lat="42.18593915979068" lon="14.480806241917016"><ele>31.6</ele><time>2026-04-06T05:15:40Z</time></trkpt><trkpt lat="42.18602937248998" lon="14.480735435616944"><ele>31.0</ele><time>2026-04-06T05:15:42Z</time></trkpt><trkpt lat="42.18611945957183" lon="14.480656177456032"><ele>31.0</ele><time>2026-04-06T05:15:44Z</time></trkpt><trkpt lat="42.18621257421683" lon="14.480587049764354"><ele>31.0</ele><time>2026-04-06T05:15:46Z</time></trkpt><trkpt lat="42.18630267770538" lon="14.480509544050559"><ele>31.0</ele><time>2026-04-06T05:15:48Z</time></trkpt><trkpt lat="42.18639253835043" lon="14.480429404965722"><ele>31.0</ele><time>2026-04-06T05:15:49.999Z</time></trkpt><trkpt lat="42.18648132244368" lon="14.480359037150473"><ele>31.0</ele><time>2026-04-06T05:15:51.999Z</time></trkpt><trkpt lat="42.18656950075508" lon="14.480288301903075"><ele>31.500000000000004</ele><time>2026-04-06T05:15:53.999Z</time></trkpt><trkpt lat="42.18665576814321" lon="14.48021603322967"><ele>32.0</ele><time>2026-04-06T05:15:55.999Z</time></trkpt><trkpt lat="42.18673525255773" lon="14.480147977254447"><ele>32.5</ele><time>2026-04-06T05:15:57.999Z</time></trkpt><trkpt lat="42.18680816808551" lon="14.480085372611086"><ele>33.0</ele><time>2026-04-06T05:15:59.999Z</time></trkpt><trkpt lat="42.18687946041331" lon="14.480085678240046"><ele>33.5</ele><time>2026-04-06T05:16:01.999Z</time></trkpt><trkpt lat="42.186943035515085" lon="14.480160675338501"><ele>34.0</ele><time>2026-04-06T05:16:03.999Z</time></trkpt><trkpt lat="42.186992837345386" lon="14.480284270185852"><ele>33.99999999999999</ele><time>2026-04-06T05:16:05.999Z</time></trkpt><trkpt lat="42.18704462163535" lon="14.480431279500811"><ele>34.0</ele><time>2026-04-06T05:16:07.999Z</time></trkpt><trkpt lat="42.18709162277326" lon="14.480493031922066"><ele>34.0</ele><time>2026-04-06T05:16:08.999Z</time></trkpt><trkpt lat="42.187146340078996" lon="14.480537845504825"><ele>34.0</ele><time>2026-04-06T05:16:09.999Z</time></trkpt><trkpt lat="42.1872086452105" lon="14.480575669644693"><ele>34.0</ele><time>2026-04-06T05:16:10.999Z</time></trkpt><trkpt lat="42.18727046207612" lon="14.480603539640938"><ele>33.99999999999999</ele><time>2026-04-06T05:16:11.999Z</time></trkpt><trkpt lat="42.187331977774306" lon="14.480630619217468"><ele>34.0</ele><time>2026-04-06T05:16:12.999Z</time></trkpt><trkpt lat="42.18739344969972" lon="14.480662209712088"><ele>33.0</ele><time>2026-04-06T05:16:13.999Z</time></trkpt><trkpt lat="42.18751387806417" lon="14.4807102738835"><ele>32.0</ele><time>2026-04-06T05:16:15.999Z</time></trkpt><trkpt lat="42.187626865420626" lon="14.480768198311944"><ele>31.0</ele><time>2026-04-06T05:16:17.999Z</time></trkpt><trkpt lat="42.18773833113324" lon="14.480835994700968"><ele>30.0</ele><time>2026-04-06T05:16:19.999Z</time></trkpt><trkpt lat="42.187848200847725" lon="14.480903544470086"><ele>30.0</ele><time>2026-04-06T05:16:21.999Z</time></trkpt><trkpt lat="42.187946999782625" lon="14.480999896876048"><ele>30.0</ele><time>2026-04-06T05:16:23.999Z</time></trkpt><trkpt lat="42.188040402284976" lon="14.481102261402006"><ele>30.0</ele><time>2026-04-06T05:16:25.999Z</time></trkpt><trkpt lat="42.18813807612036" lon="14.481197366837781"><ele>30.0</ele><time>2026-04-06T05:16:27.999Z</time></trkpt><trkpt lat="42.18822947021176" lon="14.481305746767303"><ele>30.25</ele><time>2026-04-06T05:16:29.999Z</time></trkpt><trkpt lat="42.188323247486515" lon="14.481404391113436"><ele>30.5</ele><time>2026-04-06T05:16:31.999Z</time></trkpt><trkpt lat="42.18841891515597" lon="14.48150781647623"><ele>30.75</ele><time>2026-04-06T05:16:33.999Z</time></trkpt><trkpt lat="42.18851620757678" lon="14.481611231101436"><ele>31.0</ele><time>2026-04-06T05:16:35.999Z</time></trkpt><trkpt lat="42.188613436114295" lon="14.481707240933893"><ele>31.0</ele><time>2026-04-06T05:16:37.999Z</time></trkpt><trkpt lat="42.18870867612984" lon="14.48181046144793"><ele>31.0</ele><time>2026-04-06T05:16:39.999Z</time></trkpt><trkpt lat="42.18880073802396" lon="14.481895721435631"><ele>31.0</ele><time>2026-04-06T05:16:41.999Z</time></trkpt><trkpt lat="42.18889561453943" lon="14.481985693323354"><ele>31.0</ele><time>2026-04-06T05:16:43.999Z</time></trkpt><trkpt lat="42.18899147305148" lon="14.482078247226527"><ele>30.75</ele><time>2026-04-06T05:16:45.998Z</time></trkpt><trkpt lat="42.18909123137771" lon="14.482169135061696"><ele>30.5</ele><time>2026-04-06T05:16:47.998Z</time></trkpt><trkpt lat="42.189188682090254" lon="14.482262195621077"><ele>30.25</ele><time>2026-04-06T05:16:50Z</time></trkpt><trkpt lat="42.189283760064505" lon="14.482354386153991"><ele>30.0</ele><time>2026-04-06T05:16:52Z</time></trkpt><trkpt lat="42.18937615979061" lon="14.482439202467857"><ele>30.0</ele><time>2026-04-06T05:16:54Z</time></trkpt><trkpt lat="42.18946972750034" lon="14.482529700492869"><ele>30.0</ele><time>2026-04-06T05:16:56Z</time></trkpt><trkpt lat="42.189565770546935" lon="14.482614705249365"><ele>30.0</ele><time>2026-04-06T05:16:58Z</time></trkpt><trkpt lat="42.189659824904865" lon="14.482696615802151"><ele>30.0</ele><time>2026-04-06T05:17:00Z</time></trkpt><trkpt lat="42.18974450000427" lon="14.482786895904615"><ele>29.5</ele><time>2026-04-06T05:17:02Z</time></trkpt><trkpt lat="42.18985005326404" lon="14.482859429673415"><ele>29.0</ele><time>2026-04-06T05:17:04Z</time></trkpt><trkpt lat="42.18994018925412" lon="14.482960547717472"><ele>28.5</ele><time>2026-04-06T05:17:06Z</time></trkpt><trkpt lat="42.190039036736245" lon="14.483049207561884"><ele>28.0</ele><time>2026-04-06T05:17:08Z</time></trkpt><trkpt lat="42.190140553363605" lon="14.483143860161787"><ele>28.0</ele><time>2026-04-06T05:17:10Z</time></trkpt><trkpt lat="42.19024020067719" lon="14.483238537198002"><ele>28.0</ele><time>2026-04-06T05:17:12Z</time></trkpt><trkpt lat="42.190340850260384" lon="14.483332618537457"><ele>28.0</ele><time>2026-04-06T05:17:14Z</time></trkpt><trkpt lat="42.19044321974533" lon="14.483428861034678"><ele>28.0</ele><time>2026-04-06T05:17:16Z</time></trkpt><trkpt lat="42.19054298559806" lon="14.483527787315493"><ele>28.0</ele><time>2026-04-06T05:17:18Z</time></trkpt><trkpt lat="42.19064126849456" lon="14.483623592840969"><ele>27.999999999999996</ele><time>2026-04-06T05:17:20Z</time></trkpt><trkpt lat="42.19072075798206" lon="14.483720431209056"><ele>27.999999999999996</ele><time>2026-04-06T05:17:22Z</time></trkpt><trkpt lat="42.19076289955162" lon="14.483851306000094"><ele>28.0</ele><time>2026-04-06T05:17:24Z</time></trkpt><trkpt lat="42.190716780383404" lon="14.483986448804414"><ele>28.0</ele><time>2026-04-06T05:17:26Z</time></trkpt><trkpt lat="42.19064071028917" lon="14.484072429652246"><ele>28.0</ele><time>2026-04-06T05:17:28Z</time></trkpt><trkpt lat="42.19057590446045" lon="14.484177138844352"><ele>27.999999999999996</ele><time>2026-04-06T05:17:30Z</time></trkpt><trkpt lat="42.190505108218204" lon="14.484284075031303"><ele>27.999999999999996</ele><time>2026-04-06T05:17:32Z</time></trkpt><trkpt lat="42.190441072766575" lon="14.484397723065708"><ele>28.0</ele><time>2026-04-06T05:17:34Z</time></trkpt><trkpt lat="42.19037690428319" lon="14.484510118639138"><ele>28.0</ele><time>2026-04-06T05:17:36Z</time></trkpt><trkpt lat="42.19031110615042" lon="14.484621222438756"><ele>27.799999999999997</ele><time>2026-04-06T05:17:38Z</time></trkpt><trkpt lat="42.19024113889304" lon="14.484732667735148"><ele>27.599999999999998</ele><time>2026-04-06T05:17:40Z</time></trkpt><trkpt lat="42.19017359159544" lon="14.484846295226106"><ele>27.400000000000002</ele><time>2026-04-06T05:17:42Z</time></trkpt><trkpt lat="42.190102370066626" lon="14.484955769090426"><ele>27.200000000000003</ele><time>2026-04-06T05:17:44Z</time></trkpt><trkpt lat="42.19002940334897" lon="14.485055730160193"><ele>27.0</ele><time>2026-04-06T05:17:46Z</time></trkpt><trkpt lat="42.189976022788194" lon="14.485166737569314"><ele>27.0</ele><time>2026-04-06T05:17:48Z</time></trkpt><trkpt lat="42.18998834164737" lon="14.485300727232605"><ele>27.000000000000004</ele><time>2026-04-06T05:17:49.999Z</time></trkpt><trkpt lat="42.19005789592457" lon="14.485406129434274"><ele>27.000000000000004</ele><time>2026-04-06T05:17:51.999Z</time></trkpt><trkpt lat="42.19013479446233" lon="14.485500394315501"><ele>27.0</ele><time>2026-04-06T05:17:53.999Z</time></trkpt><trkpt lat="42.19021542448322" lon="14.485595355595693"><ele>27.0</ele><time>2026-04-06T05:17:55.999Z</time></trkpt><trkpt lat="42.19029343718686" lon="14.48569403557655"><ele>27.200000000000003</ele><time>2026-04-06T05:17:57.999Z</time></trkpt><trkpt lat="42.190371366181715" lon="14.48578946941365"><ele>27.400000000000002</ele><time>2026-04-06T05:17:59.999Z</time></trkpt><trkpt lat="42.19045000387985" lon="14.485887843084548"><ele>27.599999999999998</ele><time>2026-04-06T05:18:01.999Z</time></trkpt><trkpt lat="42.190522845338165" lon="14.485988070151093"><ele>27.799999999999997</ele><time>2026-04-06T05:18:03.999Z</time></trkpt><trkpt lat="42.19059673915557" lon="14.48608905791821"><ele>28.0</ele><time>2026-04-06T05:18:05.999Z</time></trkpt><trkpt lat="42.19067012025681" lon="14.48619081981813"><ele>27.599999999999998</ele><time>2026-04-06T05:18:07.999Z</time></trkpt><trkpt lat="42.19073978689178" lon="14.486300493761117"><ele>27.199999999999996</ele><time>2026-04-06T05:18:09.999Z</time></trkpt><trkpt lat="42.190806704000806" lon="14.486411071762916"><ele>26.8</ele><time>2026-04-06T05:18:11.999Z</time></trkpt><trkpt lat="42.19087572356905" lon="14.486523673483026"><ele>26.4</ele><time>2026-04-06T05:18:13.999Z</time></trkpt><trkpt lat="42.190934309242124" lon="14.48663880796904"><ele>26.0</ele><time>2026-04-06T05:18:15.999Z</time></trkpt><trkpt lat="42.19099933683091" lon="14.48675183190006"><ele>26.0</ele><time>2026-04-06T05:18:17.999Z</time></trkpt><trkpt lat="42.1910657258051" lon="14.486868867267416"><ele>26.0</ele><time>2026-04-06T05:18:19.999Z</time></trkpt><trkpt lat="42.1911325949162" lon="14.48698176145351"><ele>26.0</ele><time>2026-04-06T05:18:21.999Z</time></trkpt><trkpt lat="42.19119279179376" lon="14.487103121454945"><ele>26.0</ele><time>2026-04-06T05:18:23.999Z</time></trkpt><trkpt lat="42.19126610903433" lon="14.487208198230972"><ele>26.0</ele><time>2026-04-06T05:18:25.999Z</time></trkpt><trkpt lat="42.19134825793732" lon="14.487310903493924"><ele>26.0</ele><time>2026-04-06T05:18:27.999Z</time></trkpt><trkpt lat="42.19143650483853" lon="14.487400462030598"><ele>26.0</ele><time>2026-04-06T05:18:29.999Z</time></trkpt><trkpt lat="42.191528800728506" lon="14.48747990977207"><ele>26.0</ele><time>2026-04-06T05:18:31.999Z</time></trkpt><trkpt lat="42.19162052035092" lon="14.487550246065847"><ele>26.0</ele><time>2026-04-06T05:18:33.999Z</time></trkpt><trkpt lat="42.19171305543661" lon="14.48759857859632"><ele>26.0</ele><time>2026-04-06T05:18:35.999Z</time></trkpt><trkpt lat="42.19179966736492" lon="14.487659112545739"><ele>26.0</ele><time>2026-04-06T05:18:37.999Z</time></trkpt><trkpt lat="42.191886283219375" lon="14.487714828096522"><ele>26.0</ele><time>2026-04-06T05:18:39.999Z</time></trkpt><trkpt lat="42.19197502706003" lon="14.487761604687146"><ele>26.0</ele><time>2026-04-06T05:18:41.999Z</time></trkpt><trkpt lat="42.1920665313346" lon="14.487804072043518"><ele>26.0</ele><time>2026-04-06T05:18:43.998Z</time></trkpt><trkpt lat="42.19215940123075" lon="14.487835838813401"><ele>26.0</ele><time>2026-04-06T05:18:45.998Z</time></trkpt><trkpt lat="42.192257326853934" lon="14.487851494140088"><ele>26.200000000000003</ele><time>2026-04-06T05:18:47.998Z</time></trkpt><trkpt lat="42.192357390141005" lon="14.487865225461237"><ele>26.400000000000002</ele><time>2026-04-06T05:18:49.998Z</time></trkpt><trkpt lat="42.19245825944367" lon="14.487866681334491"><ele>26.6</ele><time>2026-04-06T05:18:51.998Z</time></trkpt><trkpt lat="42.19255954551662" lon="14.487861140487748"><ele>26.8</ele><time>2026-04-06T05:18:53.998Z</time></trkpt><trkpt lat="42.192650977325435" lon="14.487871129080999"><ele>27.0</ele><time>2026-04-06T05:18:56Z</time></trkpt><trkpt lat="42.192713170298724" lon="14.487913848719087"><ele>27.0</ele><time>2026-04-06T05:18:58Z</time></trkpt><trkpt lat="42.192754705560574" lon="14.488011430402738"><ele>27.0</ele><time>2026-04-06T05:19:00Z</time></trkpt><trkpt lat="42.192695476645724" lon="14.488115289380175"><ele>27.0</ele><time>2026-04-06T05:19:02Z</time></trkpt><trkpt lat="42.192640562620156" lon="14.488191106412115"><ele>27.0</ele><time>2026-04-06T05:19:04Z</time></trkpt><trkpt lat="42.19259555807223" lon="14.488264172189835"><ele>27.0</ele><time>2026-04-06T05:19:06Z</time></trkpt><trkpt lat="42.192550567452194" lon="14.488349363131658"><ele>27.0</ele><time>2026-04-06T05:19:08Z</time></trkpt><trkpt lat="42.192501507142865" lon="14.488446414136039"><ele>27.0</ele><time>2026-04-06T05:19:10Z</time></trkpt><trkpt lat="42.19244293965843" lon="14.488552506111432"><ele>27.000000000000004</ele><time>2026-04-06T05:19:12Z</time></trkpt><trkpt lat="42.192381619989405" lon="14.488659584361427"><ele>27.000000000000004</ele><time>2026-04-06T05:19:14Z</time></trkpt><trkpt lat="42.1923231325261" lon="14.488775090021248"><ele>27.0</ele><time>2026-04-06T05:19:16Z</time></trkpt><trkpt lat="42.192261044600585" lon="14.488889772869168"><ele>27.0</ele><time>2026-04-06T05:19:18Z</time></trkpt><trkpt lat="42.19219859348808" lon="14.489001810793095"><ele>27.0</ele><time>2026-04-06T05:19:20Z</time></trkpt><trkpt lat="42.19213739230769" lon="14.489117175610046"><ele>27.000000000000004</ele><time>2026-04-06T05:19:22Z</time></trkpt><trkpt lat="42.19207806100824" lon="14.489232487406168"><ele>27.000000000000004</ele><time>2026-04-06T05:19:24Z</time></trkpt><trkpt lat="42.19201462193188" lon="14.489347033050285"><ele>27.0</ele><time>2026-04-06T05:19:26Z</time></trkpt><trkpt lat="42.19195510727654" lon="14.489460211595688"><ele>27.0</ele><time>2026-04-06T05:19:28Z</time></trkpt><trkpt lat="42.19189791116083" lon="14.489576189588776"><ele>27.0</ele><time>2026-04-06T05:19:30Z</time></trkpt><trkpt lat="42.19183663249099" lon="14.489690899741616"><ele>27.000000000000004</ele><time>2026-04-06T05:19:32Z</time></trkpt><trkpt lat="42.19177738924633" lon="14.489809993894637"><ele>27.000000000000004</ele><time>2026-04-06T05:19:34Z</time></trkpt><trkpt lat="42.191718721910924" lon="14.489926884740964"><ele>27.0</ele><time>2026-04-06T05:19:36Z</time></trkpt><trkpt lat="42.19165817988199" lon="14.490042426771518"><ele>27.0</ele><time>2026-04-06T05:19:38Z</time></trkpt><trkpt lat="42.19159923165389" lon="14.490157504986504"><ele>27.0</ele><time>2026-04-06T05:19:40Z</time></trkpt><trkpt lat="42.19154106990304" lon="14.490273576224835"><ele>27.000000000000004</ele><time>2026-04-06T05:19:42Z</time></trkpt><trkpt lat="42.19147982111984" lon="14.490390723772604"><ele>27.000000000000004</ele><time>2026-04-06T05:19:44Z</time></trkpt><trkpt lat="42.191422773134875" lon="14.490510367527936"><ele>27.0</ele><time>2026-04-06T05:19:46Z</time></trkpt><trkpt lat="42.19135677132697" lon="14.490624019353657"><ele>27.0</ele><time>2026-04-06T05:19:48Z</time></trkpt><trkpt lat="42.19129852241098" lon="14.490742738686627"><ele>27.0</ele><time>2026-04-06T05:19:50Z</time></trkpt><trkpt lat="42.19123879345763" lon="14.490858410654575"><ele>27.000000000000004</ele><time>2026-04-06T05:19:52Z</time></trkpt><trkpt lat="42.19118173613895" lon="14.490970457793637"><ele>27.000000000000004</ele><time>2026-04-06T05:19:54Z</time></trkpt><trkpt lat="42.19112477208832" lon="14.491084270023034"><ele>27.0</ele><time>2026-04-06T05:19:55.999Z</time></trkpt><trkpt lat="42.1910663135971" lon="14.491197813250443"><ele>27.0</ele><time>2026-04-06T05:19:57.999Z</time></trkpt><trkpt lat="42.19100766359069" lon="14.491315341866294"><ele>27.0</ele><time>2026-04-06T05:19:59.999Z</time></trkpt><trkpt lat="42.19094489865853" lon="14.491431310275066"><ele>27.000000000000004</ele><time>2026-04-06T05:20:01.999Z</time></trkpt><trkpt lat="42.19088258298021" lon="14.491550723832805"><ele>27.000000000000004</ele><time>2026-04-06T05:20:03.999Z</time></trkpt><trkpt lat="42.190819840278955" lon="14.491667317533956"><ele>27.0</ele><time>2026-04-06T05:20:05.999Z</time></trkpt><trkpt lat="42.190757042421296" lon="14.491784200727329"><ele>27.0</ele><time>2026-04-06T05:20:07.999Z</time></trkpt><trkpt lat="42.19070565628025" lon="14.49190890178226"><ele>27.0</ele><time>2026-04-06T05:20:09.999Z</time></trkpt><trkpt lat="42.19067531530323" lon="14.492048909829663"><ele>27.000000000000004</ele><time>2026-04-06T05:20:11.999Z</time></trkpt><trkpt lat="42.19066700171398" lon="14.492196148356832"><ele>27.000000000000004</ele><time>2026-04-06T05:20:13.999Z</time></trkpt><trkpt lat="42.190673780675574" lon="14.492345114555622"><ele>27.0</ele><time>2026-04-06T05:20:15.999Z</time></trkpt><trkpt lat="42.190702557710466" lon="14.492496266323792"><ele>27.0</ele><time>2026-04-06T05:20:17.999Z</time></trkpt><trkpt lat="42.19075505115022" lon="14.492635920769576"><ele>26.5</ele><time>2026-04-06T05:20:19.999Z</time></trkpt><trkpt lat="42.19082799874056" lon="14.492763668256579"><ele>26.0</ele><time>2026-04-06T05:20:21.999Z</time></trkpt><trkpt lat="42.190893389299056" lon="14.492889147519463"><ele>25.5</ele><time>2026-04-06T05:20:23.999Z</time></trkpt><trkpt lat="42.19095474398863" lon="14.493023757014408"><ele>25.0</ele><time>2026-04-06T05:20:25.999Z</time></trkpt><trkpt lat="42.191011954496524" lon="14.493154464457811"><ele>24.6</ele><time>2026-04-06T05:20:27.999Z</time></trkpt><trkpt lat="42.19107894132656" lon="14.49327677851669"><ele>24.2</ele><time>2026-04-06T05:20:29.999Z</time></trkpt><trkpt lat="42.191144486356805" lon="14.493387933491505"><ele>23.799999999999997</ele><time>2026-04-06T05:20:31.999Z</time></trkpt><trkpt lat="42.19120952500962" lon="14.493498559677514"><ele>23.4</ele><time>2026-04-06T05:20:33.999Z</time></trkpt><trkpt lat="42.19128159995745" lon="14.493601456054149"><ele>23.0</ele><time>2026-04-06T05:20:35.999Z</time></trkpt><trkpt lat="42.19135596371982" lon="14.493701877313121"><ele>22.799999999999997</ele><time>2026-04-06T05:20:37.999Z</time></trkpt><trkpt lat="42.19144355142103" lon="14.493792707678525"><ele>22.6</ele><time>2026-04-06T05:20:39.999Z</time></trkpt><trkpt lat="42.1915476102162" lon="14.49384275193143"><ele>22.4</ele><time>2026-04-06T05:20:41.999Z</time></trkpt><trkpt lat="42.19164491231341" lon="14.493900113129095"><ele>22.200000000000003</ele><time>2026-04-06T05:20:43.999Z</time></trkpt><trkpt lat="42.191741218418166" lon="14.49396138234683"><ele>22.0</ele><time>2026-04-06T05:20:45.999Z</time></trkpt><trkpt lat="42.19183985181783" lon="14.49401072187212"><ele>22.400000000000002</ele><time>2026-04-06T05:20:47.999Z</time></trkpt><trkpt lat="42.19193320552725" lon="14.494062721130472"><ele>22.8</ele><time>2026-04-06T05:20:49.998Z</time></trkpt><trkpt lat="42.19202144356642" lon="14.494109128307285"><ele>23.2</ele><time>2026-04-06T05:20:51.998Z</time></trkpt><trkpt lat="42.192113115390185" lon="14.49418526148426"><ele>23.6</ele><time>2026-04-06T05:20:53.998Z</time></trkpt><trkpt lat="42.192200123587455" lon="14.49427847202987"><ele>24.0</ele><time>2026-04-06T05:20:55.998Z</time></trkpt><trkpt lat="42.1922938910649" lon="14.494388027346977"><ele>24.0</ele><time>2026-04-06T05:20:57.998Z</time></trkpt><trkpt lat="42.192388256019136" lon="14.494487053005429"><ele>24.0</ele><time>2026-04-06T05:21:00Z</time></trkpt><trkpt lat="42.19248067951591" lon="14.494594544677891"><ele>24.0</ele><time>2026-04-06T05:21:02Z</time></trkpt><trkpt lat="42.19258012386399" lon="14.494686571749885"><ele>24.0</ele><time>2026-04-06T05:21:04Z</time></trkpt><trkpt lat="42.19268281886578" lon="14.494758128813555"><ele>24.0</ele><time>2026-04-06T05:21:06Z</time></trkpt><trkpt lat="42.19276738046469" lon="14.494826661315974"><ele>24.0</ele><time>2026-04-06T05:21:08Z</time></trkpt><trkpt lat="42.19284793488774" lon="14.494887010093592"><ele>24.0</ele><time>2026-04-06T05:21:10Z</time></trkpt><trkpt lat="42.19292702677815" lon="14.494966388785894"><ele>24.0</ele><time>2026-04-06T05:21:12Z</time></trkpt><trkpt lat="42.193003818110114" lon="14.495052709923167"><ele>24.0</ele><time>2026-04-06T05:21:14Z</time></trkpt><trkpt lat="42.19307927288949" lon="14.495136146516465"><ele>24.0</ele><time>2026-04-06T05:21:16Z</time></trkpt><trkpt lat="42.193149640821424" lon="14.495226110505321"><ele>24.0</ele><time>2026-04-06T05:21:18Z</time></trkpt><trkpt lat="42.19321880838503" lon="14.495320449481282"><ele>24.0</ele><time>2026-04-06T05:21:20Z</time></trkpt><trkpt lat="42.19328859141819" lon="14.495414535730525"><ele>24.0</ele><time>2026-04-06T05:21:22Z</time></trkpt><trkpt lat="42.19335846545494" lon="14.495513891936293"><ele>24.0</ele><time>2026-04-06T05:21:24Z</time></trkpt><trkpt lat="42.19342860781806" lon="14.495617298893572"><ele>23.6</ele><time>2026-04-06T05:21:26Z</time></trkpt><trkpt lat="42.193485314258005" lon="14.495738840521383"><ele>23.2</ele><time>2026-04-06T05:21:28Z</time></trkpt><trkpt lat="42.19355359150355" lon="14.495849020496717"><ele>22.8</ele><time>2026-04-06T05:21:30Z</time></trkpt><trkpt lat="42.19363619366683" lon="14.495942183270088"><ele>22.400000000000002</ele><time>2026-04-06T05:21:31.999Z</time></trkpt><trkpt lat="42.19370732042753" lon="14.496051468404454"><ele>22.0</ele><time>2026-04-06T05:21:33.999Z</time></trkpt><trkpt lat="42.1937754541711" lon="14.496164808857326"><ele>22.0</ele><time>2026-04-06T05:21:35.999Z</time></trkpt><trkpt lat="42.193846703677224" lon="14.496274087058413"><ele>22.0</ele><time>2026-04-06T05:21:37.999Z</time></trkpt><trkpt lat="42.193924652082245" lon="14.496374983074862"><ele>22.0</ele><time>2026-04-06T05:21:39.999Z</time></trkpt><trkpt lat="42.19400606867397" lon="14.496473779173863"><ele>22.0</ele><time>2026-04-06T05:21:41.999Z</time></trkpt><trkpt lat="42.194092875886" lon="14.49656347796054"><ele>22.0</ele><time>2026-04-06T05:21:43.999Z</time></trkpt><trkpt lat="42.1941868179597" lon="14.496621938969042"><ele>22.0</ele><time>2026-04-06T05:21:45.999Z</time></trkpt><trkpt lat="42.194274697560324" lon="14.496694336413034"><ele>22.0</ele><time>2026-04-06T05:21:47.999Z</time></trkpt><trkpt lat="42.194357726873854" lon="14.496772297694942"><ele>22.0</ele><time>2026-04-06T05:21:49.999Z</time></trkpt><trkpt lat="42.19445047593061" lon="14.4968455649825"><ele>22.0</ele><time>2026-04-06T05:21:51.999Z</time></trkpt><trkpt lat="42.194549347163495" lon="14.496917032564948"><ele>22.0</ele><time>2026-04-06T05:21:53.999Z</time></trkpt><trkpt lat="42.19464978449776" lon="14.496981640040095"><ele>22.0</ele><time>2026-04-06T05:21:55.999Z</time></trkpt><trkpt lat="42.19475155861795" lon="14.49704060570733"><ele>22.0</ele><time>2026-04-06T05:21:57.999Z</time></trkpt><trkpt lat="42.19485402244086" lon="14.497096177107885"><ele>22.0</ele><time>2026-04-06T05:21:59.999Z</time></trkpt><trkpt lat="42.194959771187435" lon="14.49714281922283"><ele>22.0</ele><time>2026-04-06T05:22:01.999Z</time></trkpt><trkpt lat="42.195068779248864" lon="14.497185494183377"><ele>22.0</ele><time>2026-04-06T05:22:03.999Z</time></trkpt><trkpt lat="42.195183471426965" lon="14.497223262445969"><ele>21.8</ele><time>2026-04-06T05:22:05.999Z</time></trkpt><trkpt lat="42.19529749184084" lon="14.497262149926687"><ele>21.6</ele><time>2026-04-06T05:22:07.999Z</time></trkpt><trkpt lat="42.195413594192" lon="14.49729336484123"><ele>21.400000000000002</ele><time>2026-04-06T05:22:09.999Z</time></trkpt><trkpt lat="42.19550818943575" lon="14.49732179409429"><ele>21.200000000000003</ele><time>2026-04-06T05:22:11.998Z</time></trkpt><trkpt lat="42.19560111924592" lon="14.497364652420723"><ele>21.0</ele><time>2026-04-06T05:22:13.998Z</time></trkpt><trkpt lat="42.19570068914768" lon="14.497403168153232"><ele>21.0</ele><time>2026-04-06T05:22:15.998Z</time></trkpt><trkpt lat="42.19580692217419" lon="14.497429065977771"><ele>21.0</ele><time>2026-04-06T05:22:17.998Z</time></trkpt><trkpt lat="42.195909919582604" lon="14.497441118941204"><ele>21.0</ele><time>2026-04-06T05:22:19.998Z</time></trkpt><trkpt lat="42.19601101696582" lon="14.497454606011198"><ele>21.0</ele><time>2026-04-06T05:22:21.998Z</time></trkpt><trkpt lat="42.19610741684136" lon="14.497485224153683"><ele>21.0</ele><time>2026-04-06T05:22:23.998Z</time></trkpt><trkpt lat="42.19619215854682" lon="14.497496074090291"><ele>21.0</ele><time>2026-04-06T05:22:25.998Z</time></trkpt><trkpt lat="42.196280312332455" lon="14.497530886901364"><ele>21.0</ele><time>2026-04-06T05:22:27.998Z</time></trkpt><trkpt lat="42.19637567144577" lon="14.49756444487743"><ele>21.0</ele><time>2026-04-06T05:22:29.998Z</time></trkpt><trkpt lat="42.19647381846085" lon="14.497597474483577"><ele>21.0</ele><time>2026-04-06T05:22:31.998Z</time></trkpt><trkpt lat="42.19657295128292" lon="14.497637441073582"><ele>21.0</ele><time>2026-04-06T05:22:33.998Z</time></trkpt><trkpt lat="42.19667503092023" lon="14.497676922551275"><ele>21.0</ele><time>2026-04-06T05:22:35.998Z</time></trkpt><trkpt lat="42.196767250625115" lon="14.497718320812142"><ele>21.0</ele><time>2026-04-06T05:22:37.998Z</time></trkpt><trkpt lat="42.19683969081449" lon="14.49777678564121"><ele>21.0</ele><time>2026-04-06T05:22:40.998Z</time></trkpt><trkpt lat="42.19689629447042" lon="14.497855640827074"><ele>21.0</ele><time>2026-04-06T05:22:43.998Z</time></trkpt><trkpt lat="42.196927900985116" lon="14.497943063887055"><ele>21.0</ele><time>2026-04-06T05:22:45.998Z</time></trkpt><trkpt lat="42.196970522655555" lon="14.498044634569858"><ele>21.0</ele><time>2026-04-06T05:22:47.998Z</time></trkpt><trkpt lat="42.19701340584139" lon="14.49815550394622"><ele>21.0</ele><time>2026-04-06T05:22:49.998Z</time></trkpt><trkpt lat="42.197062437105494" lon="14.49827150936704"><ele>21.0</ele><time>2026-04-06T05:22:51.998Z</time></trkpt><trkpt lat="42.19710494727693" lon="14.498395512194246"><ele>21.0</ele><time>2026-04-06T05:22:53.998Z</time></trkpt><trkpt lat="42.19714491182252" lon="14.498518262872597"><ele>21.0</ele><time>2026-04-06T05:22:55.998Z</time></trkpt><trkpt lat="42.197190512751845" lon="14.498637750340926"><ele>21.0</ele><time>2026-04-06T05:22:57.998Z</time></trkpt><trkpt lat="42.19722993163606" lon="14.49876221999821"><ele>20.8</ele><time>2026-04-06T05:22:59.998Z</time></trkpt><trkpt lat="42.19727365554869" lon="14.498884266543826"><ele>20.6</ele><time>2026-04-06T05:23:01.998Z</time></trkpt><trkpt lat="42.19731403303388" lon="14.499005755530188"><ele>20.4</ele><time>2026-04-06T05:23:03.998Z</time></trkpt><trkpt lat="42.19736271651979" lon="14.499116335412262"><ele>20.2</ele><time>2026-04-06T05:23:05.999Z</time></trkpt><trkpt lat="42.197407219712495" lon="14.499232933811115"><ele>20.0</ele><time>2026-04-06T05:23:07.999Z</time></trkpt><trkpt lat="42.19746279613737" lon="14.499338805328287"><ele>20.0</ele><time>2026-04-06T05:23:10Z</time></trkpt><trkpt lat="42.197515568552106" lon="14.49944577625874"><ele>20.0</ele><time>2026-04-06T05:23:12Z</time></trkpt><trkpt lat="42.19756999016508" lon="14.49954813707013"><ele>20.0</ele><time>2026-04-06T05:23:14Z</time></trkpt><trkpt lat="42.19762910172322" lon="14.499652242385727"><ele>20.0</ele><time>2026-04-06T05:23:16Z</time></trkpt><trkpt lat="42.19768267933467" lon="14.499757906907325"><ele>20.0</ele><time>2026-04-06T05:23:18Z</time></trkpt><trkpt lat="42.19772777462421" lon="14.499864952334066"><ele>20.0</ele><time>2026-04-06T05:23:20Z</time></trkpt><trkpt lat="42.19776618005556" lon="14.49997977326798"><ele>20.0</ele><time>2026-04-06T05:23:22Z</time></trkpt><trkpt lat="42.197780246045156" lon="14.500105194078607"><ele>20.0</ele><time>2026-04-06T05:23:24Z</time></trkpt><trkpt lat="42.1977874818425" lon="14.500214625626072"><ele>20.0</ele><time>2026-04-06T05:23:26Z</time></trkpt><trkpt lat="42.197773180931385" lon="14.500306390197187"><ele>20.0</ele><time>2026-04-06T05:23:28Z</time></trkpt><trkpt lat="42.197781002341905" lon="14.500421367889517"><ele>20.0</ele><time>2026-04-06T05:23:30Z</time></trkpt><trkpt lat="42.19783041655479" lon="14.5005189999548"><ele>20.0</ele><time>2026-04-06T05:23:32Z</time></trkpt><trkpt lat="42.197881891719554" lon="14.500589371835074"><ele>20.0</ele><time>2026-04-06T05:23:34Z</time></trkpt><trkpt lat="42.19787613257018" lon="14.500690542736502"><ele>20.0</ele><time>2026-04-06T05:23:36Z</time></trkpt><trkpt lat="42.19784009033257" lon="14.50079232605264"><ele>20.0</ele><time>2026-04-06T05:23:38Z</time></trkpt><trkpt lat="42.19783394644071" lon="14.500907490537225"><ele>20.0</ele><time>2026-04-06T05:23:40Z</time></trkpt><trkpt lat="42.197849648674485" lon="14.501035940880605"><ele>20.0</ele><time>2026-04-06T05:23:42Z</time></trkpt><trkpt lat="42.19788815059085" lon="14.5011645678526"><ele>20.0</ele><time>2026-04-06T05:23:44Z</time></trkpt><trkpt lat="42.197943074664494" lon="14.501285341042294"><ele>20.0</ele><time>2026-04-06T05:23:46Z</time></trkpt><trkpt lat="42.19802277054854" lon="14.501380325084398"><ele>20.0</ele><time>2026-04-06T05:23:48Z</time></trkpt><trkpt lat="42.19811779883389" lon="14.50145160360563"><ele>20.0</ele><time>2026-04-06T05:23:50Z</time></trkpt><trkpt lat="42.19821750001124" lon="14.501499327670901"><ele>20.0</ele><time>2026-04-06T05:23:52Z</time></trkpt><trkpt lat="42.19831363192723" lon="14.501542750823516"><ele>20.0</ele><time>2026-04-06T05:23:54Z</time></trkpt><trkpt lat="42.19841467132043" lon="14.501570434766725"><ele>20.0</ele><time>2026-04-06T05:23:55.999Z</time></trkpt><trkpt lat="42.19851270902632" lon="14.501608710075862"><ele>20.0</ele><time>2026-04-06T05:23:57.999Z</time></trkpt><trkpt lat="42.19860622572528" lon="14.501676046843697"><ele>20.0</ele><time>2026-04-06T05:23:59.999Z</time></trkpt><trkpt lat="42.19870921967095" lon="14.501728971070571"><ele>20.0</ele><time>2026-04-06T05:24:01.999Z</time></trkpt><trkpt lat="42.19881604257169" lon="14.501785791032773"><ele>20.0</ele><time>2026-04-06T05:24:03.999Z</time></trkpt><trkpt lat="42.19892381076296" lon="14.50183823950721"><ele>20.0</ele><time>2026-04-06T05:24:05.999Z</time></trkpt><trkpt lat="42.19902769266563" lon="14.501888701699377"><ele>20.0</ele><time>2026-04-06T05:24:07.999Z</time></trkpt><trkpt lat="42.199130217322384" lon="14.50193923267182"><ele>20.0</ele><time>2026-04-06T05:24:09.999Z</time></trkpt><trkpt lat="42.19923082516199" lon="14.501984450875959"><ele>20.0</ele><time>2026-04-06T05:24:11.999Z</time></trkpt><trkpt lat="42.19932782307571" lon="14.502032519032447"><ele>20.2</ele><time>2026-04-06T05:24:13.999Z</time></trkpt><trkpt lat="42.199424541842305" lon="14.502084135446797"><ele>20.4</ele><time>2026-04-06T05:24:15.999Z</time></trkpt><trkpt lat="42.19952439309034" lon="14.502123736007517"><ele>20.6</ele><time>2026-04-06T05:24:17.999Z</time></trkpt><trkpt lat="42.19962532488387" lon="14.502170286685823"><ele>20.8</ele><time>2026-04-06T05:24:19.999Z</time></trkpt><trkpt lat="42.19972173511428" lon="14.502225969736822"><ele>21.0</ele><time>2026-04-06T05:24:21.999Z</time></trkpt><trkpt lat="42.1998213735493" lon="14.50227686900031"><ele>20.8</ele><time>2026-04-06T05:24:23.999Z</time></trkpt><trkpt lat="42.19991967423463" lon="14.502316908726721"><ele>20.6</ele><time>2026-04-06T05:24:25.999Z</time></trkpt><trkpt lat="42.2000186561833" lon="14.502361889157129"><ele>20.4</ele><time>2026-04-06T05:24:27.999Z</time></trkpt><trkpt lat="42.20011175449953" lon="14.502407643813214"><ele>20.2</ele><time>2026-04-06T05:24:29.999Z</time></trkpt><trkpt lat="42.20020702285314" lon="14.50245051322639"><ele>20.0</ele><time>2026-04-06T05:24:31.999Z</time></trkpt><trkpt lat="42.20030074985777" lon="14.502497658570238"><ele>20.0</ele><time>2026-04-06T05:24:33.999Z</time></trkpt><trkpt lat="42.200394199705535" lon="14.50254187890391"><ele>20.0</ele><time>2026-04-06T05:24:35.999Z</time></trkpt><trkpt lat="42.20048355783317" lon="14.502581543443112"><ele>20.0</ele><time>2026-04-06T05:24:37.999Z</time></trkpt><trkpt lat="42.20056782411311" lon="14.50262881155181"><ele>20.0</ele><time>2026-04-06T05:24:39.999Z</time></trkpt><trkpt lat="42.200655936469936" lon="14.502669294982038"><ele>20.0</ele><time>2026-04-06T05:24:41.999Z</time></trkpt><trkpt lat="42.20075969766461" lon="14.502715456965118"><ele>20.0</ele><time>2026-04-06T05:24:43.999Z</time></trkpt><trkpt lat="42.20085799228012" lon="14.502759895172344"><ele>20.0</ele><time>2026-04-06T05:24:45.999Z</time></trkpt><trkpt lat="42.20095644126934" lon="14.502800843815"><ele>20.0</ele><time>2026-04-06T05:24:47.999Z</time></trkpt><trkpt lat="42.20105404314459" lon="14.502843146179968"><ele>20.0</ele><time>2026-04-06T05:24:49.998Z</time></trkpt><trkpt lat="42.20115303638744" lon="14.502885652217904"><ele>20.0</ele><time>2026-04-06T05:24:51.998Z</time></trkpt><trkpt lat="42.20125134958776" lon="14.502941776290264"><ele>20.0</ele><time>2026-04-06T05:24:53.998Z</time></trkpt><trkpt lat="42.201355606576406" lon="14.502986389579949"><ele>20.0</ele><time>2026-04-06T05:24:55.998Z</time></trkpt><trkpt lat="42.20145997479355" lon="14.503038041533943"><ele>20.0</ele><time>2026-04-06T05:24:57.998Z</time></trkpt><trkpt lat="42.2015617549176" lon="14.503083884289616"><ele>20.0</ele><time>2026-04-06T05:24:59.998Z</time></trkpt><trkpt lat="42.201663710512065" lon="14.503141642383063"><ele>20.0</ele><time>2026-04-06T05:25:01.998Z</time></trkpt><trkpt lat="42.201766977931406" lon="14.503196385603992"><ele>19.8</ele><time>2026-04-06T05:25:03.998Z</time></trkpt><trkpt lat="42.201869760292695" lon="14.503248407110494"><ele>19.6</ele><time>2026-04-06T05:25:05.998Z</time></trkpt><trkpt lat="42.20197012684296" lon="14.503300995587521"><ele>19.4</ele><time>2026-04-06T05:25:07.998Z</time></trkpt><trkpt lat="42.202066841037364" lon="14.503350990515381"><ele>19.2</ele><time>2026-04-06T05:25:09.998Z</time></trkpt><trkpt lat="42.20216689034565" lon="14.503390586009528"><ele>19.0</ele><time>2026-04-06T05:25:12Z</time></trkpt><trkpt lat="42.20225886282837" lon="14.503443099989775"><ele>19.2</ele><time>2026-04-06T05:25:14Z</time></trkpt><trkpt lat="42.20235270006546" lon="14.503496749695298"><ele>19.4</ele><time>2026-04-06T05:25:16Z</time></trkpt><trkpt lat="42.202443281157194" lon="14.503546459675743"><ele>19.6</ele><time>2026-04-06T05:25:18Z</time></trkpt><trkpt lat="42.20253114105462" lon="14.50360928804183"><ele>19.8</ele><time>2026-04-06T05:25:20Z</time></trkpt><trkpt lat="42.20262028609966" lon="14.503695705606232"><ele>20.0</ele><time>2026-04-06T05:25:22Z</time></trkpt><trkpt lat="42.20270982783823" lon="14.503780851876893"><ele>19.5</ele><time>2026-04-06T05:25:24Z</time></trkpt><trkpt lat="42.202803616092616" lon="14.503863751095723"><ele>19.0</ele><time>2026-04-06T05:25:26Z</time></trkpt><trkpt lat="42.20289719312055" lon="14.503948676260357"><ele>18.5</ele><time>2026-04-06T05:25:28Z</time></trkpt><trkpt lat="42.20298787439663" lon="14.504039279808008"><ele>18.0</ele><time>2026-04-06T05:25:30Z</time></trkpt><trkpt lat="42.20307878929217" lon="14.504129581233457"><ele>17.8</ele><time>2026-04-06T05:25:32Z</time></trkpt><trkpt lat="42.203172321609834" lon="14.504217700382068"><ele>17.6</ele><time>2026-04-06T05:25:34Z</time></trkpt><trkpt lat="42.20326482929558" lon="14.504305092598429"><ele>17.4</ele><time>2026-04-06T05:25:36Z</time></trkpt><trkpt lat="42.203356709366325" lon="14.504391723304444"><ele>17.2</ele><time>2026-04-06T05:25:38Z</time></trkpt><trkpt lat="42.203447561244595" lon="14.50447548581805"><ele>17.0</ele><time>2026-04-06T05:25:40Z</time></trkpt><trkpt lat="42.203538698371084" lon="14.50455920107162"><ele>17.2</ele><time>2026-04-06T05:25:42Z</time></trkpt><trkpt lat="42.20363240640063" lon="14.504644565827785"><ele>17.4</ele><time>2026-04-06T05:25:44Z</time></trkpt><trkpt lat="42.20372233225656" lon="14.504731674119265"><ele>17.6</ele><time>2026-04-06T05:25:46Z</time></trkpt><trkpt lat="42.2038137799789" lon="14.504809038784694"><ele>17.8</ele><time>2026-04-06T05:25:48Z</time></trkpt><trkpt lat="42.20390396011225" lon="14.504888531333018"><ele>18.0</ele><time>2026-04-06T05:25:50Z</time></trkpt><trkpt lat="42.20399203313709" lon="14.50497061598047"><ele>17.8</ele><time>2026-04-06T05:25:52Z</time></trkpt><trkpt lat="42.20408300697906" lon="14.505057259921315"><ele>17.6</ele><time>2026-04-06T05:25:54Z</time></trkpt><trkpt lat="42.204170423377406" lon="14.505144698902471"><ele>17.4</ele><time>2026-04-06T05:25:56Z</time></trkpt><trkpt lat="42.2042562205248" lon="14.50523297662576"><ele>17.2</ele><time>2026-04-06T05:25:58Z</time></trkpt><trkpt lat="42.20433903727068" lon="14.505325964809503"><ele>17.0</ele><time>2026-04-06T05:25:59.999Z</time></trkpt><trkpt lat="42.204415170778326" lon="14.50543318954389"><ele>16.8</ele><time>2026-04-06T05:26:01.999Z</time></trkpt><trkpt lat="42.20449691395234" lon="14.50553414756999"><ele>16.6</ele><time>2026-04-06T05:26:03.999Z</time></trkpt><trkpt lat="42.204575383522254" lon="14.50563513678146"><ele>16.400000000000002</ele><time>2026-04-06T05:26:05.999Z</time></trkpt><trkpt lat="42.20465115484814" lon="14.505740664245582"><ele>16.2</ele><time>2026-04-06T05:26:07.999Z</time></trkpt><trkpt lat="42.20472783415844" lon="14.505839201061395"><ele>16.0</ele><time>2026-04-06T05:26:09.999Z</time></trkpt><trkpt lat="42.20479949092373" lon="14.505941062272584"><ele>16.0</ele><time>2026-04-06T05:26:11.999Z</time></trkpt><trkpt lat="42.20487256417109" lon="14.506039743474698"><ele>16.0</ele><time>2026-04-06T05:26:13.999Z</time></trkpt><trkpt lat="42.204939209125556" lon="14.506143075261217"><ele>16.0</ele><time>2026-04-06T05:26:15.999Z</time></trkpt><trkpt lat="42.20500321390466" lon="14.50625013738566"><ele>16.0</ele><time>2026-04-06T05:26:17.999Z</time></trkpt><trkpt lat="42.20506724060603" lon="14.506358442096149"><ele>16.0</ele><time>2026-04-06T05:26:19.999Z</time></trkpt><trkpt lat="42.205136703970744" lon="14.50646474660441"><ele>16.2</ele><time>2026-04-06T05:26:21.999Z</time></trkpt><trkpt lat="42.20520953336672" lon="14.506576849985455"><ele>16.400000000000002</ele><time>2026-04-06T05:26:23.999Z</time></trkpt><trkpt lat="42.20528390772258" lon="14.506689565036341"><ele>16.6</ele><time>2026-04-06T05:26:25.999Z</time></trkpt><trkpt lat="42.20535662763503" lon="14.50680049631845"><ele>16.8</ele><time>2026-04-06T05:26:27.999Z</time></trkpt><trkpt lat="42.20542585909566" lon="14.506910002422872"><ele>17.0</ele><time>2026-04-06T05:26:29.999Z</time></trkpt><trkpt lat="42.20549580302973" lon="14.507013056430065"><ele>17.0</ele><time>2026-04-06T05:26:31.999Z</time></trkpt><trkpt lat="42.20556140744952" lon="14.507120388581697"><ele>17.0</ele><time>2026-04-06T05:26:33.999Z</time></trkpt><trkpt lat="42.205632762987975" lon="14.507223995845074"><ele>17.0</ele><time>2026-04-06T05:26:35.999Z</time></trkpt><trkpt lat="42.205697614326326" lon="14.50732622895461"><ele>17.0</ele><time>2026-04-06T05:26:37.999Z</time></trkpt><trkpt lat="42.20576824577612" lon="14.507422980414393"><ele>17.0</ele><time>2026-04-06T05:26:39.999Z</time></trkpt><trkpt lat="42.20583331502516" lon="14.507527726172432"><ele>17.0</ele><time>2026-04-06T05:26:41.999Z</time></trkpt><trkpt lat="42.20589942729414" lon="14.507634366092175"><ele>17.0</ele><time>2026-04-06T05:26:43.999Z</time></trkpt><trkpt lat="42.20597847786714" lon="14.507726861582942"><ele>17.0</ele><time>2026-04-06T05:26:45.999Z</time></trkpt><trkpt lat="42.206039143803046" lon="14.507845382171507"><ele>17.0</ele><time>2026-04-06T05:26:47.999Z</time></trkpt><trkpt lat="42.206107832868014" lon="14.507952277738669"><ele>17.0</ele><time>2026-04-06T05:26:49.999Z</time></trkpt><trkpt lat="42.206180703808435" lon="14.508057513014348"><ele>17.0</ele><time>2026-04-06T05:26:51.999Z</time></trkpt><trkpt lat="42.206255053381426" lon="14.508161884480591"><ele>17.0</ele><time>2026-04-06T05:26:53.998Z</time></trkpt><trkpt lat="42.20632477986409" lon="14.508270693954188"><ele>17.0</ele><time>2026-04-06T05:26:55.998Z</time></trkpt><trkpt lat="42.206396775994946" lon="14.508378961718034"><ele>17.0</ele><time>2026-04-06T05:26:57.998Z</time></trkpt><trkpt lat="42.206471831778636" lon="14.508487010841598"><ele>17.0</ele><time>2026-04-06T05:26:59.998Z</time></trkpt><trkpt lat="42.20655160214614" lon="14.508593711242186"><ele>16.6</ele><time>2026-04-06T05:27:01.998Z</time></trkpt><trkpt lat="42.20662786405182" lon="14.508707847193415"><ele>16.2</ele><time>2026-04-06T05:27:03.998Z</time></trkpt><trkpt lat="42.20670354383261" lon="14.508819338912982"><ele>15.8</ele><time>2026-04-06T05:27:05.998Z</time></trkpt><trkpt lat="42.20677509137477" lon="14.50893227219424"><ele>15.4</ele><time>2026-04-06T05:27:07.998Z</time></trkpt><trkpt lat="42.206849854433266" lon="14.509046351628621"><ele>15.0</ele><time>2026-04-06T05:27:09.998Z</time></trkpt><trkpt lat="42.20691850427491" lon="14.509153801986953"><ele>14.8</ele><time>2026-04-06T05:27:11.998Z</time></trkpt><trkpt lat="42.206987772233006" lon="14.509253892174222"><ele>14.6</ele><time>2026-04-06T05:27:13.998Z</time></trkpt><trkpt lat="42.20706894934425" lon="14.509337497378318"><ele>14.399999999999999</ele><time>2026-04-06T05:27:15.998Z</time></trkpt><trkpt lat="42.20714182054833" lon="14.509431870189163"><ele>14.2</ele><time>2026-04-06T05:27:18Z</time></trkpt><trkpt lat="42.20720511280127" lon="14.509548509962721"><ele>14.0</ele><time>2026-04-06T05:27:20Z</time></trkpt><trkpt lat="42.207265226374325" lon="14.509661254097367"><ele>14.399999999999999</ele><time>2026-04-06T05:27:22Z</time></trkpt><trkpt lat="42.207336875391086" lon="14.50976594345516"><ele>14.799999999999999</ele><time>2026-04-06T05:27:24Z</time></trkpt><trkpt lat="42.2074051560105" lon="14.50987631218652"><ele>15.200000000000001</ele><time>2026-04-06T05:27:26Z</time></trkpt><trkpt lat="42.207476490335644" lon="14.509986892340919"><ele>15.600000000000001</ele><time>2026-04-06T05:27:28Z</time></trkpt><trkpt lat="42.20754743504546" lon="14.510098341126334"><ele>16.0</ele><time>2026-04-06T05:27:30Z</time></trkpt><trkpt lat="42.20762435756696" lon="14.510202083993514"><ele>16.0</ele><time>2026-04-06T05:27:32Z</time></trkpt><trkpt lat="42.20769874332175" lon="14.51030933011771"><ele>16.0</ele><time>2026-04-06T05:27:34Z</time></trkpt><trkpt lat="42.20777168069258" lon="14.510419902531941"><ele>16.0</ele><time>2026-04-06T05:27:36Z</time></trkpt><trkpt lat="42.207851842882384" lon="14.510520920245181"><ele>16.0</ele><time>2026-04-06T05:27:38Z</time></trkpt><trkpt lat="42.20794421803216" lon="14.510606359162157"><ele>16.0</ele><time>2026-04-06T05:27:40Z</time></trkpt><trkpt lat="42.20804056408371" lon="14.510688232262948"><ele>15.75</ele><time>2026-04-06T05:27:42Z</time></trkpt><trkpt lat="42.2081433394226" lon="14.51076020846297"><ele>15.5</ele><time>2026-04-06T05:27:44Z</time></trkpt><trkpt lat="42.20824807110313" lon="14.510824012232467"><ele>15.25</ele><time>2026-04-06T05:27:46Z</time></trkpt><trkpt lat="42.20835051850458" lon="14.51089065663671"><ele>15.0</ele><time>2026-04-06T05:27:48Z</time></trkpt><trkpt lat="42.208447748397674" lon="14.510968052985664"><ele>15.0</ele><time>2026-04-06T05:27:50Z</time></trkpt><trkpt lat="42.20854921715613" lon="14.511030634254817"><ele>15.0</ele><time>2026-04-06T05:27:52Z</time></trkpt><trkpt lat="42.20864719947317" lon="14.511097573513842"><ele>15.0</ele><time>2026-04-06T05:27:54Z</time></trkpt><trkpt lat="42.20874411232717" lon="14.511164465180006"><ele>15.0</ele><time>2026-04-06T05:27:56Z</time></trkpt><trkpt lat="42.208843310094" lon="14.511227320263774"><ele>15.0</ele><time>2026-04-06T05:27:58Z</time></trkpt><trkpt lat="42.20893923831317" lon="14.51129426562842"><ele>15.0</ele><time>2026-04-06T05:28:00Z</time></trkpt><trkpt lat="42.209036570553614" lon="14.511351108969256"><ele>15.0</ele><time>2026-04-06T05:28:02Z</time></trkpt><trkpt lat="42.209129246072365" lon="14.511410153374003"><ele>15.0</ele><time>2026-04-06T05:28:03.999Z</time></trkpt><trkpt lat="42.20921981399891" lon="14.511473108862118"><ele>15.0</ele><time>2026-04-06T05:28:05.999Z</time></trkpt><trkpt lat="42.209310117732535" lon="14.511523414177615"><ele>15.0</ele><time>2026-04-06T05:28:07.999Z</time></trkpt><trkpt lat="42.20942920449654" lon="14.511597691863676"><ele>15.0</ele><time>2026-04-06T05:28:10.999Z</time></trkpt><trkpt lat="42.2095067710331" lon="14.511642971271076"><ele>15.0</ele><time>2026-04-06T05:28:11.999Z</time></trkpt><trkpt lat="42.20958698847671" lon="14.511741524409892"><ele>15.0</ele><time>2026-04-06T05:28:13.999Z</time></trkpt><trkpt lat="42.209674352781306" lon="14.511791106802482"><ele>15.0</ele><time>2026-04-06T05:28:15.999Z</time></trkpt><trkpt lat="42.20975550001201" lon="14.511850360755117"><ele>15.0</ele><time>2026-04-06T05:28:17.999Z</time></trkpt><trkpt lat="42.20983825802288" lon="14.51190565166886"><ele>15.166666666666666</ele><time>2026-04-06T05:28:19.999Z</time></trkpt><trkpt lat="42.20991984698314" lon="14.511961630751944"><ele>15.333333333333332</ele><time>2026-04-06T05:28:21.999Z</time></trkpt><trkpt lat="42.20999863991626" lon="14.512000887619113"><ele>15.5</ele><time>2026-04-06T05:28:23.999Z</time></trkpt><trkpt lat="42.21007811176804" lon="14.512029566130328"><ele>15.666666666666666</ele><time>2026-04-06T05:28:25.999Z</time></trkpt><trkpt lat="42.21015498993252" lon="14.512059516202411"><ele>15.833333333333332</ele><time>2026-04-06T05:28:27.999Z</time></trkpt><trkpt lat="42.2102408012817" lon="14.512092476674612"><ele>16.0</ele><time>2026-04-06T05:28:30.999Z</time></trkpt><trkpt lat="42.210309252430314" lon="14.512142693329894"><ele>15.999999999999998</ele><time>2026-04-06T05:28:33.999Z</time></trkpt><trkpt lat="42.210360996899055" lon="14.512207738310513"><ele>16.0</ele><time>2026-04-06T05:28:36.999Z</time></trkpt><trkpt lat="42.210379591499766" lon="14.512317773692704"><ele>16.0</ele><time>2026-04-06T05:28:39.999Z</time></trkpt><trkpt lat="42.21036153562601" lon="14.512415788017869"><ele>16.0</ele><time>2026-04-06T05:28:41.999Z</time></trkpt><trkpt lat="42.21032541616794" lon="14.512514704464703"><ele>15.999999999999998</ele><time>2026-04-06T05:28:43.999Z</time></trkpt><trkpt lat="42.21027128411262" lon="14.512614953880291"><ele>16.0</ele><time>2026-04-06T05:28:45.999Z</time></trkpt><trkpt lat="42.21022400032136" lon="14.512714883623973"><ele>16.0</ele><time>2026-04-06T05:28:47.999Z</time></trkpt><trkpt lat="42.21017727312084" lon="14.512819389480471"><ele>16.0</ele><time>2026-04-06T05:28:49.999Z</time></trkpt><trkpt lat="42.210130759981574" lon="14.512924478225818"><ele>16.0</ele><time>2026-04-06T05:28:51.999Z</time></trkpt><trkpt lat="42.21008369352449" lon="14.513029780135739"><ele>16.0</ele><time>2026-04-06T05:28:53.999Z</time></trkpt><trkpt lat="42.21003445933139" lon="14.513135607605637"><ele>16.0</ele><time>2026-04-06T05:28:55.999Z</time></trkpt><trkpt lat="42.20998690713189" lon="14.513243302028277"><ele>15.8</ele><time>2026-04-06T05:28:57.998Z</time></trkpt><trkpt lat="42.20993781842132" lon="14.513347868234312"><ele>15.600000000000001</ele><time>2026-04-06T05:28:59.998Z</time></trkpt><trkpt lat="42.20988628217071" lon="14.513462190439588"><ele>15.4</ele><time>2026-04-06T05:29:01.998Z</time></trkpt><trkpt lat="42.209837354258696" lon="14.51357535272108"><ele>15.2</ele><time>2026-04-06T05:29:03.998Z</time></trkpt><trkpt lat="42.209784931959256" lon="14.513687984675299"><ele>15.0</ele><time>2026-04-06T05:29:05.998Z</time></trkpt><trkpt lat="42.209735691881896" lon="14.513798217174816"><ele>15.0</ele><time>2026-04-06T05:29:07.998Z</time></trkpt><trkpt lat="42.20968519318597" lon="14.513911971122312"><ele>15.0</ele><time>2026-04-06T05:29:09.998Z</time></trkpt><trkpt lat="42.20963192110345" lon="14.514027526428046"><ele>15.0</ele><time>2026-04-06T05:29:11.998Z</time></trkpt><trkpt lat="42.20957884716599" lon="14.514144422332205"><ele>15.0</ele><time>2026-04-06T05:29:13.998Z</time></trkpt><trkpt lat="42.20952569614935" lon="14.514263482054686"><ele>15.0</ele><time>2026-04-06T05:29:15.998Z</time></trkpt><trkpt lat="42.20947282116213" lon="14.514379385039687"><ele>15.0</ele><time>2026-04-06T05:29:17.998Z</time></trkpt><trkpt lat="42.209418176261416" lon="14.514497997235399"><ele>15.0</ele><time>2026-04-06T05:29:19.998Z</time></trkpt><trkpt lat="42.2093658882356" lon="14.514619434329422"><ele>15.0</ele><time>2026-04-06T05:29:21.998Z</time></trkpt><trkpt lat="42.20931323513175" lon="14.514739991868145"><ele>15.0</ele><time>2026-04-06T05:29:24Z</time></trkpt><trkpt lat="42.20925784893609" lon="14.514861977465186"><ele>15.0</ele><time>2026-04-06T05:29:26Z</time></trkpt><trkpt lat="42.209202748147156" lon="14.514983788444653"><ele>14.6</ele><time>2026-04-06T05:29:28Z</time></trkpt><trkpt lat="42.209147760038526" lon="14.515107912406043"><ele>14.2</ele><time>2026-04-06T05:29:30Z</time></trkpt><trkpt lat="42.209091930099376" lon="14.51522989774404"><ele>13.8</ele><time>2026-04-06T05:29:32Z</time></trkpt><trkpt lat="42.20904016621599" lon="14.515353734700879"><ele>13.4</ele><time>2026-04-06T05:29:34Z</time></trkpt><trkpt lat="42.2089848127565" lon="14.51547489959872"><ele>13.0</ele><time>2026-04-06T05:29:36Z</time></trkpt><trkpt lat="42.20893110168541" lon="14.515595314362745"><ele>13.8</ele><time>2026-04-06T05:29:38Z</time></trkpt><trkpt lat="42.20887703807006" lon="14.515714001904684"><ele>14.600000000000001</ele><time>2026-04-06T05:29:40Z</time></trkpt><trkpt lat="42.208821928716844" lon="14.515833058875709"><ele>15.399999999999999</ele><time>2026-04-06T05:29:42Z</time></trkpt><trkpt lat="42.2087664973436" lon="14.515953713861087"><ele>16.2</ele><time>2026-04-06T05:29:44Z</time></trkpt><trkpt lat="42.20871178787355" lon="14.516078423306976"><ele>17.0</ele><time>2026-04-06T05:29:46Z</time></trkpt><trkpt lat="42.208654788551875" lon="14.516203779864481"><ele>17.4</ele><time>2026-04-06T05:29:48Z</time></trkpt><trkpt lat="42.208598544836896" lon="14.516326102538894"><ele>17.799999999999997</ele><time>2026-04-06T05:29:50Z</time></trkpt><trkpt lat="42.20854625565946" lon="14.516451078811127"><ele>18.2</ele><time>2026-04-06T05:29:52Z</time></trkpt><trkpt lat="42.208494685657556" lon="14.516573911337906"><ele>18.599999999999998</ele><time>2026-04-06T05:29:54Z</time></trkpt><trkpt lat="42.208436656541366" lon="14.516688355053422"><ele>19.0</ele><time>2026-04-06T05:29:56Z</time></trkpt><trkpt lat="42.20838710680622" lon="14.516797748424068"><ele>19.0</ele><time>2026-04-06T05:29:58Z</time></trkpt><trkpt lat="42.208343284529114" lon="14.516900608442615"><ele>19.0</ele><time>2026-04-06T05:30:00Z</time></trkpt><trkpt lat="42.20829873329842" lon="14.516998251094945"><ele>19.0</ele><time>2026-04-06T05:30:02Z</time></trkpt><trkpt lat="42.20825396443025" lon="14.517099617056541"><ele>19.0</ele><time>2026-04-06T05:30:03.999Z</time></trkpt><trkpt lat="42.20821085342791" lon="14.517203826730174"><ele>19.0</ele><time>2026-04-06T05:30:05.999Z</time></trkpt><trkpt lat="42.20816445657885" lon="14.517303681571686"><ele>19.0</ele><time>2026-04-06T05:30:07.999Z</time></trkpt><trkpt lat="42.208121756359255" lon="14.517403574838774"><ele>18.833333333333332</ele><time>2026-04-06T05:30:09.999Z</time></trkpt><trkpt lat="42.20807790718821" lon="14.517503185135505"><ele>18.666666666666664</ele><time>2026-04-06T05:30:11.999Z</time></trkpt><trkpt lat="42.20803756813105" lon="14.51760446039084"><ele>18.5</ele><time>2026-04-06T05:30:13.999Z</time></trkpt><trkpt lat="42.20800089810535" lon="14.517705408938845"><ele>18.333333333333332</ele><time>2026-04-06T05:30:15.999Z</time></trkpt><trkpt lat="42.207959238927316" lon="14.517806792582372"><ele>18.166666666666668</ele><time>2026-04-06T05:30:17.999Z</time></trkpt><trkpt lat="42.20792424131739" lon="14.517911801351197"><ele>18.0</ele><time>2026-04-06T05:30:19.999Z</time></trkpt><trkpt lat="42.207889053382736" lon="14.518016937341063"><ele>18.833333333333332</ele><time>2026-04-06T05:30:21.999Z</time></trkpt><trkpt lat="42.2078530518151" lon="14.518122768932104"><ele>19.666666666666668</ele><time>2026-04-06T05:30:23.999Z</time></trkpt><trkpt lat="42.207819098891434" lon="14.518226614961423"><ele>20.5</ele><time>2026-04-06T05:30:25.999Z</time></trkpt><trkpt lat="42.2077864161125" lon="14.518333389220123"><ele>21.333333333333336</ele><time>2026-04-06T05:30:27.999Z</time></trkpt><trkpt lat="42.20775511500431" lon="14.518438456742865"><ele>22.166666666666668</ele><time>2026-04-06T05:30:29.999Z</time></trkpt><trkpt lat="42.207720201101516" lon="14.518547145108862"><ele>23.0</ele><time>2026-04-06T05:30:31.999Z</time></trkpt><trkpt lat="42.20768570978695" lon="14.518657556092721"><ele>23.5</ele><time>2026-04-06T05:30:33.999Z</time></trkpt><trkpt lat="42.2076538192256" lon="14.518768198718263"><ele>24.0</ele><time>2026-04-06T05:30:35.999Z</time></trkpt><trkpt lat="42.207620323275954" lon="14.51887031067359"><ele>24.5</ele><time>2026-04-06T05:30:37.999Z</time></trkpt><trkpt lat="42.20758811588081" lon="14.518971693576612"><ele>25.0</ele><time>2026-04-06T05:30:39.999Z</time></trkpt><trkpt lat="42.207559425322465" lon="14.519070253469941"><ele>25.499999999999996</ele><time>2026-04-06T05:30:41.999Z</time></trkpt><trkpt lat="42.20752887374274" lon="14.519167288807465"><ele>26.0</ele><time>2026-04-06T05:30:43.999Z</time></trkpt><trkpt lat="42.207499542054464" lon="14.519266557213495"><ele>25.999999999999996</ele><time>2026-04-06T05:30:45.999Z</time></trkpt><trkpt lat="42.207469325304565" lon="14.519367269830164"><ele>26.0</ele><time>2026-04-06T05:30:47.999Z</time></trkpt><trkpt lat="42.2074341736317" lon="14.519459606840032"><ele>26.0</ele><time>2026-04-06T05:30:49.999Z</time></trkpt><trkpt lat="42.207408565236804" lon="14.519547788381445"><ele>26.0</ele><time>2026-04-06T05:30:51.999Z</time></trkpt><trkpt lat="42.207400092539615" lon="14.519675765112144"><ele>25.999999999999996</ele><time>2026-04-06T05:30:54.999Z</time></trkpt><trkpt lat="42.2074307020587" lon="14.51976116613194"><ele>26.0</ele><time>2026-04-06T05:30:56.999Z</time></trkpt><trkpt lat="42.20746854435653" lon="14.519855996278526"><ele>26.666666666666664</ele><time>2026-04-06T05:30:58.998Z</time></trkpt><trkpt lat="42.20751673882173" lon="14.519946662225275"><ele>27.333333333333332</ele><time>2026-04-06T05:31:00.998Z</time></trkpt><trkpt lat="42.20756884815886" lon="14.520032794310314"><ele>28.0</ele><time>2026-04-06T05:31:02.998Z</time></trkpt><trkpt lat="42.207619380777096" lon="14.520124235551226"><ele>28.666666666666664</ele><time>2026-04-06T05:31:04.998Z</time></trkpt><trkpt lat="42.20767210242318" lon="14.520214522884434"><ele>29.333333333333332</ele><time>2026-04-06T05:31:06.998Z</time></trkpt><trkpt lat="42.207726286253404" lon="14.520300071422266"><ele>30.0</ele><time>2026-04-06T05:31:08.998Z</time></trkpt><trkpt lat="42.20777838540216" lon="14.520395710662514"><ele>30.0</ele><time>2026-04-06T05:31:10.998Z</time></trkpt><trkpt lat="42.207831693490085" lon="14.520490280404097"><ele>30.0</ele><time>2026-04-06T05:31:12.998Z</time></trkpt><trkpt lat="42.207891309385225" lon="14.520578053253889"><ele>30.0</ele><time>2026-04-06T05:31:14.998Z</time></trkpt><trkpt lat="42.20795706289937" lon="14.520657162372542"><ele>30.0</ele><time>2026-04-06T05:31:16.998Z</time></trkpt><trkpt lat="42.208033655714154" lon="14.520721090116966"><ele>30.0</ele><time>2026-04-06T05:31:18.998Z</time></trkpt><trkpt lat="42.20811446936511" lon="14.520775250738298"><ele>30.0</ele><time>2026-04-06T05:31:20.998Z</time></trkpt><trkpt lat="42.208202316251864" lon="14.520813193337792"><ele>30.0</ele><time>2026-04-06T05:31:22.998Z</time></trkpt><trkpt lat="42.20829251100385" lon="14.52085552924365"><ele>30.0</ele><time>2026-04-06T05:31:24.998Z</time></trkpt><trkpt lat="42.20838227244811" lon="14.52089054764428"><ele>30.0</ele><time>2026-04-06T05:31:26.998Z</time></trkpt><trkpt lat="42.20847076067139" lon="14.520928508060551"><ele>30.0</ele><time>2026-04-06T05:31:29Z</time></trkpt><trkpt lat="42.20855735567414" lon="14.520978071609065"><ele>30.0</ele><time>2026-04-06T05:31:31Z</time></trkpt><trkpt lat="42.2086371363003" lon="14.521043520430593"><ele>30.0</ele><time>2026-04-06T05:31:33Z</time></trkpt><trkpt lat="42.20871007840826" lon="14.521125433688209"><ele>30.0</ele><time>2026-04-06T05:31:35Z</time></trkpt><trkpt lat="42.20877783962439" lon="14.521220347420037"><ele>30.0</ele><time>2026-04-06T05:31:37Z</time></trkpt><trkpt lat="42.208830919080036" lon="14.521332587830354"><ele>30.0</ele><time>2026-04-06T05:31:39Z</time></trkpt><trkpt lat="42.208874736435405" lon="14.521448990851486"><ele>30.0</ele><time>2026-04-06T05:31:41Z</time></trkpt><trkpt lat="42.20891257831688" lon="14.52156454714858"><ele>29.6</ele><time>2026-04-06T05:31:43Z</time></trkpt><trkpt lat="42.20894951615784" lon="14.521681273318638"><ele>29.2</ele><time>2026-04-06T05:31:45Z</time></trkpt><trkpt lat="42.20899044734028" lon="14.521799646470075"><ele>28.799999999999997</ele><time>2026-04-06T05:31:47Z</time></trkpt><trkpt lat="42.20904221934087" lon="14.521912940686533"><ele>28.4</ele><time>2026-04-06T05:31:49Z</time></trkpt><trkpt lat="42.20910516086717" lon="14.522016274071143"><ele>28.0</ele><time>2026-04-06T05:31:51Z</time></trkpt><trkpt lat="42.209169683733" lon="14.522117990558982"><ele>29.799999999999997</ele><time>2026-04-06T05:31:53Z</time></trkpt><trkpt lat="42.2092420151534" lon="14.522217802745244"><ele>31.599999999999998</ele><time>2026-04-06T05:31:55Z</time></trkpt><trkpt lat="42.20931468117562" lon="14.522311438214123"><ele>33.400000000000006</ele><time>2026-04-06T05:31:57Z</time></trkpt><trkpt lat="42.209385953098774" lon="14.522404910200738"><ele>35.2</ele><time>2026-04-06T05:31:59Z</time></trkpt><trkpt lat="42.20945232900621" lon="14.522496440627258"><ele>37.0</ele><time>2026-04-06T05:32:01Z</time></trkpt><trkpt lat="42.20951945633974" lon="14.522586136730414"><ele>37.0</ele><time>2026-04-06T05:32:03Z</time></trkpt><trkpt lat="42.20959011897258" lon="14.52267406741158"><ele>37.0</ele><time>2026-04-06T05:32:05Z</time></trkpt><trkpt lat="42.20966311145822" lon="14.522760310050419"><ele>37.0</ele><time>2026-04-06T05:32:07Z</time></trkpt><trkpt lat="42.20974023145422" lon="14.522842421095636"><ele>37.0</ele><time>2026-04-06T05:32:08.999Z</time></trkpt><trkpt lat="42.20982034876047" lon="14.522922529793293"><ele>37.0</ele><time>2026-04-06T05:32:10.999Z</time></trkpt><trkpt lat="42.209899727806075" lon="14.522998242836548"><ele>37.2</ele><time>2026-04-06T05:32:12.999Z</time></trkpt><trkpt lat="42.209977974161866" lon="14.523075488576088"><ele>37.400000000000006</ele><time>2026-04-06T05:32:14.999Z</time></trkpt><trkpt lat="42.21005431836925" lon="14.523151129129582"><ele>37.599999999999994</ele><time>2026-04-06T05:32:16.999Z</time></trkpt><trkpt lat="42.210132410467594" lon="14.523227790377526"><ele>37.8</ele><time>2026-04-06T05:32:18.999Z</time></trkpt><trkpt lat="42.21021213720931" lon="14.523303455871117"><ele>38.0</ele><time>2026-04-06T05:32:20.999Z</time></trkpt><trkpt lat="42.21028997434967" lon="14.52337922156678"><ele>38.0</ele><time>2026-04-06T05:32:22.999Z</time></trkpt><trkpt lat="42.21036815287652" lon="14.523455030414866"><ele>38.0</ele><time>2026-04-06T05:32:24.999Z</time></trkpt><trkpt lat="42.21044800645606" lon="14.523531249775942"><ele>38.0</ele><time>2026-04-06T05:32:26.999Z</time></trkpt><trkpt lat="42.210525275795426" lon="14.523608410755315"><ele>38.0</ele><time>2026-04-06T05:32:28.999Z</time></trkpt><trkpt lat="42.2106019545793" lon="14.523684049509782"><ele>38.0</ele><time>2026-04-06T05:32:30.999Z</time></trkpt><trkpt lat="42.21068085716245" lon="14.523756354603803"><ele>38.4</ele><time>2026-04-06T05:32:32.999Z</time></trkpt><trkpt lat="42.21075757092947" lon="14.523834524533555"><ele>38.8</ele><time>2026-04-06T05:32:34.999Z</time></trkpt><trkpt lat="42.21083612843185" lon="14.523907604122419"><ele>39.2</ele><time>2026-04-06T05:32:36.999Z</time></trkpt><trkpt lat="42.21091278455425" lon="14.523982764576957"><ele>39.6</ele><time>2026-04-06T05:32:38.999Z</time></trkpt><trkpt lat="42.21099206296778" lon="14.524056818288711"><ele>40.0</ele><time>2026-04-06T05:32:40.999Z</time></trkpt><trkpt lat="42.21106932982651" lon="14.524131541642786"><ele>40.0</ele><time>2026-04-06T05:32:42.999Z</time></trkpt><trkpt lat="42.21114735907063" lon="14.524205438056285"><ele>40.0</ele><time>2026-04-06T05:32:44.999Z</time></trkpt><trkpt lat="42.21122381024042" lon="14.524279231905007"><ele>40.0</ele><time>2026-04-06T05:32:46.999Z</time></trkpt><trkpt lat="42.21129844871232" lon="14.524346883265835"><ele>40.0</ele><time>2026-04-06T05:32:48.999Z</time></trkpt><trkpt lat="42.211373491415756" lon="14.52442167914948"><ele>40.0</ele><time>2026-04-06T05:32:50.999Z</time></trkpt><trkpt lat="42.21144611998912" lon="14.524490336356529"><ele>40.2</ele><time>2026-04-06T05:32:52.999Z</time></trkpt><trkpt lat="42.21152582709588" lon="14.524566863203187"><ele>40.4</ele><time>2026-04-06T05:32:54.999Z</time></trkpt><trkpt lat="42.211611134499485" lon="14.52464390018749"><ele>40.599999999999994</ele><time>2026-04-06T05:32:56.999Z</time></trkpt><trkpt lat="42.21169450492458" lon="14.524717623229874"><ele>40.8</ele><time>2026-04-06T05:32:58.999Z</time></trkpt><trkpt lat="42.2117804060822" lon="14.524790273067046"><ele>41.0</ele><time>2026-04-06T05:33:00.999Z</time></trkpt><trkpt lat="42.211870304650716" lon="14.524850007938825"><ele>41.0</ele><time>2026-04-06T05:33:02.999Z</time></trkpt><trkpt lat="42.211961840227936" lon="14.524902433820852"><ele>41.0</ele><time>2026-04-06T05:33:04.998Z</time></trkpt><trkpt lat="42.21205706048659" lon="14.524944223163706"><ele>41.0</ele><time>2026-04-06T05:33:06.998Z</time></trkpt><trkpt lat="42.21215243487518" lon="14.524976037215893"><ele>41.0</ele><time>2026-04-06T05:33:08.998Z</time></trkpt><trkpt lat="42.21224727769524" lon="14.525001327884626"><ele>41.0</ele><time>2026-04-06T05:33:10.998Z</time></trkpt><trkpt lat="42.21234373553576" lon="14.525029176509923"><ele>40.199999999999996</ele><time>2026-04-06T05:33:12.998Z</time></trkpt><trkpt lat="42.212439933287335" lon="14.52507145934197"><ele>39.4</ele><time>2026-04-06T05:33:14.998Z</time></trkpt><trkpt lat="42.21252178448734" lon="14.525136863340462"><ele>38.6</ele><time>2026-04-06T05:33:16.998Z</time></trkpt><trkpt lat="42.212584108172926" lon="14.525237830527683"><ele>37.8</ele><time>2026-04-06T05:33:18.998Z</time></trkpt><trkpt lat="42.212627732185915" lon="14.525350688547249"><ele>37.0</ele><time>2026-04-06T05:33:20.998Z</time></trkpt><trkpt lat="42.2126664543388" lon="14.525466664202554"><ele>39.0</ele><time>2026-04-06T05:33:22.998Z</time></trkpt><trkpt lat="42.21270241707943" lon="14.525590252969648"><ele>41.0</ele><time>2026-04-06T05:33:24.998Z</time></trkpt><trkpt lat="42.212748812814084" lon="14.525710298742261"><ele>43.0</ele><time>2026-04-06T05:33:26.998Z</time></trkpt><trkpt lat="42.21281072026352" lon="14.525814762464078"><ele>45.0</ele><time>2026-04-06T05:33:28.998Z</time></trkpt><trkpt lat="42.21288244887961" lon="14.525908962880106"><ele>47.0</ele><time>2026-04-06T05:33:30.998Z</time></trkpt><trkpt lat="42.212952533139365" lon="14.526000036119948"><ele>47.0</ele><time>2026-04-06T05:33:32.998Z</time></trkpt><trkpt lat="42.213032117192206" lon="14.526078698562362"><ele>47.0</ele><time>2026-04-06T05:33:35Z</time></trkpt><trkpt lat="42.21311283275525" lon="14.526159816141424"><ele>47.0</ele><time>2026-04-06T05:33:37Z</time></trkpt><trkpt lat="42.21317850824709" lon="14.52625884015001"><ele>47.0</ele><time>2026-04-06T05:33:39Z</time></trkpt><trkpt lat="42.2132326244759" lon="14.52637055229921"><ele>47.0</ele><time>2026-04-06T05:33:41Z</time></trkpt><trkpt lat="42.21326854786844" lon="14.526495043678148"><ele>47.0</ele><time>2026-04-06T05:33:43Z</time></trkpt><trkpt lat="42.21328945807497" lon="14.526624398358901"><ele>47.0</ele><time>2026-04-06T05:33:45Z</time></trkpt><trkpt lat="42.21330042706115" lon="14.52675506855948"><ele>47.0</ele><time>2026-04-06T05:33:47Z</time></trkpt><trkpt lat="42.21332069437848" lon="14.526877507463853"><ele>47.0</ele><time>2026-04-06T05:33:49Z</time></trkpt><trkpt lat="42.213350214991436" lon="14.527003157653304"><ele>47.0</ele><time>2026-04-06T05:33:51Z</time></trkpt><trkpt lat="42.21339660191963" lon="14.527118741128762"><ele>47.0</ele><time>2026-04-06T05:33:53Z</time></trkpt><trkpt lat="42.21345630946853" lon="14.527224133211215"><ele>47.0</ele><time>2026-04-06T05:33:55Z</time></trkpt><trkpt lat="42.21352053515431" lon="14.527317667927356"><ele>47.0</ele><time>2026-04-06T05:33:57Z</time></trkpt><trkpt lat="42.21359795293733" lon="14.527394998159732"><ele>47.0</ele><time>2026-04-06T05:33:59Z</time></trkpt><trkpt lat="42.213677562241706" lon="14.52746297842826"><ele>47.0</ele><time>2026-04-06T05:34:01Z</time></trkpt><trkpt lat="42.21376169942939" lon="14.527520566636394"><ele>47.0</ele><time>2026-04-06T05:34:03Z</time></trkpt><trkpt lat="42.21384224516235" lon="14.527582763073339"><ele>47.0</ele><time>2026-04-06T05:34:05Z</time></trkpt><trkpt lat="42.21392277807498" lon="14.52763556706817"><ele>47.0</ele><time>2026-04-06T05:34:07Z</time></trkpt><trkpt lat="42.214003977515056" lon="14.527702321541314"><ele>47.0</ele><time>2026-04-06T05:34:09Z</time></trkpt><trkpt lat="42.21407963008855" lon="14.527774421450808"><ele>47.0</ele><time>2026-04-06T05:34:10.999Z</time></trkpt><trkpt lat="42.21415118212953" lon="14.527860733794371"><ele>46.8</ele><time>2026-04-06T05:34:12.999Z</time></trkpt><trkpt lat="42.21421344210718" lon="14.527960559481969"><ele>46.6</ele><time>2026-04-06T05:34:14.999Z</time></trkpt><trkpt lat="42.21426246277081" lon="14.528071647830338"><ele>46.4</ele><time>2026-04-06T05:34:16.999Z</time></trkpt><trkpt lat="42.21429175108727" lon="14.528191950911882"><ele>46.199999999999996</ele><time>2026-04-06T05:34:18.999Z</time></trkpt><trkpt lat="42.21431328273287" lon="14.528315724815952"><ele>46.0</ele><time>2026-04-06T05:34:20.999Z</time></trkpt><trkpt lat="42.214331094998826" lon="14.528439421244657"><ele>46.0</ele><time>2026-04-06T05:34:22.999Z</time></trkpt><trkpt lat="42.21435284826937" lon="14.528562654601416"><ele>46.0</ele><time>2026-04-06T05:34:24.999Z</time></trkpt><trkpt lat="42.214379529006486" lon="14.528686061892765"><ele>46.0</ele><time>2026-04-06T05:34:26.999Z</time></trkpt><trkpt lat="42.21442154026837" lon="14.528802591829312"><ele>46.0</ele><time>2026-04-06T05:34:28.999Z</time></trkpt><trkpt lat="42.21447959830298" lon="14.528911944340166"><ele>46.0</ele><time>2026-04-06T05:34:30.999Z</time></trkpt><trkpt lat="42.21455208758505" lon="14.529002904557576"><ele>45.599999999999994</ele><time>2026-04-06T05:34:32.999Z</time></trkpt><trkpt lat="42.21463569767699" lon="14.529084629722089"><ele>45.2</ele><time>2026-04-06T05:34:34.999Z</time></trkpt><trkpt lat="42.214721325971155" lon="14.529163856547775"><ele>44.8</ele><time>2026-04-06T05:34:36.999Z</time></trkpt><trkpt lat="42.21481373052656" lon="14.529233858336305"><ele>44.400000000000006</ele><time>2026-04-06T05:34:38.999Z</time></trkpt><trkpt lat="42.21490584584996" lon="14.529297504738611"><ele>44.0</ele><time>2026-04-06T05:34:40.999Z</time></trkpt><trkpt lat="42.214998554623385" lon="14.529345408006302"><ele>44.0</ele><time>2026-04-06T05:34:42.999Z</time></trkpt><trkpt lat="42.21509315865387" lon="14.529381658165816"><ele>44.0</ele><time>2026-04-06T05:34:44.999Z</time></trkpt><trkpt lat="42.215186550974295" lon="14.529400844411743"><ele>44.0</ele><time>2026-04-06T05:34:46.999Z</time></trkpt><trkpt lat="42.21529103989794" lon="14.529394290275523"><ele>44.0</ele><time>2026-04-06T05:34:48.999Z</time></trkpt><trkpt lat="42.215394827026444" lon="14.529383163784136"><ele>44.0</ele><time>2026-04-06T05:34:50.999Z</time></trkpt><trkpt lat="42.21550093571752" lon="14.529373669034532"><ele>44.0</ele><time>2026-04-06T05:34:52.999Z</time></trkpt><trkpt lat="42.21560566801552" lon="14.529377269169615"><ele>44.0</ele><time>2026-04-06T05:34:54.999Z</time></trkpt><trkpt lat="42.21570942936267" lon="14.529426221793955"><ele>44.0</ele><time>2026-04-06T05:34:56.999Z</time></trkpt><trkpt lat="42.21579489881807" lon="14.529513778668745"><ele>44.0</ele><time>2026-04-06T05:34:58.999Z</time></trkpt><trkpt lat="42.21585936988107" lon="14.52963217396563"><ele>44.0</ele><time>2026-04-06T05:35:00.999Z</time></trkpt><trkpt lat="42.21591866232322" lon="14.529750472617518"><ele>45.400000000000006</ele><time>2026-04-06T05:35:02.998Z</time></trkpt><trkpt lat="42.21597891850715" lon="14.529855506820903"><ele>46.8</ele><time>2026-04-06T05:35:04.998Z</time></trkpt><trkpt lat="42.2160478010729" lon="14.52995745996618"><ele>48.2</ele><time>2026-04-06T05:35:06.998Z</time></trkpt><trkpt lat="42.21612770422757" lon="14.530033557480197"><ele>49.599999999999994</ele><time>2026-04-06T05:35:08.998Z</time></trkpt><trkpt lat="42.21621632726931" lon="14.530095245130664"><ele>51.0</ele><time>2026-04-06T05:35:10.998Z</time></trkpt><trkpt lat="42.21631137702475" lon="14.53015980413864"><ele>51.0</ele><time>2026-04-06T05:35:12.998Z</time></trkpt><trkpt lat="42.216402343320674" lon="14.530220166749814"><ele>51.0</ele><time>2026-04-06T05:35:14.998Z</time></trkpt><trkpt lat="42.216489323112796" lon="14.530284443513246"><ele>51.0</ele><time>2026-04-06T05:35:16.998Z</time></trkpt><trkpt lat="42.216565480846384" lon="14.530344054935496"><ele>51.0</ele><time>2026-04-06T05:35:18.998Z</time></trkpt><trkpt lat="42.21664875471389" lon="14.530404104165756"><ele>51.0</ele><time>2026-04-06T05:35:20.998Z</time></trkpt><trkpt lat="42.21672762935415" lon="14.53047142521314"><ele>51.199999999999996</ele><time>2026-04-06T05:35:22.998Z</time></trkpt><trkpt lat="42.21680316069477" lon="14.530538406811838"><ele>51.4</ele><time>2026-04-06T05:35:24.998Z</time></trkpt><trkpt lat="42.216880727658996" lon="14.53061702101691"><ele>51.6</ele><time>2026-04-06T05:35:26.998Z</time></trkpt><trkpt lat="42.216954543233996" lon="14.53069620817449"><ele>51.8</ele><time>2026-04-06T05:35:28.998Z</time></trkpt><trkpt lat="42.21702538961885" lon="14.530785247414759"><ele>52.0</ele><time>2026-04-06T05:35:30.998Z</time></trkpt><trkpt lat="42.21708504681516" lon="14.530886915869742"><ele>52.0</ele><time>2026-04-06T05:35:32.998Z</time></trkpt><trkpt lat="42.21713236411633" lon="14.530995117139959"><ele>52.0</ele><time>2026-04-06T05:35:34.998Z</time></trkpt><trkpt lat="42.21716856425706" lon="14.531112077803884"><ele>52.0</ele><time>2026-04-06T05:35:36.998Z</time></trkpt><trkpt lat="42.21719873911607" lon="14.531225641329666"><ele>52.0</ele><time>2026-04-06T05:35:38.998Z</time></trkpt><trkpt lat="42.2172269641347" lon="14.531336095111046"><ele>52.0</ele><time>2026-04-06T05:35:41Z</time></trkpt><trkpt lat="42.21726200245376" lon="14.53144464988679"><ele>52.6</ele><time>2026-04-06T05:35:43Z</time></trkpt><trkpt lat="42.21730914521775" lon="14.531547156668402"><ele>53.2</ele><time>2026-04-06T05:35:45Z</time></trkpt><trkpt lat="42.21737356432897" lon="14.531639170327875"><ele>53.8</ele><time>2026-04-06T05:35:47Z</time></trkpt><trkpt lat="42.21745527755541" lon="14.531715291842827"><ele>54.4</ele><time>2026-04-06T05:35:49Z</time></trkpt><trkpt lat="42.21754829832618" lon="14.531759831381965"><ele>55.0</ele><time>2026-04-06T05:35:51Z</time></trkpt><trkpt lat="42.21764413509704" lon="14.531763841066114"><ele>55.0</ele><time>2026-04-06T05:35:53Z</time></trkpt><trkpt lat="42.21773989344736" lon="14.531764901969307"><ele>55.0</ele><time>2026-04-06T05:35:55Z</time></trkpt><trkpt lat="42.217836824454174" lon="14.531765796554234"><ele>55.0</ele><time>2026-04-06T05:35:57Z</time></trkpt><trkpt lat="42.21792957487265" lon="14.53175982086344"><ele>55.0</ele><time>2026-04-06T05:35:59Z</time></trkpt><trkpt lat="42.218026443761254" lon="14.531767476871348"><ele>55.0</ele><time>2026-04-06T05:36:01Z</time></trkpt><trkpt lat="42.21812078621522" lon="14.531777480993561"><ele>53.4</ele><time>2026-04-06T05:36:03Z</time></trkpt><trkpt lat="42.21821727922736" lon="14.531796402021051"><ele>51.8</ele><time>2026-04-06T05:36:05Z</time></trkpt><trkpt lat="42.21831650424937" lon="14.531847531851504"><ele>50.2</ele><time>2026-04-06T05:36:07Z</time></trkpt><trkpt lat="42.218415150208585" lon="14.53189295779184"><ele>48.6</ele><time>2026-04-06T05:36:09Z</time></trkpt><trkpt lat="42.218506759404285" lon="14.53194508117667"><ele>47.0</ele><time>2026-04-06T05:36:10.999Z</time></trkpt><trkpt lat="42.218596173224675" lon="14.531995918076001"><ele>47.0</ele><time>2026-04-06T05:36:12.999Z</time></trkpt><trkpt lat="42.21868047086446" lon="14.532048322491123"><ele>47.0</ele><time>2026-04-06T05:36:14.999Z</time></trkpt><trkpt lat="42.21876213257242" lon="14.53210389243656"><ele>47.0</ele><time>2026-04-06T05:36:16.999Z</time></trkpt><trkpt lat="42.21884087439833" lon="14.532162625659499"><ele>47.0</ele><time>2026-04-06T05:36:18.999Z</time></trkpt><trkpt lat="42.218922634694536" lon="14.532225761453972"><ele>47.0</ele><time>2026-04-06T05:36:20.999Z</time></trkpt><trkpt lat="42.2190039111009" lon="14.53228691396085"><ele>48.400000000000006</ele><time>2026-04-06T05:36:22.999Z</time></trkpt><trkpt lat="42.21908716825826" lon="14.532347370080325"><ele>49.800000000000004</ele><time>2026-04-06T05:36:24.999Z</time></trkpt><trkpt lat="42.21917021154945" lon="14.53240268383959"><ele>51.2</ele><time>2026-04-06T05:36:26.999Z</time></trkpt><trkpt lat="42.21925581028966" lon="14.532446464654834"><ele>52.6</ele><time>2026-04-06T05:36:28.999Z</time></trkpt><trkpt lat="42.21934632650922" lon="14.532481038552149"><ele>54.0</ele><time>2026-04-06T05:36:30.999Z</time></trkpt><trkpt lat="42.219438887264126" lon="14.532503243054826"><ele>54.0</ele><time>2026-04-06T05:36:32.999Z</time></trkpt><trkpt lat="42.21953293553658" lon="14.532503501772915"><ele>54.00000000000001</ele><time>2026-04-06T05:36:34.999Z</time></trkpt><trkpt lat="42.219626322999986" lon="14.532500115654685"><ele>54.00000000000001</ele><time>2026-04-06T05:36:36.999Z</time></trkpt><trkpt lat="42.21972399372763" lon="14.532512139082943"><ele>54.0</ele><time>2026-04-06T05:36:38.999Z</time></trkpt><trkpt lat="42.2198211939882" lon="14.532536593829725"><ele>54.0</ele><time>2026-04-06T05:36:40.999Z</time></trkpt><trkpt lat="42.219914283546174" lon="14.532584912527808"><ele>53.400000000000006</ele><time>2026-04-06T05:36:42.999Z</time></trkpt><trkpt lat="42.21999588933814" lon="14.53265315587452"><ele>52.800000000000004</ele><time>2026-04-06T05:36:44.999Z</time></trkpt><trkpt lat="42.22007272675926" lon="14.53273495600831"><ele>52.2</ele><time>2026-04-06T05:36:46.999Z</time></trkpt><trkpt lat="42.22014526178059" lon="14.532818726866935"><ele>51.599999999999994</ele><time>2026-04-06T05:36:48.999Z</time></trkpt><trkpt lat="42.220205963188846" lon="14.53293167483185"><ele>51.0</ele><time>2026-04-06T05:36:50.999Z</time></trkpt><trkpt lat="42.220264281465106" lon="14.53304335047387"><ele>50.199999999999996</ele><time>2026-04-06T05:36:52.999Z</time></trkpt><trkpt lat="42.220327651230384" lon="14.533150035659002"><ele>49.4</ele><time>2026-04-06T05:36:54.999Z</time></trkpt><trkpt lat="42.22040125961136" lon="14.53325758407862"><ele>48.6</ele><time>2026-04-06T05:36:56.999Z</time></trkpt><trkpt lat="42.22048980771943" lon="14.533356411121863"><ele>47.8</ele><time>2026-04-06T05:36:58.999Z</time></trkpt><trkpt lat="42.22058397446788" lon="14.533451801554998"><ele>47.0</ele><time>2026-04-06T05:37:00.999Z</time></trkpt><trkpt lat="42.22067414404226" lon="14.533543639287917"><ele>47.0</ele><time>2026-04-06T05:37:02.998Z</time></trkpt><trkpt lat="42.22075598356437" lon="14.533638638601847"><ele>47.0</ele><time>2026-04-06T05:37:04.998Z</time></trkpt><trkpt lat="42.22082998724303" lon="14.533733883281577"><ele>47.0</ele><time>2026-04-06T05:37:06.998Z</time></trkpt><trkpt lat="42.22089893614841" lon="14.53383930780856"><ele>47.0</ele><time>2026-04-06T05:37:08.998Z</time></trkpt><trkpt lat="42.22095984381009" lon="14.533945438431385"><ele>47.0</ele><time>2026-04-06T05:37:10.998Z</time></trkpt><trkpt lat="42.2210085234109" lon="14.534062290540923"><ele>50.400000000000006</ele><time>2026-04-06T05:37:12.998Z</time></trkpt><trkpt lat="42.221046127313585" lon="14.534176746322892"><ele>53.800000000000004</ele><time>2026-04-06T05:37:14.998Z</time></trkpt><trkpt lat="42.22109130922438" lon="14.534285987370874"><ele>57.2</ele><time>2026-04-06T05:37:16.998Z</time></trkpt><trkpt lat="42.22114704814452" lon="14.534385761246458"><ele>60.6</ele><time>2026-04-06T05:37:18.998Z</time></trkpt><trkpt lat="42.221214028869184" lon="14.534469190453589"><ele>64.0</ele><time>2026-04-06T05:37:20.998Z</time></trkpt><trkpt lat="42.221290737536044" lon="14.53454350406945"><ele>63.400000000000006</ele><time>2026-04-06T05:37:22.998Z</time></trkpt><trkpt lat="42.221375841228934" lon="14.534602535250194"><ele>62.800000000000004</ele><time>2026-04-06T05:37:24.998Z</time></trkpt><trkpt lat="42.2214680613608" lon="14.534651924828783"><ele>62.199999999999996</ele><time>2026-04-06T05:37:26.998Z</time></trkpt><trkpt lat="42.22156387151432" lon="14.53469761456173"><ele>61.599999999999994</ele><time>2026-04-06T05:37:28.998Z</time></trkpt><trkpt lat="42.221660978641914" lon="14.534735533384222"><ele>61.0</ele><time>2026-04-06T05:37:30.998Z</time></trkpt><trkpt lat="42.22174955578637" lon="14.534769733113219"><ele>61.0</ele><time>2026-04-06T05:37:32.998Z</time></trkpt><trkpt lat="42.22184407428318" lon="14.534829195558139"><ele>60.99999999999999</ele><time>2026-04-06T05:37:34.998Z</time></trkpt><trkpt lat="42.22193360118482" lon="14.53489637556596"><ele>60.99999999999999</ele><time>2026-04-06T05:37:36.998Z</time></trkpt><trkpt lat="42.222022940828396" lon="14.534983260390321"><ele>61.0</ele><time>2026-04-06T05:37:38.998Z</time></trkpt><trkpt lat="42.2221112371897" lon="14.535068694487105"><ele>61.0</ele><time>2026-04-06T05:37:40.998Z</time></trkpt><trkpt lat="42.22219187856713" lon="14.53516722402832"><ele>61.0</ele><time>2026-04-06T05:37:42.998Z</time></trkpt><trkpt lat="42.222274388840724" lon="14.535264351343207"><ele>60.99999999999999</ele><time>2026-04-06T05:37:44.998Z</time></trkpt><trkpt lat="42.22235366420525" lon="14.535371884004611"><ele>60.99999999999999</ele><time>2026-04-06T05:37:47Z</time></trkpt><trkpt lat="42.222435793648245" lon="14.535476898295373"><ele>61.0</ele><time>2026-04-06T05:37:49Z</time></trkpt><trkpt lat="42.222510994355346" lon="14.535572271239577"><ele>61.0</ele><time>2026-04-06T05:37:51Z</time></trkpt><trkpt lat="42.22258574984798" lon="14.535668808193712"><ele>61.0</ele><time>2026-04-06T05:37:53Z</time></trkpt><trkpt lat="42.22266739866549" lon="14.535771992153173"><ele>61.0</ele><time>2026-04-06T05:37:55Z</time></trkpt><trkpt lat="42.22276247447425" lon="14.535875821706961"><ele>61.0</ele><time>2026-04-06T05:37:57Z</time></trkpt><trkpt lat="42.22286620521688" lon="14.535961383008884"><ele>61.0</ele><time>2026-04-06T05:37:59Z</time></trkpt><trkpt lat="42.22297868622618" lon="14.536040109071704"><ele>61.0</ele><time>2026-04-06T05:38:01Z</time></trkpt><trkpt lat="42.22303822559287" lon="14.53607906497318"><ele>60.99999999999999</ele><time>2026-04-06T05:38:02Z</time></trkpt><trkpt lat="42.22315616096877" lon="14.536139746878995"><ele>60.99999999999999</ele><time>2026-04-06T05:38:04Z</time></trkpt><trkpt lat="42.223277043766466" lon="14.53619972738495"><ele>61.0</ele><time>2026-04-06T05:38:06Z</time></trkpt><trkpt lat="42.22332845975568" lon="14.53626335096576"><ele>61.0</ele><time>2026-04-06T05:38:07Z</time></trkpt><trkpt lat="42.22339798313859" lon="14.53628945830732"><ele>61.57142857142856</ele><time>2026-04-06T05:38:08Z</time></trkpt><trkpt lat="42.223469122372464" lon="14.536311850132847"><ele>62.14285714285714</ele><time>2026-04-06T05:38:09Z</time></trkpt><trkpt lat="42.22354327385115" lon="14.5363313358231"><ele>62.714285714285715</ele><time>2026-04-06T05:38:10Z</time></trkpt><trkpt lat="42.22361854867702" lon="14.536347788890966"><ele>63.285714285714285</ele><time>2026-04-06T05:38:11Z</time></trkpt><trkpt lat="42.22368940341126" lon="14.53636012110264"><ele>63.85714285714286</ele><time>2026-04-06T05:38:12Z</time></trkpt><trkpt lat="42.22376160206146" lon="14.536372687222595"><ele>64.42857142857143</ele><time>2026-04-06T05:38:13Z</time></trkpt><trkpt lat="42.2238320540549" lon="14.536385971234568"><ele>65.0</ele><time>2026-04-06T05:38:14Z</time></trkpt><trkpt lat="42.22390027106049" lon="14.536401330273906"><ele>65.00000000000001</ele><time>2026-04-06T05:38:15Z</time></trkpt><trkpt lat="42.22396615441227" lon="14.536421738514175"><ele>65.0</ele><time>2026-04-06T05:38:15.999Z</time></trkpt><trkpt lat="42.22404013353474" lon="14.536433013731827"><ele>65.0</ele><time>2026-04-06T05:38:16.999Z</time></trkpt><trkpt lat="42.22410343635413" lon="14.536478150701166"><ele>65.0</ele><time>2026-04-06T05:38:17.999Z</time></trkpt><trkpt lat="42.22416027400647" lon="14.536544870540892"><ele>65.0</ele><time>2026-04-06T05:38:18.999Z</time></trkpt><trkpt lat="42.22420361304072" lon="14.536634428437608"><ele>65.00000000000001</ele><time>2026-04-06T05:38:19.999Z</time></trkpt><trkpt lat="42.22423964806987" lon="14.53673173118231"><ele>65.0</ele><time>2026-04-06T05:38:20.999Z</time></trkpt><trkpt lat="42.224264840849756" lon="14.536829653942617"><ele>64.0</ele><time>2026-04-06T05:38:21.999Z</time></trkpt><trkpt lat="42.22428121563256" lon="14.536925779403026"><ele>63.0</ele><time>2026-04-06T05:38:22.999Z</time></trkpt><trkpt lat="42.22430049023899" lon="14.537022889966185"><ele>62.0</ele><time>2026-04-06T05:38:23.999Z</time></trkpt><trkpt lat="42.22432798735787" lon="14.537113294146627"><ele>61.0</ele><time>2026-04-06T05:38:24.999Z</time></trkpt><trkpt lat="42.224366049077496" lon="14.53720241833531"><ele>60.00000000000001</ele><time>2026-04-06T05:38:25.999Z</time></trkpt><trkpt lat="42.22441127952522" lon="14.537289325381575"><ele>59.0</ele><time>2026-04-06T05:38:26.999Z</time></trkpt><trkpt lat="42.22446132212342" lon="14.537368033597241"><ele>59.00000000000001</ele><time>2026-04-06T05:38:27.999Z</time></trkpt><trkpt lat="42.22451743200528" lon="14.537439352173166"><ele>59.0</ele><time>2026-04-06T05:38:28.999Z</time></trkpt><trkpt lat="42.22457091066249" lon="14.53751803910343"><ele>59.0</ele><time>2026-04-06T05:38:29.999Z</time></trkpt><trkpt lat="42.224637373296105" lon="14.537564462236364"><ele>59.0</ele><time>2026-04-06T05:38:30.999Z</time></trkpt><trkpt lat="42.224712896344734" lon="14.53759934504174"><ele>59.00000000000001</ele><time>2026-04-06T05:38:31.999Z</time></trkpt><trkpt lat="42.224793077511634" lon="14.537613961564311"><ele>59.0</ele><time>2026-04-06T05:38:32.999Z</time></trkpt><trkpt lat="42.22487189169993" lon="14.537621073350586"><ele>57.833333333333336</ele><time>2026-04-06T05:38:33.999Z</time></trkpt><trkpt lat="42.22495333964899" lon="14.537623807350531"><ele>56.66666666666667</ele><time>2026-04-06T05:38:34.999Z</time></trkpt><trkpt lat="42.22503054673628" lon="14.537588097638345"><ele>55.5</ele><time>2026-04-06T05:38:35.999Z</time></trkpt><trkpt lat="42.22510781921666" lon="14.537592693909438"><ele>54.33333333333333</ele><time>2026-04-06T05:38:36.999Z</time></trkpt><trkpt lat="42.2251743353727" lon="14.537597303899151"><ele>53.166666666666664</ele><time>2026-04-06T05:38:37.999Z</time></trkpt><trkpt lat="42.22524303160841" lon="14.537595011938068"><ele>52.0</ele><time>2026-04-06T05:38:38.999Z</time></trkpt><trkpt lat="42.225324356201305" lon="14.537614046063284"><ele>51.99999999999999</ele><time>2026-04-06T05:38:39.999Z</time></trkpt><trkpt lat="42.22540099657437" lon="14.537612094271692"><ele>52.0</ele><time>2026-04-06T05:38:40.999Z</time></trkpt><trkpt lat="42.22547501576263" lon="14.537580367890756"><ele>52.0</ele><time>2026-04-06T05:38:41.999Z</time></trkpt><trkpt lat="42.225550385651765" lon="14.53757569774203"><ele>52.0</ele><time>2026-04-06T05:38:42.999Z</time></trkpt><trkpt lat="42.225623559080596" lon="14.537565617418093"><ele>51.99999999999999</ele><time>2026-04-06T05:38:43.999Z</time></trkpt><trkpt lat="42.2256994670492" lon="14.537551890273829"><ele>52.0</ele><time>2026-04-06T05:38:44.999Z</time></trkpt><trkpt lat="42.2257766126345" lon="14.537534879827884"><ele>51.33333333333333</ele><time>2026-04-06T05:38:45.999Z</time></trkpt><trkpt lat="42.225855310401066" lon="14.537513359687555"><ele>50.666666666666664</ele><time>2026-04-06T05:38:46.999Z</time></trkpt><trkpt lat="42.22593076532683" lon="14.537480690182441"><ele>50.0</ele><time>2026-04-06T05:38:47.999Z</time></trkpt><trkpt lat="42.226005992545936" lon="14.537445562496554"><ele>49.33333333333333</ele><time>2026-04-06T05:38:48.999Z</time></trkpt><trkpt lat="42.226081494548936" lon="14.537407656484689"><ele>48.666666666666664</ele><time>2026-04-06T05:38:49.999Z</time></trkpt><trkpt lat="42.22615547850582" lon="14.537360518579062"><ele>48.0</ele><time>2026-04-06T05:38:50.999Z</time></trkpt><trkpt lat="42.22622483657808" lon="14.537301957085512"><ele>48.0</ele><time>2026-04-06T05:38:51.999Z</time></trkpt><trkpt lat="42.22628932218573" lon="14.537241623837938"><ele>48.0</ele><time>2026-04-06T05:38:52.999Z</time></trkpt><trkpt lat="42.22636175958536" lon="14.537188005014636"><ele>48.0</ele><time>2026-04-06T05:38:53.999Z</time></trkpt><trkpt lat="42.226435220829764" lon="14.537143424432077"><ele>48.0</ele><time>2026-04-06T05:38:54.999Z</time></trkpt><trkpt lat="42.22651881653158" lon="14.537121669695734"><ele>48.0</ele><time>2026-04-06T05:38:55.999Z</time></trkpt><trkpt lat="42.22660200646326" lon="14.537126929086547"><ele>48.0</ele><time>2026-04-06T05:38:56.999Z</time></trkpt><trkpt lat="42.22668164082682" lon="14.537140663488003"><ele>47.833333333333336</ele><time>2026-04-06T05:38:57.999Z</time></trkpt><trkpt lat="42.22676599835752" lon="14.537167158842504"><ele>47.666666666666664</ele><time>2026-04-06T05:38:58.999Z</time></trkpt><trkpt lat="42.22684577376533" lon="14.537199959757576"><ele>47.5</ele><time>2026-04-06T05:38:59.999Z</time></trkpt><trkpt lat="42.22692150855566" lon="14.537230891754202"><ele>47.33333333333333</ele><time>2026-04-06T05:39:00.999Z</time></trkpt><trkpt lat="42.22699930956125" lon="14.537257910509668"><ele>47.166666666666664</ele><time>2026-04-06T05:39:01.999Z</time></trkpt><trkpt lat="42.227076019309415" lon="14.537293063312685"><ele>47.0</ele><time>2026-04-06T05:39:02.999Z</time></trkpt><trkpt lat="42.227148068332546" lon="14.537316068442289"><ele>47.0</ele><time>2026-04-06T05:39:03.999Z</time></trkpt><trkpt lat="42.22722581030464" lon="14.537354202986823"><ele>47.0</ele><time>2026-04-06T05:39:04.999Z</time></trkpt><trkpt lat="42.22729543340844" lon="14.537403580380808"><ele>47.0</ele><time>2026-04-06T05:39:05.999Z</time></trkpt><trkpt lat="42.227371780883054" lon="14.537435884974622"><ele>47.0</ele><time>2026-04-06T05:39:06.999Z</time></trkpt><trkpt lat="42.227448648046774" lon="14.537462905279302"><ele>47.0</ele><time>2026-04-06T05:39:07.999Z</time></trkpt><trkpt lat="42.227525699806485" lon="14.537486030327312"><ele>47.0</ele><time>2026-04-06T05:39:08.999Z</time></trkpt><trkpt lat="42.22760707661377" lon="14.537506702572108"><ele>46.5</ele><time>2026-04-06T05:39:09.999Z</time></trkpt><trkpt lat="42.22768830604571" lon="14.537508292032847"><ele>46.0</ele><time>2026-04-06T05:39:10.998Z</time></trkpt><trkpt lat="42.22776746281176" lon="14.537526610794917"><ele>45.5</ele><time>2026-04-06T05:39:11.998Z</time></trkpt><trkpt lat="42.22784501484092" lon="14.537550379420184"><ele>45.0</ele><time>2026-04-06T05:39:12.998Z</time></trkpt><trkpt lat="42.22792436351812" lon="14.537583504855624"><ele>44.5</ele><time>2026-04-06T05:39:13.998Z</time></trkpt><trkpt lat="42.22800124600434" lon="14.537620251316362"><ele>44.0</ele><time>2026-04-06T05:39:14.998Z</time></trkpt><trkpt lat="42.22807301717228" lon="14.537673267062441"><ele>44.0</ele><time>2026-04-06T05:39:15.998Z</time></trkpt><trkpt lat="42.22814324558352" lon="14.537727971576821"><ele>44.0</ele><time>2026-04-06T05:39:16.998Z</time></trkpt><trkpt lat="42.228204844462816" lon="14.53778924200743"><ele>44.0</ele><time>2026-04-06T05:39:17.998Z</time></trkpt><trkpt lat="42.228273610312485" lon="14.537859295906035"><ele>44.0</ele><time>2026-04-06T05:39:18.998Z</time></trkpt><trkpt lat="42.228335033420734" lon="14.537919039599574"><ele>44.0</ele><time>2026-04-06T05:39:19.998Z</time></trkpt><trkpt lat="42.22840169350453" lon="14.537979984916491"><ele>44.0</ele><time>2026-04-06T05:39:20.998Z</time></trkpt><trkpt lat="42.228462005951926" lon="14.538044470543152"><ele>44.666666666666664</ele><time>2026-04-06T05:39:21.998Z</time></trkpt><trkpt lat="42.22852280792393" lon="14.538107967473787"><ele>45.33333333333333</ele><time>2026-04-06T05:39:22.998Z</time></trkpt><trkpt lat="42.22858684263652" lon="14.538169248230622"><ele>46.0</ele><time>2026-04-06T05:39:23.998Z</time></trkpt><trkpt lat="42.22864851021298" lon="14.53822541932537"><ele>46.666666666666664</ele><time>2026-04-06T05:39:24.998Z</time></trkpt><trkpt lat="42.22871369355239" lon="14.538278282381558"><ele>47.333333333333336</ele><time>2026-04-06T05:39:25.998Z</time></trkpt><trkpt lat="42.22878169226204" lon="14.538327411924183"><ele>48.0</ele><time>2026-04-06T05:39:26.998Z</time></trkpt><trkpt lat="42.22885558811551" lon="14.538363017220034"><ele>48.0</ele><time>2026-04-06T05:39:27.998Z</time></trkpt><trkpt lat="42.22893344905579" lon="14.53838113271315"><ele>48.0</ele><time>2026-04-06T05:39:28.998Z</time></trkpt><trkpt lat="42.22900870992975" lon="14.538384528775493"><ele>48.0</ele><time>2026-04-06T05:39:29.998Z</time></trkpt><trkpt lat="42.22908453682727" lon="14.538371038259108"><ele>48.0</ele><time>2026-04-06T05:39:30.998Z</time></trkpt><trkpt lat="42.22915944840161" lon="14.538350827997627"><ele>48.0</ele><time>2026-04-06T05:39:31.998Z</time></trkpt><trkpt lat="42.22923438223278" lon="14.538323256666178"><ele>48.0</ele><time>2026-04-06T05:39:32.998Z</time></trkpt><trkpt lat="42.229303959917374" lon="14.538284654393113"><ele>46.0</ele><time>2026-04-06T05:39:33.998Z</time></trkpt><trkpt lat="42.22937716116169" lon="14.53824406777479"><ele>44.0</ele><time>2026-04-06T05:39:34.998Z</time></trkpt><trkpt lat="42.22945202087254" lon="14.538207874106728"><ele>42.0</ele><time>2026-04-06T05:39:35.998Z</time></trkpt><trkpt lat="42.229529038247854" lon="14.538180608721815"><ele>40.0</ele><time>2026-04-06T05:39:36.998Z</time></trkpt><trkpt lat="42.229608083777215" lon="14.538170822899351"><ele>38.0</ele><time>2026-04-06T05:39:37.998Z</time></trkpt><trkpt lat="42.229687980100316" lon="14.538177264568759"><ele>36.0</ele><time>2026-04-06T05:39:38.998Z</time></trkpt><trkpt lat="42.22976561834431" lon="14.538202934884378"><ele>35.0</ele><time>2026-04-06T05:39:39.998Z</time></trkpt><trkpt lat="42.22984091133272" lon="14.5382358355664"><ele>34.0</ele><time>2026-04-06T05:39:40.998Z</time></trkpt><trkpt lat="42.229914394131484" lon="14.538276478565704"><ele>33.0</ele><time>2026-04-06T05:39:41.998Z</time></trkpt><trkpt lat="42.22999095815928" lon="14.538306284462546"><ele>32.0</ele><time>2026-04-06T05:39:42.998Z</time></trkpt><trkpt lat="42.230067787626496" lon="14.538338650043281"><ele>31.0</ele><time>2026-04-06T05:39:43.998Z</time></trkpt><trkpt lat="42.23014418906452" lon="14.53837921543461"><ele>30.0</ele><time>2026-04-06T05:39:44.998Z</time></trkpt><trkpt lat="42.23022298501718" lon="14.538409213657625"><ele>30.0</ele><time>2026-04-06T05:39:45.998Z</time></trkpt><trkpt lat="42.23030297306126" lon="14.538434945233465"><ele>30.0</ele><time>2026-04-06T05:39:46.998Z</time></trkpt><trkpt lat="42.230383590175244" lon="14.538457393461803"><ele>30.0</ele><time>2026-04-06T05:39:47.998Z</time></trkpt><trkpt lat="42.230461936135306" lon="14.538480548875334"><ele>30.0</ele><time>2026-04-06T05:39:48.998Z</time></trkpt><trkpt lat="42.23054528022898" lon="14.538504912269833"><ele>30.0</ele><time>2026-04-06T05:39:49.998Z</time></trkpt><trkpt lat="42.23062612841545" lon="14.538532438787195"><ele>30.0</ele><time>2026-04-06T05:39:50.998Z</time></trkpt><trkpt lat="42.230709777022525" lon="14.538554150657436"><ele>31.0</ele><time>2026-04-06T05:39:52Z</time></trkpt><trkpt lat="42.23079153794381" lon="14.538580091554923"><ele>32.0</ele><time>2026-04-06T05:39:53Z</time></trkpt><trkpt lat="42.23087389194849" lon="14.538607215038486"><ele>33.0</ele><time>2026-04-06T05:39:54Z</time></trkpt><trkpt lat="42.23095530859491" lon="14.538644993876742"><ele>34.0</ele><time>2026-04-06T05:39:55Z</time></trkpt><trkpt lat="42.23103614069364" lon="14.53868969960932"><ele>35.0</ele><time>2026-04-06T05:39:56Z</time></trkpt><trkpt lat="42.231114360627345" lon="14.538742266658966"><ele>36.0</ele><time>2026-04-06T05:39:57Z</time></trkpt><trkpt lat="42.23119081934579" lon="14.538798770872715"><ele>36.0</ele><time>2026-04-06T05:39:58Z</time></trkpt><trkpt lat="42.23126649599508" lon="14.538857992009852"><ele>36.0</ele><time>2026-04-06T05:39:59Z</time></trkpt><trkpt lat="42.231339191620926" lon="14.538928858437272"><ele>36.0</ele><time>2026-04-06T05:40:00Z</time></trkpt><trkpt lat="42.2314092342972" lon="14.539002433827601"><ele>36.0</ele><time>2026-04-06T05:40:01Z</time></trkpt><trkpt lat="42.231477379549965" lon="14.53908047440486"><ele>36.0</ele><time>2026-04-06T05:40:02Z</time></trkpt><trkpt lat="42.23154399099706" lon="14.539159998848614"><ele>36.0</ele><time>2026-04-06T05:40:03Z</time></trkpt><trkpt lat="42.2316051828713" lon="14.539243158131294"><ele>35.333333333333336</ele><time>2026-04-06T05:40:04Z</time></trkpt><trkpt lat="42.23166801322173" lon="14.539327293230489"><ele>34.666666666666664</ele><time>2026-04-06T05:40:05Z</time></trkpt><trkpt lat="42.231722460834845" lon="14.539420393315726"><ele>34.0</ele><time>2026-04-06T05:40:06Z</time></trkpt><trkpt lat="42.231763661278436" lon="14.53952875184556"><ele>33.33333333333333</ele><time>2026-04-06T05:40:07Z</time></trkpt><trkpt lat="42.231796173993466" lon="14.539633127674584"><ele>32.666666666666664</ele><time>2026-04-06T05:40:08Z</time></trkpt><trkpt lat="42.231812654811314" lon="14.539745191717973"><ele>32.0</ele><time>2026-04-06T05:40:09Z</time></trkpt><trkpt lat="42.231821181045845" lon="14.539855028198112"><ele>31.999999999999996</ele><time>2026-04-06T05:40:10Z</time></trkpt><trkpt lat="42.231829430905826" lon="14.539964376740473"><ele>32.0</ele><time>2026-04-06T05:40:11Z</time></trkpt><trkpt lat="42.23184236256748" lon="14.540069215652798"><ele>32.0</ele><time>2026-04-06T05:40:12Z</time></trkpt><trkpt lat="42.231859413924724" lon="14.540175319204657"><ele>32.0</ele><time>2026-04-06T05:40:13Z</time></trkpt><trkpt lat="42.231865125812966" lon="14.54028595640159"><ele>31.999999999999996</ele><time>2026-04-06T05:40:14Z</time></trkpt><trkpt lat="42.23190036989432" lon="14.540392860831716"><ele>32.0</ele><time>2026-04-06T05:40:15Z</time></trkpt><trkpt lat="42.23194596805454" lon="14.540489882316251"><ele>30.833333333333332</ele><time>2026-04-06T05:40:16Z</time></trkpt><trkpt lat="42.23200084346012" lon="14.540579163237162"><ele>29.666666666666664</ele><time>2026-04-06T05:40:17Z</time></trkpt><trkpt lat="42.23206383836507" lon="14.54065708303557"><ele>28.5</ele><time>2026-04-06T05:40:18Z</time></trkpt><trkpt lat="42.23213415349753" lon="14.540723459505497"><ele>27.333333333333336</ele><time>2026-04-06T05:40:18.999Z</time></trkpt><trkpt lat="42.23220824947151" lon="14.540781047860417"><ele>26.166666666666668</ele><time>2026-04-06T05:40:19.999Z</time></trkpt><trkpt lat="42.2322847890901" lon="14.54083257616766"><ele>25.0</ele><time>2026-04-06T05:40:20.999Z</time></trkpt><trkpt lat="42.23236848629435" lon="14.540869119357941"><ele>25.000000000000004</ele><time>2026-04-06T05:40:21.999Z</time></trkpt><trkpt lat="42.23245438218333" lon="14.540868207627023"><ele>25.0</ele><time>2026-04-06T05:40:22.999Z</time></trkpt><trkpt lat="42.232535652237935" lon="14.540887971339174"><ele>25.0</ele><time>2026-04-06T05:40:23.999Z</time></trkpt><trkpt lat="42.23261424188221" lon="14.540907929759229"><ele>25.0</ele><time>2026-04-06T05:40:24.999Z</time></trkpt><trkpt lat="42.23269151950623" lon="14.540922180073366"><ele>25.000000000000004</ele><time>2026-04-06T05:40:25.999Z</time></trkpt><trkpt lat="42.23276977366688" lon="14.540942196972221"><ele>25.0</ele><time>2026-04-06T05:40:26.999Z</time></trkpt><trkpt lat="42.23284630298641" lon="14.540976979284883"><ele>25.000000000000004</ele><time>2026-04-06T05:40:27.999Z</time></trkpt><trkpt lat="42.23292007649165" lon="14.541021200341266"><ele>25.0</ele><time>2026-04-06T05:40:28.999Z</time></trkpt><trkpt lat="42.232985269550014" lon="14.541082891868834"><ele>25.0</ele><time>2026-04-06T05:40:29.999Z</time></trkpt><trkpt lat="42.23305765860797" lon="14.541129554261282"><ele>25.0</ele><time>2026-04-06T05:40:30.999Z</time></trkpt><trkpt lat="42.2331288074641" lon="14.541170092050184"><ele>25.000000000000004</ele><time>2026-04-06T05:40:31.999Z</time></trkpt><trkpt lat="42.23320123719407" lon="14.541206405386255"><ele>25.0</ele><time>2026-04-06T05:40:32.999Z</time></trkpt><trkpt lat="42.233266515804715" lon="14.541237850834362"><ele>24.833333333333336</ele><time>2026-04-06T05:40:33.999Z</time></trkpt><trkpt lat="42.233334321794224" lon="14.54127285023178"><ele>24.666666666666668</ele><time>2026-04-06T05:40:34.999Z</time></trkpt><trkpt lat="42.23344729833202" lon="14.541349385670364"><ele>24.5</ele><time>2026-04-06T05:40:36.999Z</time></trkpt><trkpt lat="42.233516629503534" lon="14.541411693849142"><ele>24.333333333333336</ele><time>2026-04-06T05:40:37.999Z</time></trkpt><trkpt lat="42.233582683333275" lon="14.541483410201081"><ele>24.166666666666668</ele><time>2026-04-06T05:40:38.999Z</time></trkpt><trkpt lat="42.23364270667266" lon="14.541556696178343"><ele>24.0</ele><time>2026-04-06T05:40:39.999Z</time></trkpt><trkpt lat="42.233698291118216" lon="14.541632059827046"><ele>24.0</ele><time>2026-04-06T05:40:40.999Z</time></trkpt><trkpt lat="42.2337466717372" lon="14.541697447849167"><ele>24.0</ele><time>2026-04-06T05:40:41.999Z</time></trkpt><trkpt lat="42.23381900912293" lon="14.541795667146376"><ele>24.0</ele><time>2026-04-06T05:40:43.999Z</time></trkpt><trkpt lat="42.23385676677389" lon="14.541864037579208"><ele>24.0</ele><time>2026-04-06T05:40:45.999Z</time></trkpt><trkpt lat="42.2338155308993" lon="14.541967991936847"><ele>24.0</ele><time>2026-04-06T05:40:46.999Z</time></trkpt><trkpt lat="42.23376403604988" lon="14.542086338582752"><ele>24.0</ele><time>2026-04-06T05:40:48.999Z</time></trkpt><trkpt lat="42.23371061403054" lon="14.54221205350614"><ele>23.5</ele><time>2026-04-06T05:40:50.999Z</time></trkpt><trkpt lat="42.23365454478652" lon="14.54233795662391"><ele>23.0</ele><time>2026-04-06T05:40:52.999Z</time></trkpt><trkpt lat="42.23359492184152" lon="14.542472423164213"><ele>22.5</ele><time>2026-04-06T05:40:54.999Z</time></trkpt><trkpt lat="42.23353433962189" lon="14.542610771090192"><ele>22.0</ele><time>2026-04-06T05:40:56.999Z</time></trkpt><trkpt lat="42.23347336673956" lon="14.542758009911022"><ele>22.0</ele><time>2026-04-06T05:40:58.999Z</time></trkpt><trkpt lat="42.23344156332331" lon="14.542834220272221"><ele>22.0</ele><time>2026-04-06T05:40:59.999Z</time></trkpt><trkpt lat="42.23340843672273" lon="14.542909029051788"><ele>22.0</ele><time>2026-04-06T05:41:00.999Z</time></trkpt><trkpt lat="42.23337521591986" lon="14.542984838720988"><ele>22.0</ele><time>2026-04-06T05:41:01.999Z</time></trkpt><trkpt lat="42.23333893728493" lon="14.543058095919884"><ele>22.0</ele><time>2026-04-06T05:41:02.999Z</time></trkpt><trkpt lat="42.2333002617934" lon="14.543129295028734"><ele>22.0</ele><time>2026-04-06T05:41:03.999Z</time></trkpt><trkpt lat="42.23325991555203" lon="14.543198180924916"><ele>22.0</ele><time>2026-04-06T05:41:04.999Z</time></trkpt><trkpt lat="42.23321813703068" lon="14.543265750686814"><ele>23.6</ele><time>2026-04-06T05:41:05.999Z</time></trkpt><trkpt lat="42.23313984993311" lon="14.543402810290464"><ele>25.200000000000003</ele><time>2026-04-06T05:41:07.999Z</time></trkpt><trkpt lat="42.23310143745555" lon="14.543471177175444"><ele>26.8</ele><time>2026-04-06T05:41:08.999Z</time></trkpt><trkpt lat="42.23306284787459" lon="14.543538883017492"><ele>28.4</ele><time>2026-04-06T05:41:09.999Z</time></trkpt><trkpt lat="42.23301845823807" lon="14.543679227294744"><ele>30.0</ele><time>2026-04-06T05:41:11.999Z</time></trkpt><trkpt lat="42.23308198157136" lon="14.543766878810704"><ele>26.2</ele><time>2026-04-06T05:41:13.998Z</time></trkpt><trkpt lat="42.233166365011925" lon="14.543713024735684"><ele>22.4</ele><time>2026-04-06T05:41:15.998Z</time></trkpt><trkpt lat="42.233217657776116" lon="14.543634904133008"><ele>18.6</ele><time>2026-04-06T05:41:17.998Z</time></trkpt><trkpt lat="42.2332869826986" lon="14.54355969636424"><ele>14.8</ele><time>2026-04-06T05:41:19.998Z</time></trkpt><trkpt lat="42.233360573276855" lon="14.543458731762602"><ele>11.0</ele><time>2026-04-06T05:41:21.998Z</time></trkpt><trkpt lat="42.23344536041461" lon="14.543340964094254"><ele>11.0</ele><time>2026-04-06T05:41:23.998Z</time></trkpt><trkpt lat="42.233545198971335" lon="14.543247803821"><ele>11.0</ele><time>2026-04-06T05:41:25.998Z</time></trkpt><trkpt lat="42.23363533634325" lon="14.543162612167375"><ele>11.0</ele><time>2026-04-06T05:41:27.998Z</time></trkpt><trkpt lat="42.233707169907284" lon="14.543061952697546"><ele>11.0</ele><time>2026-04-06T05:41:29.998Z</time></trkpt><trkpt lat="42.233775585413454" lon="14.542955083614471"><ele>11.0</ele><time>2026-04-06T05:41:31.998Z</time></trkpt><trkpt lat="42.23383615490572" lon="14.542837386740477"><ele>9.4</ele><time>2026-04-06T05:41:33.998Z</time></trkpt><trkpt lat="42.233892700876346" lon="14.54271419621452"><ele>7.800000000000001</ele><time>2026-04-06T05:41:35.998Z</time></trkpt><trkpt lat="42.23395029722094" lon="14.54259313270685"><ele>6.2</ele><time>2026-04-06T05:41:37.998Z</time></trkpt><trkpt lat="42.23400577099714" lon="14.542472447541103"><ele>4.6</ele><time>2026-04-06T05:41:39.998Z</time></trkpt><trkpt lat="42.23406000256124" lon="14.542349790995809"><ele>3.0</ele><time>2026-04-06T05:41:41.998Z</time></trkpt><trkpt lat="42.23411425287027" lon="14.54222917430393"><ele>3.0</ele><time>2026-04-06T05:41:43.998Z</time></trkpt><trkpt lat="42.2341666357216" lon="14.542112526454451"><ele>3.0</ele><time>2026-04-06T05:41:45.998Z</time></trkpt><trkpt lat="42.23421953737766" lon="14.54200096590928"><ele>3.0</ele><time>2026-04-06T05:41:47.998Z</time></trkpt><trkpt lat="42.23426180181669" lon="14.541885528187382"><ele>3.0</ele><time>2026-04-06T05:41:49.998Z</time></trkpt><trkpt lat="42.23431001271731" lon="14.541779707310946"><ele>3.0</ele><time>2026-04-06T05:41:51.998Z</time></trkpt><trkpt lat="42.234356772750786" lon="14.541676956433564"><ele>3.1666666666666665</ele><time>2026-04-06T05:41:53.998Z</time></trkpt><trkpt lat="42.234396770950646" lon="14.541582618989368"><ele>3.333333333333333</ele><time>2026-04-06T05:41:55.998Z</time></trkpt><trkpt lat="42.23443822192194" lon="14.541490835361346"><ele>3.5</ele><time>2026-04-06T05:41:58Z</time></trkpt><trkpt lat="42.23447691159283" lon="14.541393517053244"><ele>3.6666666666666665</ele><time>2026-04-06T05:42:00Z</time></trkpt><trkpt lat="42.23452018396137" lon="14.541303084431057"><ele>3.833333333333333</ele><time>2026-04-06T05:42:02Z</time></trkpt><trkpt lat="42.234562582021134" lon="14.541213507842574"><ele>4.0</ele><time>2026-04-06T05:42:04Z</time></trkpt><trkpt lat="42.234603886458316" lon="14.541120291258977"><ele>3.9999999999999996</ele><time>2026-04-06T05:42:06Z</time></trkpt><trkpt lat="42.23464497599039" lon="14.541024866940349"><ele>4.0</ele><time>2026-04-06T05:42:08Z</time></trkpt><trkpt lat="42.234688520212885" lon="14.540933475609659"><ele>4.0</ele><time>2026-04-06T05:42:10Z</time></trkpt><trkpt lat="42.23472668569335" lon="14.54084031643426"><ele>4.0</ele><time>2026-04-06T05:42:12Z</time></trkpt><trkpt lat="42.2347705669154" lon="14.54074891552564"><ele>3.9999999999999996</ele><time>2026-04-06T05:42:14Z</time></trkpt><trkpt lat="42.23481950512958" lon="14.540659269344436"><ele>4.0</ele><time>2026-04-06T05:42:16Z</time></trkpt><trkpt lat="42.23486063615942" lon="14.540564972702585"><ele>4.2</ele><time>2026-04-06T05:42:18Z</time></trkpt><trkpt lat="42.23490320628468" lon="14.540467687718815"><ele>4.4</ele><time>2026-04-06T05:42:20Z</time></trkpt><trkpt lat="42.23495037593742" lon="14.54036374078461"><ele>4.6</ele><time>2026-04-06T05:42:21.999Z</time></trkpt><trkpt lat="42.23500234527103" lon="14.54025330745307"><ele>4.8</ele><time>2026-04-06T05:42:23.999Z</time></trkpt><trkpt lat="42.23505273950255" lon="14.540139296257914"><ele>5.0</ele><time>2026-04-06T05:42:25.999Z</time></trkpt><trkpt lat="42.235103600954986" lon="14.540024097325553"><ele>5.0</ele><time>2026-04-06T05:42:27.999Z</time></trkpt><trkpt lat="42.23515703144388" lon="14.539911664776996"><ele>5.0</ele><time>2026-04-06T05:42:29.999Z</time></trkpt><trkpt lat="42.23520978942368" lon="14.539794641457457"><ele>5.0</ele><time>2026-04-06T05:42:31.999Z</time></trkpt><trkpt lat="42.235260546747256" lon="14.539677590810577"><ele>5.0</ele><time>2026-04-06T05:42:33.999Z</time></trkpt><trkpt lat="42.235315046645674" lon="14.53955667951283"><ele>5.0</ele><time>2026-04-06T05:42:35.999Z</time></trkpt><trkpt lat="42.235382141672915" lon="14.539439511985242"><ele>5.4</ele><time>2026-04-06T05:42:37.999Z</time></trkpt><trkpt lat="42.23543602820186" lon="14.539317062417872"><ele>5.8</ele><time>2026-04-06T05:42:39.999Z</time></trkpt><trkpt lat="42.235494634079494" lon="14.53919985126818"><ele>6.199999999999999</ele><time>2026-04-06T05:42:41.999Z</time></trkpt><trkpt lat="42.235549781899934" lon="14.539077983772023"><ele>6.6</ele><time>2026-04-06T05:42:43.999Z</time></trkpt><trkpt lat="42.23560530338819" lon="14.538950572393874"><ele>7.0</ele><time>2026-04-06T05:42:45.999Z</time></trkpt><trkpt lat="42.2356607128565" lon="14.538826693085737"><ele>6.6</ele><time>2026-04-06T05:42:47.999Z</time></trkpt><trkpt lat="42.23571961288957" lon="14.538699760341574"><ele>6.199999999999999</ele><time>2026-04-06T05:42:49.999Z</time></trkpt><trkpt lat="42.235777654232784" lon="14.538577022621277"><ele>5.8</ele><time>2026-04-06T05:42:51.999Z</time></trkpt><trkpt lat="42.23583251801084" lon="14.538449972490524"><ele>5.4</ele><time>2026-04-06T05:42:53.999Z</time></trkpt><trkpt lat="42.235890051714385" lon="14.538327037874527"><ele>5.0</ele><time>2026-04-06T05:42:55.999Z</time></trkpt><trkpt lat="42.23594606538682" lon="14.538206120056087"><ele>5.0</ele><time>2026-04-06T05:42:57.999Z</time></trkpt><trkpt lat="42.23600501772017" lon="14.53806812054027"><ele>5.0</ele><time>2026-04-06T05:42:59.999Z</time></trkpt><trkpt lat="42.23606013112018" lon="14.537947342192371"><ele>5.0</ele><time>2026-04-06T05:43:01.999Z</time></trkpt><trkpt lat="42.23611670849979" lon="14.537819367895175"><ele>5.0</ele><time>2026-04-06T05:43:03.999Z</time></trkpt><trkpt lat="42.23617550489428" lon="14.537692553850894"><ele>5.0</ele><time>2026-04-06T05:43:05.999Z</time></trkpt><trkpt lat="42.23623789798567" lon="14.537569749471626"><ele>5.0</ele><time>2026-04-06T05:43:07.999Z</time></trkpt><trkpt lat="42.23629557150704" lon="14.537444628910022"><ele>5.0</ele><time>2026-04-06T05:43:09.999Z</time></trkpt><trkpt lat="42.236348805800255" lon="14.537317497885194"><ele>5.0</ele><time>2026-04-06T05:43:11.999Z</time></trkpt><trkpt lat="42.236406930255555" lon="14.537187454462359"><ele>5.0</ele><time>2026-04-06T05:43:13.999Z</time></trkpt><trkpt lat="42.236462046163126" lon="14.537054157714328"><ele>5.0</ele><time>2026-04-06T05:43:15.998Z</time></trkpt><trkpt lat="42.236515015571705" lon="14.53692387525926"><ele>4.25</ele><time>2026-04-06T05:43:17.998Z</time></trkpt><trkpt lat="42.236570970977745" lon="14.536785332591379"><ele>3.5</ele><time>2026-04-06T05:43:19.998Z</time></trkpt><trkpt lat="42.23662489602027" lon="14.53664238160011"><ele>2.75</ele><time>2026-04-06T05:43:21.998Z</time></trkpt><trkpt lat="42.23667807836219" lon="14.536503364251105"><ele>2.0</ele><time>2026-04-06T05:43:23.998Z</time></trkpt><trkpt lat="42.23673549591657" lon="14.536363343984629"><ele>2.0</ele><time>2026-04-06T05:43:25.998Z</time></trkpt><trkpt lat="42.23679097378173" lon="14.536225929905608"><ele>2.0</ele><time>2026-04-06T05:43:27.998Z</time></trkpt><trkpt lat="42.236845322852886" lon="14.536081980925648"><ele>2.0</ele><time>2026-04-06T05:43:29.998Z</time></trkpt><trkpt lat="42.236897100226116" lon="14.535948804913925"><ele>2.0</ele><time>2026-04-06T05:43:31.998Z</time></trkpt><trkpt lat="42.23694585238419" lon="14.535814360216497"><ele>2.2</ele><time>2026-04-06T05:43:33.998Z</time></trkpt><trkpt lat="42.23699392991011" lon="14.535687433782659"><ele>2.4000000000000004</ele><time>2026-04-06T05:43:35.998Z</time></trkpt><trkpt lat="42.2370458530702" lon="14.53557100152545"><ele>2.5999999999999996</ele><time>2026-04-06T05:43:37.998Z</time></trkpt><trkpt lat="42.237126163193466" lon="14.535503651807371"><ele>2.8</ele><time>2026-04-06T05:43:39.998Z</time></trkpt><trkpt lat="42.23722218987201" lon="14.535493490432005"><ele>3.0</ele><time>2026-04-06T05:43:41.998Z</time></trkpt><trkpt lat="42.23732631390516" lon="14.535505427913193"><ele>2.25</ele><time>2026-04-06T05:43:43.998Z</time></trkpt><trkpt lat="42.237448037861704" lon="14.535535894738828"><ele>1.5</ele><time>2026-04-06T05:43:45.998Z</time></trkpt><trkpt lat="42.23755120665879" lon="14.535599632301572"><ele>0.75</ele><time>2026-04-06T05:43:47.998Z</time></trkpt><trkpt lat="42.237616180334996" lon="14.535668953711564"><ele>0.0</ele><time>2026-04-06T05:43:49.998Z</time></trkpt><trkpt lat="42.23770863546315" lon="14.53554504592082"><ele>0.0</ele><time>2026-04-06T05:43:50.998Z</time></trkpt><trkpt lat="42.23777974389052" lon="14.535436828135698"><ele>0.0</ele><time>2026-04-06T05:43:52.998Z</time></trkpt><trkpt lat="42.23783833666345" lon="14.535327553295275"><ele>0.0</ele><time>2026-04-06T05:43:54.998Z</time></trkpt><trkpt lat="42.237904803903646" lon="14.53521229490374"><ele>0.0</ele><time>2026-04-06T05:43:56.998Z</time></trkpt><trkpt lat="42.23797118624497" lon="14.535085154811028"><ele>0.0</ele><time>2026-04-06T05:43:58.998Z</time></trkpt><trkpt lat="42.23803164545557" lon="14.534961358512389"><ele>0.2</ele><time>2026-04-06T05:44:00.998Z</time></trkpt><trkpt lat="42.23808639169261" lon="14.534832350111435"><ele>0.4</ele><time>2026-04-06T05:44:02.998Z</time></trkpt><trkpt lat="42.23814512934847" lon="14.534704716640274"><ele>0.6000000000000001</ele><time>2026-04-06T05:44:05Z</time></trkpt><trkpt lat="42.23820596335966" lon="14.534577612891669"><ele>0.8</ele><time>2026-04-06T05:44:07Z</time></trkpt><trkpt lat="42.23826368474166" lon="14.534448515808906"><ele>1.0</ele><time>2026-04-06T05:44:09Z</time></trkpt><trkpt lat="42.23832092767226" lon="14.534321252752045"><ele>1.0</ele><time>2026-04-06T05:44:11Z</time></trkpt><trkpt lat="42.23838005903658" lon="14.534191150569383"><ele>1.0</ele><time>2026-04-06T05:44:13Z</time></trkpt><trkpt lat="42.2384378880921" lon="14.534062436883586"><ele>1.0</ele><time>2026-04-06T05:44:15Z</time></trkpt><trkpt lat="42.238495962016145" lon="14.533933013996958"><ele>1.0</ele><time>2026-04-06T05:44:17Z</time></trkpt><trkpt lat="42.238553747594736" lon="14.533803823840541"><ele>1.0</ele><time>2026-04-06T05:44:19Z</time></trkpt><trkpt lat="42.23861464421291" lon="14.533678291026416"><ele>1.0</ele><time>2026-04-06T05:44:21Z</time></trkpt><trkpt lat="42.238672189695976" lon="14.533550197296616"><ele>1.0</ele><time>2026-04-06T05:44:22.999Z</time></trkpt><trkpt lat="42.23872908471896" lon="14.533420190987686"><ele>1.0</ele><time>2026-04-06T05:44:24.999Z</time></trkpt><trkpt lat="42.238784791073314" lon="14.53329422196997"><ele>1.0</ele><time>2026-04-06T05:44:26.999Z</time></trkpt><trkpt lat="42.23884173699311" lon="14.533165403824766"><ele>1.0</ele><time>2026-04-06T05:44:28.999Z</time></trkpt><trkpt lat="42.238898738629686" lon="14.533041338877613"><ele>1.0</ele><time>2026-04-06T05:44:30.999Z</time></trkpt><trkpt lat="42.238953492318096" lon="14.532912110269857"><ele>1.0</ele><time>2026-04-06T05:44:32.999Z</time></trkpt><trkpt lat="42.23901085080882" lon="14.532785525322412"><ele>1.0</ele><time>2026-04-06T05:44:34.999Z</time></trkpt><trkpt lat="42.23906815396727" lon="14.532660035630414"><ele>1.0</ele><time>2026-04-06T05:44:36.999Z</time></trkpt><trkpt lat="42.23912089835644" lon="14.532533778519486"><ele>1.0</ele><time>2026-04-06T05:44:38.999Z</time></trkpt><trkpt lat="42.239168750574656" lon="14.532411649004477"><ele>1.1666666666666665</ele><time>2026-04-06T05:44:40.999Z</time></trkpt><trkpt lat="42.239235290261135" lon="14.532332185734976"><ele>1.3333333333333333</ele><time>2026-04-06T05:44:42.999Z</time></trkpt><trkpt lat="42.23931209351246" lon="14.53235539606942"><ele>1.5</ele><time>2026-04-06T05:44:44.999Z</time></trkpt><trkpt lat="42.239369776143135" lon="14.532453258908857"><ele>1.6666666666666665</ele><time>2026-04-06T05:44:46.999Z</time></trkpt><trkpt lat="42.239443961459266" lon="14.532514366989638"><ele>1.8333333333333333</ele><time>2026-04-06T05:44:48.999Z</time></trkpt><trkpt lat="42.23951529418871" lon="14.53256472177041"><ele>2.0</ele><time>2026-04-06T05:44:50.999Z</time></trkpt><trkpt lat="42.23959102344937" lon="14.532586955998797"><ele>1.9999999999999998</ele><time>2026-04-06T05:44:52.999Z</time></trkpt><trkpt lat="42.239654981840644" lon="14.532526505029512"><ele>2.0</ele><time>2026-04-06T05:44:54.999Z</time></trkpt><trkpt lat="42.23967850961402" lon="14.532424205411907"><ele>2.0</ele><time>2026-04-06T05:44:56.999Z</time></trkpt><trkpt lat="42.2397184001672" lon="14.532326914052586"><ele>2.0</ele><time>2026-04-06T05:44:58.999Z</time></trkpt><trkpt lat="42.23976044015991" lon="14.53223280788257"><ele>1.9999999999999998</ele><time>2026-04-06T05:45:00.999Z</time></trkpt><trkpt lat="42.23980177109924" lon="14.53213452311626"><ele>2.0</ele><time>2026-04-06T05:45:02.999Z</time></trkpt><trkpt lat="42.239846279253996" lon="14.532040113402394"><ele>1.6666666666666665</ele><time>2026-04-06T05:45:04.999Z</time></trkpt><trkpt lat="42.23989509624303" lon="14.531955460813089"><ele>1.3333333333333333</ele><time>2026-04-06T05:45:06.999Z</time></trkpt><trkpt lat="42.23993422529557" lon="14.531868241343473"><ele>1.0</ele><time>2026-04-06T05:45:08.999Z</time></trkpt><trkpt lat="42.23996843010616" lon="14.531778380313067"><ele>0.6666666666666666</ele><time>2026-04-06T05:45:10.999Z</time></trkpt><trkpt lat="42.239984640315924" lon="14.531678414259598"><ele>0.3333333333333333</ele><time>2026-04-06T05:45:12.999Z</time></trkpt><trkpt lat="42.24001670698439" lon="14.53158446520094"><ele>0.0</ele><time>2026-04-06T05:45:14.999Z</time></trkpt><trkpt lat="42.24005429317367" lon="14.531493799217284"><ele>0.0</ele><time>2026-04-06T05:45:16.998Z</time></trkpt><trkpt lat="42.24009082911518" lon="14.531399902354218"><ele>0.0</ele><time>2026-04-06T05:45:18.998Z</time></trkpt><trkpt lat="42.240137904457825" lon="14.53131890617"><ele>0.0</ele><time>2026-04-06T05:45:20.998Z</time></trkpt><trkpt lat="42.24017157418978" lon="14.531229269324246"><ele>0.0</ele><time>2026-04-06T05:45:22.998Z</time></trkpt><trkpt lat="42.24021023674626" lon="14.5311376334604"><ele>0.0</ele><time>2026-04-06T05:45:24.998Z</time></trkpt><trkpt lat="42.24025358538665" lon="14.5310434723872"><ele>0.0</ele><time>2026-04-06T05:45:26.998Z</time></trkpt><trkpt lat="42.24030548160604" lon="14.530957173298825"><ele>0.0</ele><time>2026-04-06T05:45:28.998Z</time></trkpt><trkpt lat="42.240356134136306" lon="14.530863952449343"><ele>0.0</ele><time>2026-04-06T05:45:30.998Z</time></trkpt><trkpt lat="42.24040117016178" lon="14.5307593896386"><ele>0.0</ele><time>2026-04-06T05:45:32.998Z</time></trkpt><trkpt lat="42.240445238213795" lon="14.530652730136563"><ele>0.0</ele><time>2026-04-06T05:45:34.998Z</time></trkpt><trkpt lat="42.24049388100269" lon="14.530556898119602"><ele>0.0</ele><time>2026-04-06T05:45:36.998Z</time></trkpt><trkpt lat="42.24053551437991" lon="14.530462435096313"><ele>0.0</ele><time>2026-04-06T05:45:38.998Z</time></trkpt><trkpt lat="42.24057493181418" lon="14.530367414527714"><ele>0.14285714285714285</ele><time>2026-04-06T05:45:40.998Z</time></trkpt><trkpt lat="42.24059021750141" lon="14.53027083175778"><ele>0.2857142857142857</ele><time>2026-04-06T05:45:42.998Z</time></trkpt><trkpt lat="42.24053887348466" lon="14.530192741414476"><ele>0.42857142857142855</ele><time>2026-04-06T05:45:44.998Z</time></trkpt><trkpt lat="42.2404639668601" lon="14.530153030747972"><ele>0.5714285714285714</ele><time>2026-04-06T05:45:46.998Z</time></trkpt><trkpt lat="42.24040317998768" lon="14.530099174964418"><ele>0.7142857142857142</ele><time>2026-04-06T05:45:48.998Z</time></trkpt><trkpt lat="42.24035039384222" lon="14.530038495779273"><ele>0.8571428571428571</ele><time>2026-04-06T05:45:50.998Z</time></trkpt><trkpt lat="42.24032278635556" lon="14.529961233852466"><ele>1.0</ele><time>2026-04-06T05:45:52.998Z</time></trkpt><trkpt lat="42.24036666089884" lon="14.52985944960649"><ele>0.9999999999999999</ele><time>2026-04-06T05:45:55.998Z</time></trkpt><trkpt lat="42.24041335619127" lon="14.529767874116452"><ele>1.0</ele><time>2026-04-06T05:45:58.998Z</time></trkpt><trkpt lat="42.240439146919044" lon="14.52968819718203"><ele>1.0</ele><time>2026-04-06T05:46:00.998Z</time></trkpt><trkpt lat="42.2404781675596" lon="14.5295971450216"><ele>1.0</ele><time>2026-04-06T05:46:02.998Z</time></trkpt><trkpt lat="42.240526350294815" lon="14.529493076142016"><ele>0.9999999999999999</ele><time>2026-04-06T05:46:04.998Z</time></trkpt><trkpt lat="42.24057081890132" lon="14.529382043834294"><ele>1.0</ele><time>2026-04-06T05:46:06.998Z</time></trkpt><trkpt lat="42.24061509496338" lon="14.529266543167473"><ele>0.8</ele><time>2026-04-06T05:46:08.998Z</time></trkpt><trkpt lat="42.24066696792297" lon="14.529154193413437"><ele>0.6000000000000001</ele><time>2026-04-06T05:46:11Z</time></trkpt><trkpt lat="42.240713670481206" lon="14.529035972411164"><ele>0.4</ele><time>2026-04-06T05:46:13Z</time></trkpt><trkpt lat="42.24075907742488" lon="14.528915898590025"><ele>0.2</ele><time>2026-04-06T05:46:15Z</time></trkpt><trkpt lat="42.240808668040565" lon="14.528801967324357"><ele>0.0</ele><time>2026-04-06T05:46:17Z</time></trkpt><trkpt lat="42.24085237677596" lon="14.52868990067159"><ele>-0.2</ele><time>2026-04-06T05:46:19Z</time></trkpt><trkpt lat="42.24089412782789" lon="14.528580758268893"><ele>-0.4</ele><time>2026-04-06T05:46:21Z</time></trkpt><trkpt lat="42.24093780202951" lon="14.528470681170935"><ele>-0.6000000000000001</ele><time>2026-04-06T05:46:23Z</time></trkpt><trkpt lat="42.240986925762336" lon="14.52835395822187"><ele>-0.8</ele><time>2026-04-06T05:46:25Z</time></trkpt><trkpt lat="42.241035071841935" lon="14.528234138039315"><ele>-1.0</ele><time>2026-04-06T05:46:26.999Z</time></trkpt><trkpt lat="42.24108196459488" lon="14.528113571094938"><ele>-1.0</ele><time>2026-04-06T05:46:28.999Z</time></trkpt><trkpt lat="42.241130753729756" lon="14.527991703496054"><ele>-1.0</ele><time>2026-04-06T05:46:30.999Z</time></trkpt><trkpt lat="42.24117860746551" lon="14.527869113082817"><ele>-1.0</ele><time>2026-04-06T05:46:32.999Z</time></trkpt><trkpt lat="42.24122784062768" lon="14.527746091003047"><ele>-1.0</ele><time>2026-04-06T05:46:34.999Z</time></trkpt><trkpt lat="42.24127744255699" lon="14.527621953199578"><ele>-1.0</ele><time>2026-04-06T05:46:36.999Z</time></trkpt><trkpt lat="42.24132974538957" lon="14.527496437290448"><ele>-0.8</ele><time>2026-04-06T05:46:38.999Z</time></trkpt><trkpt lat="42.241382113198135" lon="14.527367040727771"><ele>-0.6000000000000001</ele><time>2026-04-06T05:46:40.999Z</time></trkpt><trkpt lat="42.241433248647986" lon="14.527238203756069"><ele>-0.4</ele><time>2026-04-06T05:46:42.999Z</time></trkpt><trkpt lat="42.24148582580546" lon="14.527111241040243"><ele>-0.2</ele><time>2026-04-06T05:46:44.999Z</time></trkpt><trkpt lat="42.24153792220492" lon="14.526981563864581"><ele>0.0</ele><time>2026-04-06T05:46:46.999Z</time></trkpt><trkpt lat="42.241591889383834" lon="14.526855244849628"><ele>0.4</ele><time>2026-04-06T05:46:49Z</time></trkpt><trkpt lat="42.241643567601926" lon="14.52672633356207"><ele>0.8</ele><time>2026-04-06T05:46:51Z</time></trkpt><trkpt lat="42.24169473034871" lon="14.5265976359902"><ele>1.2000000000000002</ele><time>2026-04-06T05:46:53Z</time></trkpt><trkpt lat="42.24174576784881" lon="14.526468966604007"><ele>1.6</ele><time>2026-04-06T05:46:55Z</time></trkpt><trkpt lat="42.24179542402154" lon="14.52633746972791"><ele>2.0</ele><time>2026-04-06T05:46:57Z</time></trkpt><trkpt lat="42.24184816874976" lon="14.526211453370069"><ele>2.0</ele><time>2026-04-06T05:46:59Z</time></trkpt><trkpt lat="42.24190006981125" lon="14.52608266279882"><ele>2.0</ele><time>2026-04-06T05:47:01Z</time></trkpt><trkpt lat="42.24195140087691" lon="14.525955685711548"><ele>2.0</ele><time>2026-04-06T05:47:03Z</time></trkpt><trkpt lat="42.24200438979376" lon="14.525830996698028"><ele>2.0</ele><time>2026-04-06T05:47:05Z</time></trkpt><trkpt lat="42.24205481047192" lon="14.525703638929626"><ele>2.0</ele><time>2026-04-06T05:47:07Z</time></trkpt><trkpt lat="42.24210428180267" lon="14.525576033707802"><ele>2.0</ele><time>2026-04-06T05:47:09Z</time></trkpt><trkpt lat="42.2421549426065" lon="14.52545007632303"><ele>2.0</ele><time>2026-04-06T05:47:11Z</time></trkpt><trkpt lat="42.24220668014686" lon="14.525320617899041"><ele>2.0</ele><time>2026-04-06T05:47:13Z</time></trkpt><trkpt lat="42.242257581131966" lon="14.525190243864849"><ele>2.0</ele><time>2026-04-06T05:47:15Z</time></trkpt><trkpt lat="42.2423086242263" lon="14.525059439644812"><ele>2.0</ele><time>2026-04-06T05:47:17Z</time></trkpt><trkpt lat="42.24235886838772" lon="14.524930021542781"><ele>2.0</ele><time>2026-04-06T05:47:19Z</time></trkpt><trkpt lat="42.24240837284034" lon="14.524799662093448"><ele>2.0</ele><time>2026-04-06T05:47:20.999Z</time></trkpt><trkpt lat="42.24246058143601" lon="14.52467201054755"><ele>2.0</ele><time>2026-04-06T05:47:22.999Z</time></trkpt><trkpt lat="42.24251266504278" lon="14.524545083557568"><ele>2.0</ele><time>2026-04-06T05:47:24.999Z</time></trkpt><trkpt lat="42.242563822887305" lon="14.524415510296274"><ele>2.0</ele><time>2026-04-06T05:47:26.999Z</time></trkpt><trkpt lat="42.24262153112506" lon="14.524288871412303"><ele>2.0</ele><time>2026-04-06T05:47:28.999Z</time></trkpt><trkpt lat="42.24267804451764" lon="14.524159328358788"><ele>2.0</ele><time>2026-04-06T05:47:30.999Z</time></trkpt><trkpt lat="42.24273600014592" lon="14.52403469195823"><ele>2.0</ele><time>2026-04-06T05:47:32.999Z</time></trkpt><trkpt lat="42.24279222310916" lon="14.52390973269433"><ele>2.0</ele><time>2026-04-06T05:47:34.999Z</time></trkpt><trkpt lat="42.242850528307116" lon="14.523786715825706"><ele>2.0</ele><time>2026-04-06T05:47:36.999Z</time></trkpt><trkpt lat="42.24290991904872" lon="14.523666841879939"><ele>1.8</ele><time>2026-04-06T05:47:38.999Z</time></trkpt><trkpt lat="42.242971232181304" lon="14.523544451463534"><ele>1.6</ele><time>2026-04-06T05:47:40.999Z</time></trkpt><trkpt lat="42.2430348100876" lon="14.523425714520677"><ele>1.4000000000000001</ele><time>2026-04-06T05:47:42.999Z</time></trkpt><trkpt lat="42.243099235082425" lon="14.523306816392768"><ele>1.2000000000000002</ele><time>2026-04-06T05:47:44.999Z</time></trkpt><trkpt lat="42.24316457786117" lon="14.523187401942112"><ele>1.0</ele><time>2026-04-06T05:47:46.999Z</time></trkpt><trkpt lat="42.24323318156008" lon="14.523069072243143"><ele>1.0</ele><time>2026-04-06T05:47:48.999Z</time></trkpt><trkpt lat="42.243298756708676" lon="14.522951235443005"><ele>1.0</ele><time>2026-04-06T05:47:50.999Z</time></trkpt><trkpt lat="42.24336710260709" lon="14.522834399302763"><ele>1.0</ele><time>2026-04-06T05:47:52.999Z</time></trkpt><trkpt lat="42.24343477265089" lon="14.522719185382586"><ele>1.0</ele><time>2026-04-06T05:47:54.999Z</time></trkpt><trkpt lat="42.2435029650841" lon="14.522603852960845"><ele>1.0</ele><time>2026-04-06T05:47:56.999Z</time></trkpt><trkpt lat="42.2435745640646" lon="14.52249402006487"><ele>1.2000000000000002</ele><time>2026-04-06T05:47:58.999Z</time></trkpt><trkpt lat="42.24364589029856" lon="14.522383670961789"><ele>1.4000000000000001</ele><time>2026-04-06T05:48:00.999Z</time></trkpt><trkpt lat="42.24372154236873" lon="14.522277905301927"><ele>1.6</ele><time>2026-04-06T05:48:02.999Z</time></trkpt><trkpt lat="42.24380140240719" lon="14.522177554683175"><ele>1.8</ele><time>2026-04-06T05:48:04.999Z</time></trkpt><trkpt lat="42.243879199323864" lon="14.522069937637"><ele>2.0</ele><time>2026-04-06T05:48:06.999Z</time></trkpt><trkpt lat="42.243955684652185" lon="14.521960163508105"><ele>1.75</ele><time>2026-04-06T05:48:08.999Z</time></trkpt><trkpt lat="42.24403473241937" lon="14.521846370301244"><ele>1.5</ele><time>2026-04-06T05:48:10.999Z</time></trkpt><trkpt lat="42.244113977887196" lon="14.521732395368035"><ele>1.25</ele><time>2026-04-06T05:48:12.999Z</time></trkpt><trkpt lat="42.24419173826707" lon="14.521619598744268"><ele>1.0</ele><time>2026-04-06T05:48:14.998Z</time></trkpt><trkpt lat="42.244268984460625" lon="14.521508088310641"><ele>1.0</ele><time>2026-04-06T05:48:17.001Z</time></trkpt><trkpt lat="42.2443476063158" lon="14.521396980362246"><ele>1.0</ele><time>2026-04-06T05:48:19Z</time></trkpt><trkpt lat="42.24442582650342" lon="14.521284745975416"><ele>1.0</ele><time>2026-04-06T05:48:21Z</time></trkpt><trkpt lat="42.24450346896914" lon="14.521172365384494"><ele>1.0</ele><time>2026-04-06T05:48:23Z</time></trkpt><trkpt lat="42.24458162457828" lon="14.521060955506737"><ele>1.6</ele><time>2026-04-06T05:48:25Z</time></trkpt><trkpt lat="42.244655082786856" lon="14.520948043883434"><ele>2.2</ele><time>2026-04-06T05:48:27Z</time></trkpt><trkpt lat="42.24472947794462" lon="14.520836262625679"><ele>2.8000000000000003</ele><time>2026-04-06T05:48:29Z</time></trkpt><trkpt lat="42.24480259866227" lon="14.520724182928678"><ele>3.4000000000000004</ele><time>2026-04-06T05:48:31Z</time></trkpt><trkpt lat="42.244874023589865" lon="14.520612084447107"><ele>4.0</ele><time>2026-04-06T05:48:33Z</time></trkpt><trkpt lat="42.244945466465055" lon="14.520498144961417"><ele>4.6</ele><time>2026-04-06T05:48:35Z</time></trkpt><trkpt lat="42.24501590744803" lon="14.520384446320332"><ele>5.2</ele><time>2026-04-06T05:48:37Z</time></trkpt><trkpt lat="42.24508339654124" lon="14.520269795953746"><ele>5.799999999999999</ele><time>2026-04-06T05:48:39Z</time></trkpt><trkpt lat="42.24514553011958" lon="14.520144298002984"><ele>6.3999999999999995</ele><time>2026-04-06T05:48:41Z</time></trkpt><trkpt lat="42.2452055672379" lon="14.520016916107846"><ele>7.0</ele><time>2026-04-06T05:48:43Z</time></trkpt><trkpt lat="42.24526018762094" lon="14.519885303388305"><ele>7.0</ele><time>2026-04-06T05:48:45Z</time></trkpt><trkpt lat="42.245314900950476" lon="14.519758571243283"><ele>6.999999999999999</ele><time>2026-04-06T05:48:47Z</time></trkpt><trkpt lat="42.24536903506657" lon="14.519632404795326"><ele>6.999999999999999</ele><time>2026-04-06T05:48:49Z</time></trkpt><trkpt lat="42.245421245082774" lon="14.519508534397463"><ele>7.0</ele><time>2026-04-06T05:48:51Z</time></trkpt><trkpt lat="42.24547037685584" lon="14.519385044595573"><ele>7.0</ele><time>2026-04-06T05:48:53Z</time></trkpt><trkpt lat="42.245524787558466" lon="14.51926615453262"><ele>6.8</ele><time>2026-04-06T05:48:55Z</time></trkpt><trkpt lat="42.2455964245005" lon="14.519164645302586"><ele>6.6</ele><time>2026-04-06T05:48:57Z</time></trkpt><trkpt lat="42.2456582581349" lon="14.519058620154736"><ele>6.3999999999999995</ele><time>2026-04-06T05:48:59Z</time></trkpt><trkpt lat="42.24570021108361" lon="14.518939403077473"><ele>6.199999999999999</ele><time>2026-04-06T05:49:01Z</time></trkpt><trkpt lat="42.24574702940197" lon="14.518838690359203"><ele>6.0</ele><time>2026-04-06T05:49:03Z</time></trkpt><trkpt lat="42.24578956553595" lon="14.518752682540036"><ele>5.666666666666667</ele><time>2026-04-06T05:49:05Z</time></trkpt><trkpt lat="42.24582600680204" lon="14.518677140721909"><ele>5.333333333333333</ele><time>2026-04-06T05:49:07Z</time></trkpt><trkpt lat="42.24587825812069" lon="14.518600727466595"><ele>5.0</ele><time>2026-04-06T05:49:11Z</time></trkpt><trkpt lat="42.245928837590576" lon="14.51853402643764"><ele>4.666666666666666</ele><time>2026-04-06T05:49:14Z</time></trkpt><trkpt lat="42.24596509483584" lon="14.51844284969143"><ele>4.333333333333333</ele><time>2026-04-06T05:50:10.999Z</time></trkpt><trkpt lat="42.246016796797186" lon="14.51849750756162"><ele>4.0</ele><time>2026-04-06T05:50:53Z</time></trkpt><trkpt lat="42.246113982066994" lon="14.518621072281055"><ele>3.9999999999999996</ele><time>2026-04-06T05:51:23Z</time></trkpt><trkpt lat="42.24604267544493" lon="14.518588787450572"><ele>4.0</ele><time>2026-04-06T05:53:10Z</time></trkpt><trkpt lat="42.24605034951434" lon="14.51849841987207"><ele>4.0</ele><time>2026-04-06T05:53:17Z</time></trkpt><trkpt lat="42.245962443020304" lon="14.518448555453661"><ele>4.0</ele><time>2026-04-06T05:54:46Z</time></trkpt><trkpt lat="42.246003603341336" lon="14.518368337355259"><ele>3.9999999999999996</ele><time>2026-04-06T05:54:53Z</time></trkpt><trkpt lat="42.246049957427246" lon="14.51828700916079"><ele>4.0</ele><time>2026-04-06T05:54:57Z</time></trkpt><trkpt lat="42.2460979025701" lon="14.518200846704596"><ele>3.9999999999999996</ele><time>2026-04-06T05:55:00Z</time></trkpt><trkpt lat="42.24613654688927" lon="14.518111745789984"><ele>4.0</ele><time>2026-04-06T05:55:03Z</time></trkpt><trkpt lat="42.24617804620843" lon="14.518006011562749"><ele>4.0</ele><time>2026-04-06T05:55:06Z</time></trkpt><trkpt lat="42.246225604371624" lon="14.51790757288024"><ele>4.0</ele><time>2026-04-06T05:55:09Z</time></trkpt><trkpt lat="42.24626195729729" lon="14.517834896588516"><ele>3.9999999999999996</ele><time>2026-04-06T05:55:11Z</time></trkpt><trkpt lat="42.246299401559" lon="14.517756391470197"><ele>4.0</ele><time>2026-04-06T05:55:13Z</time></trkpt><trkpt lat="42.246345343520126" lon="14.517683963380353"><ele>3.8571428571428568</ele><time>2026-04-06T05:55:15Z</time></trkpt><trkpt lat="42.24638692154137" lon="14.517604658313575"><ele>3.714285714285714</ele><time>2026-04-06T05:55:17Z</time></trkpt><trkpt lat="42.24643113668261" lon="14.517527036440345"><ele>3.571428571428571</ele><time>2026-04-06T05:55:19Z</time></trkpt><trkpt lat="42.24647366278708" lon="14.51744628748412"><ele>3.4285714285714284</ele><time>2026-04-06T05:55:21Z</time></trkpt><trkpt lat="42.24651557044256" lon="14.5173610443259"><ele>3.2857142857142856</ele><time>2026-04-06T05:55:23Z</time></trkpt><trkpt lat="42.2465461923901" lon="14.517266101184239"><ele>3.1428571428571423</ele><time>2026-04-06T05:55:25Z</time></trkpt><trkpt lat="42.24659144228566" lon="14.517187835638687"><ele>3.0</ele><time>2026-04-06T05:55:27Z</time></trkpt><trkpt lat="42.24663853610891" lon="14.517109713286546"><ele>3.3333333333333335</ele><time>2026-04-06T05:55:28.999Z</time></trkpt><trkpt lat="42.24668821151696" lon="14.517026487712977"><ele>3.666666666666667</ele><time>2026-04-06T05:55:30.999Z</time></trkpt><trkpt lat="42.2467370788394" lon="14.516940255565087"><ele>4.0</ele><time>2026-04-06T05:55:32.999Z</time></trkpt><trkpt lat="42.24678649866443" lon="14.516843049588461"><ele>4.333333333333334</ele><time>2026-04-06T05:55:34.999Z</time></trkpt><trkpt lat="42.24683595500274" lon="14.516742272444208"><ele>4.666666666666667</ele><time>2026-04-06T05:55:36.999Z</time></trkpt><trkpt lat="42.24688030808077" lon="14.516630129872715"><ele>5.0</ele><time>2026-04-06T05:55:38.999Z</time></trkpt><trkpt lat="42.246932473862266" lon="14.516520701223268"><ele>5.0</ele><time>2026-04-06T05:55:40.999Z</time></trkpt><trkpt lat="42.24700244544977" lon="14.51643069875963"><ele>5.0</ele><time>2026-04-06T05:55:42.999Z</time></trkpt><trkpt lat="42.247063303376116" lon="14.516336405027593"><ele>5.0</ele><time>2026-04-06T05:55:44.999Z</time></trkpt><trkpt lat="42.24711250318687" lon="14.516229544720941"><ele>5.0</ele><time>2026-04-06T05:55:46.999Z</time></trkpt><trkpt lat="42.24716793354943" lon="14.51613010592644"><ele>5.0</ele><time>2026-04-06T05:55:48.999Z</time></trkpt><trkpt lat="42.24722345928466" lon="14.516029930739547"><ele>4.6</ele><time>2026-04-06T05:55:50.999Z</time></trkpt><trkpt lat="42.24727948751634" lon="14.515924282097071"><ele>4.2</ele><time>2026-04-06T05:55:52.999Z</time></trkpt><trkpt lat="42.24734018224163" lon="14.515827698610316"><ele>3.8</ele><time>2026-04-06T05:55:54.999Z</time></trkpt><trkpt lat="42.24739555943157" lon="14.515720090547816"><ele>3.4</ele><time>2026-04-06T05:55:56.999Z</time></trkpt><trkpt lat="42.24744993250552" lon="14.515610902483079"><ele>3.0</ele><time>2026-04-06T05:55:58.999Z</time></trkpt><trkpt lat="42.24750755574558" lon="14.515499500172469"><ele>3.5999999999999996</ele><time>2026-04-06T05:56:00.999Z</time></trkpt><trkpt lat="42.247565230804845" lon="14.51538472984688"><ele>4.199999999999999</ele><time>2026-04-06T05:56:02.999Z</time></trkpt><trkpt lat="42.247643620575964" lon="14.51528849547337"><ele>4.8</ele><time>2026-04-06T05:56:04.999Z</time></trkpt><trkpt lat="42.247704438591946" lon="14.515174854466977"><ele>5.3999999999999995</ele><time>2026-04-06T05:56:06.999Z</time></trkpt><trkpt lat="42.24776589520885" lon="14.515060677958525"><ele>6.0</ele><time>2026-04-06T05:56:08.999Z</time></trkpt><trkpt lat="42.24782902879902" lon="14.514943385903068"><ele>6.0</ele><time>2026-04-06T05:56:10.999Z</time></trkpt><trkpt lat="42.24789358227088" lon="14.51482345593572"><ele>6.0</ele><time>2026-04-06T05:56:12.999Z</time></trkpt><trkpt lat="42.247958951182426" lon="14.514702685505078"><ele>6.0</ele><time>2026-04-06T05:56:14.999Z</time></trkpt><trkpt lat="42.24802414139131" lon="14.514582964458997"><ele>6.0</ele><time>2026-04-06T05:56:16.999Z</time></trkpt><trkpt lat="42.248069058147614" lon="14.514440162246041"><ele>6.0</ele><time>2026-04-06T05:56:18.999Z</time></trkpt><trkpt lat="42.24813621061583" lon="14.514318289473445"><ele>5.0</ele><time>2026-04-06T05:56:20.999Z</time></trkpt><trkpt lat="42.24820520722298" lon="14.514195351057031"><ele>4.0</ele><time>2026-04-06T05:56:22.999Z</time></trkpt><trkpt lat="42.24827470431734" lon="14.51407594617827"><ele>3.0</ele><time>2026-04-06T05:56:24.998Z</time></trkpt><trkpt lat="42.24834385620095" lon="14.513955817873278"><ele>2.0</ele><time>2026-04-06T05:56:26.998Z</time></trkpt><trkpt lat="42.248412636673365" lon="14.51383393035769"><ele>3.0</ele><time>2026-04-06T05:56:28.998Z</time></trkpt><trkpt lat="42.24848106926268" lon="14.513709764274763"><ele>4.0</ele><time>2026-04-06T05:56:30.998Z</time></trkpt><trkpt lat="42.24854849826407" lon="14.513582651002348"><ele>5.0</ele><time>2026-04-06T05:56:32.998Z</time></trkpt><trkpt lat="42.24861661519508" lon="14.513459446959363"><ele>6.0</ele><time>2026-04-06T05:56:34.998Z</time></trkpt><trkpt lat="42.248683819036806" lon="14.513332993803516"><ele>6.0</ele><time>2026-04-06T05:56:36.998Z</time></trkpt><trkpt lat="42.24875304644581" lon="14.51320582602239"><ele>6.0</ele><time>2026-04-06T05:56:39Z</time></trkpt><trkpt lat="42.248822555268845" lon="14.513084391139008"><ele>6.0</ele><time>2026-04-06T05:56:41Z</time></trkpt><trkpt lat="42.24889142122055" lon="14.51296450921791"><ele>6.0</ele><time>2026-04-06T05:56:43Z</time></trkpt><trkpt lat="42.24896290425938" lon="14.512844340802518"><ele>5.25</ele><time>2026-04-06T05:56:45Z</time></trkpt><trkpt lat="42.249034968454225" lon="14.512724681975179"><ele>4.5</ele><time>2026-04-06T05:56:47Z</time></trkpt><trkpt lat="42.24910945531339" lon="14.512604275084092"><ele>3.75</ele><time>2026-04-06T05:56:49Z</time></trkpt><trkpt lat="42.24918398143292" lon="14.512488491922664"><ele>3.0</ele><time>2026-04-06T05:56:51Z</time></trkpt><trkpt lat="42.24925958518167" lon="14.512375433056514"><ele>3.0</ele><time>2026-04-06T05:56:53Z</time></trkpt><trkpt lat="42.24934303341438" lon="14.512270871852836"><ele>3.0</ele><time>2026-04-06T05:56:55Z</time></trkpt><trkpt lat="42.249426387690676" lon="14.51216133435401"><ele>3.0</ele><time>2026-04-06T05:56:57Z</time></trkpt><trkpt lat="42.24950612554378" lon="14.512052033114909"><ele>3.0</ele><time>2026-04-06T05:56:59Z</time></trkpt><trkpt lat="42.24958454737573" lon="14.5119403622897"><ele>3.0</ele><time>2026-04-06T05:57:01Z</time></trkpt><trkpt lat="42.24966475066851" lon="14.511831351357332"><ele>3.0</ele><time>2026-04-06T05:57:03Z</time></trkpt><trkpt lat="42.249745753696466" lon="14.511722531829502"><ele>3.0</ele><time>2026-04-06T05:57:05Z</time></trkpt><trkpt lat="42.24982406408639" lon="14.511616017673548"><ele>3.0</ele><time>2026-04-06T05:57:07Z</time></trkpt><trkpt lat="42.249901576987526" lon="14.511505284779581"><ele>3.0</ele><time>2026-04-06T05:57:09Z</time></trkpt><trkpt lat="42.24997962083182" lon="14.511389919652107"><ele>3.0</ele><time>2026-04-06T05:57:11Z</time></trkpt><trkpt lat="42.25006590500882" lon="14.511284159077709"><ele>3.0</ele><time>2026-04-06T05:57:13Z</time></trkpt><trkpt lat="42.250147152828745" lon="14.511171597910344"><ele>3.0</ele><time>2026-04-06T05:57:15Z</time></trkpt><trkpt lat="42.25022533343226" lon="14.511058323387985"><ele>3.75</ele><time>2026-04-06T05:57:17Z</time></trkpt><trkpt lat="42.2503048654638" lon="14.510949736844202"><ele>4.5</ele><time>2026-04-06T05:57:19Z</time></trkpt><trkpt lat="42.250390384856516" lon="14.510844654559682"><ele>5.25</ele><time>2026-04-06T05:57:21Z</time></trkpt><trkpt lat="42.25047458220511" lon="14.51073454483758"><ele>6.0</ele><time>2026-04-06T05:57:23Z</time></trkpt><trkpt lat="42.250553028631245" lon="14.510619691191753"><ele>5.75</ele><time>2026-04-06T05:57:25Z</time></trkpt><trkpt lat="42.25064009678041" lon="14.51051067779584"><ele>5.5</ele><time>2026-04-06T05:57:27Z</time></trkpt><trkpt lat="42.250723285052594" lon="14.510395911194818"><ele>5.25</ele><time>2026-04-06T05:57:29Z</time></trkpt><trkpt lat="42.25080598590496" lon="14.510278720908474"><ele>5.0</ele><time>2026-04-06T05:57:31Z</time></trkpt><trkpt lat="42.25089117046929" lon="14.510169313128879"><ele>5.0</ele><time>2026-04-06T05:57:32.999Z</time></trkpt><trkpt lat="42.250972387567145" lon="14.510059824263756"><ele>5.0</ele><time>2026-04-06T05:57:34.999Z</time></trkpt><trkpt lat="42.25105252748773" lon="14.509945028696528"><ele>5.0</ele><time>2026-04-06T05:57:36.999Z</time></trkpt><trkpt lat="42.25113489864582" lon="14.509839515060419"><ele>5.0</ele><time>2026-04-06T05:57:38.999Z</time></trkpt><trkpt lat="42.25121641232145" lon="14.509731359208395"><ele>5.0</ele><time>2026-04-06T05:57:40.999Z</time></trkpt><trkpt lat="42.25129727390124" lon="14.509621501164979"><ele>5.0</ele><time>2026-04-06T05:57:42.999Z</time></trkpt><trkpt lat="42.25137616310301" lon="14.50951199997575"><ele>5.0</ele><time>2026-04-06T05:57:44.999Z</time></trkpt><trkpt lat="42.251460275828066" lon="14.509407891473169"><ele>5.0</ele><time>2026-04-06T05:57:46.999Z</time></trkpt><trkpt lat="42.25154324585188" lon="14.509303695768914"><ele>5.0</ele><time>2026-04-06T05:57:48.999Z</time></trkpt><trkpt lat="42.25162402179273" lon="14.509198595749323"><ele>5.0</ele><time>2026-04-06T05:57:50.999Z</time></trkpt><trkpt lat="42.25169962294295" lon="14.509095730781416"><ele>5.0</ele><time>2026-04-06T05:57:52.999Z</time></trkpt><trkpt lat="42.25177564869034" lon="14.50900201639505"><ele>5.0</ele><time>2026-04-06T05:57:54.999Z</time></trkpt><trkpt lat="42.25181276871231" lon="14.50888092767954"><ele>5.0</ele><time>2026-04-06T05:57:56.999Z</time></trkpt><trkpt lat="42.25178684830229" lon="14.50875990928606"><ele>5.333333333333334</ele><time>2026-04-06T05:57:58.999Z</time></trkpt><trkpt lat="42.25171767815338" lon="14.50866345205308"><ele>5.666666666666667</ele><time>2026-04-06T05:58:00.999Z</time></trkpt><trkpt lat="42.25166100627396" lon="14.508565890590196"><ele>6.0</ele><time>2026-04-06T05:58:02.999Z</time></trkpt><trkpt lat="42.2516142346598" lon="14.5084729387083"><ele>6.333333333333334</ele><time>2026-04-06T05:58:04.999Z</time></trkpt><trkpt lat="42.25160369320497" lon="14.508376907561814"><ele>6.666666666666667</ele><time>2026-04-06T05:58:07.999Z</time></trkpt><trkpt lat="42.2516572347313" lon="14.508292864272562"><ele>7.0</ele><time>2026-04-06T05:58:10.999Z</time></trkpt><trkpt lat="42.25171070946053" lon="14.508230365555493"><ele>7.000000000000001</ele><time>2026-04-06T05:58:12.999Z</time></trkpt><trkpt lat="42.25177034495168" lon="14.508160387431685"><ele>7.0</ele><time>2026-04-06T05:58:14.999Z</time></trkpt><trkpt lat="42.25183383819018" lon="14.50807966588959"><ele>7.0</ele><time>2026-04-06T05:58:16.999Z</time></trkpt><trkpt lat="42.25190212190554" lon="14.508007167231023"><ele>7.0</ele><time>2026-04-06T05:58:18.999Z</time></trkpt><trkpt lat="42.25196943933634" lon="14.507934372290125"><ele>7.000000000000001</ele><time>2026-04-06T05:58:20.999Z</time></trkpt><trkpt lat="42.25204223462694" lon="14.507867607656951"><ele>7.0</ele><time>2026-04-06T05:58:22.999Z</time></trkpt><trkpt lat="42.25211601632649" lon="14.507795609068056"><ele>6.8</ele><time>2026-04-06T05:58:24.999Z</time></trkpt><trkpt lat="42.25219152796961" lon="14.50772576810351"><ele>6.6</ele><time>2026-04-06T05:58:26.998Z</time></trkpt><trkpt lat="42.25227056247815" lon="14.507654242143209"><ele>6.3999999999999995</ele><time>2026-04-06T05:58:28.998Z</time></trkpt><trkpt lat="42.2523546734779" lon="14.507576604042754"><ele>6.199999999999999</ele><time>2026-04-06T05:58:30.998Z</time></trkpt><trkpt lat="42.252441375009674" lon="14.50749764825543"><ele>6.0</ele><time>2026-04-06T05:58:32.998Z</time></trkpt><trkpt lat="42.25253868989663" lon="14.507441886787484"><ele>6.0</ele><time>2026-04-06T05:58:34.998Z</time></trkpt><trkpt lat="42.25261748321818" lon="14.507345113350715"><ele>6.0</ele><time>2026-04-06T05:58:36.998Z</time></trkpt><trkpt lat="42.25270869934044" lon="14.507269188888957"><ele>6.0</ele><time>2026-04-06T05:58:38.998Z</time></trkpt><trkpt lat="42.25280094297255" lon="14.507193932889141"><ele>6.0</ele><time>2026-04-06T05:58:40.998Z</time></trkpt><trkpt lat="42.252892954524455" lon="14.50712136215202"><ele>6.0</ele><time>2026-04-06T05:58:42.998Z</time></trkpt><trkpt lat="42.25298438985435" lon="14.507040640390494"><ele>6.199999999999999</ele><time>2026-04-06T05:58:45Z</time></trkpt><trkpt lat="42.253076304351" lon="14.506965345445659"><ele>6.3999999999999995</ele><time>2026-04-06T05:58:47Z</time></trkpt><trkpt lat="42.25316843330297" lon="14.506892505995063"><ele>6.6</ele><time>2026-04-06T05:58:49Z</time></trkpt><trkpt lat="42.25325795350237" lon="14.506813648718357"><ele>6.8</ele><time>2026-04-06T05:58:51Z</time></trkpt><trkpt lat="42.25335260380574" lon="14.50673598613402"><ele>7.0</ele><time>2026-04-06T05:58:53Z</time></trkpt><trkpt lat="42.25344529002814" lon="14.506656468072634"><ele>7.0</ele><time>2026-04-06T05:58:55Z</time></trkpt><trkpt lat="42.25353618598377" lon="14.506579338756461"><ele>6.999999999999999</ele><time>2026-04-06T05:58:57Z</time></trkpt><trkpt lat="42.25362840307346" lon="14.506501499179182"><ele>6.999999999999999</ele><time>2026-04-06T05:58:59Z</time></trkpt><trkpt lat="42.25372538896019" lon="14.50642928227447"><ele>7.0</ele><time>2026-04-06T05:59:01Z</time></trkpt><trkpt lat="42.25382401879613" lon="14.506359526338601"><ele>7.0</ele><time>2026-04-06T05:59:03Z</time></trkpt><trkpt lat="42.25392123759923" lon="14.506286208938503"><ele>7.3999999999999995</ele><time>2026-04-06T05:59:05Z</time></trkpt><trkpt lat="42.25401698002103" lon="14.50620945629506"><ele>7.799999999999999</ele><time>2026-04-06T05:59:07Z</time></trkpt><trkpt lat="42.254112083146865" lon="14.50613241808048"><ele>8.2</ele><time>2026-04-06T05:59:09Z</time></trkpt><trkpt lat="42.254204846036984" lon="14.506054284671007"><ele>8.6</ele><time>2026-04-06T05:59:11Z</time></trkpt><trkpt lat="42.25429797731556" lon="14.505978515162715"><ele>9.0</ele><time>2026-04-06T05:59:13Z</time></trkpt><trkpt lat="42.25439001868106" lon="14.505899709219895"><ele>9.0</ele><time>2026-04-06T05:59:15Z</time></trkpt><trkpt lat="42.254484945043835" lon="14.505822067505703"><ele>9.0</ele><time>2026-04-06T05:59:17Z</time></trkpt><trkpt lat="42.254577537145444" lon="14.505742994515575"><ele>9.0</ele><time>2026-04-06T05:59:19Z</time></trkpt><trkpt lat="42.25467247451147" lon="14.505659938989837"><ele>9.0</ele><time>2026-04-06T05:59:21Z</time></trkpt><trkpt lat="42.254765520835555" lon="14.505576021071004"><ele>9.0</ele><time>2026-04-06T05:59:23Z</time></trkpt><trkpt lat="42.25485731239572" lon="14.505489942240855"><ele>9.8</ele><time>2026-04-06T05:59:25Z</time></trkpt><trkpt lat="42.25494972177541" lon="14.505405177092072"><ele>10.600000000000001</ele><time>2026-04-06T05:59:27Z</time></trkpt><trkpt lat="42.25503944147314" lon="14.50532661001339"><ele>11.4</ele><time>2026-04-06T05:59:29Z</time></trkpt><trkpt lat="42.255125267970634" lon="14.505246472372038"><ele>12.200000000000001</ele><time>2026-04-06T05:59:31Z</time></trkpt><trkpt lat="42.25521236421914" lon="14.505168888523178"><ele>13.0</ele><time>2026-04-06T05:59:33Z</time></trkpt><trkpt lat="42.25530094564285" lon="14.505090368424638"><ele>13.0</ele><time>2026-04-06T05:59:34.999Z</time></trkpt><trkpt lat="42.255388865888534" lon="14.505011310303102"><ele>13.0</ele><time>2026-04-06T05:59:36.999Z</time></trkpt><trkpt lat="42.25547891081486" lon="14.504933034476457"><ele>13.0</ele><time>2026-04-06T05:59:38.999Z</time></trkpt><trkpt lat="42.25556730014534" lon="14.504851783083819"><ele>13.0</ele><time>2026-04-06T05:59:40.999Z</time></trkpt><trkpt lat="42.25566078412626" lon="14.504775100564352"><ele>13.0</ele><time>2026-04-06T05:59:42.999Z</time></trkpt><trkpt lat="42.25575272286312" lon="14.504697703350281"><ele>13.8</ele><time>2026-04-06T05:59:44.999Z</time></trkpt><trkpt lat="42.25584429095782" lon="14.504618247260822"><ele>14.600000000000001</ele><time>2026-04-06T05:59:46.999Z</time></trkpt><trkpt lat="42.25593615848715" lon="14.504537832094194"><ele>15.399999999999999</ele><time>2026-04-06T05:59:48.999Z</time></trkpt><trkpt lat="42.256029522490785" lon="14.50445690885157"><ele>16.2</ele><time>2026-04-06T05:59:50.999Z</time></trkpt><trkpt lat="42.256122286219224" lon="14.504375553820553"><ele>17.0</ele><time>2026-04-06T05:59:52.999Z</time></trkpt><trkpt lat="42.256215274466236" lon="14.50429433162385"><ele>17.0</ele><time>2026-04-06T05:59:54.999Z</time></trkpt><trkpt lat="42.25631013255253" lon="14.504212663619134"><ele>17.0</ele><time>2026-04-06T05:59:56.999Z</time></trkpt><trkpt lat="42.25640501948916" lon="14.504133671015197"><ele>17.0</ele><time>2026-04-06T05:59:58.999Z</time></trkpt><trkpt lat="42.256499003163626" lon="14.504052624676113"><ele>17.0</ele><time>2026-04-06T06:00:00.999Z</time></trkpt><trkpt lat="42.256593410313926" lon="14.503970770361512"><ele>17.0</ele><time>2026-04-06T06:00:02.999Z</time></trkpt><trkpt lat="42.25668941716823" lon="14.503890312164959"><ele>17.0</ele><time>2026-04-06T06:00:04.999Z</time></trkpt><trkpt lat="42.25678256859692" lon="14.503804359144489"><ele>17.0</ele><time>2026-04-06T06:00:06.999Z</time></trkpt><trkpt lat="42.25687800087469" lon="14.503721215456256"><ele>17.0</ele><time>2026-04-06T06:00:08.999Z</time></trkpt><trkpt lat="42.25697448007006" lon="14.50363614213075"><ele>17.0</ele><time>2026-04-06T06:00:10.999Z</time></trkpt><trkpt lat="42.257073649167495" lon="14.503568671019242"><ele>17.0</ele><time>2026-04-06T06:00:12.999Z</time></trkpt><trkpt lat="42.25716958119758" lon="14.503493603058528"><ele>17.0</ele><time>2026-04-06T06:00:14.999Z</time></trkpt><trkpt lat="42.25726203733232" lon="14.50341318116149"><ele>17.0</ele><time>2026-04-06T06:00:16.999Z</time></trkpt><trkpt lat="42.25735728696681" lon="14.503336034015964"><ele>17.0</ele><time>2026-04-06T06:00:18.999Z</time></trkpt><trkpt lat="42.25745129598692" lon="14.503257037490199"><ele>17.0</ele><time>2026-04-06T06:00:20.999Z</time></trkpt><trkpt lat="42.25754406765017" lon="14.503176724978179"><ele>17.8</ele><time>2026-04-06T06:00:22.999Z</time></trkpt><trkpt lat="42.25763672478823" lon="14.503098362642135"><ele>18.6</ele><time>2026-04-06T06:00:24.999Z</time></trkpt><trkpt lat="42.257730202820255" lon="14.503019655275777"><ele>19.400000000000002</ele><time>2026-04-06T06:00:26.999Z</time></trkpt><trkpt lat="42.257823220615414" lon="14.502939814845519"><ele>20.2</ele><time>2026-04-06T06:00:28.999Z</time></trkpt><trkpt lat="42.257916919868805" lon="14.502861860054345"><ele>21.0</ele><time>2026-04-06T06:00:30.998Z</time></trkpt><trkpt lat="42.258010516911874" lon="14.502776783184801"><ele>21.0</ele><time>2026-04-06T06:00:32.998Z</time></trkpt><trkpt lat="42.258105369275164" lon="14.502694387471998"><ele>21.0</ele><time>2026-04-06T06:00:34.998Z</time></trkpt><trkpt lat="42.258201267660716" lon="14.502619367063039"><ele>21.0</ele><time>2026-04-06T06:00:36.998Z</time></trkpt><trkpt lat="42.25829613672552" lon="14.5025380061849"><ele>21.0</ele><time>2026-04-06T06:00:38.998Z</time></trkpt><trkpt lat="42.258390299255524" lon="14.502456718084606"><ele>21.0</ele><time>2026-04-06T06:00:40.998Z</time></trkpt><trkpt lat="42.25848559422858" lon="14.50237834088277"><ele>20.25</ele><time>2026-04-06T06:00:42.998Z</time></trkpt><trkpt lat="42.258578919162716" lon="14.50229976771404"><ele>19.5</ele><time>2026-04-06T06:00:44.998Z</time></trkpt><trkpt lat="42.25867353494733" lon="14.502215803831929"><ele>18.75</ele><time>2026-04-06T06:00:46.998Z</time></trkpt><trkpt lat="42.25876909877712" lon="14.502135365087405"><ele>18.0</ele><time>2026-04-06T06:00:48.998Z</time></trkpt><trkpt lat="42.25886554458914" lon="14.502051749041865"><ele>15.0</ele><time>2026-04-06T06:00:51Z</time></trkpt><trkpt lat="42.25896339701422" lon="14.501972181369718"><ele>12.0</ele><time>2026-04-06T06:00:53Z</time></trkpt><trkpt lat="42.25905981006843" lon="14.501887711730612"><ele>9.0</ele><time>2026-04-06T06:00:55Z</time></trkpt><trkpt lat="42.25916014014379" lon="14.501804111105582"><ele>6.0</ele><time>2026-04-06T06:00:57Z</time></trkpt><trkpt lat="42.2592571342849" lon="14.501720930217319"><ele>6.0</ele><time>2026-04-06T06:00:59Z</time></trkpt><trkpt lat="42.259354033352345" lon="14.50163835603233"><ele>6.0</ele><time>2026-04-06T06:01:01Z</time></trkpt><trkpt lat="42.259453719462165" lon="14.501558405955313"><ele>6.0</ele><time>2026-04-06T06:01:03Z</time></trkpt><trkpt lat="42.25955558259731" lon="14.501484412645505"><ele>6.0</ele><time>2026-04-06T06:01:05Z</time></trkpt><trkpt lat="42.25965723942591" lon="14.50141009526727"><ele>6.0</ele><time>2026-04-06T06:01:07Z</time></trkpt><trkpt lat="42.259759349878045" lon="14.501337445546755"><ele>6.0</ele><time>2026-04-06T06:01:09Z</time></trkpt><trkpt lat="42.259865871150744" lon="14.501269133104365"><ele>6.0</ele><time>2026-04-06T06:01:11Z</time></trkpt><trkpt lat="42.259972793912134" lon="14.501202681630996"><ele>6.0</ele><time>2026-04-06T06:01:13Z</time></trkpt><trkpt lat="42.260081279376784" lon="14.501144927383457"><ele>7.75</ele><time>2026-04-06T06:01:15Z</time></trkpt><trkpt lat="42.26019353163593" lon="14.501088921245042"><ele>9.5</ele><time>2026-04-06T06:01:17Z</time></trkpt><trkpt lat="42.260306268407575" lon="14.50103388984436"><ele>11.25</ele><time>2026-04-06T06:01:19Z</time></trkpt><trkpt lat="42.260420251817095" lon="14.500981219175772"><ele>13.0</ele><time>2026-04-06T06:01:21Z</time></trkpt><trkpt lat="42.260537248167836" lon="14.500931184512611"><ele>11.6</ele><time>2026-04-06T06:01:23Z</time></trkpt><trkpt lat="42.260656341270135" lon="14.50088665195121"><ele>10.200000000000001</ele><time>2026-04-06T06:01:25Z</time></trkpt><trkpt lat="42.26071781250068" lon="14.500865841360927"><ele>8.8</ele><time>2026-04-06T06:01:26Z</time></trkpt><trkpt lat="42.26083876038176" lon="14.500830779817262"><ele>7.4</ele><time>2026-04-06T06:01:28Z</time></trkpt><trkpt lat="42.260960507730076" lon="14.50080189322193"><ele>6.0</ele><time>2026-04-06T06:01:30Z</time></trkpt><trkpt lat="42.261081380231694" lon="14.500785205741158"><ele>6.0</ele><time>2026-04-06T06:01:32Z</time></trkpt><trkpt lat="42.26120169646808" lon="14.500767885538208"><ele>6.0</ele><time>2026-04-06T06:01:34Z</time></trkpt><trkpt lat="42.26132198925196" lon="14.500746934820773"><ele>6.0</ele><time>2026-04-06T06:01:36Z</time></trkpt><trkpt lat="42.26144163517746" lon="14.500732960999601"><ele>6.0</ele><time>2026-04-06T06:01:37.999Z</time></trkpt><trkpt lat="42.26156157465786" lon="14.500725112398356"><ele>6.0</ele><time>2026-04-06T06:01:39.999Z</time></trkpt><trkpt lat="42.26168107506232" lon="14.500723418182927"><ele>6.0</ele><time>2026-04-06T06:01:41.999Z</time></trkpt><trkpt lat="42.26180023030575" lon="14.500718571382377"><ele>6.0</ele><time>2026-04-06T06:01:43.999Z</time></trkpt><trkpt lat="42.2619162102716" lon="14.500710139136112"><ele>6.0</ele><time>2026-04-06T06:01:45.999Z</time></trkpt><trkpt lat="42.262030476498516" lon="14.500710195075925"><ele>6.0</ele><time>2026-04-06T06:01:47.999Z</time></trkpt><trkpt lat="42.26214387580708" lon="14.500711848586986"><ele>6.0</ele><time>2026-04-06T06:01:49.999Z</time></trkpt><trkpt lat="42.26225378661719" lon="14.500720941786119"><ele>6.0</ele><time>2026-04-06T06:01:51.999Z</time></trkpt><trkpt lat="42.26236276856598" lon="14.500722620494285"><ele>6.0</ele><time>2026-04-06T06:01:53.999Z</time></trkpt><trkpt lat="42.262469237234164" lon="14.500732594663551"><ele>6.0</ele><time>2026-04-06T06:01:55.999Z</time></trkpt><trkpt lat="42.26257969992676" lon="14.500739690938511"><ele>6.0</ele><time>2026-04-06T06:01:57.999Z</time></trkpt><trkpt lat="42.262688993734834" lon="14.500746486859518"><ele>6.0</ele><time>2026-04-06T06:01:59.999Z</time></trkpt><trkpt lat="42.26279622904948" lon="14.500748541078988"><ele>6.0</ele><time>2026-04-06T06:02:01.999Z</time></trkpt><trkpt lat="42.262903567916936" lon="14.500749020836986"><ele>6.0</ele><time>2026-04-06T06:02:03.999Z</time></trkpt><trkpt lat="42.26301067924905" lon="14.50075517699982"><ele>6.0</ele><time>2026-04-06T06:02:05.999Z</time></trkpt><trkpt lat="42.26312158840687" lon="14.500760976029703"><ele>6.4</ele><time>2026-04-06T06:02:07.999Z</time></trkpt><trkpt lat="42.26322599623247" lon="14.500767460372055"><ele>6.8</ele><time>2026-04-06T06:02:09.999Z</time></trkpt><trkpt lat="42.263333949142044" lon="14.500767228457628"><ele>7.200000000000001</ele><time>2026-04-06T06:02:11.999Z</time></trkpt><trkpt lat="42.26344209213523" lon="14.500776169085333"><ele>7.6000000000000005</ele><time>2026-04-06T06:02:13.999Z</time></trkpt><trkpt lat="42.26355065890866" lon="14.500789288501974"><ele>8.0</ele><time>2026-04-06T06:02:15.999Z</time></trkpt><trkpt lat="42.26365820274987" lon="14.500793909295703"><ele>8.0</ele><time>2026-04-06T06:02:17.999Z</time></trkpt><trkpt lat="42.26376511442095" lon="14.500798024429972"><ele>8.0</ele><time>2026-04-06T06:02:19.999Z</time></trkpt><trkpt lat="42.26387140391329" lon="14.50080550041962"><ele>8.0</ele><time>2026-04-06T06:02:21.999Z</time></trkpt><trkpt lat="42.26397923628685" lon="14.500811039450873"><ele>8.0</ele><time>2026-04-06T06:02:23.999Z</time></trkpt><trkpt lat="42.2640885481574" lon="14.500816955011963"><ele>8.0</ele><time>2026-04-06T06:02:25.999Z</time></trkpt><trkpt lat="42.264197650661764" lon="14.500824140568898"><ele>7.6000000000000005</ele><time>2026-04-06T06:02:27.999Z</time></trkpt><trkpt lat="42.264305725718735" lon="14.500827592345845"><ele>7.200000000000001</ele><time>2026-04-06T06:02:29.999Z</time></trkpt><trkpt lat="42.264413625448896" lon="14.500829511302287"><ele>6.8</ele><time>2026-04-06T06:02:31.999Z</time></trkpt><trkpt lat="42.264521460652794" lon="14.500832170848746"><ele>6.4</ele><time>2026-04-06T06:02:33.998Z</time></trkpt><trkpt lat="42.26462634101669" lon="14.500840114472615"><ele>6.0</ele><time>2026-04-06T06:02:35.998Z</time></trkpt><trkpt lat="42.26473271118295" lon="14.500842514476549"><ele>6.6</ele><time>2026-04-06T06:02:37.998Z</time></trkpt><trkpt lat="42.264837149069876" lon="14.500850844640484"><ele>7.199999999999999</ele><time>2026-04-06T06:02:39.998Z</time></trkpt><trkpt lat="42.26494136584488" lon="14.500858378490149"><ele>7.800000000000001</ele><time>2026-04-06T06:02:41.998Z</time></trkpt><trkpt lat="42.26504658153214" lon="14.50086005764615"><ele>8.4</ele><time>2026-04-06T06:02:43.998Z</time></trkpt><trkpt lat="42.26515226139086" lon="14.500871026336968"><ele>9.0</ele><time>2026-04-06T06:02:45.998Z</time></trkpt><trkpt lat="42.26525769493016" lon="14.500886879924863"><ele>9.0</ele><time>2026-04-06T06:02:47.998Z</time></trkpt><trkpt lat="42.265363032454225" lon="14.500904478109705"><ele>9.0</ele><time>2026-04-06T06:02:49.998Z</time></trkpt><trkpt lat="42.26546855748101" lon="14.50092257482319"><ele>9.0</ele><time>2026-04-06T06:02:51.998Z</time></trkpt><trkpt lat="42.26557281477511" lon="14.500938493922574"><ele>9.0</ele><time>2026-04-06T06:02:53.998Z</time></trkpt><trkpt lat="42.26567842525324" lon="14.500960537383799"><ele>9.0</ele><time>2026-04-06T06:02:55.998Z</time></trkpt><trkpt lat="42.265783588774035" lon="14.500983531514937"><ele>10.2</ele><time>2026-04-06T06:02:58Z</time></trkpt><trkpt lat="42.26589090969936" lon="14.50101298859953"><ele>11.4</ele><time>2026-04-06T06:03:00Z</time></trkpt><trkpt lat="42.26600095450321" lon="14.501045712612232"><ele>12.6</ele><time>2026-04-06T06:03:02Z</time></trkpt><trkpt lat="42.26610664103844" lon="14.501082767085764"><ele>13.8</ele><time>2026-04-06T06:03:04Z</time></trkpt><trkpt lat="42.26621192461202" lon="14.50111882608641"><ele>15.0</ele><time>2026-04-06T06:03:06Z</time></trkpt><trkpt lat="42.26631373077421" lon="14.501161292710927"><ele>15.0</ele><time>2026-04-06T06:03:08Z</time></trkpt><trkpt lat="42.266416657216034" lon="14.501203380200911"><ele>15.0</ele><time>2026-04-06T06:03:10Z</time></trkpt><trkpt lat="42.266517725335014" lon="14.501247962885046"><ele>15.0</ele><time>2026-04-06T06:03:12Z</time></trkpt><trkpt lat="42.26661673626859" lon="14.501300512335044"><ele>15.0</ele><time>2026-04-06T06:03:14Z</time></trkpt><trkpt lat="42.266714717016754" lon="14.50135670658762"><ele>15.0</ele><time>2026-04-06T06:03:16Z</time></trkpt><trkpt lat="42.26681082624446" lon="14.501409495892377"><ele>14.0</ele><time>2026-04-06T06:03:18Z</time></trkpt><trkpt lat="42.26690837362841" lon="14.501468676104027"><ele>13.0</ele><time>2026-04-06T06:03:20Z</time></trkpt><trkpt lat="42.26700521989288" lon="14.501531669165272"><ele>12.0</ele><time>2026-04-06T06:03:22Z</time></trkpt><trkpt lat="42.267101848801595" lon="14.501595254585567"><ele>11.0</ele><time>2026-04-06T06:03:24Z</time></trkpt><trkpt lat="42.26719830494777" lon="14.50165458313401"><ele>10.0</ele><time>2026-04-06T06:03:26Z</time></trkpt><trkpt lat="42.267291850866265" lon="14.501716162055958"><ele>10.0</ele><time>2026-04-06T06:03:28Z</time></trkpt><trkpt lat="42.26738460747631" lon="14.501776438998169"><ele>10.0</ele><time>2026-04-06T06:03:30Z</time></trkpt><trkpt lat="42.267476771752875" lon="14.501830971829385"><ele>10.0</ele><time>2026-04-06T06:03:32Z</time></trkpt><trkpt lat="42.26756945470117" lon="14.501886289425155"><ele>10.0</ele><time>2026-04-06T06:03:34Z</time></trkpt><trkpt lat="42.26766314705293" lon="14.501943469824273"><ele>10.0</ele><time>2026-04-06T06:03:36Z</time></trkpt><trkpt lat="42.2677576545096" lon="14.502003844019873"><ele>10.0</ele><time>2026-04-06T06:03:37.999Z</time></trkpt><trkpt lat="42.26784913281209" lon="14.502067751791543"><ele>10.0</ele><time>2026-04-06T06:03:39.999Z</time></trkpt><trkpt lat="42.26794143872149" lon="14.50212295774745"><ele>10.0</ele><time>2026-04-06T06:03:41.999Z</time></trkpt><trkpt lat="42.268036607918404" lon="14.502172113877432"><ele>10.0</ele><time>2026-04-06T06:03:43.999Z</time></trkpt><trkpt lat="42.268131415265096" lon="14.502211707541818"><ele>10.0</ele><time>2026-04-06T06:03:45.999Z</time></trkpt><trkpt lat="42.26822666037595" lon="14.502250239085026"><ele>9.2</ele><time>2026-04-06T06:03:47.999Z</time></trkpt><trkpt lat="42.26832332331792" lon="14.502282519832944"><ele>8.4</ele><time>2026-04-06T06:03:49.999Z</time></trkpt><trkpt lat="42.26842385507438" lon="14.502316458093123"><ele>7.6</ele><time>2026-04-06T06:03:51.999Z</time></trkpt><trkpt lat="42.268522821954406" lon="14.50235289006177"><ele>6.8</ele><time>2026-04-06T06:03:53.999Z</time></trkpt><trkpt lat="42.26862305449076" lon="14.502378743123124"><ele>6.0</ele><time>2026-04-06T06:03:55.999Z</time></trkpt><trkpt lat="42.26872474621365" lon="14.502402210614955"><ele>6.0</ele><time>2026-04-06T06:03:57.999Z</time></trkpt><trkpt lat="42.26882665129041" lon="14.502428722229647"><ele>6.0</ele><time>2026-04-06T06:03:59.999Z</time></trkpt><trkpt lat="42.26892563061005" lon="14.502462959333005"><ele>6.0</ele><time>2026-04-06T06:04:01.999Z</time></trkpt><trkpt lat="42.26902565174944" lon="14.502498119979292"><ele>6.0</ele><time>2026-04-06T06:04:03.999Z</time></trkpt><trkpt lat="42.26912513337352" lon="14.502515165443027"><ele>6.0</ele><time>2026-04-06T06:04:05.999Z</time></trkpt><trkpt lat="42.26923255822929" lon="14.502517254783818"><ele>6.6</ele><time>2026-04-06T06:04:07.999Z</time></trkpt><trkpt lat="42.26933423082657" lon="14.502527425412636"><ele>7.199999999999999</ele><time>2026-04-06T06:04:09.999Z</time></trkpt><trkpt lat="42.26943742388523" lon="14.502527891599707"><ele>7.800000000000001</ele><time>2026-04-06T06:04:11.999Z</time></trkpt><trkpt lat="42.26954309471478" lon="14.502525681772724"><ele>8.4</ele><time>2026-04-06T06:04:13.999Z</time></trkpt><trkpt lat="42.26965236693934" lon="14.502521887687655"><ele>9.0</ele><time>2026-04-06T06:04:15.999Z</time></trkpt><trkpt lat="42.26975861813193" lon="14.502518431377634"><ele>8.6</ele><time>2026-04-06T06:04:17.999Z</time></trkpt><trkpt lat="42.26986588869317" lon="14.502506816362603"><ele>8.2</ele><time>2026-04-06T06:04:19.999Z</time></trkpt><trkpt lat="42.26997141921091" lon="14.502492111673032"><ele>7.799999999999999</ele><time>2026-04-06T06:04:21.999Z</time></trkpt><trkpt lat="42.27007612590716" lon="14.502471646240702"><ele>7.3999999999999995</ele><time>2026-04-06T06:04:23.999Z</time></trkpt><trkpt lat="42.270178844272266" lon="14.502449456804134"><ele>7.0</ele><time>2026-04-06T06:04:25.999Z</time></trkpt><trkpt lat="42.270281272407765" lon="14.502427097697469"><ele>7.0</ele><time>2026-04-06T06:04:27.999Z</time></trkpt><trkpt lat="42.27038414726415" lon="14.502414422830734"><ele>6.999999999999999</ele><time>2026-04-06T06:04:29.999Z</time></trkpt><trkpt lat="42.2704824965184" lon="14.502396040481855"><ele>6.999999999999999</ele><time>2026-04-06T06:04:31.998Z</time></trkpt><trkpt lat="42.27058271073567" lon="14.502369020061563"><ele>7.0</ele><time>2026-04-06T06:04:33.998Z</time></trkpt><trkpt lat="42.27068075870844" lon="14.502336533572734"><ele>7.0</ele><time>2026-04-06T06:04:35.998Z</time></trkpt><trkpt lat="42.27077941398881" lon="14.502301846732356"><ele>7.0</ele><time>2026-04-06T06:04:37.998Z</time></trkpt><trkpt lat="42.270880170190765" lon="14.502268848117332"><ele>6.999999999999999</ele><time>2026-04-06T06:04:39.998Z</time></trkpt><trkpt lat="42.27097873717253" lon="14.502223597317707"><ele>6.999999999999999</ele><time>2026-04-06T06:04:41.998Z</time></trkpt><trkpt lat="42.27107704606388" lon="14.502175841948867"><ele>7.0</ele><time>2026-04-06T06:04:43.998Z</time></trkpt><trkpt lat="42.27117784976184" lon="14.502128718557879"><ele>7.0</ele><time>2026-04-06T06:04:45.998Z</time></trkpt><trkpt lat="42.271274697301926" lon="14.502073353675662"><ele>8.0</ele><time>2026-04-06T06:04:47.998Z</time></trkpt><trkpt lat="42.27137202627652" lon="14.5020164460213"><ele>9.0</ele><time>2026-04-06T06:04:49.998Z</time></trkpt><trkpt lat="42.27147221312605" lon="14.501957909629178"><ele>10.0</ele><time>2026-04-06T06:04:51.998Z</time></trkpt><trkpt lat="42.27156656884302" lon="14.501894219067927"><ele>11.0</ele><time>2026-04-06T06:04:53.998Z</time></trkpt><trkpt lat="42.27166013595223" lon="14.501823986590297"><ele>12.0</ele><time>2026-04-06T06:04:55.998Z</time></trkpt><trkpt lat="42.27175422369579" lon="14.501755021969702"><ele>12.0</ele><time>2026-04-06T06:04:57.998Z</time></trkpt><trkpt lat="42.27184784875512" lon="14.501679946063383"><ele>12.0</ele><time>2026-04-06T06:04:59.998Z</time></trkpt><trkpt lat="42.27193880302238" lon="14.501602947237826"><ele>12.0</ele><time>2026-04-06T06:05:01.998Z</time></trkpt><trkpt lat="42.27202987902437" lon="14.501522824079379"><ele>12.0</ele><time>2026-04-06T06:05:04Z</time></trkpt><trkpt lat="42.27211902326319" lon="14.501441510710023"><ele>12.0</ele><time>2026-04-06T06:05:06Z</time></trkpt><trkpt lat="42.272205879107254" lon="14.50135625674691"><ele>11.6</ele><time>2026-04-06T06:05:08Z</time></trkpt><trkpt lat="42.27229196790902" lon="14.501266781438234"><ele>11.2</ele><time>2026-04-06T06:05:10Z</time></trkpt><trkpt lat="42.27237835006647" lon="14.50117635179556"><ele>10.8</ele><time>2026-04-06T06:05:12Z</time></trkpt><trkpt lat="42.2724641930569" lon="14.50107965883036"><ele>10.4</ele><time>2026-04-06T06:05:14Z</time></trkpt><trkpt lat="42.27254883955215" lon="14.500977103127141"><ele>10.0</ele><time>2026-04-06T06:05:16Z</time></trkpt><trkpt lat="42.27263189164984" lon="14.500872426172828"><ele>10.0</ele><time>2026-04-06T06:05:18Z</time></trkpt><trkpt lat="42.27271181307942" lon="14.500765331954627"><ele>10.0</ele><time>2026-04-06T06:05:20Z</time></trkpt><trkpt lat="42.27279128428781" lon="14.500651782062356"><ele>10.0</ele><time>2026-04-06T06:05:22Z</time></trkpt><trkpt lat="42.27286901073433" lon="14.500534894296944"><ele>10.0</ele><time>2026-04-06T06:05:24Z</time></trkpt><trkpt lat="42.27294740529615" lon="14.500419851476467"><ele>8.5</ele><time>2026-04-06T06:05:26Z</time></trkpt><trkpt lat="42.273020008294324" lon="14.500300321509336"><ele>7.0</ele><time>2026-04-06T06:05:28Z</time></trkpt><trkpt lat="42.27309296623133" lon="14.500177817702243"><ele>5.5</ele><time>2026-04-06T06:05:30Z</time></trkpt><trkpt lat="42.273163296346034" lon="14.500057364146258"><ele>4.0</ele><time>2026-04-06T06:05:32Z</time></trkpt><trkpt lat="42.27322851615491" lon="14.499932392239117"><ele>4.0</ele><time>2026-04-06T06:05:34Z</time></trkpt><trkpt lat="42.27329133063844" lon="14.49980776428233"><ele>4.0</ele><time>2026-04-06T06:05:36Z</time></trkpt><trkpt lat="42.273354059500605" lon="14.499680443923454"><ele>4.0</ele><time>2026-04-06T06:05:38Z</time></trkpt><trkpt lat="42.27341310095666" lon="14.499550777853528"><ele>4.0</ele><time>2026-04-06T06:05:40Z</time></trkpt><trkpt lat="42.273466820207055" lon="14.49941739568121"><ele>5.0</ele><time>2026-04-06T06:05:42Z</time></trkpt><trkpt lat="42.27352081865367" lon="14.499280779222245"><ele>6.0</ele><time>2026-04-06T06:05:43.999Z</time></trkpt><trkpt lat="42.273573377231344" lon="14.499141973503603"><ele>7.0</ele><time>2026-04-06T06:05:45.999Z</time></trkpt><trkpt lat="42.273622915444754" lon="14.499001985732706"><ele>8.0</ele><time>2026-04-06T06:05:47.999Z</time></trkpt><trkpt lat="42.27367456827899" lon="14.498860154155137"><ele>9.75</ele><time>2026-04-06T06:05:49.999Z</time></trkpt><trkpt lat="42.27372434316884" lon="14.498716281376364"><ele>11.5</ele><time>2026-04-06T06:05:51.999Z</time></trkpt><trkpt lat="42.27377480440034" lon="14.498571076466717"><ele>13.25</ele><time>2026-04-06T06:05:53.999Z</time></trkpt><trkpt lat="42.27382506927143" lon="14.498425664057088"><ele>15.0</ele><time>2026-04-06T06:05:55.999Z</time></trkpt><trkpt lat="42.27387326462361" lon="14.498281618739592"><ele>15.0</ele><time>2026-04-06T06:05:57.999Z</time></trkpt><trkpt lat="42.273926572761226" lon="14.498141966382754"><ele>15.0</ele><time>2026-04-06T06:05:59.999Z</time></trkpt><trkpt lat="42.27398359454123" lon="14.498003558065845"><ele>15.0</ele><time>2026-04-06T06:06:01.999Z</time></trkpt><trkpt lat="42.27404095276444" lon="14.497862760857096"><ele>15.0</ele><time>2026-04-06T06:06:03.999Z</time></trkpt><trkpt lat="42.274098557981574" lon="14.497725387867098"><ele>13.0</ele><time>2026-04-06T06:06:05.999Z</time></trkpt><trkpt lat="42.27416270532709" lon="14.497590276330074"><ele>11.0</ele><time>2026-04-06T06:06:07.999Z</time></trkpt><trkpt lat="42.27423005212897" lon="14.497455511613019"><ele>9.0</ele><time>2026-04-06T06:06:09.999Z</time></trkpt><trkpt lat="42.27429718823478" lon="14.497323496040158"><ele>7.0</ele><time>2026-04-06T06:06:11.999Z</time></trkpt><trkpt lat="42.27436455737231" lon="14.497190619160342"><ele>10.0</ele><time>2026-04-06T06:06:13.999Z</time></trkpt><trkpt lat="42.274438408865116" lon="14.497060959542354"><ele>13.0</ele><time>2026-04-06T06:06:15.999Z</time></trkpt><trkpt lat="42.27451365943214" lon="14.496932113269525"><ele>16.0</ele><time>2026-04-06T06:06:17.999Z</time></trkpt><trkpt lat="42.27459204432733" lon="14.496807877250978"><ele>19.0</ele><time>2026-04-06T06:06:19.999Z</time></trkpt><trkpt lat="42.27467098925711" lon="14.496686321385623"><ele>19.0</ele><time>2026-04-06T06:06:21.999Z</time></trkpt><trkpt lat="42.27475377818236" lon="14.496568433261482"><ele>19.0</ele><time>2026-04-06T06:06:23.999Z</time></trkpt><trkpt lat="42.27483573470736" lon="14.496453171395927"><ele>19.0</ele><time>2026-04-06T06:06:25.999Z</time></trkpt><trkpt lat="42.274923836651695" lon="14.496345513548079"><ele>19.0</ele><time>2026-04-06T06:06:27.999Z</time></trkpt><trkpt lat="42.27501309997353" lon="14.49624071477079"><ele>18.0</ele><time>2026-04-06T06:06:29.999Z</time></trkpt><trkpt lat="42.275097977676936" lon="14.496129449805036"><ele>17.0</ele><time>2026-04-06T06:06:31.999Z</time></trkpt><trkpt lat="42.2751793495625" lon="14.496013643811889"><ele>16.0</ele><time>2026-04-06T06:06:33.999Z</time></trkpt><trkpt lat="42.275261654088" lon="14.495898788041135"><ele>15.0</ele><time>2026-04-06T06:06:35.999Z</time></trkpt><trkpt lat="42.27534658904887" lon="14.495786112132416"><ele>15.0</ele><time>2026-04-06T06:06:37.999Z</time></trkpt><trkpt lat="42.27543101092789" lon="14.495672825281039"><ele>15.0</ele><time>2026-04-06T06:06:39.998Z</time></trkpt><trkpt lat="42.27551515775478" lon="14.495558137034717"><ele>15.0</ele><time>2026-04-06T06:06:41.998Z</time></trkpt><trkpt lat="42.27560071236908" lon="14.495446549547964"><ele>15.0</ele><time>2026-04-06T06:06:43.998Z</time></trkpt><trkpt lat="42.27568359438629" lon="14.495331732480661"><ele>13.5</ele><time>2026-04-06T06:06:45.998Z</time></trkpt><trkpt lat="42.275765511370096" lon="14.495213430107883"><ele>12.0</ele><time>2026-04-06T06:06:47.998Z</time></trkpt><trkpt lat="42.27584590413739" lon="14.495097771289561"><ele>10.5</ele><time>2026-04-06T06:06:49.998Z</time></trkpt><trkpt lat="42.27592961803425" lon="14.494985467318552"><ele>9.0</ele><time>2026-04-06T06:06:51.998Z</time></trkpt><trkpt lat="42.27601168212339" lon="14.494876190142923"><ele>9.0</ele><time>2026-04-06T06:06:53.998Z</time></trkpt><trkpt lat="42.276094137803135" lon="14.494765197585457"><ele>9.0</ele><time>2026-04-06T06:06:55.998Z</time></trkpt><trkpt lat="42.27617659179798" lon="14.49465505397398"><ele>9.0</ele><time>2026-04-06T06:06:57.998Z</time></trkpt><trkpt lat="42.27625841300996" lon="14.494541322837279"><ele>9.0</ele><time>2026-04-06T06:06:59.998Z</time></trkpt><trkpt lat="42.27634118853762" lon="14.4944284694865"><ele>8.0</ele><time>2026-04-06T06:07:01.998Z</time></trkpt><trkpt lat="42.276424253224036" lon="14.494314374170578"><ele>7.0</ele><time>2026-04-06T06:07:03.998Z</time></trkpt><trkpt lat="42.27650797033823" lon="14.494211011760523"><ele>6.0</ele><time>2026-04-06T06:07:05.998Z</time></trkpt><trkpt lat="42.276589019410416" lon="14.494108574517188"><ele>5.0</ele><time>2026-04-06T06:07:07.998Z</time></trkpt><trkpt lat="42.276667259025025" lon="14.494018539192176"><ele>4.0</ele><time>2026-04-06T06:07:10Z</time></trkpt><trkpt lat="42.2767138761529" lon="14.493932852953483"><ele>4.0</ele><time>2026-04-06T06:07:13Z</time></trkpt><trkpt lat="42.27665490974343" lon="14.4939702705147"><ele>3.9999999999999996</ele><time>2026-04-06T06:07:16Z</time></trkpt><trkpt lat="42.27663435625716" lon="14.494051823824053"><ele>4.0</ele><time>2026-04-06T06:07:21Z</time></trkpt><trkpt lat="42.2766867713243" lon="14.493984440441604"><ele>4.0</ele><time>2026-04-06T06:09:45Z</time></trkpt><trkpt lat="42.2767443460995" lon="14.493908118275032"><ele>3.9999999999999996</ele><time>2026-04-06T06:09:47.999Z</time></trkpt><trkpt lat="42.27679712637088" lon="14.493835428006596"><ele>4.0</ele><time>2026-04-06T06:09:49.999Z</time></trkpt><trkpt lat="42.2768543601989" lon="14.493758456443981"><ele>4.0</ele><time>2026-04-06T06:09:51.999Z</time></trkpt><trkpt lat="42.27692148115666" lon="14.493670586476332"><ele>4.0</ele><time>2026-04-06T06:09:53.999Z</time></trkpt><trkpt lat="42.276995972454976" lon="14.49356340210759"><ele>4.0</ele><time>2026-04-06T06:09:55.999Z</time></trkpt><trkpt lat="42.27708113234538" lon="14.493451078676264"><ele>4.0</ele><time>2026-04-06T06:09:57.999Z</time></trkpt><trkpt lat="42.277171361000526" lon="14.493329794202396"><ele>4.0</ele><time>2026-04-06T06:09:59.999Z</time></trkpt><trkpt lat="42.277216858425966" lon="14.493268685444209"><ele>4.0</ele><time>2026-04-06T06:10:00.999Z</time></trkpt><trkpt lat="42.277261695085926" lon="14.493204035119035"><ele>3.9999999999999996</ele><time>2026-04-06T06:10:01.999Z</time></trkpt><trkpt lat="42.27730672420941" lon="14.49314399004644"><ele>4.0</ele><time>2026-04-06T06:10:02.999Z</time></trkpt><trkpt lat="42.27735186309434" lon="14.493083159809302"><ele>4.0</ele><time>2026-04-06T06:10:03.999Z</time></trkpt><trkpt lat="42.2773968449276" lon="14.493023315914852"><ele>4.0</ele><time>2026-04-06T06:10:04.999Z</time></trkpt><trkpt lat="42.27748667648279" lon="14.492903588842234"><ele>3.9999999999999996</ele><time>2026-04-06T06:10:06.999Z</time></trkpt><trkpt lat="42.27757343309112" lon="14.492782801219391"><ele>4.0</ele><time>2026-04-06T06:10:08.999Z</time></trkpt><trkpt lat="42.27761861721137" lon="14.492723176043656"><ele>4.0</ele><time>2026-04-06T06:10:09.999Z</time></trkpt><trkpt lat="42.277704681776655" lon="14.492603233019356"><ele>4.0</ele><time>2026-04-06T06:10:11.999Z</time></trkpt><trkpt lat="42.277749213781895" lon="14.492541148109645"><ele>4.0</ele><time>2026-04-06T06:10:12.999Z</time></trkpt><trkpt lat="42.277835522750664" lon="14.49242268164848"><ele>4.0</ele><time>2026-04-06T06:10:14.999Z</time></trkpt><trkpt lat="42.27792175831544" lon="14.492300806201387"><ele>4.0</ele><time>2026-04-06T06:10:16.999Z</time></trkpt><trkpt lat="42.27796961771354" lon="14.492243680497552"><ele>4.0</ele><time>2026-04-06T06:10:17.999Z</time></trkpt><trkpt lat="42.278021010027445" lon="14.492193046238427"><ele>3.9999999999999996</ele><time>2026-04-06T06:10:18.999Z</time></trkpt><trkpt lat="42.27807213028204" lon="14.492140895154082"><ele>4.0</ele><time>2026-04-06T06:10:19.999Z</time></trkpt><trkpt lat="42.27812090507254" lon="14.492082523343752"><ele>4.0</ele><time>2026-04-06T06:10:20.999Z</time></trkpt><trkpt lat="42.27816987491716" lon="14.492023884889663"><ele>3.9999999999999996</ele><time>2026-04-06T06:10:21.999Z</time></trkpt><trkpt lat="42.278219359992" lon="14.491966870262276"><ele>4.0</ele><time>2026-04-06T06:10:22.999Z</time></trkpt><trkpt lat="42.2782700291298" lon="14.491912912788404"><ele>4.0</ele><time>2026-04-06T06:10:23.999Z</time></trkpt><trkpt lat="42.278320406046625" lon="14.491859715058299"><ele>4.857142857142857</ele><time>2026-04-06T06:10:24.999Z</time></trkpt><trkpt lat="42.27837065333364" lon="14.49180633782422"><ele>5.7142857142857135</ele><time>2026-04-06T06:10:25.999Z</time></trkpt><trkpt lat="42.27842155992507" lon="14.491754244298438"><ele>6.571428571428571</ele><time>2026-04-06T06:10:26.999Z</time></trkpt><trkpt lat="42.27847363939035" lon="14.491704347004985"><ele>7.428571428571429</ele><time>2026-04-06T06:10:27.999Z</time></trkpt><trkpt lat="42.27852657048689" lon="14.491654301935835"><ele>8.285714285714286</ele><time>2026-04-06T06:10:28.999Z</time></trkpt><trkpt lat="42.278578701314906" lon="14.49160607243621"><ele>9.142857142857142</ele><time>2026-04-06T06:10:29.999Z</time></trkpt><trkpt lat="42.27863009005875" lon="14.491556256459596"><ele>10.0</ele><time>2026-04-06T06:10:30.999Z</time></trkpt><trkpt lat="42.27873108639196" lon="14.491464346893732"><ele>10.0</ele><time>2026-04-06T06:10:32.999Z</time></trkpt><trkpt lat="42.27878445660867" lon="14.491417026564827"><ele>10.0</ele><time>2026-04-06T06:10:33.999Z</time></trkpt><trkpt lat="42.278890245989565" lon="14.491327319176111"><ele>10.0</ele><time>2026-04-06T06:10:35.999Z</time></trkpt><trkpt lat="42.278944664344756" lon="14.491283492231986"><ele>10.0</ele><time>2026-04-06T06:10:36.999Z</time></trkpt><trkpt lat="42.27899908751292" lon="14.491238369573678"><ele>10.0</ele><time>2026-04-06T06:10:37.999Z</time></trkpt><trkpt lat="42.27905594309488" lon="14.491196504514996"><ele>10.0</ele><time>2026-04-06T06:10:38.999Z</time></trkpt><trkpt lat="42.279112253915926" lon="14.49115447612086"><ele>10.0</ele><time>2026-04-06T06:10:39.999Z</time></trkpt><trkpt lat="42.27916916923407" lon="14.491113683830122"><ele>10.333333333333334</ele><time>2026-04-06T06:10:40.998Z</time></trkpt><trkpt lat="42.279227335651335" lon="14.49107254337816"><ele>10.666666666666668</ele><time>2026-04-06T06:10:41.998Z</time></trkpt><trkpt lat="42.279286011229225" lon="14.491035249275942"><ele>11.0</ele><time>2026-04-06T06:10:42.998Z</time></trkpt><trkpt lat="42.27934286123555" lon="14.490997165693496"><ele>11.333333333333334</ele><time>2026-04-06T06:10:43.998Z</time></trkpt><trkpt lat="42.27940002347573" lon="14.490961497290456"><ele>11.666666666666666</ele><time>2026-04-06T06:10:44.998Z</time></trkpt><trkpt lat="42.27951021456863" lon="14.49088034996641"><ele>12.0</ele><time>2026-04-06T06:10:46.998Z</time></trkpt><trkpt lat="42.27962188952954" lon="14.490803691206674"><ele>12.0</ele><time>2026-04-06T06:10:48.998Z</time></trkpt><trkpt lat="42.27967876246884" lon="14.490767142652967"><ele>12.0</ele><time>2026-04-06T06:10:49.998Z</time></trkpt><trkpt lat="42.27978989416788" lon="14.490692794525268"><ele>12.0</ele><time>2026-04-06T06:10:51.998Z</time></trkpt><trkpt lat="42.279897141579205" lon="14.490617115842479"><ele>12.0</ele><time>2026-04-06T06:10:53.998Z</time></trkpt><trkpt lat="42.28000451838112" lon="14.490539665855394"><ele>12.0</ele><time>2026-04-06T06:10:55.998Z</time></trkpt><trkpt lat="42.28011531979145" lon="14.490467388722372"><ele>13.25</ele><time>2026-04-06T06:10:57.998Z</time></trkpt><trkpt lat="42.28022227497307" lon="14.49040142423287"><ele>14.5</ele><time>2026-04-06T06:10:59.998Z</time></trkpt><trkpt lat="42.2803290769558" lon="14.490329717565608"><ele>15.75</ele><time>2026-04-06T06:11:01.998Z</time></trkpt><trkpt lat="42.280436883138286" lon="14.490256008591178"><ele>17.0</ele><time>2026-04-06T06:11:03.998Z</time></trkpt><trkpt lat="42.28053977750655" lon="14.49017317733538"><ele>14.75</ele><time>2026-04-06T06:11:05.998Z</time></trkpt><trkpt lat="42.28064025909204" lon="14.490089820368523"><ele>12.5</ele><time>2026-04-06T06:11:07.998Z</time></trkpt><trkpt lat="42.28073814015503" lon="14.490009463737836"><ele>10.25</ele><time>2026-04-06T06:11:09.998Z</time></trkpt><trkpt lat="42.280833365091446" lon="14.489927963149878"><ele>8.0</ele><time>2026-04-06T06:11:11.998Z</time></trkpt><trkpt lat="42.2809251487544" lon="14.48983976817884"><ele>8.0</ele><time>2026-04-06T06:11:13.998Z</time></trkpt><trkpt lat="42.28101211084457" lon="14.489743870451239"><ele>8.0</ele><time>2026-04-06T06:11:15.998Z</time></trkpt><trkpt lat="42.281079435849655" lon="14.489739168291592"><ele>8.0</ele><time>2026-04-06T06:11:16.998Z</time></trkpt><trkpt lat="42.28116802964944" lon="14.489649557839591"><ele>8.0</ele><time>2026-04-06T06:11:18.998Z</time></trkpt><trkpt lat="42.281232578851295" lon="14.489520572055332"><ele>8.0</ele><time>2026-04-06T06:11:21Z</time></trkpt><trkpt lat="42.281318122235575" lon="14.489432436671699"><ele>7.5</ele><time>2026-04-06T06:11:23Z</time></trkpt><trkpt lat="42.281401355927294" lon="14.489333150661064"><ele>7.0</ele><time>2026-04-06T06:11:25Z</time></trkpt><trkpt lat="42.28148691180323" lon="14.489231859929669"><ele>6.5</ele><time>2026-04-06T06:11:27Z</time></trkpt><trkpt lat="42.281571835860525" lon="14.48912515420096"><ele>6.0</ele><time>2026-04-06T06:11:29Z</time></trkpt><trkpt lat="42.281654867248264" lon="14.4890153281169"><ele>6.0</ele><time>2026-04-06T06:11:31Z</time></trkpt><trkpt lat="42.28173487698033" lon="14.488904612991469"><ele>6.0</ele><time>2026-04-06T06:11:33Z</time></trkpt><trkpt lat="42.28181559598522" lon="14.488797889256736"><ele>6.0</ele><time>2026-04-06T06:11:35Z</time></trkpt><trkpt lat="42.2818907335482" lon="14.488678402771574"><ele>6.0</ele><time>2026-04-06T06:11:37Z</time></trkpt><trkpt lat="42.28196662798927" lon="14.48855835560844"><ele>7.75</ele><time>2026-04-06T06:11:39Z</time></trkpt><trkpt lat="42.2820400868266" lon="14.488437528205019"><ele>9.5</ele><time>2026-04-06T06:11:41Z</time></trkpt><trkpt lat="42.28210595335952" lon="14.488311520320146"><ele>11.25</ele><time>2026-04-06T06:11:43Z</time></trkpt><trkpt lat="42.28217263381159" lon="14.488183278937514"><ele>13.0</ele><time>2026-04-06T06:11:45Z</time></trkpt><trkpt lat="42.2822368874819" lon="14.488055682722113"><ele>11.75</ele><time>2026-04-06T06:11:47Z</time></trkpt><trkpt lat="42.28230160208739" lon="14.48792634539284"><ele>10.5</ele><time>2026-04-06T06:11:48.999Z</time></trkpt><trkpt lat="42.282365170050475" lon="14.4877953800417"><ele>9.25</ele><time>2026-04-06T06:11:50.999Z</time></trkpt><trkpt lat="42.28243125871425" lon="14.487665748376234"><ele>8.0</ele><time>2026-04-06T06:11:52.999Z</time></trkpt><trkpt lat="42.28249669031569" lon="14.487536109340455"><ele>8.0</ele><time>2026-04-06T06:11:54.999Z</time></trkpt><trkpt lat="42.28256066985557" lon="14.48740226918313"><ele>8.0</ele><time>2026-04-06T06:11:56.999Z</time></trkpt><trkpt lat="42.282627697715135" lon="14.48727004252616"><ele>8.0</ele><time>2026-04-06T06:11:58.999Z</time></trkpt><trkpt lat="42.28269192215482" lon="14.48713403605004"><ele>8.0</ele><time>2026-04-06T06:12:00.999Z</time></trkpt><trkpt lat="42.28275940436686" lon="14.487002321175025"><ele>10.0</ele><time>2026-04-06T06:12:02.999Z</time></trkpt><trkpt lat="42.28282978636222" lon="14.486874464810882"><ele>12.0</ele><time>2026-04-06T06:12:04.999Z</time></trkpt><trkpt lat="42.28290049952887" lon="14.486746817455243"><ele>14.0</ele><time>2026-04-06T06:12:06.999Z</time></trkpt><trkpt lat="42.282978717412156" lon="14.486625780381218"><ele>16.0</ele><time>2026-04-06T06:12:08.999Z</time></trkpt><trkpt lat="42.28305572192298" lon="14.486504582967052"><ele>14.5</ele><time>2026-04-06T06:12:10.999Z</time></trkpt><trkpt lat="42.28313699651285" lon="14.486385142421325"><ele>13.0</ele><time>2026-04-06T06:12:12.999Z</time></trkpt><trkpt lat="42.28322579143803" lon="14.486277783344631"><ele>11.5</ele><time>2026-04-06T06:12:14.999Z</time></trkpt><trkpt lat="42.28331319219345" lon="14.48616871658921"><ele>10.0</ele><time>2026-04-06T06:12:16.999Z</time></trkpt><trkpt lat="42.28340197859066" lon="14.486058658785351"><ele>10.0</ele><time>2026-04-06T06:12:18.999Z</time></trkpt><trkpt lat="42.283488464022355" lon="14.485946153636757"><ele>10.0</ele><time>2026-04-06T06:12:20.999Z</time></trkpt><trkpt lat="42.28357784731259" lon="14.485837977918216"><ele>10.0</ele><time>2026-04-06T06:12:22.999Z</time></trkpt><trkpt lat="42.283666775479126" lon="14.48572834065231"><ele>10.0</ele><time>2026-04-06T06:12:24.999Z</time></trkpt><trkpt lat="42.28375425896525" lon="14.485611599686433"><ele>10.0</ele><time>2026-04-06T06:12:26.999Z</time></trkpt><trkpt lat="42.283846983558036" lon="14.485499999156422"><ele>10.0</ele><time>2026-04-06T06:12:28.999Z</time></trkpt><trkpt lat="42.28393972150356" lon="14.485390076169901"><ele>10.0</ele><time>2026-04-06T06:12:30.999Z</time></trkpt><trkpt lat="42.28403254528702" lon="14.485282081862966"><ele>10.0</ele><time>2026-04-06T06:12:32.999Z</time></trkpt><trkpt lat="42.28412468007326" lon="14.485173107212496"><ele>9.8</ele><time>2026-04-06T06:12:34.999Z</time></trkpt><trkpt lat="42.28422076855336" lon="14.485067160514532"><ele>9.6</ele><time>2026-04-06T06:12:36.999Z</time></trkpt><trkpt lat="42.28432023379566" lon="14.484966303756952"><ele>9.4</ele><time>2026-04-06T06:12:38.999Z</time></trkpt><trkpt lat="42.28441945604848" lon="14.484862873401555"><ele>9.2</ele><time>2026-04-06T06:12:40.999Z</time></trkpt><trkpt lat="42.28446990960188" lon="14.484810468114505"><ele>9.0</ele><time>2026-04-06T06:12:41.999Z</time></trkpt><trkpt lat="42.28452092945507" lon="14.484759535218679"><ele>9.0</ele><time>2026-04-06T06:12:42.999Z</time></trkpt><trkpt lat="42.28457251679131" lon="14.48470871354414"><ele>9.0</ele><time>2026-04-06T06:12:43.999Z</time></trkpt><trkpt lat="42.2846242058753" lon="14.48466002215347"><ele>9.0</ele><time>2026-04-06T06:12:44.998Z</time></trkpt><trkpt lat="42.28467651652999" lon="14.48461068632318"><ele>9.0</ele><time>2026-04-06T06:12:45.998Z</time></trkpt><trkpt lat="42.28472804431632" lon="14.484561512003946"><ele>9.0</ele><time>2026-04-06T06:12:46.998Z</time></trkpt><trkpt lat="42.284781837175196" lon="14.484514790314028"><ele>9.0</ele><time>2026-04-06T06:12:47.998Z</time></trkpt><trkpt lat="42.2848364001035" lon="14.484471719904032"><ele>9.0</ele><time>2026-04-06T06:12:48.998Z</time></trkpt><trkpt lat="42.28488877164137" lon="14.484423735994254"><ele>9.0</ele><time>2026-04-06T06:12:49.998Z</time></trkpt><trkpt lat="42.284941101043195" lon="14.484373294050977"><ele>8.714285714285715</ele><time>2026-04-06T06:12:50.998Z</time></trkpt><trkpt lat="42.28499582416188" lon="14.484326224946395"><ele>8.428571428571429</ele><time>2026-04-06T06:12:51.998Z</time></trkpt><trkpt lat="42.285048630164475" lon="14.48427789119262"><ele>8.142857142857142</ele><time>2026-04-06T06:12:52.998Z</time></trkpt><trkpt lat="42.285101280364096" lon="14.484230797385699"><ele>7.857142857142858</ele><time>2026-04-06T06:12:53.998Z</time></trkpt><trkpt lat="42.285157164317305" lon="14.484181266156629"><ele>7.571428571428571</ele><time>2026-04-06T06:12:54.998Z</time></trkpt><trkpt lat="42.28521009461495" lon="14.484130876949767"><ele>7.285714285714286</ele><time>2026-04-06T06:12:55.998Z</time></trkpt><trkpt lat="42.28526464128717" lon="14.484080581402825"><ele>7.0</ele><time>2026-04-06T06:12:56.998Z</time></trkpt><trkpt lat="42.28531861457502" lon="14.484031012106483"><ele>7.000000000000001</ele><time>2026-04-06T06:12:57.998Z</time></trkpt><trkpt lat="42.28536997578751" lon="14.483977912475922"><ele>7.0</ele><time>2026-04-06T06:12:58.998Z</time></trkpt><trkpt lat="42.28542003089756" lon="14.483924121089053"><ele>7.0</ele><time>2026-04-06T06:12:59.998Z</time></trkpt><trkpt lat="42.28547042317655" lon="14.483873046156148"><ele>7.0</ele><time>2026-04-06T06:13:00.998Z</time></trkpt><trkpt lat="42.28552161031204" lon="14.483821997698005"><ele>7.000000000000001</ele><time>2026-04-06T06:13:01.998Z</time></trkpt><trkpt lat="42.28562130370616" lon="14.483722598661377"><ele>7.0</ele><time>2026-04-06T06:13:03.998Z</time></trkpt><trkpt lat="42.28572078284819" lon="14.483617896303338"><ele>7.166666666666667</ele><time>2026-04-06T06:13:05.998Z</time></trkpt><trkpt lat="42.28582258527654" lon="14.483517166802244"><ele>7.333333333333334</ele><time>2026-04-06T06:13:07.998Z</time></trkpt><trkpt lat="42.2859203459069" lon="14.483409803215377"><ele>7.5</ele><time>2026-04-06T06:13:09.998Z</time></trkpt><trkpt lat="42.28596809032482" lon="14.483350188941177"><ele>7.666666666666666</ele><time>2026-04-06T06:13:10.998Z</time></trkpt><trkpt lat="42.2860157843109" lon="14.483289300937878"><ele>7.833333333333333</ele><time>2026-04-06T06:13:11.998Z</time></trkpt><trkpt lat="42.286063612256726" lon="14.483229756938107"><ele>8.0</ele><time>2026-04-06T06:13:12.998Z</time></trkpt><trkpt lat="42.286110210320324" lon="14.483171183841616"><ele>8.0</ele><time>2026-04-06T06:13:13.998Z</time></trkpt><trkpt lat="42.286156926954085" lon="14.48311138391518"><ele>7.999999999999999</ele><time>2026-04-06T06:13:14.998Z</time></trkpt><trkpt lat="42.286201911336164" lon="14.48304978474758"><ele>8.0</ele><time>2026-04-06T06:13:15.998Z</time></trkpt><trkpt lat="42.28628776911814" lon="14.482925046387141"><ele>8.0</ele><time>2026-04-06T06:13:17.998Z</time></trkpt><trkpt lat="42.286330067283494" lon="14.482858053451723"><ele>7.999999999999999</ele><time>2026-04-06T06:13:18.998Z</time></trkpt><trkpt lat="42.286374289095995" lon="14.48279307341598"><ele>8.0</ele><time>2026-04-06T06:13:19.998Z</time></trkpt><trkpt lat="42.286413959134535" lon="14.482725406317405"><ele>8.0</ele><time>2026-04-06T06:13:20.998Z</time></trkpt><trkpt lat="42.28645477455342" lon="14.48265871373282"><ele>8.200000000000001</ele><time>2026-04-06T06:13:21.998Z</time></trkpt><trkpt lat="42.28649334225032" lon="14.482590123473482"><ele>8.4</ele><time>2026-04-06T06:13:22.998Z</time></trkpt><trkpt lat="42.28656683791117" lon="14.482459109530243"><ele>8.600000000000001</ele><time>2026-04-06T06:13:24.998Z</time></trkpt><trkpt lat="42.286636916421024" lon="14.482326134716393"><ele>8.8</ele><time>2026-04-06T06:13:27Z</time></trkpt><trkpt lat="42.28670321938051" lon="14.482187751543426"><ele>9.0</ele><time>2026-04-06T06:13:29Z</time></trkpt><trkpt lat="42.2867682826963" lon="14.482045349462359"><ele>9.0</ele><time>2026-04-06T06:13:31Z</time></trkpt><trkpt lat="42.286829570095435" lon="14.481903516401774"><ele>9.0</ele><time>2026-04-06T06:13:33Z</time></trkpt><trkpt lat="42.2868877253366" lon="14.4817599456926"><ele>9.0</ele><time>2026-04-06T06:13:35Z</time></trkpt><trkpt lat="42.28694244824681" lon="14.48161471958538"><ele>9.0</ele><time>2026-04-06T06:13:37Z</time></trkpt><trkpt lat="42.286998647528094" lon="14.481469909212908"><ele>9.0</ele><time>2026-04-06T06:13:39Z</time></trkpt><trkpt lat="42.28705719047218" lon="14.481325174820139"><ele>9.0</ele><time>2026-04-06T06:13:41Z</time></trkpt><trkpt lat="42.28711915038211" lon="14.481184031328768"><ele>9.0</ele><time>2026-04-06T06:13:43Z</time></trkpt><trkpt lat="42.287176070714565" lon="14.481039874374927"><ele>9.0</ele><time>2026-04-06T06:13:45Z</time></trkpt><trkpt lat="42.28723347418546" lon="14.480895837408596"><ele>9.0</ele><time>2026-04-06T06:13:47Z</time></trkpt><trkpt lat="42.28729171396188" lon="14.480753598903743"><ele>9.0</ele><time>2026-04-06T06:13:49Z</time></trkpt><trkpt lat="42.28735145917311" lon="14.48060837050356"><ele>9.0</ele><time>2026-04-06T06:13:51Z</time></trkpt><trkpt lat="42.287414303112854" lon="14.480465222017529"><ele>9.0</ele><time>2026-04-06T06:13:52.999Z</time></trkpt><trkpt lat="42.28747748648515" lon="14.4803205331849"><ele>9.0</ele><time>2026-04-06T06:13:54.999Z</time></trkpt><trkpt lat="42.28753899191761" lon="14.480174566202503"><ele>9.0</ele><time>2026-04-06T06:13:56.999Z</time></trkpt><trkpt lat="42.28757371858681" lon="14.480101173446611"><ele>9.0</ele><time>2026-04-06T06:13:57.999Z</time></trkpt><trkpt lat="42.28760847685163" lon="14.480028954159456"><ele>9.0</ele><time>2026-04-06T06:13:58.999Z</time></trkpt><trkpt lat="42.28767912349411" lon="14.479886550970754"><ele>9.0</ele><time>2026-04-06T06:14:00.999Z</time></trkpt><trkpt lat="42.28774719387921" lon="14.479742667350033"><ele>9.0</ele><time>2026-04-06T06:14:02.999Z</time></trkpt><trkpt lat="42.287782624959775" lon="14.479670880302919"><ele>9.0</ele><time>2026-04-06T06:14:03.999Z</time></trkpt><trkpt lat="42.287818609642486" lon="14.47959873938057"><ele>9.0</ele><time>2026-04-06T06:14:04.999Z</time></trkpt><trkpt lat="42.287855548533166" lon="14.479528088446292"><ele>9.0</ele><time>2026-04-06T06:14:05.999Z</time></trkpt><trkpt lat="42.28789183474159" lon="14.479456619815599"><ele>9.0</ele><time>2026-04-06T06:14:06.999Z</time></trkpt><trkpt lat="42.287928189441885" lon="14.479384535881758"><ele>9.0</ele><time>2026-04-06T06:14:07.999Z</time></trkpt><trkpt lat="42.28796406975243" lon="14.479313276684469"><ele>9.0</ele><time>2026-04-06T06:14:08.999Z</time></trkpt><trkpt lat="42.28799993921131" lon="14.479241753687266"><ele>9.0</ele><time>2026-04-06T06:14:09.999Z</time></trkpt><trkpt lat="42.2880355986129" lon="14.479171520175015"><ele>9.0</ele><time>2026-04-06T06:14:10.999Z</time></trkpt><trkpt lat="42.28811173946661" lon="14.479036864010626"><ele>9.0</ele><time>2026-04-06T06:14:12.999Z</time></trkpt><trkpt lat="42.288188585221015" lon="14.478904021175271"><ele>9.0</ele><time>2026-04-06T06:14:14.999Z</time></trkpt><trkpt lat="42.28826544686701" lon="14.478773385310305"><ele>9.0</ele><time>2026-04-06T06:14:16.999Z</time></trkpt><trkpt lat="42.28834187530167" lon="14.478643900028391"><ele>9.0</ele><time>2026-04-06T06:14:18.999Z</time></trkpt><trkpt lat="42.288416717643464" lon="14.478513924516676"><ele>9.0</ele><time>2026-04-06T06:14:20.999Z</time></trkpt><trkpt lat="42.288489742274116" lon="14.47837842184998"><ele>9.0</ele><time>2026-04-06T06:14:22.999Z</time></trkpt><trkpt lat="42.28856295166626" lon="14.47824663850495"><ele>9.0</ele><time>2026-04-06T06:14:24.999Z</time></trkpt><trkpt lat="42.288637995812216" lon="14.478120257885063"><ele>9.0</ele><time>2026-04-06T06:14:26.999Z</time></trkpt><trkpt lat="42.28871109371833" lon="14.477992551253724"><ele>9.0</ele><time>2026-04-06T06:14:28.999Z</time></trkpt><trkpt lat="42.28878592162898" lon="14.477862535944567"><ele>9.0</ele><time>2026-04-06T06:14:30.999Z</time></trkpt><trkpt lat="42.28886047320254" lon="14.477730340135686"><ele>9.0</ele><time>2026-04-06T06:14:32.999Z</time></trkpt><trkpt lat="42.28893787333311" lon="14.477604907969612"><ele>9.5</ele><time>2026-04-06T06:14:34.999Z</time></trkpt><trkpt lat="42.289009494464004" lon="14.477472249190328"><ele>10.0</ele><time>2026-04-06T06:14:36.999Z</time></trkpt><trkpt lat="42.289079305429496" lon="14.477339393132803"><ele>10.5</ele><time>2026-04-06T06:14:38.999Z</time></trkpt><trkpt lat="42.289156624898126" lon="14.477213096635284"><ele>11.0</ele><time>2026-04-06T06:14:40.999Z</time></trkpt><trkpt lat="42.289229502697864" lon="14.47708032440764"><ele>11.0</ele><time>2026-04-06T06:14:42.999Z</time></trkpt><trkpt lat="42.289306526397866" lon="14.476948509023629"><ele>11.0</ele><time>2026-04-06T06:14:44.999Z</time></trkpt><trkpt lat="42.28938173966502" lon="14.476812886905982"><ele>11.0</ele><time>2026-04-06T06:14:46.998Z</time></trkpt><trkpt lat="42.28946145076391" lon="14.476682978482016"><ele>11.0</ele><time>2026-04-06T06:14:48.998Z</time></trkpt><trkpt lat="42.28952963198616" lon="14.476544616633316"><ele>11.0</ele><time>2026-04-06T06:14:50.998Z</time></trkpt><trkpt lat="42.289605200098485" lon="14.476415082162518"><ele>11.0</ele><time>2026-04-06T06:14:52.998Z</time></trkpt><trkpt lat="42.28968344931551" lon="14.476285256483424"><ele>11.0</ele><time>2026-04-06T06:14:54.998Z</time></trkpt><trkpt lat="42.28975789793429" lon="14.476154380319974"><ele>11.0</ele><time>2026-04-06T06:14:56.998Z</time></trkpt><trkpt lat="42.28983335059166" lon="14.476024896187315"><ele>10.0</ele><time>2026-04-06T06:14:58.998Z</time></trkpt><trkpt lat="42.28987185735863" lon="14.475957495733745"><ele>9.0</ele><time>2026-04-06T06:14:59.998Z</time></trkpt><trkpt lat="42.2899440195908" lon="14.47582809963461"><ele>8.0</ele><time>2026-04-06T06:15:01.998Z</time></trkpt><trkpt lat="42.290013960350514" lon="14.475700134736487"><ele>7.0</ele><time>2026-04-06T06:15:03.998Z</time></trkpt><trkpt lat="42.290084809273615" lon="14.47557043148545"><ele>6.0</ele><time>2026-04-06T06:15:05.998Z</time></trkpt><trkpt lat="42.29015457640675" lon="14.475441564063036"><ele>7.25</ele><time>2026-04-06T06:15:07.998Z</time></trkpt><trkpt lat="42.29022958240256" lon="14.475320084458804"><ele>8.5</ele><time>2026-04-06T06:15:09.998Z</time></trkpt><trkpt lat="42.29030367227279" lon="14.47519584998421"><ele>9.75</ele><time>2026-04-06T06:15:11.998Z</time></trkpt><trkpt lat="42.29037941993493" lon="14.475068575324984"><ele>11.0</ele><time>2026-04-06T06:15:13.998Z</time></trkpt><trkpt lat="42.290455929663764" lon="14.474941569487065"><ele>11.0</ele><time>2026-04-06T06:15:15.998Z</time></trkpt><trkpt lat="42.29053019291743" lon="14.474811276086097"><ele>11.0</ele><time>2026-04-06T06:15:17.998Z</time></trkpt><trkpt lat="42.29060632146483" lon="14.474680791665998"><ele>11.0</ele><time>2026-04-06T06:15:19.998Z</time></trkpt><trkpt lat="42.29068247162515" lon="14.474547929262448"><ele>11.0</ele><time>2026-04-06T06:15:21.998Z</time></trkpt><trkpt lat="42.290759221422945" lon="14.474417936359783"><ele>10.200000000000001</ele><time>2026-04-06T06:15:23.998Z</time></trkpt><trkpt lat="42.290837696109165" lon="14.474287216000238"><ele>9.4</ele><time>2026-04-06T06:15:25.998Z</time></trkpt><trkpt lat="42.290914361257535" lon="14.47415543015468"><ele>8.6</ele><time>2026-04-06T06:15:27.998Z</time></trkpt><trkpt lat="42.29095521781336" lon="14.474090372656047"><ele>7.8</ele><time>2026-04-06T06:15:28.998Z</time></trkpt><trkpt lat="42.29103600528137" lon="14.473965931023917"><ele>7.0</ele><time>2026-04-06T06:15:30.998Z</time></trkpt><trkpt lat="42.291120159787184" lon="14.473844507096805"><ele>6.5</ele><time>2026-04-06T06:15:33Z</time></trkpt><trkpt lat="42.29120671168845" lon="14.473723385226409"><ele>6.0</ele><time>2026-04-06T06:15:35Z</time></trkpt><trkpt lat="42.29129485638659" lon="14.473601650462056"><ele>5.5</ele><time>2026-04-06T06:15:37Z</time></trkpt><trkpt lat="42.29138049804442" lon="14.473478362661277"><ele>5.0</ele><time>2026-04-06T06:15:39Z</time></trkpt><trkpt lat="42.29147143280543" lon="14.473365238608473"><ele>5.0</ele><time>2026-04-06T06:15:41Z</time></trkpt><trkpt lat="42.29155992783961" lon="14.473256931979535"><ele>5.0</ele><time>2026-04-06T06:15:43Z</time></trkpt><trkpt lat="42.29165176350428" lon="14.473149310346002"><ele>5.0</ele><time>2026-04-06T06:15:45Z</time></trkpt><trkpt lat="42.291748463801966" lon="14.473044840190871"><ele>5.0</ele><time>2026-04-06T06:15:47Z</time></trkpt><trkpt lat="42.2918445058514" lon="14.472942557058003"><ele>7.75</ele><time>2026-04-06T06:15:49Z</time></trkpt><trkpt lat="42.291938566125566" lon="14.472838329773978"><ele>10.5</ele><time>2026-04-06T06:15:51Z</time></trkpt><trkpt lat="42.29202886078878" lon="14.472734631381327"><ele>13.25</ele><time>2026-04-06T06:15:53Z</time></trkpt><trkpt lat="42.29211994386766" lon="14.472634572182482"><ele>16.0</ele><time>2026-04-06T06:15:55Z</time></trkpt><trkpt lat="42.292210936505256" lon="14.472537520767062"><ele>13.25</ele><time>2026-04-06T06:15:56.999Z</time></trkpt><trkpt lat="42.29229934848561" lon="14.47243462352384"><ele>10.5</ele><time>2026-04-06T06:15:58.999Z</time></trkpt><trkpt lat="42.29239076941857" lon="14.472335217677957"><ele>7.75</ele><time>2026-04-06T06:16:00.999Z</time></trkpt><trkpt lat="42.292484924616005" lon="14.47223630098064"><ele>5.0</ele><time>2026-04-06T06:16:02.999Z</time></trkpt><trkpt lat="42.292574944678655" lon="14.472136255681953"><ele>7.833333333333334</ele><time>2026-04-06T06:16:04.999Z</time></trkpt><trkpt lat="42.29265235102218" lon="14.472058068720568"><ele>10.666666666666666</ele><time>2026-04-06T06:16:06.999Z</time></trkpt><trkpt lat="42.29271264698711" lon="14.472000451945249"><ele>13.5</ele><time>2026-04-06T06:16:08.999Z</time></trkpt><trkpt lat="42.29276464914391" lon="14.471934449209899"><ele>16.333333333333332</ele><time>2026-04-06T06:16:10.999Z</time></trkpt><trkpt lat="42.292785544499395" lon="14.471827463932183"><ele>19.166666666666664</ele><time>2026-04-06T06:16:12.999Z</time></trkpt><trkpt lat="42.29282705660105" lon="14.471753535827231"><ele>22.0</ele><time>2026-04-06T06:16:15.068Z</time></trkpt><trkpt lat="42.29286204229644" lon="14.4716790776575"><ele>13.0</ele><time>2026-04-06T06:16:17.043Z</time></trkpt><trkpt lat="42.29327760069978" lon="14.471246960678888"><ele>13.0</ele><time>2026-04-06T06:16:20.999Z</time></trkpt><trkpt lat="42.293369426545155" lon="14.471116814515572"><ele>13.0</ele><time>2026-04-06T06:16:22.999Z</time></trkpt><trkpt lat="42.29341305339005" lon="14.471051494586964"><ele>13.0</ele><time>2026-04-06T06:16:23.999Z</time></trkpt><trkpt lat="42.293460590584345" lon="14.470985962649722"><ele>13.0</ele><time>2026-04-06T06:16:24.999Z</time></trkpt><trkpt lat="42.293532747465974" lon="14.470856766206891"><ele>13.0</ele><time>2026-04-06T06:16:26.999Z</time></trkpt><trkpt lat="42.29361140285077" lon="14.470727769680403"><ele>13.0</ele><time>2026-04-06T06:16:28.999Z</time></trkpt><trkpt lat="42.2936929112586" lon="14.470604320494216"><ele>13.0</ele><time>2026-04-06T06:16:30.999Z</time></trkpt><trkpt lat="42.2937695068638" lon="14.470480354120191"><ele>13.0</ele><time>2026-04-06T06:16:32.999Z</time></trkpt><trkpt lat="42.293811426625545" lon="14.470415524191804"><ele>13.0</ele><time>2026-04-06T06:16:33.999Z</time></trkpt><trkpt lat="42.29389382540808" lon="14.47028773323233"><ele>13.0</ele><time>2026-04-06T06:16:35.999Z</time></trkpt><trkpt lat="42.293975384869576" lon="14.47015852600736"><ele>12.0</ele><time>2026-04-06T06:16:37.999Z</time></trkpt><trkpt lat="42.2940593767865" lon="14.47003331520259"><ele>11.0</ele><time>2026-04-06T06:16:39.999Z</time></trkpt><trkpt lat="42.29411385584104" lon="14.46998362021816"><ele>10.0</ele><time>2026-04-06T06:16:40.999Z</time></trkpt><trkpt lat="42.29414266663596" lon="14.469905070668544"><ele>9.0</ele><time>2026-04-06T06:16:41.999Z</time></trkpt><trkpt lat="42.294224994880516" lon="14.46977541999418"><ele>8.0</ele><time>2026-04-06T06:16:43.999Z</time></trkpt><trkpt lat="42.29430390150373" lon="14.469646712949775"><ele>10.285714285714285</ele><time>2026-04-06T06:16:45.999Z</time></trkpt><trkpt lat="42.294341785142606" lon="14.46957815164458"><ele>12.57142857142857</ele><time>2026-04-06T06:16:46.999Z</time></trkpt><trkpt lat="42.294378347001654" lon="14.469507722557537"><ele>14.857142857142856</ele><time>2026-04-06T06:16:47.999Z</time></trkpt><trkpt lat="42.294412772970894" lon="14.469436308500521"><ele>17.142857142857142</ele><time>2026-04-06T06:16:48.999Z</time></trkpt><trkpt lat="42.29444998717869" lon="14.469366318176961"><ele>19.428571428571427</ele><time>2026-04-06T06:16:49.999Z</time></trkpt><trkpt lat="42.2944852675432" lon="14.469294629549303"><ele>21.71428571428571</ele><time>2026-04-06T06:16:50.999Z</time></trkpt><trkpt lat="42.294520931042804" lon="14.46922346333743"><ele>24.0</ele><time>2026-04-06T06:16:51.999Z</time></trkpt><trkpt lat="42.294589002191636" lon="14.46908082284875"><ele>24.0</ele><time>2026-04-06T06:16:53.998Z</time></trkpt><trkpt lat="42.29462260681965" lon="14.469008849475857"><ele>24.0</ele><time>2026-04-06T06:16:54.998Z</time></trkpt><trkpt lat="42.29465710458077" lon="14.468937476405616"><ele>24.0</ele><time>2026-04-06T06:16:55.998Z</time></trkpt><trkpt lat="42.29468868596178" lon="14.468863717723538"><ele>24.0</ele><time>2026-04-06T06:16:56.998Z</time></trkpt><trkpt lat="42.29472476051482" lon="14.468791138486605"><ele>24.0</ele><time>2026-04-06T06:16:57.998Z</time></trkpt><trkpt lat="42.29476160706928" lon="14.468719065067674"><ele>24.0</ele><time>2026-04-06T06:16:58.998Z</time></trkpt><trkpt lat="42.29479774702126" lon="14.468647177158054"><ele>24.0</ele><time>2026-04-06T06:16:59.998Z</time></trkpt><trkpt lat="42.294833892711374" lon="14.468572328010184"><ele>24.0</ele><time>2026-04-06T06:17:00.998Z</time></trkpt><trkpt lat="42.294868411867085" lon="14.468495958936145"><ele>21.428571428571427</ele><time>2026-04-06T06:17:01.998Z</time></trkpt><trkpt lat="42.29490195970641" lon="14.468421358300121"><ele>18.857142857142858</ele><time>2026-04-06T06:17:02.998Z</time></trkpt><trkpt lat="42.29493362962864" lon="14.468343073603997"><ele>16.285714285714285</ele><time>2026-04-06T06:17:03.998Z</time></trkpt><trkpt lat="42.294967086292516" lon="14.468265848478469"><ele>13.714285714285714</ele><time>2026-04-06T06:17:04.998Z</time></trkpt><trkpt lat="42.29500137012039" lon="14.468191167591307"><ele>11.142857142857142</ele><time>2026-04-06T06:17:05.998Z</time></trkpt><trkpt lat="42.29503621447782" lon="14.468115183641533"><ele>8.571428571428571</ele><time>2026-04-06T06:17:06.998Z</time></trkpt><trkpt lat="42.29506911730474" lon="14.46804015940885"><ele>6.0</ele><time>2026-04-06T06:17:07.998Z</time></trkpt><trkpt lat="42.295102717002315" lon="14.467963044242927"><ele>7.571428571428571</ele><time>2026-04-06T06:17:08.998Z</time></trkpt><trkpt lat="42.29513395266207" lon="14.467884968805409"><ele>9.142857142857142</ele><time>2026-04-06T06:17:09.998Z</time></trkpt><trkpt lat="42.29516526463709" lon="14.467807832784676"><ele>10.714285714285714</ele><time>2026-04-06T06:17:10.998Z</time></trkpt><trkpt lat="42.295196787200524" lon="14.467732035623104"><ele>12.285714285714285</ele><time>2026-04-06T06:17:11.998Z</time></trkpt><trkpt lat="42.29522790251321" lon="14.467655501668569"><ele>13.857142857142856</ele><time>2026-04-06T06:17:12.998Z</time></trkpt><trkpt lat="42.29525969353446" lon="14.467579964739313"><ele>15.428571428571427</ele><time>2026-04-06T06:17:13.998Z</time></trkpt><trkpt lat="42.295292005394934" lon="14.467505341921203"><ele>17.0</ele><time>2026-04-06T06:17:14.998Z</time></trkpt><trkpt lat="42.29532263734809" lon="14.46742820962864"><ele>16.999999999999996</ele><time>2026-04-06T06:17:15.998Z</time></trkpt><trkpt lat="42.29535527142709" lon="14.467351764030765"><ele>17.0</ele><time>2026-04-06T06:17:16.998Z</time></trkpt><trkpt lat="42.2953869307936" lon="14.467277928055493"><ele>17.0</ele><time>2026-04-06T06:17:17.998Z</time></trkpt><trkpt lat="42.29541977620421" lon="14.467203653659631"><ele>17.0</ele><time>2026-04-06T06:17:18.998Z</time></trkpt><trkpt lat="42.29545311388084" lon="14.467130947030398"><ele>17.0</ele><time>2026-04-06T06:17:19.998Z</time></trkpt><trkpt lat="42.29548863362641" lon="14.467058216226036"><ele>16.999999999999996</ele><time>2026-04-06T06:17:20.998Z</time></trkpt><trkpt lat="42.29555648515803" lon="14.466915309911657"><ele>17.0</ele><time>2026-04-06T06:17:22.998Z</time></trkpt><trkpt lat="42.29559191950037" lon="14.46684478405872"><ele>15.6</ele><time>2026-04-06T06:17:23.998Z</time></trkpt><trkpt lat="42.29565968900199" lon="14.46670513845603"><ele>14.2</ele><time>2026-04-06T06:17:25.998Z</time></trkpt><trkpt lat="42.29572909283674" lon="14.466579683017951"><ele>12.8</ele><time>2026-04-06T06:17:27.998Z</time></trkpt><trkpt lat="42.2957886580994" lon="14.46645557618976"><ele>11.4</ele><time>2026-04-06T06:17:29.998Z</time></trkpt><trkpt lat="42.295828501570334" lon="14.466335131042005"><ele>10.0</ele><time>2026-04-06T06:17:31.998Z</time></trkpt><trkpt lat="42.29587824998657" lon="14.466225884782398"><ele>11.0</ele><time>2026-04-06T06:17:33.998Z</time></trkpt><trkpt lat="42.29592768491398" lon="14.466128510110577"><ele>12.0</ele><time>2026-04-06T06:17:35.998Z</time></trkpt><trkpt lat="42.29596997039416" lon="14.466024438263458"><ele>13.0</ele><time>2026-04-06T06:17:38.075Z</time></trkpt><trkpt lat="42.29601596953933" lon="14.465922505082409"><ele>14.0</ele><time>2026-04-06T06:17:40.04Z</time></trkpt><trkpt lat="42.29695310898575" lon="14.464764108005438"><ele>14.0</ele><time>2026-04-06T06:17:55.999Z</time></trkpt><trkpt lat="42.29691291986404" lon="14.46462089503923"><ele>13.999999999999998</ele><time>2026-04-06T06:17:57.999Z</time></trkpt><trkpt lat="42.29695464239058" lon="14.464549345506528"><ele>13.999999999999998</ele><time>2026-04-06T06:17:58.999Z</time></trkpt><trkpt lat="42.29701904866148" lon="14.464415620336787"><ele>14.0</ele><time>2026-04-06T06:18:00.999Z</time></trkpt><trkpt lat="42.29708445861454" lon="14.464282213693087"><ele>14.0</ele><time>2026-04-06T06:18:02.999Z</time></trkpt><trkpt lat="42.297163939248364" lon="14.464149986908138"><ele>14.0</ele><time>2026-04-06T06:18:04.999Z</time></trkpt><trkpt lat="42.29720473513707" lon="14.464083497015466"><ele>13.999999999999998</ele><time>2026-04-06T06:18:05.999Z</time></trkpt><trkpt lat="42.29728238622686" lon="14.463952124337148"><ele>13.999999999999998</ele><time>2026-04-06T06:18:07.999Z</time></trkpt><trkpt lat="42.29736160045942" lon="14.46382217323771"><ele>14.0</ele><time>2026-04-06T06:18:09.999Z</time></trkpt><trkpt lat="42.29744582400381" lon="14.463696590633539"><ele>14.0</ele><time>2026-04-06T06:18:11.999Z</time></trkpt><trkpt lat="42.2975275541829" lon="14.463569091892698"><ele>14.0</ele><time>2026-04-06T06:18:13.999Z</time></trkpt><trkpt lat="42.2975662214309" lon="14.463501567682712"><ele>13.999999999999998</ele><time>2026-04-06T06:18:14.999Z</time></trkpt><trkpt lat="42.297646921369314" lon="14.463372313912956"><ele>13.999999999999998</ele><time>2026-04-06T06:18:16.999Z</time></trkpt><trkpt lat="42.29768798465845" lon="14.463307675037244"><ele>14.0</ele><time>2026-04-06T06:18:17.999Z</time></trkpt><trkpt lat="42.29776440217996" lon="14.463173836598664"><ele>14.0</ele><time>2026-04-06T06:18:19.999Z</time></trkpt><trkpt lat="42.297842862153516" lon="14.463040863384041"><ele>14.000000000000002</ele><time>2026-04-06T06:18:21.999Z</time></trkpt><trkpt lat="42.29788109537029" lon="14.462971571904239"><ele>14.0</ele><time>2026-04-06T06:18:22.999Z</time></trkpt><trkpt lat="42.297961253936386" lon="14.462837001434997"><ele>14.0</ele><time>2026-04-06T06:18:24.999Z</time></trkpt><trkpt lat="42.298002876801625" lon="14.462771257955357"><ele>14.0</ele><time>2026-04-06T06:18:25.999Z</time></trkpt><trkpt lat="42.29804433867338" lon="14.462704391878747"><ele>14.000000000000002</ele><time>2026-04-06T06:18:26.999Z</time></trkpt><trkpt lat="42.298086797130956" lon="14.462637685829232"><ele>14.0</ele><time>2026-04-06T06:18:27.999Z</time></trkpt><trkpt lat="42.298126804634514" lon="14.462568534213228"><ele>13.0</ele><time>2026-04-06T06:18:28.999Z</time></trkpt><trkpt lat="42.29816548950708" lon="14.462499609807455"><ele>12.0</ele><time>2026-04-06T06:18:29.999Z</time></trkpt><trkpt lat="42.298205258875186" lon="14.462431151381269"><ele>11.0</ele><time>2026-04-06T06:18:30.999Z</time></trkpt><trkpt lat="42.29824480565711" lon="14.462364146121887"><ele>10.0</ele><time>2026-04-06T06:18:31.999Z</time></trkpt><trkpt lat="42.29828383035846" lon="14.462296949227335"><ele>9.0</ele><time>2026-04-06T06:18:32.999Z</time></trkpt><trkpt lat="42.29832461290832" lon="14.462231658046026"><ele>8.0</ele><time>2026-04-06T06:18:33.999Z</time></trkpt><trkpt lat="42.298402285595806" lon="14.462098617711488"><ele>7.0</ele><time>2026-04-06T06:18:35.999Z</time></trkpt><trkpt lat="42.298479735910384" lon="14.461966190317593"><ele>10.0</ele><time>2026-04-06T06:18:37.999Z</time></trkpt><trkpt lat="42.29855452330639" lon="14.461838095773773"><ele>13.0</ele><time>2026-04-06T06:18:39.999Z</time></trkpt><trkpt lat="42.29862613737872" lon="14.46171227633394"><ele>16.0</ele><time>2026-04-06T06:18:41.999Z</time></trkpt><trkpt lat="42.29869509956881" lon="14.461593837016192"><ele>19.0</ele><time>2026-04-06T06:18:43.998Z</time></trkpt><trkpt lat="42.29875549824914" lon="14.461487311540079"><ele>22.0</ele><time>2026-04-06T06:18:45.998Z</time></trkpt><trkpt lat="42.298787336333994" lon="14.461394139525124"><ele>24.0</ele><time>2026-04-06T06:18:47.998Z</time></trkpt><trkpt lat="42.29883507272767" lon="14.461258541248867"><ele>26.0</ele><time>2026-04-06T06:18:49.998Z</time></trkpt><trkpt lat="42.29885185846768" lon="14.461170659863585"><ele>28.000000000000004</ele><time>2026-04-06T06:18:51.998Z</time></trkpt><trkpt lat="42.29887936946491" lon="14.461068617300745"><ele>30.0</ele><time>2026-04-06T06:18:54.076Z</time></trkpt><trkpt lat="42.298898843800195" lon="14.460965257150916"><ele>32.0</ele><time>2026-04-06T06:18:56.058Z</time></trkpt><trkpt lat="42.29918806173471" lon="14.460324691988598"><ele>13.0</ele><time>2026-04-06T06:19:07.28Z</time></trkpt><trkpt lat="42.30004834075715" lon="14.459301437396299"><ele>13.0</ele><time>2026-04-06T06:19:18.998Z</time></trkpt><trkpt lat="42.30012237886091" lon="14.459178125389979"><ele>13.0</ele><time>2026-04-06T06:19:21.998Z</time></trkpt><trkpt lat="42.30019591944974" lon="14.45904927382273"><ele>13.0</ele><time>2026-04-06T06:19:23.998Z</time></trkpt><trkpt lat="42.300276956304316" lon="14.459026272168256"><ele>13.0</ele><time>2026-04-06T06:19:24.998Z</time></trkpt><trkpt lat="42.30034191252722" lon="14.45889401201886"><ele>13.0</ele><time>2026-04-06T06:19:26.998Z</time></trkpt><trkpt lat="42.30039788437352" lon="14.4587497775132"><ele>11.200000000000001</ele><time>2026-04-06T06:19:28.998Z</time></trkpt><trkpt lat="42.30043977052527" lon="14.458684398155038"><ele>9.4</ele><time>2026-04-06T06:19:29.998Z</time></trkpt><trkpt lat="42.30052057260001" lon="14.458566037303283"><ele>7.6000000000000005</ele><time>2026-04-06T06:19:31.998Z</time></trkpt><trkpt lat="42.300596123082734" lon="14.45843354805286"><ele>5.800000000000001</ele><time>2026-04-06T06:19:33.998Z</time></trkpt><trkpt lat="42.30066926675641" lon="14.458313816846887"><ele>4.0</ele><time>2026-04-06T06:19:35.998Z</time></trkpt><trkpt lat="42.30074501202671" lon="14.458183900588557"><ele>4.0</ele><time>2026-04-06T06:19:37.997Z</time></trkpt><trkpt lat="42.30082310842176" lon="14.458050958803915"><ele>4.0</ele><time>2026-04-06T06:19:39.997Z</time></trkpt><trkpt lat="42.30089842725497" lon="14.457924507078557"><ele>4.0</ele><time>2026-04-06T06:19:41.997Z</time></trkpt><trkpt lat="42.300972975816286" lon="14.45779638293147"><ele>4.0</ele><time>2026-04-06T06:19:44Z</time></trkpt><trkpt lat="42.30105047672921" lon="14.457673102725794"><ele>6.75</ele><time>2026-04-06T06:19:46Z</time></trkpt><trkpt lat="42.301126297871036" lon="14.457546079383716"><ele>9.5</ele><time>2026-04-06T06:19:48Z</time></trkpt><trkpt lat="42.30120111459042" lon="14.457418605599866"><ele>12.25</ele><time>2026-04-06T06:19:50Z</time></trkpt><trkpt lat="42.301276100410824" lon="14.457292111114642"><ele>15.0</ele><time>2026-04-06T06:19:52Z</time></trkpt><trkpt lat="42.30135018145654" lon="14.457168323834926"><ele>14.0</ele><time>2026-04-06T06:19:54Z</time></trkpt><trkpt lat="42.30142318466491" lon="14.45704569877438"><ele>13.0</ele><time>2026-04-06T06:19:56Z</time></trkpt><trkpt lat="42.301495433968284" lon="14.456919925936768"><ele>12.0</ele><time>2026-04-06T06:19:58Z</time></trkpt><trkpt lat="42.301568621343975" lon="14.456797367929891"><ele>11.0</ele><time>2026-04-06T06:19:59.999Z</time></trkpt><trkpt lat="42.30164476769524" lon="14.456677282126215"><ele>11.0</ele><time>2026-04-06T06:20:01.999Z</time></trkpt><trkpt lat="42.30171875114588" lon="14.456550255800453"><ele>11.0</ele><time>2026-04-06T06:20:03.999Z</time></trkpt><trkpt lat="42.301794027732434" lon="14.456423614470355"><ele>11.0</ele><time>2026-04-06T06:20:05.999Z</time></trkpt><trkpt lat="42.30186959003351" lon="14.456301347425683"><ele>11.0</ele><time>2026-04-06T06:20:07.999Z</time></trkpt><trkpt lat="42.30194288471796" lon="14.456175669451085"><ele>14.0</ele><time>2026-04-06T06:20:09.999Z</time></trkpt><trkpt lat="42.302018004625715" lon="14.456052981948234"><ele>17.0</ele><time>2026-04-06T06:20:11.999Z</time></trkpt><trkpt lat="42.30208999552428" lon="14.455926156016291"><ele>20.0</ele><time>2026-04-06T06:20:13.999Z</time></trkpt><trkpt lat="42.302163322117785" lon="14.45579982186856"><ele>23.0</ele><time>2026-04-06T06:20:15.999Z</time></trkpt><trkpt lat="42.30223930400339" lon="14.455675654811422"><ele>20.5</ele><time>2026-04-06T06:20:17.999Z</time></trkpt><trkpt lat="42.30231066803833" lon="14.455546648458741"><ele>18.0</ele><time>2026-04-06T06:20:19.999Z</time></trkpt><trkpt lat="42.3023840800614" lon="14.455412992950382"><ele>15.5</ele><time>2026-04-06T06:20:21.999Z</time></trkpt><trkpt lat="42.30246115054234" lon="14.455287588429282"><ele>13.0</ele><time>2026-04-06T06:20:23.999Z</time></trkpt><trkpt lat="42.30253702185381" lon="14.455163854688443"><ele>13.0</ele><time>2026-04-06T06:20:25.999Z</time></trkpt><trkpt lat="42.3026120733195" lon="14.455038686379007"><ele>13.0</ele><time>2026-04-06T06:20:27.999Z</time></trkpt><trkpt lat="42.30268682127797" lon="14.454913503672618"><ele>13.0</ele><time>2026-04-06T06:20:29.999Z</time></trkpt><trkpt lat="42.30276336542074" lon="14.454788371106579"><ele>13.0</ele><time>2026-04-06T06:20:31.999Z</time></trkpt><trkpt lat="42.302839778323666" lon="14.45466167406121"><ele>11.25</ele><time>2026-04-06T06:20:33.999Z</time></trkpt><trkpt lat="42.30290985063523" lon="14.45453236820971"><ele>9.5</ele><time>2026-04-06T06:20:35.999Z</time></trkpt><trkpt lat="42.3029841653887" lon="14.454410294311428"><ele>7.75</ele><time>2026-04-06T06:20:37.999Z</time></trkpt><trkpt lat="42.303055558953325" lon="14.454283781690217"><ele>6.0</ele><time>2026-04-06T06:20:39.999Z</time></trkpt><trkpt lat="42.30313060184219" lon="14.454158764919134"><ele>6.0</ele><time>2026-04-06T06:20:41.999Z</time></trkpt><trkpt lat="42.30320158170126" lon="14.45402999252142"><ele>6.0</ele><time>2026-04-06T06:20:43.999Z</time></trkpt><trkpt lat="42.30327503021876" lon="14.45390262963003"><ele>6.0</ele><time>2026-04-06T06:20:45.999Z</time></trkpt><trkpt lat="42.30334758791043" lon="14.453774962762866"><ele>6.0</ele><time>2026-04-06T06:20:47.999Z</time></trkpt><trkpt lat="42.303420403581285" lon="14.453651608839191"><ele>8.5</ele><time>2026-04-06T06:20:49.999Z</time></trkpt><trkpt lat="42.303496728542235" lon="14.453531927585173"><ele>11.0</ele><time>2026-04-06T06:20:51.999Z</time></trkpt><trkpt lat="42.30357684289431" lon="14.453411105345808"><ele>13.5</ele><time>2026-04-06T06:20:53.999Z</time></trkpt><trkpt lat="42.30365178753279" lon="14.453284013155411"><ele>16.0</ele><time>2026-04-06T06:20:55.999Z</time></trkpt><trkpt lat="42.3037270210161" lon="14.453155951269707"><ele>16.0</ele><time>2026-04-06T06:20:57.998Z</time></trkpt><trkpt lat="42.303801929338114" lon="14.453030097579125"><ele>16.0</ele><time>2026-04-06T06:20:59.998Z</time></trkpt><trkpt lat="42.303877352850236" lon="14.452905880912782"><ele>16.0</ele><time>2026-04-06T06:21:01.998Z</time></trkpt><trkpt lat="42.30395744665419" lon="14.452786474442865"><ele>16.0</ele><time>2026-04-06T06:21:03.998Z</time></trkpt><trkpt lat="42.304039824655696" lon="14.452671531012227"><ele>13.75</ele><time>2026-04-06T06:21:05.998Z</time></trkpt><trkpt lat="42.30412098465837" lon="14.452565362956982"><ele>11.5</ele><time>2026-04-06T06:21:07.998Z</time></trkpt><trkpt lat="42.30419743586006" lon="14.452451827439349"><ele>9.25</ele><time>2026-04-06T06:21:09.998Z</time></trkpt><trkpt lat="42.30427698596324" lon="14.452339538867662"><ele>7.0</ele><time>2026-04-06T06:21:11.998Z</time></trkpt><trkpt lat="42.30436530206285" lon="14.452236733865806"><ele>7.0</ele><time>2026-04-06T06:21:13.998Z</time></trkpt><trkpt lat="42.30444598737144" lon="14.452123948012883"><ele>7.0</ele><time>2026-04-06T06:21:15.998Z</time></trkpt><trkpt lat="42.3045296917276" lon="14.452018005551977"><ele>7.0</ele><time>2026-04-06T06:21:17.998Z</time></trkpt><trkpt lat="42.30461362326761" lon="14.451904886072006"><ele>7.0</ele><time>2026-04-06T06:21:19.998Z</time></trkpt><trkpt lat="42.30469771045521" lon="14.451794192354809"><ele>6.25</ele><time>2026-04-06T06:21:21.998Z</time></trkpt><trkpt lat="42.30477939436324" lon="14.451678830840017"><ele>5.5</ele><time>2026-04-06T06:21:23.998Z</time></trkpt><trkpt lat="42.30486518745975" lon="14.451570680631514"><ele>4.75</ele><time>2026-04-06T06:21:25.998Z</time></trkpt><trkpt lat="42.304948747390426" lon="14.451459816951974"><ele>4.0</ele><time>2026-04-06T06:21:27.998Z</time></trkpt><trkpt lat="42.3050318050703" lon="14.451349848062481"><ele>5.5</ele><time>2026-04-06T06:21:29.998Z</time></trkpt><trkpt lat="42.305113782171574" lon="14.45123625745002"><ele>7.0</ele><time>2026-04-06T06:21:31.998Z</time></trkpt><trkpt lat="42.30519670604981" lon="14.45112153150762"><ele>8.5</ele><time>2026-04-06T06:21:33.998Z</time></trkpt><trkpt lat="42.305281915102405" lon="14.451011100062484"><ele>10.0</ele><time>2026-04-06T06:21:35.998Z</time></trkpt><trkpt lat="42.30536698666925" lon="14.450896156849284"><ele>10.0</ele><time>2026-04-06T06:21:37.998Z</time></trkpt><trkpt lat="42.30545113679639" lon="14.450782489765475"><ele>10.0</ele><time>2026-04-06T06:21:39.998Z</time></trkpt><trkpt lat="42.30553693052614" lon="14.450669570959084"><ele>10.0</ele><time>2026-04-06T06:21:41.998Z</time></trkpt><trkpt lat="42.3056201941865" lon="14.45055212388484"><ele>10.0</ele><time>2026-04-06T06:21:43.998Z</time></trkpt><trkpt lat="42.305704958346794" lon="14.450436172566103"><ele>9.0</ele><time>2026-04-06T06:21:45.998Z</time></trkpt><trkpt lat="42.30578881833849" lon="14.450322436810493"><ele>8.0</ele><time>2026-04-06T06:21:47.998Z</time></trkpt><trkpt lat="42.30587413616376" lon="14.45020625834866"><ele>7.0</ele><time>2026-04-06T06:21:49.999Z</time></trkpt><trkpt lat="42.3059588768708" lon="14.450089790349706"><ele>6.0</ele><time>2026-04-06T06:21:51.999Z</time></trkpt><trkpt lat="42.30604268482472" lon="14.449973860523034"><ele>6.0</ele><time>2026-04-06T06:21:54Z</time></trkpt><trkpt lat="42.30612547290017" lon="14.449858291641448"><ele>6.0</ele><time>2026-04-06T06:21:56Z</time></trkpt><trkpt lat="42.306209549050244" lon="14.449739549795613"><ele>6.0</ele><time>2026-04-06T06:21:57.999Z</time></trkpt><trkpt lat="42.306291025751015" lon="14.449620369890825"><ele>6.0</ele><time>2026-04-06T06:22:00Z</time></trkpt><trkpt lat="42.30637708864272" lon="14.449507198060864"><ele>5.75</ele><time>2026-04-06T06:22:01.999Z</time></trkpt><trkpt lat="42.30646428210316" lon="14.44938966502874"><ele>5.5</ele><time>2026-04-06T06:22:03.999Z</time></trkpt><trkpt lat="42.30655216147578" lon="14.449274264097724"><ele>5.25</ele><time>2026-04-06T06:22:05.999Z</time></trkpt><trkpt lat="42.30664176603532" lon="14.449158508901222"><ele>5.0</ele><time>2026-04-06T06:22:07.999Z</time></trkpt><trkpt lat="42.306728683435985" lon="14.449039307480183"><ele>5.0</ele><time>2026-04-06T06:22:09.999Z</time></trkpt><trkpt lat="42.30681512855404" lon="14.448919309470936"><ele>5.0</ele><time>2026-04-06T06:22:11.999Z</time></trkpt><trkpt lat="42.30690279522889" lon="14.448802000587925"><ele>5.0</ele><time>2026-04-06T06:22:13.999Z</time></trkpt><trkpt lat="42.306989141939425" lon="14.448684226142426"><ele>5.0</ele><time>2026-04-06T06:22:15.999Z</time></trkpt><trkpt lat="42.30707598975919" lon="14.448562870641444"><ele>5.0</ele><time>2026-04-06T06:22:18Z</time></trkpt><trkpt lat="42.30716281505159" lon="14.448444575986338"><ele>5.0</ele><time>2026-04-06T06:22:20Z</time></trkpt><trkpt lat="42.307249774851144" lon="14.44832720675735"><ele>5.0</ele><time>2026-04-06T06:22:22Z</time></trkpt><trkpt lat="42.30733591357203" lon="14.448211041673366"><ele>5.0</ele><time>2026-04-06T06:22:24Z</time></trkpt><trkpt lat="42.30742368620487" lon="14.448098568823337"><ele>5.0</ele><time>2026-04-06T06:22:26Z</time></trkpt><trkpt lat="42.30750844830558" lon="14.447982907970399"><ele>5.0</ele><time>2026-04-06T06:22:28Z</time></trkpt><trkpt lat="42.30759304950526" lon="14.447867712813151"><ele>5.0</ele><time>2026-04-06T06:22:30Z</time></trkpt><trkpt lat="42.30767273646703" lon="14.44774936391282"><ele>5.0</ele><time>2026-04-06T06:22:32Z</time></trkpt><trkpt lat="42.30774941370344" lon="14.447624889738146"><ele>6.75</ele><time>2026-04-06T06:22:34Z</time></trkpt><trkpt lat="42.307825426703246" lon="14.447499882587188"><ele>8.5</ele><time>2026-04-06T06:22:36Z</time></trkpt><trkpt lat="42.30789114720166" lon="14.447366231220208"><ele>10.25</ele><time>2026-04-06T06:22:38Z</time></trkpt><trkpt lat="42.307950494047525" lon="14.447227525910257"><ele>12.0</ele><time>2026-04-06T06:22:40Z</time></trkpt><trkpt lat="42.308015321737784" lon="14.447096490938799"><ele>11.6</ele><time>2026-04-06T06:22:42Z</time></trkpt><trkpt lat="42.308071718832934" lon="14.44696268753551"><ele>11.2</ele><time>2026-04-06T06:22:44Z</time></trkpt><trkpt lat="42.308120470243395" lon="14.446838381027154"><ele>10.8</ele><time>2026-04-06T06:22:46Z</time></trkpt><trkpt lat="42.308163782138806" lon="14.446711358104897"><ele>10.4</ele><time>2026-04-06T06:22:48Z</time></trkpt><trkpt lat="42.30821568704284" lon="14.44659339487522"><ele>10.0</ele><time>2026-04-06T06:22:50Z</time></trkpt><trkpt lat="42.30826185484068" lon="14.446476183746688"><ele>10.0</ele><time>2026-04-06T06:22:52Z</time></trkpt><trkpt lat="42.308309739542814" lon="14.44636455595023"><ele>10.0</ele><time>2026-04-06T06:22:54Z</time></trkpt><trkpt lat="42.30836507971472" lon="14.44626517577887"><ele>10.0</ele><time>2026-04-06T06:22:56Z</time></trkpt><trkpt lat="42.30841023404828" lon="14.446165343265"><ele>10.0</ele><time>2026-04-06T06:22:58Z</time></trkpt><trkpt lat="42.308442638731115" lon="14.446077757335308"><ele>10.0</ele><time>2026-04-06T06:22:59.999Z</time></trkpt><trkpt lat="42.308439382906656" lon="14.445990214481984"><ele>10.0</ele><time>2026-04-06T06:23:02.999Z</time></trkpt><trkpt lat="42.3084543254627" lon="14.445875950634052"><ele>10.0</ele><time>2026-04-06T06:23:10.999Z</time></trkpt><trkpt lat="42.308496580550745" lon="14.445767444559023"><ele>10.0</ele><time>2026-04-06T06:23:12.999Z</time></trkpt><trkpt lat="42.30854703501126" lon="14.445641505825991"><ele>10.0</ele><time>2026-04-06T06:23:14.999Z</time></trkpt><trkpt lat="42.30859636888183" lon="14.445506097776516"><ele>10.0</ele><time>2026-04-06T06:23:16.999Z</time></trkpt><trkpt lat="42.30863382499507" lon="14.445412745018105"><ele>10.0</ele><time>2026-04-06T06:23:18.999Z</time></trkpt><trkpt lat="42.30865340554649" lon="14.44530793586866"><ele>10.0</ele><time>2026-04-06T06:23:22.999Z</time></trkpt><trkpt lat="42.30862908465688" lon="14.44522258313809"><ele>10.0</ele><time>2026-04-06T06:23:25.999Z</time></trkpt><trkpt lat="42.30868520904633" lon="14.445300136194428"><ele>10.0</ele><time>2026-04-06T06:23:28.999Z</time></trkpt><trkpt lat="42.30880718026137" lon="14.445385344946724"><ele>10.0</ele><time>2026-04-06T06:23:29.999Z</time></trkpt><trkpt lat="42.30887783759726" lon="14.445473942663602"><ele>10.0</ele><time>2026-04-06T06:23:31.999Z</time></trkpt><trkpt lat="42.308952272756876" lon="14.44540604984711"><ele>9.285714285714285</ele><time>2026-04-06T06:23:34.999Z</time></trkpt><trkpt lat="42.30900361171833" lon="14.445348292524761"><ele>8.571428571428571</ele><time>2026-04-06T06:23:36.999Z</time></trkpt><trkpt lat="42.309051830777065" lon="14.445278798892119"><ele>7.857142857142858</ele><time>2026-04-06T06:23:38.999Z</time></trkpt><trkpt lat="42.30910575662686" lon="14.445206033158716"><ele>7.142857142857142</ele><time>2026-04-06T06:23:40.999Z</time></trkpt><trkpt lat="42.30915557468583" lon="14.445136051859077"><ele>6.428571428571429</ele><time>2026-04-06T06:23:42.999Z</time></trkpt><trkpt lat="42.309207368708016" lon="14.445069188435369"><ele>5.714285714285714</ele><time>2026-04-06T06:23:44.999Z</time></trkpt><trkpt lat="42.309260213478865" lon="14.445002485795033"><ele>5.0</ele><time>2026-04-06T06:23:46.999Z</time></trkpt><trkpt lat="42.30931270414141" lon="14.444939181086205"><ele>5.0</ele><time>2026-04-06T06:23:48.999Z</time></trkpt><trkpt lat="42.309362943093376" lon="14.444877367583253"><ele>5.0</ele><time>2026-04-06T06:23:50.999Z</time></trkpt><trkpt lat="42.309429453863785" lon="14.444785968922009"><ele>5.0</ele><time>2026-04-06T06:23:53.999Z</time></trkpt><trkpt lat="42.30949358489663" lon="14.444712405869007"><ele>5.0</ele><time>2026-04-06T06:23:57Z</time></trkpt><trkpt lat="42.30954775018849" lon="14.444661771607356"><ele>5.0</ele><time>2026-04-06T06:24:00Z</time></trkpt><trkpt lat="42.30941945351353" lon="14.44463894798884"><ele>5.0</ele><time>2026-04-06T06:25:47.999Z</time></trkpt><trkpt lat="42.309519242605674" lon="14.444499353243708"><ele>5.0</ele><time>2026-04-06T06:26:13Z</time></trkpt><trkpt lat="42.309650069017344" lon="14.44488203820077"><ele>5.0</ele><time>2026-04-06T06:27:20.41Z</time></trkpt><trkpt lat="42.30958871906304" lon="14.444833695333468"><ele>5.0</ele><time>2026-04-06T06:27:45.02Z</time></trkpt><trkpt lat="42.30951426280772" lon="14.4448841999191"><ele>5.0</ele><time>2026-04-06T06:27:50.018Z</time></trkpt><trkpt lat="42.30949475409104" lon="14.444797914445488"><ele>5.0</ele><time>2026-04-06T06:29:22.999Z</time></trkpt><trkpt lat="42.30952032974573" lon="14.444718366580474"><ele>5.0</ele><time>2026-04-06T06:30:00.999Z</time></trkpt><trkpt lat="42.30959775101424" lon="14.444684325092075"><ele>5.0</ele><time>2026-04-06T06:30:03.999Z</time></trkpt><trkpt lat="42.30967315892443" lon="14.444678588924454"><ele>5.0</ele><time>2026-04-06T06:30:06.998Z</time></trkpt><trkpt lat="42.30975196177692" lon="14.444711421626142"><ele>5.0</ele><time>2026-04-06T06:30:10.998Z</time></trkpt><trkpt lat="42.30982335781337" lon="14.444769490867396"><ele>4.333333333333334</ele><time>2026-04-06T06:30:15Z</time></trkpt><trkpt lat="42.309864674141714" lon="14.444849892929113"><ele>3.666666666666667</ele><time>2026-04-06T06:30:18Z</time></trkpt><trkpt lat="42.3099171573638" lon="14.444926986554913"><ele>3.0</ele><time>2026-04-06T06:30:21Z</time></trkpt><trkpt lat="42.30995989476805" lon="14.445013998515421"><ele>2.3333333333333335</ele><time>2026-04-06T06:30:24Z</time></trkpt><trkpt lat="42.30999516596022" lon="14.44509524056628"><ele>1.6666666666666665</ele><time>2026-04-06T06:30:27Z</time></trkpt><trkpt lat="42.310045513052984" lon="14.445184131945528"><ele>1.0</ele><time>2026-04-06T06:30:30Z</time></trkpt><trkpt lat="42.3100967169036" lon="14.445275795509998"><ele>1.0</ele><time>2026-04-06T06:30:33Z</time></trkpt><trkpt lat="42.310137814063296" lon="14.445341298855746"><ele>0.9999999999999999</ele><time>2026-04-06T06:30:35Z</time></trkpt><trkpt lat="42.31018206707422" lon="14.445411108875422"><ele>1.0</ele><time>2026-04-06T06:30:37Z</time></trkpt><trkpt lat="42.310221460969295" lon="14.445482563125262"><ele>1.0</ele><time>2026-04-06T06:30:39Z</time></trkpt><trkpt lat="42.31026361661803" lon="14.445554277726739"><ele>0.9999999999999999</ele><time>2026-04-06T06:30:41Z</time></trkpt><trkpt lat="42.310305913829545" lon="14.445619612885801"><ele>1.0</ele><time>2026-04-06T06:30:43Z</time></trkpt><trkpt lat="42.3103628136331" lon="14.445723058055874"><ele>1.0</ele><time>2026-04-06T06:30:46Z</time></trkpt><trkpt lat="42.3104087458002" lon="14.445792827807391"><ele>0.9999999999999999</ele><time>2026-04-06T06:30:48Z</time></trkpt><trkpt lat="42.31045077476535" lon="14.445868876615014"><ele>1.0</ele><time>2026-04-06T06:30:50Z</time></trkpt><trkpt lat="42.31049049127716" lon="14.4459497908336"><ele>1.0</ele><time>2026-04-06T06:30:52Z</time></trkpt><trkpt lat="42.310532685657826" lon="14.446031528371817"><ele>1.0</ele><time>2026-04-06T06:30:54Z</time></trkpt><trkpt lat="42.310579919866" lon="14.446114069826102"><ele>0.9999999999999999</ele><time>2026-04-06T06:30:56Z</time></trkpt><trkpt lat="42.31062306936582" lon="14.446203090067371"><ele>1.0</ele><time>2026-04-06T06:30:58Z</time></trkpt><trkpt lat="42.31066780551707" lon="14.44629465344453"><ele>0.8333333333333333</ele><time>2026-04-06T06:31:00Z</time></trkpt><trkpt lat="42.31071754420155" lon="14.446384141479415"><ele>0.6666666666666666</ele><time>2026-04-06T06:31:02Z</time></trkpt><trkpt lat="42.31077312019942" lon="14.446468849278506"><ele>0.5</ele><time>2026-04-06T06:31:04Z</time></trkpt><trkpt lat="42.31082749333945" lon="14.446552452235942"><ele>0.3333333333333333</ele><time>2026-04-06T06:31:06Z</time></trkpt><trkpt lat="42.3108701001159" lon="14.446649510392998"><ele>0.16666666666666666</ele><time>2026-04-06T06:31:08Z</time></trkpt><trkpt lat="42.310916216635725" lon="14.44674216468888"><ele>0.0</ele><time>2026-04-06T06:31:10Z</time></trkpt><trkpt lat="42.31097173297582" lon="14.446827281064452"><ele>0.0</ele><time>2026-04-06T06:31:11.999Z</time></trkpt><trkpt lat="42.31101851312449" lon="14.446921525649081"><ele>0.0</ele><time>2026-04-06T06:31:13.999Z</time></trkpt><trkpt lat="42.31106737009523" lon="14.44701053433861"><ele>0.0</ele><time>2026-04-06T06:31:15.999Z</time></trkpt><trkpt lat="42.311115871337535" lon="14.447090911068027"><ele>0.0</ele><time>2026-04-06T06:31:17.999Z</time></trkpt><trkpt lat="42.3111577295374" lon="14.447172343522766"><ele>0.0</ele><time>2026-04-06T06:31:19.999Z</time></trkpt><trkpt lat="42.31119556310609" lon="14.447245987473734"><ele>0.0</ele><time>2026-04-06T06:31:21.999Z</time></trkpt><trkpt lat="42.31124676931438" lon="14.447337785970307"><ele>0.0</ele><time>2026-04-06T06:31:24.999Z</time></trkpt><trkpt lat="42.31129289591451" lon="14.447409447367379"><ele>0.0</ele><time>2026-04-06T06:31:28.999Z</time></trkpt><trkpt lat="42.31125946394719" lon="14.447325422752003"><ele>0.0</ele><time>2026-04-06T06:35:06.999Z</time></trkpt><trkpt lat="42.311203431682245" lon="14.44723057931898"><ele>0.0</ele><time>2026-04-06T06:35:09.999Z</time></trkpt><trkpt lat="42.311161267874986" lon="14.44715973060314"><ele>0.0</ele><time>2026-04-06T06:35:11.999Z</time></trkpt><trkpt lat="42.31111581738349" lon="14.447083479099547"><ele>0.0</ele><time>2026-04-06T06:35:13.999Z</time></trkpt><trkpt lat="42.31107303297087" lon="14.447009543355682"><ele>0.0</ele><time>2026-04-06T06:35:18.999Z</time></trkpt><trkpt lat="42.311023086745344" lon="14.446934453136999"><ele>0.0</ele><time>2026-04-06T06:35:24.999Z</time></trkpt><trkpt lat="42.311003886897105" lon="14.446835662154186"><ele>0.0</ele><time>2026-04-06T06:35:28.999Z</time></trkpt><trkpt lat="42.31096061613703" lon="14.446759845048138"><ele>0.0</ele><time>2026-04-06T06:35:31.999Z</time></trkpt><trkpt lat="42.31090449626155" lon="14.44666588354881"><ele>0.0</ele><time>2026-04-06T06:35:34.999Z</time></trkpt><trkpt lat="42.31086024373408" lon="14.446591337660978"><ele>0.0</ele><time>2026-04-06T06:35:36.999Z</time></trkpt><trkpt lat="42.31081073172401" lon="14.446516454097614"><ele>0.0</ele><time>2026-04-06T06:35:38.999Z</time></trkpt><trkpt lat="42.31075831778076" lon="14.446434093803864"><ele>0.0</ele><time>2026-04-06T06:35:40.999Z</time></trkpt><trkpt lat="42.31069737583088" lon="14.446353186033498"><ele>0.0</ele><time>2026-04-06T06:35:42.999Z</time></trkpt><trkpt lat="42.310651369966855" lon="14.44625259697325"><ele>0.0</ele><time>2026-04-06T06:35:44.999Z</time></trkpt><trkpt lat="42.31060836882629" lon="14.446145036855727"><ele>0.0</ele><time>2026-04-06T06:35:46.999Z</time></trkpt><trkpt lat="42.31055589051372" lon="14.446042259699633"><ele>0.0</ele><time>2026-04-06T06:35:48.999Z</time></trkpt><trkpt lat="42.31050118794541" lon="14.445943920503435"><ele>0.0</ele><time>2026-04-06T06:35:50.999Z</time></trkpt><trkpt lat="42.31044482204167" lon="14.445842116078145"><ele>0.2</ele><time>2026-04-06T06:35:52.999Z</time></trkpt><trkpt lat="42.31038956345212" lon="14.445738897316788"><ele>0.4</ele><time>2026-04-06T06:35:54.999Z</time></trkpt><trkpt lat="42.31033034173887" lon="14.445637725853326"><ele>0.6000000000000001</ele><time>2026-04-06T06:35:56.999Z</time></trkpt><trkpt lat="42.31027358185729" lon="14.445531389522435"><ele>0.8</ele><time>2026-04-06T06:35:58.999Z</time></trkpt><trkpt lat="42.31021506798396" lon="14.445424314763564"><ele>1.0</ele><time>2026-04-06T06:36:00.999Z</time></trkpt><trkpt lat="42.310150786325345" lon="14.445318011146073"><ele>1.0</ele><time>2026-04-06T06:36:02.999Z</time></trkpt><trkpt lat="42.31009154442497" lon="14.445205472987912"><ele>1.0</ele><time>2026-04-06T06:36:04.998Z</time></trkpt><trkpt lat="42.31003046444835" lon="14.44509484712259"><ele>1.0</ele><time>2026-04-06T06:36:06.998Z</time></trkpt><trkpt lat="42.30996647455671" lon="14.444987329622673"><ele>1.0</ele><time>2026-04-06T06:36:08.998Z</time></trkpt><trkpt lat="42.30990549802585" lon="14.444886948160626"><ele>1.0</ele><time>2026-04-06T06:36:10.998Z</time></trkpt><trkpt lat="42.309853208707224" lon="14.444795345051045"><ele>1.0</ele><time>2026-04-06T06:36:12.998Z</time></trkpt><trkpt lat="42.30979800932073" lon="14.444694253955435"><ele>1.0</ele><time>2026-04-06T06:36:14.998Z</time></trkpt><trkpt lat="42.309746515908216" lon="14.44458505370091"><ele>1.0</ele><time>2026-04-06T06:36:16.998Z</time></trkpt><trkpt lat="42.30975930196426" lon="14.444461105679709"><ele>1.0</ele><time>2026-04-06T06:36:18.998Z</time></trkpt><trkpt lat="42.30982773352822" lon="14.444394566473218"><ele>1.0</ele><time>2026-04-06T06:36:20.998Z</time></trkpt><trkpt lat="42.30987795678859" lon="14.44430228111292"><ele>1.2000000000000002</ele><time>2026-04-06T06:36:22.998Z</time></trkpt><trkpt lat="42.3098446557309" lon="14.444175639593029"><ele>1.4000000000000001</ele><time>2026-04-06T06:36:24.998Z</time></trkpt><trkpt lat="42.3097693741277" lon="14.444093659842835"><ele>1.6</ele><time>2026-04-06T06:36:26.998Z</time></trkpt><trkpt lat="42.30969941259509" lon="14.444011993863894"><ele>1.8</ele><time>2026-04-06T06:36:28.998Z</time></trkpt><trkpt lat="42.309630624583775" lon="14.44392614771827"><ele>2.0</ele><time>2026-04-06T06:36:31Z</time></trkpt><trkpt lat="42.30955560015131" lon="14.443862704078239"><ele>2.6</ele><time>2026-04-06T06:36:33Z</time></trkpt><trkpt lat="42.30945721434913" lon="14.443891744541741"><ele>3.2</ele><time>2026-04-06T06:36:35Z</time></trkpt><trkpt lat="42.309370999458096" lon="14.443908284703706"><ele>3.8</ele><time>2026-04-06T06:36:37Z</time></trkpt><trkpt lat="42.309275456500245" lon="14.443921112315325"><ele>4.4</ele><time>2026-04-06T06:36:39Z</time></trkpt><trkpt lat="42.309186882559516" lon="14.443950805039474"><ele>5.0</ele><time>2026-04-06T06:36:41Z</time></trkpt><trkpt lat="42.30909715598927" lon="14.443968317737754"><ele>5.0</ele><time>2026-04-06T06:36:43Z</time></trkpt><trkpt lat="42.309023638112635" lon="14.443939692791163"><ele>5.0</ele><time>2026-04-06T06:36:45Z</time></trkpt><trkpt lat="42.30893073260137" lon="14.443989424865952"><ele>5.0</ele><time>2026-04-06T06:36:48Z</time></trkpt><trkpt lat="42.30884589398151" lon="14.444004368035557"><ele>5.0</ele><time>2026-04-06T06:36:50Z</time></trkpt><trkpt lat="42.30875613980716" lon="14.44401792625548"><ele>5.0</ele><time>2026-04-06T06:36:52Z</time></trkpt><trkpt lat="42.308664745112175" lon="14.444033876370604"><ele>5.0</ele><time>2026-04-06T06:36:54Z</time></trkpt><trkpt lat="42.30857670861165" lon="14.444035899363916"><ele>5.5</ele><time>2026-04-06T06:36:56Z</time></trkpt><trkpt lat="42.30848813785904" lon="14.444037763922319"><ele>6.0</ele><time>2026-04-06T06:36:58Z</time></trkpt><trkpt lat="42.30840329972039" lon="14.44402136416711"><ele>6.5</ele><time>2026-04-06T06:37:00Z</time></trkpt><trkpt lat="42.308323754859764" lon="14.443990394028258"><ele>7.0</ele><time>2026-04-06T06:37:02Z</time></trkpt><trkpt lat="42.30824528423494" lon="14.443951191088194"><ele>7.499999999999999</ele><time>2026-04-06T06:37:04Z</time></trkpt><trkpt lat="42.3081669368301" lon="14.443912040486317"><ele>8.0</ele><time>2026-04-06T06:37:06Z</time></trkpt><trkpt lat="42.30809016687023" lon="14.443896240289472"><ele>8.333333333333332</ele><time>2026-04-06T06:37:08Z</time></trkpt><trkpt lat="42.30802618312731" lon="14.443868853640012"><ele>8.666666666666666</ele><time>2026-04-06T06:37:10.999Z</time></trkpt><trkpt lat="42.30795288146138" lon="14.443851997460156"><ele>9.0</ele><time>2026-04-06T06:37:12.999Z</time></trkpt><trkpt lat="42.30784149178837" lon="14.443855458525814"><ele>9.333333333333334</ele><time>2026-04-06T06:37:14.999Z</time></trkpt><trkpt lat="42.307751359414304" lon="14.443840895537623"><ele>9.666666666666668</ele><time>2026-04-06T06:37:16.999Z</time></trkpt><trkpt lat="42.30767690794858" lon="14.443817004184197"><ele>10.0</ele><time>2026-04-06T06:37:18.999Z</time></trkpt><trkpt lat="42.307607474656" lon="14.443778697613546"><ele>10.0</ele><time>2026-04-06T06:37:20.999Z</time></trkpt><trkpt lat="42.30754860125817" lon="14.4437387141348"><ele>10.0</ele><time>2026-04-06T06:37:22.999Z</time></trkpt><trkpt lat="42.307471289003395" lon="14.443679947183561"><ele>10.0</ele><time>2026-04-06T06:37:25.999Z</time></trkpt><trkpt lat="42.30741455597875" lon="14.443636294595308"><ele>10.0</ele><time>2026-04-06T06:37:27.999Z</time></trkpt><trkpt lat="42.30734606963177" lon="14.443562110639572"><ele>10.0</ele><time>2026-04-06T06:37:30.999Z</time></trkpt><trkpt lat="42.307270332081536" lon="14.443500031197736"><ele>10.0</ele><time>2026-04-06T06:37:33.999Z</time></trkpt><trkpt lat="42.30720585843174" lon="14.443434171211738"><ele>11.666666666666668</ele><time>2026-04-06T06:37:36.999Z</time></trkpt><trkpt lat="42.30715450150692" lon="14.443376286986524"><ele>13.333333333333334</ele><time>2026-04-06T06:37:39.999Z</time></trkpt><trkpt lat="42.307082323646085" lon="14.443311568633728"><ele>15.0</ele><time>2026-04-06T06:37:43.999Z</time></trkpt><trkpt lat="42.30701295086961" lon="14.443247602449228"><ele>16.666666666666668</ele><time>2026-04-06T06:37:47.999Z</time></trkpt><trkpt lat="42.30695325395844" lon="14.443210086355332"><ele>18.333333333333336</ele><time>2026-04-06T06:37:50.999Z</time></trkpt><trkpt lat="42.306880538815896" lon="14.443227218515494"><ele>20.0</ele><time>2026-04-06T06:37:54.999Z</time></trkpt><trkpt lat="42.30683542722269" lon="14.443304175824826"><ele>20.0</ele><time>2026-04-06T06:37:58.999Z</time></trkpt><trkpt lat="42.306855679042215" lon="14.443407931768395"><ele>20.0</ele><time>2026-04-06T06:38:01.999Z</time></trkpt><trkpt lat="42.30689675487465" lon="14.443474095062605"><ele>20.0</ele><time>2026-04-06T06:38:03.999Z</time></trkpt><trkpt lat="42.30694084126308" lon="14.443537907920096"><ele>20.0</ele><time>2026-04-06T06:38:05.999Z</time></trkpt><trkpt lat="42.30698816206208" lon="14.443601619322463"><ele>20.0</ele><time>2026-04-06T06:38:07.999Z</time></trkpt><trkpt lat="42.30703798852531" lon="14.44366525244247"><ele>20.0</ele><time>2026-04-06T06:38:09.999Z</time></trkpt><trkpt lat="42.3070884920582" lon="14.443728580038034"><ele>20.0</ele><time>2026-04-06T06:38:11.999Z</time></trkpt><trkpt lat="42.30713833179472" lon="14.443786696134941"><ele>20.57142857142857</ele><time>2026-04-06T06:38:13.998Z</time></trkpt><trkpt lat="42.30718661784315" lon="14.443845698587968"><ele>21.142857142857142</ele><time>2026-04-06T06:38:15.998Z</time></trkpt><trkpt lat="42.307229442873975" lon="14.443912513767742"><ele>21.714285714285715</ele><time>2026-04-06T06:38:17.998Z</time></trkpt><trkpt lat="42.30727615723435" lon="14.443976731917779"><ele>22.285714285714285</ele><time>2026-04-06T06:38:19.998Z</time></trkpt><trkpt lat="42.30732201162905" lon="14.444046975454066"><ele>22.857142857142858</ele><time>2026-04-06T06:38:21.998Z</time></trkpt><trkpt lat="42.307373558781606" lon="14.44412317642374"><ele>23.428571428571427</ele><time>2026-04-06T06:38:23.998Z</time></trkpt><trkpt lat="42.307421737970046" lon="14.44421389338374"><ele>24.0</ele><time>2026-04-06T06:38:25.998Z</time></trkpt><trkpt lat="42.30748078876344" lon="14.444312654631304"><ele>23.2</ele><time>2026-04-06T06:38:27.998Z</time></trkpt><trkpt lat="42.30753706194026" lon="14.444416274325677"><ele>22.4</ele><time>2026-04-06T06:38:29.998Z</time></trkpt><trkpt lat="42.30759088788074" lon="14.444522488365164"><ele>21.6</ele><time>2026-04-06T06:38:31.998Z</time></trkpt><trkpt lat="42.30765113325573" lon="14.444619735528336"><ele>20.8</ele><time>2026-04-06T06:38:33.998Z</time></trkpt><trkpt lat="42.30771102536785" lon="14.444714201453827"><ele>20.0</ele><time>2026-04-06T06:38:35.998Z</time></trkpt><trkpt lat="42.30776847145629" lon="14.44482498841301"><ele>20.0</ele><time>2026-04-06T06:38:38Z</time></trkpt><trkpt lat="42.307835399344434" lon="14.44492978752694"><ele>20.0</ele><time>2026-04-06T06:38:40Z</time></trkpt><trkpt lat="42.30789416894241" lon="14.445048291138116"><ele>20.0</ele><time>2026-04-06T06:38:42Z</time></trkpt><trkpt lat="42.307933744088814" lon="14.44518156697372"><ele>20.0</ele><time>2026-04-06T06:38:44Z</time></trkpt><trkpt lat="42.3079772126653" lon="14.445317407147561"><ele>20.0</ele><time>2026-04-06T06:38:46Z</time></trkpt><trkpt lat="42.308025342793286" lon="14.445456019011347"><ele>18.0</ele><time>2026-04-06T06:38:48Z</time></trkpt><trkpt lat="42.3080844068416" lon="14.445588061751682"><ele>16.0</ele><time>2026-04-06T06:38:50Z</time></trkpt><trkpt lat="42.30817176903348" lon="14.445690570300608"><ele>14.0</ele><time>2026-04-06T06:38:52Z</time></trkpt><trkpt lat="42.30823993606588" lon="14.445804151083943"><ele>12.0</ele><time>2026-04-06T06:38:54Z</time></trkpt><trkpt lat="42.30827415653992" lon="14.44589065992423"><ele>10.0</ele><time>2026-04-06T06:38:56Z</time></trkpt><trkpt lat="42.30830326146573" lon="14.445988912805573"><ele>10.0</ele><time>2026-04-06T06:38:59Z</time></trkpt><trkpt lat="42.308306602027386" lon="14.446112972293117"><ele>10.0</ele><time>2026-04-06T06:39:02Z</time></trkpt><trkpt lat="42.308285716903754" lon="14.446233484291714"><ele>10.0</ele><time>2026-04-06T06:39:05Z</time></trkpt><trkpt lat="42.30825484522209" lon="14.446331697261297"><ele>10.0</ele><time>2026-04-06T06:39:08Z</time></trkpt><trkpt lat="42.30821410221274" lon="14.446415709651724"><ele>10.0</ele><time>2026-04-06T06:39:11Z</time></trkpt><trkpt lat="42.30817558870346" lon="14.446491680748336"><ele>10.0</ele><time>2026-04-06T06:39:14Z</time></trkpt><trkpt lat="42.30812538180929" lon="14.446581429377735"><ele>10.0</ele><time>2026-04-06T06:39:17Z</time></trkpt><trkpt lat="42.308094223152146" lon="14.446658066693633"><ele>10.0</ele><time>2026-04-06T06:39:19Z</time></trkpt><trkpt lat="42.30805628618927" lon="14.446739276666653"><ele>10.0</ele><time>2026-04-06T06:39:21Z</time></trkpt><trkpt lat="42.30803039858851" lon="14.446822096327674"><ele>10.0</ele><time>2026-04-06T06:39:23Z</time></trkpt><trkpt lat="42.30804763081592" lon="14.44693713446485"><ele>10.0</ele><time>2026-04-06T06:39:25.999Z</time></trkpt><trkpt lat="42.308005311283225" lon="14.447071780582649"><ele>10.0</ele><time>2026-04-06T06:39:28.999Z</time></trkpt><trkpt lat="42.30795700811915" lon="14.447176822756813"><ele>10.4</ele><time>2026-04-06T06:39:30.999Z</time></trkpt><trkpt lat="42.307905762077596" lon="14.44728255320308"><ele>10.8</ele><time>2026-04-06T06:39:32.999Z</time></trkpt><trkpt lat="42.307854610086146" lon="14.447403163811533"><ele>11.2</ele><time>2026-04-06T06:39:34.999Z</time></trkpt><trkpt lat="42.307792293679476" lon="14.447524936764118"><ele>11.6</ele><time>2026-04-06T06:39:36.999Z</time></trkpt><trkpt lat="42.30772022196711" lon="14.447646740309256"><ele>12.0</ele><time>2026-04-06T06:39:38.999Z</time></trkpt><trkpt lat="42.30764159942048" lon="14.447770262754435"><ele>12.0</ele><time>2026-04-06T06:39:40.999Z</time></trkpt><trkpt lat="42.30755898910826" lon="14.447893021993481"><ele>12.0</ele><time>2026-04-06T06:39:42.999Z</time></trkpt><trkpt lat="42.30747076328073" lon="14.448008908749506"><ele>12.0</ele><time>2026-04-06T06:39:44.999Z</time></trkpt><trkpt lat="42.30738312610484" lon="14.448126432699091"><ele>12.0</ele><time>2026-04-06T06:39:46.999Z</time></trkpt><trkpt lat="42.307300428564005" lon="14.44824556317577"><ele>13.0</ele><time>2026-04-06T06:39:48.999Z</time></trkpt><trkpt lat="42.30721552544503" lon="14.448356176043191"><ele>14.0</ele><time>2026-04-06T06:39:50.999Z</time></trkpt><trkpt lat="42.307131308807286" lon="14.448472300670547"><ele>15.0</ele><time>2026-04-06T06:39:52.999Z</time></trkpt><trkpt lat="42.30704682163806" lon="14.448589917924236"><ele>16.0</ele><time>2026-04-06T06:39:54.999Z</time></trkpt><trkpt lat="42.306958583104546" lon="14.448703931659018"><ele>13.25</ele><time>2026-04-06T06:39:56.999Z</time></trkpt><trkpt lat="42.30687321173694" lon="14.448816077700657"><ele>10.5</ele><time>2026-04-06T06:39:58.999Z</time></trkpt><trkpt lat="42.30678882265559" lon="14.448930998275186"><ele>7.75</ele><time>2026-04-06T06:40:00.999Z</time></trkpt><trkpt lat="42.30670278407313" lon="14.449043062636877"><ele>5.0</ele><time>2026-04-06T06:40:02.999Z</time></trkpt><trkpt lat="42.30662019922643" lon="14.449157313781347"><ele>5.0</ele><time>2026-04-06T06:40:04.999Z</time></trkpt><trkpt lat="42.30653522746785" lon="14.449270619797474"><ele>5.0</ele><time>2026-04-06T06:40:06.999Z</time></trkpt><trkpt lat="42.306451240617605" lon="14.449383658656169"><ele>5.0</ele><time>2026-04-06T06:40:08.999Z</time></trkpt><trkpt lat="42.306366488301286" lon="14.449498398661023"><ele>5.0</ele><time>2026-04-06T06:40:10.999Z</time></trkpt><trkpt lat="42.30628359249545" lon="14.449612398178205"><ele>5.25</ele><time>2026-04-06T06:40:12.999Z</time></trkpt><trkpt lat="42.30619987136948" lon="14.449725006132276"><ele>5.5</ele><time>2026-04-06T06:40:14.999Z</time></trkpt><trkpt lat="42.30611492969595" lon="14.44983697630973"><ele>5.75</ele><time>2026-04-06T06:40:16.999Z</time></trkpt><trkpt lat="42.306030043755534" lon="14.449950336760573"><ele>6.0</ele><time>2026-04-06T06:40:18.999Z</time></trkpt><trkpt lat="42.30594621805677" lon="14.45006571743492"><ele>6.0</ele><time>2026-04-06T06:40:20.999Z</time></trkpt><trkpt lat="42.30586155839627" lon="14.450178557063014"><ele>6.0</ele><time>2026-04-06T06:40:22.999Z</time></trkpt><trkpt lat="42.30577758161799" lon="14.450295527819046"><ele>6.0</ele><time>2026-04-06T06:40:24.999Z</time></trkpt><trkpt lat="42.305693920535724" lon="14.450411387653398"><ele>6.0</ele><time>2026-04-06T06:40:26.998Z</time></trkpt><trkpt lat="42.30560740782218" lon="14.450526449708342"><ele>7.0</ele><time>2026-04-06T06:40:28.998Z</time></trkpt><trkpt lat="42.30551961436216" lon="14.450637944861228"><ele>8.0</ele><time>2026-04-06T06:40:30.998Z</time></trkpt><trkpt lat="42.30543503684098" lon="14.450754329894503"><ele>9.0</ele><time>2026-04-06T06:40:32.998Z</time></trkpt><trkpt lat="42.30535005996821" lon="14.450868351349554"><ele>10.0</ele><time>2026-04-06T06:40:34.998Z</time></trkpt><trkpt lat="42.30526463274147" lon="14.450982870667255"><ele>10.0</ele><time>2026-04-06T06:40:36.998Z</time></trkpt><trkpt lat="42.30517841679385" lon="14.45109991632371"><ele>10.0</ele><time>2026-04-06T06:40:38.998Z</time></trkpt><trkpt lat="42.30509156559557" lon="14.451214712623205"><ele>10.0</ele><time>2026-04-06T06:40:40.998Z</time></trkpt><trkpt lat="42.30500766757158" lon="14.451339500057841"><ele>10.0</ele><time>2026-04-06T06:40:43Z</time></trkpt><trkpt lat="42.30491677189878" lon="14.451452696423672"><ele>10.8</ele><time>2026-04-06T06:40:45Z</time></trkpt><trkpt lat="42.304832125310405" lon="14.451569947366655"><ele>11.6</ele><time>2026-04-06T06:40:47Z</time></trkpt><trkpt lat="42.304743983728166" lon="14.451688738228592"><ele>12.399999999999999</ele><time>2026-04-06T06:40:49Z</time></trkpt><trkpt lat="42.304655745622284" lon="14.451804894305544"><ele>13.2</ele><time>2026-04-06T06:40:51Z</time></trkpt><trkpt lat="42.30461103957062" lon="14.4518657642066"><ele>14.0</ele><time>2026-04-06T06:40:52Z</time></trkpt><trkpt lat="42.30456654487491" lon="14.451926128302041"><ele>14.0</ele><time>2026-04-06T06:40:53Z</time></trkpt><trkpt lat="42.304477740014036" lon="14.452044956017584"><ele>13.999999999999998</ele><time>2026-04-06T06:40:55Z</time></trkpt><trkpt lat="42.30438875282178" lon="14.452163291641071"><ele>13.999999999999998</ele><time>2026-04-06T06:40:57Z</time></trkpt><trkpt lat="42.30434495172058" lon="14.452224725641718"><ele>14.0</ele><time>2026-04-06T06:40:58Z</time></trkpt><trkpt lat="42.304254307080676" lon="14.452345424453776"><ele>14.0</ele><time>2026-04-06T06:41:00Z</time></trkpt><trkpt lat="42.30420715997365" lon="14.45240724972616"><ele>13.0</ele><time>2026-04-06T06:41:01Z</time></trkpt><trkpt lat="42.304162281276895" lon="14.452470921291747"><ele>12.0</ele><time>2026-04-06T06:41:02Z</time></trkpt><trkpt lat="42.3041154327347" lon="14.45253491117336"><ele>11.0</ele><time>2026-04-06T06:41:03Z</time></trkpt><trkpt lat="42.304069195896666" lon="14.45259771230034"><ele>10.0</ele><time>2026-04-06T06:41:04Z</time></trkpt><trkpt lat="42.30402194382386" lon="14.452657793978203"><ele>9.0</ele><time>2026-04-06T06:41:05Z</time></trkpt><trkpt lat="42.303974175496165" lon="14.452719943711001"><ele>8.0</ele><time>2026-04-06T06:41:06Z</time></trkpt><trkpt lat="42.30392708718932" lon="14.45278349303449"><ele>7.0</ele><time>2026-04-06T06:41:07Z</time></trkpt><trkpt lat="42.3038807696953" lon="14.452845811171873"><ele>8.285714285714285</ele><time>2026-04-06T06:41:08Z</time></trkpt><trkpt lat="42.30383605302892" lon="14.45291380042591"><ele>9.571428571428571</ele><time>2026-04-06T06:41:09Z</time></trkpt><trkpt lat="42.30379462794101" lon="14.452981601520175"><ele>10.857142857142858</ele><time>2026-04-06T06:41:10Z</time></trkpt><trkpt lat="42.30375215265062" lon="14.453048375606643"><ele>12.142857142857142</ele><time>2026-04-06T06:41:11Z</time></trkpt><trkpt lat="42.30371315483257" lon="14.453116919237907"><ele>13.428571428571427</ele><time>2026-04-06T06:41:12Z</time></trkpt><trkpt lat="42.30367379970224" lon="14.453187886382603"><ele>14.714285714285714</ele><time>2026-04-06T06:41:13Z</time></trkpt><trkpt lat="42.30363143551722" lon="14.453258495194255"><ele>16.0</ele><time>2026-04-06T06:41:14Z</time></trkpt><trkpt lat="42.303590192164044" lon="14.453326095856301"><ele>16.0</ele><time>2026-04-06T06:41:15Z</time></trkpt><trkpt lat="42.30354954767405" lon="14.45339572559739"><ele>15.999999999999998</ele><time>2026-04-06T06:41:16Z</time></trkpt><trkpt lat="42.30350984805551" lon="14.453469581627335"><ele>16.0</ele><time>2026-04-06T06:41:17Z</time></trkpt><trkpt lat="42.30346801235619" lon="14.45353873547685"><ele>16.0</ele><time>2026-04-06T06:41:18Z</time></trkpt><trkpt lat="42.30342539394814" lon="14.453605304955431"><ele>15.999999999999998</ele><time>2026-04-06T06:41:19Z</time></trkpt><trkpt lat="42.30338327090222" lon="14.453676205068236"><ele>16.0</ele><time>2026-04-06T06:41:20Z</time></trkpt><trkpt lat="42.30334253862354" lon="14.453747577822293"><ele>16.0</ele><time>2026-04-06T06:41:21Z</time></trkpt><trkpt lat="42.30330185994987" lon="14.453816270540326"><ele>17.285714285714285</ele><time>2026-04-06T06:41:22Z</time></trkpt><trkpt lat="42.30326114504031" lon="14.453884608204364"><ele>18.57142857142857</ele><time>2026-04-06T06:41:23Z</time></trkpt><trkpt lat="42.303221073711015" lon="14.453954556585275"><ele>19.857142857142858</ele><time>2026-04-06T06:41:24Z</time></trkpt><trkpt lat="42.303180188830424" lon="14.454024135441383"><ele>21.142857142857142</ele><time>2026-04-06T06:41:25Z</time></trkpt><trkpt lat="42.30313962372193" lon="14.454095251587015"><ele>22.42857142857143</ele><time>2026-04-06T06:41:26Z</time></trkpt><trkpt lat="42.30309990037456" lon="14.45416740679004"><ele>23.714285714285715</ele><time>2026-04-06T06:41:27Z</time></trkpt><trkpt lat="42.30305672287134" lon="14.454238435111458"><ele>25.0</ele><time>2026-04-06T06:41:28Z</time></trkpt><trkpt lat="42.30301604761018" lon="14.454308705453187"><ele>25.000000000000004</ele><time>2026-04-06T06:41:29Z</time></trkpt><trkpt lat="42.30297573240283" lon="14.45438071325665"><ele>25.0</ele><time>2026-04-06T06:41:30Z</time></trkpt><trkpt lat="42.30293504680759" lon="14.454451638658663"><ele>25.0</ele><time>2026-04-06T06:41:31Z</time></trkpt><trkpt lat="42.302893589139586" lon="14.45452307581675"><ele>25.0</ele><time>2026-04-06T06:41:31.999Z</time></trkpt><trkpt lat="42.302851324347834" lon="14.454593652926997"><ele>25.0</ele><time>2026-04-06T06:41:32.999Z</time></trkpt><trkpt lat="42.30280840062233" lon="14.454661700451824"><ele>25.000000000000004</ele><time>2026-04-06T06:41:33.999Z</time></trkpt><trkpt lat="42.30276419780887" lon="14.454730768320388"><ele>25.0</ele><time>2026-04-06T06:41:34.999Z</time></trkpt><trkpt lat="42.30272016137011" lon="14.45480117787572"><ele>23.28571428571429</ele><time>2026-04-06T06:41:35.999Z</time></trkpt><trkpt lat="42.30267839410508" lon="14.454869578425647"><ele>21.571428571428573</ele><time>2026-04-06T06:41:36.999Z</time></trkpt><trkpt lat="42.302637720305235" lon="14.4549420944806"><ele>19.857142857142858</ele><time>2026-04-06T06:41:37.999Z</time></trkpt><trkpt lat="42.302597175396244" lon="14.455012988167008"><ele>18.142857142857146</ele><time>2026-04-06T06:41:38.999Z</time></trkpt><trkpt lat="42.30255628100135" lon="14.455083703400824"><ele>16.42857142857143</ele><time>2026-04-06T06:41:39.999Z</time></trkpt><trkpt lat="42.302514317617586" lon="14.455152682353372"><ele>14.714285714285714</ele><time>2026-04-06T06:41:40.999Z</time></trkpt><trkpt lat="42.302472240713904" lon="14.455220754769897"><ele>13.0</ele><time>2026-04-06T06:41:41.999Z</time></trkpt><trkpt lat="42.30243127788599" lon="14.455288922949093"><ele>13.0</ele><time>2026-04-06T06:41:42.999Z</time></trkpt><trkpt lat="42.302390123811485" lon="14.455358498798402"><ele>13.0</ele><time>2026-04-06T06:41:43.999Z</time></trkpt><trkpt lat="42.30234799012089" lon="14.45542908028094"><ele>13.0</ele><time>2026-04-06T06:41:44.999Z</time></trkpt><trkpt lat="42.30230538927393" lon="14.45549749983475"><ele>13.0</ele><time>2026-04-06T06:41:45.999Z</time></trkpt><trkpt lat="42.30226586562931" lon="14.455569138884673"><ele>13.0</ele><time>2026-04-06T06:41:46.999Z</time></trkpt><trkpt lat="42.302226931928416" lon="14.455641628743054"><ele>13.0</ele><time>2026-04-06T06:41:47.999Z</time></trkpt><trkpt lat="42.30218416805833" lon="14.455711383538793"><ele>13.0</ele><time>2026-04-06T06:41:48.999Z</time></trkpt><trkpt lat="42.30214135978049" lon="14.45577945326448"><ele>14.428571428571427</ele><time>2026-04-06T06:41:49.999Z</time></trkpt><trkpt lat="42.3020995169554" lon="14.455849104393009"><ele>15.857142857142858</ele><time>2026-04-06T06:41:50.999Z</time></trkpt><trkpt lat="42.302059015370645" lon="14.45592160413192"><ele>17.285714285714285</ele><time>2026-04-06T06:41:51.999Z</time></trkpt><trkpt lat="42.30201620828911" lon="14.455990408477152"><ele>18.714285714285715</ele><time>2026-04-06T06:41:52.999Z</time></trkpt><trkpt lat="42.30197424513611" lon="14.456060099582825"><ele>20.142857142857142</ele><time>2026-04-06T06:41:53.999Z</time></trkpt><trkpt lat="42.30193249226462" lon="14.456129772050575"><ele>21.571428571428573</ele><time>2026-04-06T06:41:54.999Z</time></trkpt><trkpt lat="42.30189211508738" lon="14.45619985202107"><ele>23.0</ele><time>2026-04-06T06:41:55.999Z</time></trkpt><trkpt lat="42.30184972394591" lon="14.456272120644181"><ele>21.28571428571429</ele><time>2026-04-06T06:41:56.999Z</time></trkpt><trkpt lat="42.301807139756455" lon="14.45634063558824"><ele>19.57142857142857</ele><time>2026-04-06T06:41:57.999Z</time></trkpt><trkpt lat="42.30176443338797" lon="14.456411110227311"><ele>17.857142857142858</ele><time>2026-04-06T06:41:58.999Z</time></trkpt><trkpt lat="42.30172140171667" lon="14.456480749820098"><ele>16.142857142857142</ele><time>2026-04-06T06:41:59.999Z</time></trkpt><trkpt lat="42.30167939707104" lon="14.456550752488143"><ele>14.428571428571427</ele><time>2026-04-06T06:42:00.999Z</time></trkpt><trkpt lat="42.30163816558901" lon="14.456623341560102"><ele>12.714285714285715</ele><time>2026-04-06T06:42:01.999Z</time></trkpt><trkpt lat="42.30159832492617" lon="14.456696203950768"><ele>11.0</ele><time>2026-04-06T06:42:02.999Z</time></trkpt><trkpt lat="42.301556563465155" lon="14.456767328310146"><ele>11.0</ele><time>2026-04-06T06:42:03.999Z</time></trkpt><trkpt lat="42.30151406659613" lon="14.456837827240514"><ele>11.0</ele><time>2026-04-06T06:42:04.999Z</time></trkpt><trkpt lat="42.301470679184305" lon="14.456906845520866"><ele>11.0</ele><time>2026-04-06T06:42:05.999Z</time></trkpt><trkpt lat="42.30142873044674" lon="14.45697634112294"><ele>11.0</ele><time>2026-04-06T06:42:06.999Z</time></trkpt><trkpt lat="42.30138799375391" lon="14.457047476775243"><ele>11.0</ele><time>2026-04-06T06:42:07.999Z</time></trkpt><trkpt lat="42.30134693929972" lon="14.457118402514562"><ele>11.0</ele><time>2026-04-06T06:42:08.999Z</time></trkpt><trkpt lat="42.30130537846979" lon="14.457191426927865"><ele>11.0</ele><time>2026-04-06T06:42:09.999Z</time></trkpt><trkpt lat="42.30126301443492" lon="14.457263399988236"><ele>11.571428571428571</ele><time>2026-04-06T06:42:10.999Z</time></trkpt><trkpt lat="42.30122131743733" lon="14.457332569294964"><ele>12.142857142857142</ele><time>2026-04-06T06:42:11.999Z</time></trkpt><trkpt lat="42.30118167977038" lon="14.457404684031673"><ele>12.714285714285715</ele><time>2026-04-06T06:42:12.999Z</time></trkpt><trkpt lat="42.30113703628762" lon="14.457473954217152"><ele>13.285714285714285</ele><time>2026-04-06T06:42:13.999Z</time></trkpt><trkpt lat="42.301097239627076" lon="14.457544923352264"><ele>13.857142857142856</ele><time>2026-04-06T06:42:14.999Z</time></trkpt><trkpt lat="42.301055537114415" lon="14.45761544551105"><ele>14.428571428571429</ele><time>2026-04-06T06:42:15.999Z</time></trkpt><trkpt lat="42.301016323666474" lon="14.457688175581204"><ele>15.0</ele><time>2026-04-06T06:42:16.999Z</time></trkpt><trkpt lat="42.300975359860125" lon="14.457758898519494"><ele>15.0</ele><time>2026-04-06T06:42:17.999Z</time></trkpt><trkpt lat="42.300933728826024" lon="14.45782794567127"><ele>15.0</ele><time>2026-04-06T06:42:18.999Z</time></trkpt><trkpt lat="42.30089038898809" lon="14.457896312634546"><ele>15.0</ele><time>2026-04-06T06:42:19.999Z</time></trkpt><trkpt lat="42.300850039416844" lon="14.45796583321557"><ele>15.0</ele><time>2026-04-06T06:42:20.999Z</time></trkpt><trkpt lat="42.30081060125227" lon="14.458038239296764"><ele>15.0</ele><time>2026-04-06T06:42:21.999Z</time></trkpt><trkpt lat="42.30077077382359" lon="14.458111040678371"><ele>15.0</ele><time>2026-04-06T06:42:22.999Z</time></trkpt><trkpt lat="42.300726671407496" lon="14.458178862748463"><ele>15.0</ele><time>2026-04-06T06:42:23.999Z</time></trkpt><trkpt lat="42.30068413137803" lon="14.458249898155238"><ele>16.42857142857143</ele><time>2026-04-06T06:42:24.999Z</time></trkpt><trkpt lat="42.300642336818335" lon="14.458321172162105"><ele>17.857142857142858</ele><time>2026-04-06T06:42:25.999Z</time></trkpt><trkpt lat="42.30060156514071" lon="14.458391637272838"><ele>19.285714285714285</ele><time>2026-04-06T06:42:26.999Z</time></trkpt><trkpt lat="42.30056041623461" lon="14.458462877708222"><ele>20.714285714285715</ele><time>2026-04-06T06:42:27.999Z</time></trkpt><trkpt lat="42.30051812496125" lon="14.45853073699582"><ele>22.142857142857142</ele><time>2026-04-06T06:42:28.999Z</time></trkpt><trkpt lat="42.30047584562966" lon="14.45859817795886"><ele>23.571428571428573</ele><time>2026-04-06T06:42:29.999Z</time></trkpt><trkpt lat="42.30043382095833" lon="14.45866624921402"><ele>25.0</ele><time>2026-04-06T06:42:30.999Z</time></trkpt><trkpt lat="42.30039355923882" lon="14.45873670802292"><ele>23.28571428571429</ele><time>2026-04-06T06:42:31.999Z</time></trkpt><trkpt lat="42.30035171733546" lon="14.458805632288115"><ele>21.571428571428573</ele><time>2026-04-06T06:42:32.998Z</time></trkpt><trkpt lat="42.30030954101458" lon="14.458875075392823"><ele>19.857142857142858</ele><time>2026-04-06T06:42:33.998Z</time></trkpt><trkpt lat="42.30026746131318" lon="14.4589459826979"><ele>18.142857142857146</ele><time>2026-04-06T06:42:34.998Z</time></trkpt><trkpt lat="42.300224649535934" lon="14.45901629366426"><ele>16.42857142857143</ele><time>2026-04-06T06:42:35.998Z</time></trkpt><trkpt lat="42.30018225070451" lon="14.459085930970694"><ele>14.714285714285714</ele><time>2026-04-06T06:42:36.998Z</time></trkpt><trkpt lat="42.30013980651565" lon="14.459154250554857"><ele>13.0</ele><time>2026-04-06T06:42:37.998Z</time></trkpt><trkpt lat="42.300099391046274" lon="14.45922437128821"><ele>12.999999999999998</ele><time>2026-04-06T06:42:38.998Z</time></trkpt><trkpt lat="42.30005898019975" lon="14.459293047921491"><ele>13.0</ele><time>2026-04-06T06:42:39.998Z</time></trkpt><trkpt lat="42.300018521303805" lon="14.459359725820585"><ele>13.0</ele><time>2026-04-06T06:42:40.998Z</time></trkpt><trkpt lat="42.29997749916989" lon="14.459425075418341"><ele>13.0</ele><time>2026-04-06T06:42:41.998Z</time></trkpt><trkpt lat="42.299937156925544" lon="14.459491114671385"><ele>12.999999999999998</ele><time>2026-04-06T06:42:42.998Z</time></trkpt><trkpt lat="42.299855358611914" lon="14.459605007331284"><ele>13.0</ele><time>2026-04-06T06:42:44.998Z</time></trkpt><trkpt lat="42.29978589382344" lon="14.45969140527776"><ele>17.6</ele><time>2026-04-06T06:42:46.998Z</time></trkpt><trkpt lat="42.299741241731546" lon="14.459760215984177"><ele>22.200000000000003</ele><time>2026-04-06T06:42:47.998Z</time></trkpt><trkpt lat="42.29966960406342" lon="14.459864913468053"><ele>26.8</ele><time>2026-04-06T06:42:50Z</time></trkpt><trkpt lat="42.299594918449586" lon="14.459967132943879"><ele>31.400000000000002</ele><time>2026-04-06T06:42:52Z</time></trkpt><trkpt lat="42.29951858335864" lon="14.460077441535226"><ele>36.0</ele><time>2026-04-06T06:42:54.074Z</time></trkpt><trkpt lat="42.299447458626084" lon="14.46017908616801"><ele>36.0</ele><time>2026-04-06T06:42:56.042Z</time></trkpt><trkpt lat="42.29937994326851" lon="14.460284776194365"><ele>36.0</ele><time>2026-04-06T06:42:58.036Z</time></trkpt><trkpt lat="42.29872910953313" lon="14.461641807491793"><ele>32.5</ele><time>2026-04-06T06:43:16.029Z</time></trkpt><trkpt lat="42.29855478762926" lon="14.461806833081779"><ele>29.0</ele><time>2026-04-06T06:43:17Z</time></trkpt><trkpt lat="42.29848790178788" lon="14.46189540975016"><ele>25.5</ele><time>2026-04-06T06:43:19Z</time></trkpt><trkpt lat="42.298411870240656" lon="14.462022862564636"><ele>22.0</ele><time>2026-04-06T06:43:21Z</time></trkpt><trkpt lat="42.29837533367617" lon="14.462098867235975"><ele>22.75</ele><time>2026-04-06T06:43:22Z</time></trkpt><trkpt lat="42.298337566817004" lon="14.462170271481286"><ele>23.5</ele><time>2026-04-06T06:43:23Z</time></trkpt><trkpt lat="42.29829607522669" lon="14.462237529826973"><ele>24.25</ele><time>2026-04-06T06:43:24Z</time></trkpt><trkpt lat="42.29825820606942" lon="14.4623057546064"><ele>25.0</ele><time>2026-04-06T06:43:25Z</time></trkpt><trkpt lat="42.2982172978657" lon="14.462371111458253"><ele>25.75</ele><time>2026-04-06T06:43:26Z</time></trkpt><trkpt lat="42.29817745701204" lon="14.462438437680959"><ele>26.5</ele><time>2026-04-06T06:43:27Z</time></trkpt><trkpt lat="42.298136350307374" lon="14.462504532870074"><ele>27.25</ele><time>2026-04-06T06:43:28Z</time></trkpt><trkpt lat="42.298095783333544" lon="14.462573643941795"><ele>28.0</ele><time>2026-04-06T06:43:29Z</time></trkpt><trkpt lat="42.298057452465756" lon="14.462641528747664"><ele>28.0</ele><time>2026-04-06T06:43:30Z</time></trkpt><trkpt lat="42.298016644486616" lon="14.462707423346854"><ele>27.999999999999996</ele><time>2026-04-06T06:43:30.999Z</time></trkpt><trkpt lat="42.29797507390868" lon="14.462774088395365"><ele>27.999999999999996</ele><time>2026-04-06T06:43:31.999Z</time></trkpt><trkpt lat="42.297895990531735" lon="14.462903035264782"><ele>28.0</ele><time>2026-04-06T06:43:33.999Z</time></trkpt><trkpt lat="42.29781799827778" lon="14.463035542406532"><ele>28.0</ele><time>2026-04-06T06:43:35.999Z</time></trkpt><trkpt lat="42.29774041351578" lon="14.463164336770987"><ele>24.5</ele><time>2026-04-06T06:43:37.999Z</time></trkpt><trkpt lat="42.29766329465391" lon="14.463293156868474"><ele>21.0</ele><time>2026-04-06T06:43:39.999Z</time></trkpt><trkpt lat="42.29758479328471" lon="14.463424248783506"><ele>17.5</ele><time>2026-04-06T06:43:41.999Z</time></trkpt><trkpt lat="42.29750598120834" lon="14.463551889932214"><ele>14.0</ele><time>2026-04-06T06:43:43.999Z</time></trkpt><trkpt lat="42.297429368303106" lon="14.463682530208194"><ele>15.75</ele><time>2026-04-06T06:43:45.999Z</time></trkpt><trkpt lat="42.297350861242435" lon="14.463808190472292"><ele>17.5</ele><time>2026-04-06T06:43:47.999Z</time></trkpt><trkpt lat="42.297274225480265" lon="14.46393728018638"><ele>19.25</ele><time>2026-04-06T06:43:49.999Z</time></trkpt><trkpt lat="42.297197895634035" lon="14.464067693810028"><ele>21.0</ele><time>2026-04-06T06:43:51.999Z</time></trkpt><trkpt lat="42.29711931886129" lon="14.464198342292848"><ele>21.0</ele><time>2026-04-06T06:43:53.999Z</time></trkpt><trkpt lat="42.29703959023183" lon="14.464324635061365"><ele>21.0</ele><time>2026-04-06T06:43:55.999Z</time></trkpt><trkpt lat="42.29696398754359" lon="14.464456367351447"><ele>21.0</ele><time>2026-04-06T06:43:57.999Z</time></trkpt><trkpt lat="42.29688810823493" lon="14.464587902580806"><ele>21.0</ele><time>2026-04-06T06:43:59.999Z</time></trkpt><trkpt lat="42.296811002697865" lon="14.464719719619405"><ele>19.6</ele><time>2026-04-06T06:44:01.999Z</time></trkpt><trkpt lat="42.296734986755716" lon="14.464845778484234"><ele>18.200000000000003</ele><time>2026-04-06T06:44:03.999Z</time></trkpt><trkpt lat="42.296663584551204" lon="14.46497030786547"><ele>16.799999999999997</ele><time>2026-04-06T06:44:05.999Z</time></trkpt><trkpt lat="42.29660767250452" lon="14.465012096025163"><ele>15.399999999999999</ele><time>2026-04-06T06:44:11.999Z</time></trkpt><trkpt lat="42.29663384675709" lon="14.465093290480185"><ele>14.0</ele><time>2026-04-06T06:44:21.03Z</time></trkpt><trkpt lat="42.29556793837879" lon="14.466638345859675"><ele>14.6</ele><time>2026-04-06T06:44:34.998Z</time></trkpt><trkpt lat="42.29558112188953" lon="14.4668967100997"><ele>15.2</ele><time>2026-04-06T06:44:35.998Z</time></trkpt><trkpt lat="42.295532137046365" lon="14.466959976193442"><ele>15.799999999999999</ele><time>2026-04-06T06:44:36.998Z</time></trkpt><trkpt lat="42.29546339809744" lon="14.46708759719801"><ele>16.4</ele><time>2026-04-06T06:44:38.998Z</time></trkpt><trkpt lat="42.2954293507248" lon="14.467159779065776"><ele>17.0</ele><time>2026-04-06T06:44:39.998Z</time></trkpt><trkpt lat="42.29536151564582" lon="14.467295756055776"><ele>17.0</ele><time>2026-04-06T06:44:41.998Z</time></trkpt><trkpt lat="42.29530148275749" lon="14.467430118619136"><ele>17.0</ele><time>2026-04-06T06:44:43.998Z</time></trkpt><trkpt lat="42.295272428307136" lon="14.467506687871145"><ele>17.0</ele><time>2026-04-06T06:44:44.998Z</time></trkpt><trkpt lat="42.295213804169286" lon="14.467653788832504"><ele>17.0</ele><time>2026-04-06T06:44:46.998Z</time></trkpt><trkpt lat="42.29515193773257" lon="14.46779315343756"><ele>17.0</ele><time>2026-04-06T06:44:48.998Z</time></trkpt><trkpt lat="42.295090867560695" lon="14.467929218494582"><ele>14.25</ele><time>2026-04-06T06:44:50.998Z</time></trkpt><trkpt lat="42.29503558427445" lon="14.468063227817174"><ele>11.5</ele><time>2026-04-06T06:44:52.998Z</time></trkpt><trkpt lat="42.29497595329012" lon="14.468197390640283"><ele>8.75</ele><time>2026-04-06T06:44:55Z</time></trkpt><trkpt lat="42.29491774279611" lon="14.468329950800861"><ele>6.0</ele><time>2026-04-06T06:44:57Z</time></trkpt><trkpt lat="42.294857635679094" lon="14.468461152304371"><ele>6.0</ele><time>2026-04-06T06:44:59Z</time></trkpt><trkpt lat="42.29480029341682" lon="14.46859085567878"><ele>6.0</ele><time>2026-04-06T06:45:01Z</time></trkpt><trkpt lat="42.29473557436999" lon="14.468715296038255"><ele>6.0</ele><time>2026-04-06T06:45:03Z</time></trkpt><trkpt lat="42.29467826332239" lon="14.468845547063799"><ele>6.0</ele><time>2026-04-06T06:45:05Z</time></trkpt><trkpt lat="42.29461787512782" lon="14.46897322050795"><ele>6.0</ele><time>2026-04-06T06:45:07Z</time></trkpt><trkpt lat="42.294561254764574" lon="14.469100714173889"><ele>6.4</ele><time>2026-04-06T06:45:09Z</time></trkpt><trkpt lat="42.29450016374677" lon="14.469224721955275"><ele>6.8</ele><time>2026-04-06T06:45:11Z</time></trkpt><trkpt lat="42.294440873607435" lon="14.469350126985875"><ele>7.200000000000001</ele><time>2026-04-06T06:45:13Z</time></trkpt><trkpt lat="42.294378745657255" lon="14.469475360337363"><ele>7.6000000000000005</ele><time>2026-04-06T06:45:15Z</time></trkpt><trkpt lat="42.294311130198466" lon="14.469591138208544"><ele>8.0</ele><time>2026-04-06T06:45:17Z</time></trkpt><trkpt lat="42.29424443442964" lon="14.469698068457971"><ele>8.0</ele><time>2026-04-06T06:45:19Z</time></trkpt><trkpt lat="42.294174282126946" lon="14.469805292733046"><ele>8.0</ele><time>2026-04-06T06:45:21Z</time></trkpt><trkpt lat="42.29410170997381" lon="14.469916375431662"><ele>8.0</ele><time>2026-04-06T06:45:23Z</time></trkpt><trkpt lat="42.29402911745406" lon="14.470029159101571"><ele>8.0</ele><time>2026-04-06T06:45:25Z</time></trkpt><trkpt lat="42.29395615814903" lon="14.470143022987703"><ele>8.0</ele><time>2026-04-06T06:45:27Z</time></trkpt><trkpt lat="42.29388360438029" lon="14.470255807356622"><ele>9.0</ele><time>2026-04-06T06:45:29Z</time></trkpt><trkpt lat="42.29381115972415" lon="14.470369906835431"><ele>10.0</ele><time>2026-04-06T06:45:31Z</time></trkpt><trkpt lat="42.293736272047056" lon="14.47048130855556"><ele>11.0</ele><time>2026-04-06T06:45:33Z</time></trkpt><trkpt lat="42.29366312558971" lon="14.470593002607266"><ele>12.0</ele><time>2026-04-06T06:45:35Z</time></trkpt><trkpt lat="42.293590298891836" lon="14.470707917282507"><ele>13.0</ele><time>2026-04-06T06:45:37Z</time></trkpt><trkpt lat="42.293516044313435" lon="14.470823567168553"><ele>13.0</ele><time>2026-04-06T06:45:39Z</time></trkpt><trkpt lat="42.293441440813986" lon="14.470936420506563"><ele>13.0</ele><time>2026-04-06T06:45:40.999Z</time></trkpt><trkpt lat="42.29336838412088" lon="14.471053588590463"><ele>13.0</ele><time>2026-04-06T06:45:42.999Z</time></trkpt><trkpt lat="42.29329554700086" lon="14.471167923245853"><ele>13.0</ele><time>2026-04-06T06:45:44.999Z</time></trkpt><trkpt lat="42.293218916454464" lon="14.471271041306316"><ele>13.0</ele><time>2026-04-06T06:45:46.999Z</time></trkpt><trkpt lat="42.29315620123585" lon="14.471356984484958"><ele>14.499999999999998</ele><time>2026-04-06T06:45:48.999Z</time></trkpt><trkpt lat="42.29311642531148" lon="14.471452680424145"><ele>16.0</ele><time>2026-04-06T06:45:50.999Z</time></trkpt><trkpt lat="42.29306308422765" lon="14.471533548693063"><ele>17.5</ele><time>2026-04-06T06:45:52.999Z</time></trkpt><trkpt lat="42.29300753589267" lon="14.471604773705408"><ele>19.0</ele><time>2026-04-06T06:45:54.999Z</time></trkpt><trkpt lat="42.29295787701048" lon="14.471672862897194"><ele>20.5</ele><time>2026-04-06T06:45:56.999Z</time></trkpt><trkpt lat="42.292889209011264" lon="14.47178146413551"><ele>22.0</ele><time>2026-04-06T06:45:58.999Z</time></trkpt><trkpt lat="42.29282669533052" lon="14.47186281572592"><ele>22.0</ele><time>2026-04-06T06:46:01.048Z</time></trkpt><trkpt lat="42.292767804262134" lon="14.471941146729861"><ele>22.0</ele><time>2026-04-06T06:46:03.034Z</time></trkpt><trkpt lat="42.29262481442917" lon="14.472131794671638"><ele>22.0</ele><time>2026-04-06T06:46:05.031Z</time></trkpt><trkpt lat="42.292506110787656" lon="14.472168508917829"><ele>22.0</ele><time>2026-04-06T06:46:06.037Z</time></trkpt><trkpt lat="42.29242654192678" lon="14.47218626574566"><ele>20.8</ele><time>2026-04-06T06:46:06.999Z</time></trkpt><trkpt lat="42.29242478889907" lon="14.472288865790492"><ele>19.6</ele><time>2026-04-06T06:46:07.999Z</time></trkpt><trkpt lat="42.292340254809645" lon="14.472373251929087"><ele>18.400000000000002</ele><time>2026-04-06T06:46:09.999Z</time></trkpt><trkpt lat="42.29228779848352" lon="14.472428761099186"><ele>17.200000000000003</ele><time>2026-04-06T06:46:10.999Z</time></trkpt><trkpt lat="42.292195169916106" lon="14.472531498167648"><ele>16.0</ele><time>2026-04-06T06:46:12.999Z</time></trkpt><trkpt lat="42.29210143892819" lon="14.472633498427438"><ele>16.0</ele><time>2026-04-06T06:46:14.999Z</time></trkpt><trkpt lat="42.29200892205761" lon="14.47273479612565"><ele>16.0</ele><time>2026-04-06T06:46:16.999Z</time></trkpt><trkpt lat="42.29191332245687" lon="14.472839023555252"><ele>16.0</ele><time>2026-04-06T06:46:18.999Z</time></trkpt><trkpt lat="42.291817416054656" lon="14.472937568463793"><ele>16.0</ele><time>2026-04-06T06:46:20.999Z</time></trkpt><trkpt lat="42.29172552534899" lon="14.47304338650155"><ele>16.0</ele><time>2026-04-06T06:46:22.999Z</time></trkpt><trkpt lat="42.291633184768955" lon="14.473150930849348"><ele>16.0</ele><time>2026-04-06T06:46:24.999Z</time></trkpt><trkpt lat="42.29153843174989" lon="14.473254767384972"><ele>16.0</ele><time>2026-04-06T06:46:26.999Z</time></trkpt><trkpt lat="42.29145101095248" lon="14.473363330992294"><ele>16.0</ele><time>2026-04-06T06:46:28.999Z</time></trkpt><trkpt lat="42.2913659872816" lon="14.473475497153244"><ele>16.0</ele><time>2026-04-06T06:46:30.999Z</time></trkpt><trkpt lat="42.29127952543977" lon="14.473591278904749"><ele>16.0</ele><time>2026-04-06T06:46:32.999Z</time></trkpt><trkpt lat="42.29119414945514" lon="14.473708055404874"><ele>16.0</ele><time>2026-04-06T06:46:34.999Z</time></trkpt><trkpt lat="42.29110972550481" lon="14.473825895889076"><ele>16.0</ele><time>2026-04-06T06:46:36.999Z</time></trkpt><trkpt lat="42.291024834237035" lon="14.473943765735882"><ele>13.75</ele><time>2026-04-06T06:46:38.998Z</time></trkpt><trkpt lat="42.29094298666743" lon="14.47406844827077"><ele>11.5</ele><time>2026-04-06T06:46:40.998Z</time></trkpt><trkpt lat="42.290863303715426" lon="14.474196745786966"><ele>9.25</ele><time>2026-04-06T06:46:42.998Z</time></trkpt><trkpt lat="42.29077960504695" lon="14.474322627032015"><ele>7.0</ele><time>2026-04-06T06:46:44.998Z</time></trkpt><trkpt lat="42.29070958075709" lon="14.474456686793348"><ele>7.0</ele><time>2026-04-06T06:46:46.998Z</time></trkpt><trkpt lat="42.29063186351611" lon="14.474584904345043"><ele>7.0</ele><time>2026-04-06T06:46:48.998Z</time></trkpt><trkpt lat="42.29055658883934" lon="14.474703652705085"><ele>7.0</ele><time>2026-04-06T06:46:50.998Z</time></trkpt><trkpt lat="42.29048701075396" lon="14.474826529047183"><ele>7.0</ele><time>2026-04-06T06:46:52.998Z</time></trkpt><trkpt lat="42.29041280692607" lon="14.474950239441819"><ele>6.75</ele><time>2026-04-06T06:46:54.998Z</time></trkpt><trkpt lat="42.29034169244403" lon="14.475077215752783"><ele>6.5</ele><time>2026-04-06T06:46:56.998Z</time></trkpt><trkpt lat="42.29026873604468" lon="14.475202658116018"><ele>6.25</ele><time>2026-04-06T06:46:58.998Z</time></trkpt><trkpt lat="42.2901964349936" lon="14.475328533388742"><ele>6.0</ele><time>2026-04-06T06:47:01Z</time></trkpt><trkpt lat="42.29012322589609" lon="14.475458160268479"><ele>6.0</ele><time>2026-04-06T06:47:03Z</time></trkpt><trkpt lat="42.290047214141666" lon="14.475587576063761"><ele>6.0</ele><time>2026-04-06T06:47:05Z</time></trkpt><trkpt lat="42.289974595431424" lon="14.475723984785944"><ele>6.0</ele><time>2026-04-06T06:47:07Z</time></trkpt><trkpt lat="42.289900318175796" lon="14.47585425995546"><ele>6.0</ele><time>2026-04-06T06:47:09Z</time></trkpt><trkpt lat="42.28982520079097" lon="14.475982270144947"><ele>7.25</ele><time>2026-04-06T06:47:11Z</time></trkpt><trkpt lat="42.28975196263696" lon="14.476112277309339"><ele>8.5</ele><time>2026-04-06T06:47:13Z</time></trkpt><trkpt lat="42.28968123908787" lon="14.476245121121806"><ele>9.75</ele><time>2026-04-06T06:47:15Z</time></trkpt><trkpt lat="42.28960778423074" lon="14.47637339860993"><ele>11.0</ele><time>2026-04-06T06:47:17Z</time></trkpt><trkpt lat="42.28953433582758" lon="14.476497662587526"><ele>11.0</ele><time>2026-04-06T06:47:19Z</time></trkpt><trkpt lat="42.28946469992583" lon="14.476628038737957"><ele>11.0</ele><time>2026-04-06T06:47:21Z</time></trkpt><trkpt lat="42.28939037778514" lon="14.476756226289497"><ele>11.0</ele><time>2026-04-06T06:47:23Z</time></trkpt><trkpt lat="42.28931541526501" lon="14.476880772038855"><ele>11.0</ele><time>2026-04-06T06:47:25Z</time></trkpt><trkpt lat="42.28924375957956" lon="14.477007139973642"><ele>9.25</ele><time>2026-04-06T06:47:27Z</time></trkpt><trkpt lat="42.28917305670175" lon="14.477135535399446"><ele>7.5</ele><time>2026-04-06T06:47:29Z</time></trkpt><trkpt lat="42.2890986210305" lon="14.477261208767766"><ele>5.75</ele><time>2026-04-06T06:47:31Z</time></trkpt><trkpt lat="42.28902614424273" lon="14.477390408387652"><ele>4.0</ele><time>2026-04-06T06:47:33Z</time></trkpt><trkpt lat="42.288955627054506" lon="14.477519314766548"><ele>5.25</ele><time>2026-04-06T06:47:35Z</time></trkpt><trkpt lat="42.28888291015351" lon="14.477645884599793"><ele>6.5</ele><time>2026-04-06T06:47:37Z</time></trkpt><trkpt lat="42.28880550043618" lon="14.477767280539807"><ele>7.75</ele><time>2026-04-06T06:47:39Z</time></trkpt><trkpt lat="42.28873480284177" lon="14.477896462200873"><ele>9.0</ele><time>2026-04-06T06:47:41Z</time></trkpt><trkpt lat="42.28866255334773" lon="14.478027344855992"><ele>9.0</ele><time>2026-04-06T06:47:42.999Z</time></trkpt><trkpt lat="42.28858995806224" lon="14.478154222340482"><ele>9.0</ele><time>2026-04-06T06:47:44.999Z</time></trkpt><trkpt lat="42.28851426269771" lon="14.478280535670306"><ele>9.0</ele><time>2026-04-06T06:47:46.999Z</time></trkpt><trkpt lat="42.288443386345534" lon="14.478410721285947"><ele>9.0</ele><time>2026-04-06T06:47:48.999Z</time></trkpt><trkpt lat="42.288371959540065" lon="14.47853564100653"><ele>9.0</ele><time>2026-04-06T06:47:50.999Z</time></trkpt><trkpt lat="42.288298397804326" lon="14.478662207497308"><ele>9.0</ele><time>2026-04-06T06:47:52.999Z</time></trkpt><trkpt lat="42.288225761401364" lon="14.478790017413584"><ele>9.0</ele><time>2026-04-06T06:47:54.999Z</time></trkpt><trkpt lat="42.288156356260195" lon="14.478919771115244"><ele>9.0</ele><time>2026-04-06T06:47:56.999Z</time></trkpt><trkpt lat="42.288084572853506" lon="14.479049925752307"><ele>10.25</ele><time>2026-04-06T06:47:58.999Z</time></trkpt><trkpt lat="42.28801454544709" lon="14.47918067226554"><ele>11.5</ele><time>2026-04-06T06:48:00.999Z</time></trkpt><trkpt lat="42.28794283988722" lon="14.479309818719264"><ele>12.75</ele><time>2026-04-06T06:48:02.999Z</time></trkpt><trkpt lat="42.287874491678814" lon="14.47944206452542"><ele>14.0</ele><time>2026-04-06T06:48:04.999Z</time></trkpt><trkpt lat="42.28780451160276" lon="14.479572891293879"><ele>13.0</ele><time>2026-04-06T06:48:06.999Z</time></trkpt><trkpt lat="42.28774186742872" lon="14.479703283369254"><ele>11.999999999999998</ele><time>2026-04-06T06:48:08.999Z</time></trkpt><trkpt lat="42.28767905771331" lon="14.479827288030188"><ele>11.0</ele><time>2026-04-06T06:48:10.999Z</time></trkpt><trkpt lat="42.287621253852805" lon="14.479953479940127"><ele>10.0</ele><time>2026-04-06T06:48:12.999Z</time></trkpt><trkpt lat="42.287562241245034" lon="14.480077425608735"><ele>9.0</ele><time>2026-04-06T06:48:14.999Z</time></trkpt><trkpt lat="42.287502248025305" lon="14.480204679320453"><ele>9.0</ele><time>2026-04-06T06:48:16.999Z</time></trkpt><trkpt lat="42.287441839399754" lon="14.480331949154188"><ele>9.0</ele><time>2026-04-06T06:48:18.999Z</time></trkpt><trkpt lat="42.28738317171268" lon="14.480472263074432"><ele>9.0</ele><time>2026-04-06T06:48:20.999Z</time></trkpt><trkpt lat="42.28732290588588" lon="14.480603514988443"><ele>9.0</ele><time>2026-04-06T06:48:22.999Z</time></trkpt><trkpt lat="42.287266793702265" lon="14.48073692122306"><ele>9.0</ele><time>2026-04-06T06:48:24.999Z</time></trkpt><trkpt lat="42.287211921733864" lon="14.48087108312035"><ele>9.0</ele><time>2026-04-06T06:48:26.999Z</time></trkpt><trkpt lat="42.287161266603796" lon="14.4810058632104"><ele>9.0</ele><time>2026-04-06T06:48:28.999Z</time></trkpt><trkpt lat="42.28710483829445" lon="14.481132772788804"><ele>9.0</ele><time>2026-04-06T06:48:30.999Z</time></trkpt><trkpt lat="42.28705865756746" lon="14.481250334980878"><ele>9.0</ele><time>2026-04-06T06:48:32.999Z</time></trkpt><trkpt lat="42.28701755607469" lon="14.481368213274335"><ele>9.0</ele><time>2026-04-06T06:48:34.999Z</time></trkpt><trkpt lat="42.286967969880905" lon="14.481488033512537"><ele>9.0</ele><time>2026-04-06T06:48:36.999Z</time></trkpt><trkpt lat="42.28691995007286" lon="14.481612408268012"><ele>9.0</ele><time>2026-04-06T06:48:38.999Z</time></trkpt><trkpt lat="42.2868710049301" lon="14.481740547881643"><ele>9.0</ele><time>2026-04-06T06:48:40.998Z</time></trkpt><trkpt lat="42.28681941494137" lon="14.481875104748969"><ele>9.0</ele><time>2026-04-06T06:48:42.998Z</time></trkpt><trkpt lat="42.286762112815396" lon="14.482009489753233"><ele>8.0</ele><time>2026-04-06T06:48:44.998Z</time></trkpt><trkpt lat="42.286697436007266" lon="14.48213923193876"><ele>7.0</ele><time>2026-04-06T06:48:46.998Z</time></trkpt><trkpt lat="42.28663463095243" lon="14.482271052103373"><ele>6.0</ele><time>2026-04-06T06:48:48.998Z</time></trkpt><trkpt lat="42.286568845908306" lon="14.482396564815353"><ele>5.0</ele><time>2026-04-06T06:48:50.998Z</time></trkpt><trkpt lat="42.28650344371443" lon="14.482523247593484"><ele>5.0</ele><time>2026-04-06T06:48:52.998Z</time></trkpt><trkpt lat="42.28643800758349" lon="14.482645505870769"><ele>5.0</ele><time>2026-04-06T06:48:54.998Z</time></trkpt><trkpt lat="42.28636429178188" lon="14.482766129380558"><ele>5.0</ele><time>2026-04-06T06:48:56.998Z</time></trkpt><trkpt lat="42.28628571883277" lon="14.48288326128234"><ele>5.0</ele><time>2026-04-06T06:48:58.998Z</time></trkpt><trkpt lat="42.28620704550998" lon="14.482997779148345"><ele>5.75</ele><time>2026-04-06T06:49:00.998Z</time></trkpt><trkpt lat="42.28612615525041" lon="14.483109654903252"><ele>6.5</ele><time>2026-04-06T06:49:02.998Z</time></trkpt><trkpt lat="42.28604270571457" lon="14.483216611941831"><ele>7.25</ele><time>2026-04-06T06:49:04.998Z</time></trkpt><trkpt lat="42.28595636908564" lon="14.483321795134414"><ele>8.0</ele><time>2026-04-06T06:49:07Z</time></trkpt><trkpt lat="42.285869821529346" lon="14.483421400934418"><ele>8.0</ele><time>2026-04-06T06:49:09Z</time></trkpt><trkpt lat="42.28578356280456" lon="14.483521265084137"><ele>8.0</ele><time>2026-04-06T06:49:11Z</time></trkpt><trkpt lat="42.28569143192303" lon="14.483612064068511"><ele>8.0</ele><time>2026-04-06T06:49:13Z</time></trkpt><trkpt lat="42.28559876741012" lon="14.483704437369616"><ele>8.0</ele><time>2026-04-06T06:49:15Z</time></trkpt><trkpt lat="42.28550747448047" lon="14.483801880681845"><ele>7.75</ele><time>2026-04-06T06:49:17Z</time></trkpt><trkpt lat="42.285416368980066" lon="14.483898550117502"><ele>7.5</ele><time>2026-04-06T06:49:19Z</time></trkpt><trkpt lat="42.28532166557873" lon="14.48399033525966"><ele>7.25</ele><time>2026-04-06T06:49:21Z</time></trkpt><trkpt lat="42.2852255884705" lon="14.48408464621362"><ele>7.0</ele><time>2026-04-06T06:49:23Z</time></trkpt><trkpt lat="42.28512762829852" lon="14.48417516452087"><ele>7.0</ele><time>2026-04-06T06:49:25Z</time></trkpt><trkpt lat="42.28503075854172" lon="14.48425975731113"><ele>7.0</ele><time>2026-04-06T06:49:27Z</time></trkpt><trkpt lat="42.284937179442146" lon="14.484346815179933"><ele>7.0</ele><time>2026-04-06T06:49:29Z</time></trkpt><trkpt lat="42.28484228248698" lon="14.484431768391874"><ele>7.0</ele><time>2026-04-06T06:49:31Z</time></trkpt><trkpt lat="42.28474632708453" lon="14.484517761233635"><ele>7.5</ele><time>2026-04-06T06:49:33Z</time></trkpt><trkpt lat="42.28464996934147" lon="14.48460158850266"><ele>8.0</ele><time>2026-04-06T06:49:35Z</time></trkpt><trkpt lat="42.28455864984217" lon="14.484692606549066"><ele>8.5</ele><time>2026-04-06T06:49:37Z</time></trkpt><trkpt lat="42.284465266148494" lon="14.484784604018568"><ele>9.0</ele><time>2026-04-06T06:49:39Z</time></trkpt><trkpt lat="42.284373931036704" lon="14.484873521293894"><ele>9.0</ele><time>2026-04-06T06:49:41Z</time></trkpt><trkpt lat="42.2842845794315" lon="14.484962376512392"><ele>9.0</ele><time>2026-04-06T06:49:42.999Z</time></trkpt><trkpt lat="42.28419967597946" lon="14.4850584692329"><ele>9.0</ele><time>2026-04-06T06:49:44.999Z</time></trkpt><trkpt lat="42.28411334084287" lon="14.485151237391667"><ele>9.0</ele><time>2026-04-06T06:49:46.999Z</time></trkpt><trkpt lat="42.28402877267066" lon="14.485248566782325"><ele>9.0</ele><time>2026-04-06T06:49:48.999Z</time></trkpt><trkpt lat="42.28394540989231" lon="14.485349118026038"><ele>9.25</ele><time>2026-04-06T06:49:50.999Z</time></trkpt><trkpt lat="42.283862191855015" lon="14.4854502284918"><ele>9.5</ele><time>2026-04-06T06:49:52.999Z</time></trkpt><trkpt lat="42.28377844480696" lon="14.485549557038826"><ele>9.75</ele><time>2026-04-06T06:49:54.999Z</time></trkpt><trkpt lat="42.283693204731215" lon="14.485655733200396"><ele>10.0</ele><time>2026-04-06T06:49:56.999Z</time></trkpt><trkpt lat="42.28360752820256" lon="14.485758236084603"><ele>10.0</ele><time>2026-04-06T06:49:58.999Z</time></trkpt><trkpt lat="42.28352254221731" lon="14.485860762922659"><ele>10.0</ele><time>2026-04-06T06:50:00.999Z</time></trkpt><trkpt lat="42.283440800678754" lon="14.48596434724758"><ele>10.0</ele><time>2026-04-06T06:50:02.999Z</time></trkpt><trkpt lat="42.28335513408866" lon="14.486066768923463"><ele>10.0</ele><time>2026-04-06T06:50:04.999Z</time></trkpt><trkpt lat="42.283268248848124" lon="14.486170198355643"><ele>11.5</ele><time>2026-04-06T06:50:06.999Z</time></trkpt><trkpt lat="42.283186220468096" lon="14.486280657356966"><ele>13.0</ele><time>2026-04-06T06:50:08.999Z</time></trkpt><trkpt lat="42.28310333700578" lon="14.486389230525543"><ele>14.5</ele><time>2026-04-06T06:50:10.999Z</time></trkpt><trkpt lat="42.283020127374314" lon="14.486500736454117"><ele>16.0</ele><time>2026-04-06T06:50:12.999Z</time></trkpt><trkpt lat="42.28294347932919" lon="14.48662091324434"><ele>16.0</ele><time>2026-04-06T06:50:14.999Z</time></trkpt><trkpt lat="42.28286934339191" lon="14.486745044952475"><ele>16.0</ele><time>2026-04-06T06:50:16.999Z</time></trkpt><trkpt lat="42.282794317582145" lon="14.48687155012703"><ele>16.0</ele><time>2026-04-06T06:50:18.999Z</time></trkpt><trkpt lat="42.28272462252506" lon="14.487005018687798"><ele>16.0</ele><time>2026-04-06T06:50:20.999Z</time></trkpt><trkpt lat="42.28268620711561" lon="14.487081493899671"><ele>16.0</ele><time>2026-04-06T06:50:21.999Z</time></trkpt><trkpt lat="42.282649214355" lon="14.48715745485768"><ele>14.4</ele><time>2026-04-06T06:50:22.999Z</time></trkpt><trkpt lat="42.28261424366347" lon="14.487232007212413"><ele>12.8</ele><time>2026-04-06T06:50:23.999Z</time></trkpt><trkpt lat="42.282580401949225" lon="14.487306200878708"><ele>11.200000000000001</ele><time>2026-04-06T06:50:24.999Z</time></trkpt><trkpt lat="42.282513360015464" lon="14.487443302777292"><ele>9.600000000000001</ele><time>2026-04-06T06:50:26.999Z</time></trkpt><trkpt lat="42.282450847652484" lon="14.48757444620935"><ele>8.0</ele><time>2026-04-06T06:50:28.999Z</time></trkpt><trkpt lat="42.2823842701545" lon="14.487706757495628"><ele>8.0</ele><time>2026-04-06T06:50:30.999Z</time></trkpt><trkpt lat="42.282315872416916" lon="14.487840835130402"><ele>8.0</ele><time>2026-04-06T06:50:32.999Z</time></trkpt><trkpt lat="42.28224942725315" lon="14.487978673253892"><ele>8.0</ele><time>2026-04-06T06:50:34.999Z</time></trkpt><trkpt lat="42.28218230623175" lon="14.488114751389553"><ele>8.0</ele><time>2026-04-06T06:50:36.999Z</time></trkpt><trkpt lat="42.28211290888519" lon="14.488246703606562"><ele>9.25</ele><time>2026-04-06T06:50:38.998Z</time></trkpt><trkpt lat="42.28204496687359" lon="14.488377143337237"><ele>10.5</ele><time>2026-04-06T06:50:40.998Z</time></trkpt><trkpt lat="42.2819760450743" lon="14.488510689219366"><ele>11.75</ele><time>2026-04-06T06:50:42.998Z</time></trkpt><trkpt lat="42.28190231612585" lon="14.48863326940358"><ele>13.0</ele><time>2026-04-06T06:50:44.998Z</time></trkpt><trkpt lat="42.281819697030194" lon="14.488747175000995"><ele>11.25</ele><time>2026-04-06T06:50:46.998Z</time></trkpt><trkpt lat="42.281739594157465" lon="14.488862423107573"><ele>9.5</ele><time>2026-04-06T06:50:48.998Z</time></trkpt><trkpt lat="42.281657769360905" lon="14.488974308708464"><ele>7.75</ele><time>2026-04-06T06:50:50.998Z</time></trkpt><trkpt lat="42.2815736176262" lon="14.489087213393475"><ele>6.0</ele><time>2026-04-06T06:50:52.998Z</time></trkpt><trkpt lat="42.28148660418335" lon="14.489200415074627"><ele>6.5</ele><time>2026-04-06T06:50:54.998Z</time></trkpt><trkpt lat="42.281398542278424" lon="14.48931548850535"><ele>7.0</ele><time>2026-04-06T06:50:56.998Z</time></trkpt><trkpt lat="42.28131391808607" lon="14.489420431448007"><ele>7.5</ele><time>2026-04-06T06:50:58.998Z</time></trkpt><trkpt lat="42.28122058771067" lon="14.489524619341449"><ele>8.0</ele><time>2026-04-06T06:51:00.998Z</time></trkpt><trkpt lat="42.281123331534936" lon="14.489622743085992"><ele>8.0</ele><time>2026-04-06T06:51:02.998Z</time></trkpt><trkpt lat="42.2810232053117" lon="14.48972272023418"><ele>7.999999999999999</ele><time>2026-04-06T06:51:04.998Z</time></trkpt><trkpt lat="42.28097385778805" lon="14.489779095296205"><ele>8.0</ele><time>2026-04-06T06:51:05.998Z</time></trkpt><trkpt lat="42.28092101323577" lon="14.48983190581319"><ele>8.0</ele><time>2026-04-06T06:51:06.998Z</time></trkpt><trkpt lat="42.28086817592514" lon="14.489880477601762"><ele>7.999999999999999</ele><time>2026-04-06T06:51:07.998Z</time></trkpt><trkpt lat="42.28081428990701" lon="14.489929339484119"><ele>8.0</ele><time>2026-04-06T06:51:08.998Z</time></trkpt><trkpt lat="42.2807611467517" lon="14.489975816769672"><ele>8.0</ele><time>2026-04-06T06:51:09.998Z</time></trkpt><trkpt lat="42.280654501138436" lon="14.490063352582212"><ele>10.25</ele><time>2026-04-06T06:51:11.998Z</time></trkpt><trkpt lat="42.28055066256199" lon="14.490152598916302"><ele>12.5</ele><time>2026-04-06T06:51:14Z</time></trkpt><trkpt lat="42.28044402695373" lon="14.490238623750047"><ele>14.75</ele><time>2026-04-06T06:51:16Z</time></trkpt><trkpt lat="42.28033420263888" lon="14.490308598453066"><ele>17.0</ele><time>2026-04-06T06:51:18Z</time></trkpt><trkpt lat="42.280225796755595" lon="14.490383158596838"><ele>13.75</ele><time>2026-04-06T06:51:20Z</time></trkpt><trkpt lat="42.28011230350598" lon="14.490455008541943"><ele>10.5</ele><time>2026-04-06T06:51:22Z</time></trkpt><trkpt lat="42.2800045124845" lon="14.490530181077865"><ele>7.25</ele><time>2026-04-06T06:51:24Z</time></trkpt><trkpt lat="42.279894054821256" lon="14.490603886503836"><ele>4.0</ele><time>2026-04-06T06:51:26Z</time></trkpt><trkpt lat="42.279784245189916" lon="14.490673956431001"><ele>6.0</ele><time>2026-04-06T06:51:28Z</time></trkpt><trkpt lat="42.27968200530062" lon="14.49074555447366"><ele>8.0</ele><time>2026-04-06T06:51:30Z</time></trkpt><trkpt lat="42.27958728539902" lon="14.490807977377026"><ele>10.0</ele><time>2026-04-06T06:51:32Z</time></trkpt><trkpt lat="42.279487033433284" lon="14.490882444598702"><ele>12.0</ele><time>2026-04-06T06:51:34Z</time></trkpt><trkpt lat="42.279377584697706" lon="14.490956842065582"><ele>12.0</ele><time>2026-04-06T06:51:36Z</time></trkpt><trkpt lat="42.27926451616202" lon="14.491029099349062"><ele>12.0</ele><time>2026-04-06T06:51:38Z</time></trkpt><trkpt lat="42.279153162543565" lon="14.491105688511615"><ele>12.0</ele><time>2026-04-06T06:51:40Z</time></trkpt><trkpt lat="42.279040713193965" lon="14.491182807019708"><ele>12.0</ele><time>2026-04-06T06:51:42Z</time></trkpt><trkpt lat="42.27893293424669" lon="14.491267823370256"><ele>11.5</ele><time>2026-04-06T06:51:44Z</time></trkpt><trkpt lat="42.27882843116034" lon="14.491355324835167"><ele>11.0</ele><time>2026-04-06T06:51:45.999Z</time></trkpt><trkpt lat="42.278723551344605" lon="14.491444171267341"><ele>10.5</ele><time>2026-04-06T06:51:47.999Z</time></trkpt><trkpt lat="42.27862242817248" lon="14.491532347528388"><ele>10.0</ele><time>2026-04-06T06:51:49.999Z</time></trkpt><trkpt lat="42.278522619852225" lon="14.491626100558497"><ele>10.0</ele><time>2026-04-06T06:51:51.999Z</time></trkpt><trkpt lat="42.2784242429254" lon="14.491721225465065"><ele>10.0</ele><time>2026-04-06T06:51:53.999Z</time></trkpt><trkpt lat="42.27832672250102" lon="14.4918214820197"><ele>10.0</ele><time>2026-04-06T06:51:55.999Z</time></trkpt><trkpt lat="42.2782333319414" lon="14.49193181772501"><ele>10.0</ele><time>2026-04-06T06:51:57.999Z</time></trkpt><trkpt lat="42.27814033872068" lon="14.492035618748499"><ele>8.5</ele><time>2026-04-06T06:51:59.999Z</time></trkpt><trkpt lat="42.27804565051465" lon="14.492140065805607"><ele>7.0</ele><time>2026-04-06T06:52:01.999Z</time></trkpt><trkpt lat="42.27795620437511" lon="14.49225071373126"><ele>5.5</ele><time>2026-04-06T06:52:03.999Z</time></trkpt><trkpt lat="42.27786811045291" lon="14.492365693233554"><ele>4.0</ele><time>2026-04-06T06:52:05.999Z</time></trkpt><trkpt lat="42.277786363723" lon="14.492480353302334"><ele>4.0</ele><time>2026-04-06T06:52:07.999Z</time></trkpt><trkpt lat="42.2777028832382" lon="14.492589854611433"><ele>4.0</ele><time>2026-04-06T06:52:09.999Z</time></trkpt><trkpt lat="42.27762044447278" lon="14.49269802087461"><ele>4.0</ele><time>2026-04-06T06:52:11.999Z</time></trkpt><trkpt lat="42.27753609585702" lon="14.492807317238114"><ele>4.0</ele><time>2026-04-06T06:52:13.999Z</time></trkpt><trkpt lat="42.27745304057917" lon="14.492915410290324"><ele>4.0</ele><time>2026-04-06T06:52:15.999Z</time></trkpt><trkpt lat="42.27737089473583" lon="14.49302687377531"><ele>4.0</ele><time>2026-04-06T06:52:17.999Z</time></trkpt><trkpt lat="42.27728912353988" lon="14.493139441496627"><ele>4.0</ele><time>2026-04-06T06:52:19.999Z</time></trkpt><trkpt lat="42.27720549740027" lon="14.493252693207973"><ele>4.0</ele><time>2026-04-06T06:52:21.999Z</time></trkpt><trkpt lat="42.27712193974603" lon="14.493364190854809"><ele>4.0</ele><time>2026-04-06T06:52:23.999Z</time></trkpt><trkpt lat="42.27703894423508" lon="14.493476614780176"><ele>4.0</ele><time>2026-04-06T06:52:25.999Z</time></trkpt><trkpt lat="42.27695603525925" lon="14.493585401561852"><ele>4.0</ele><time>2026-04-06T06:52:27.999Z</time></trkpt><trkpt lat="42.27687360978912" lon="14.493694685352448"><ele>4.0</ele><time>2026-04-06T06:52:29.999Z</time></trkpt><trkpt lat="42.27679458493639" lon="14.493809680212893"><ele>4.0</ele><time>2026-04-06T06:52:31.999Z</time></trkpt><trkpt lat="42.276708615933465" lon="14.493923683312508"><ele>4.0</ele><time>2026-04-06T06:52:33.999Z</time></trkpt><trkpt lat="42.276625354737476" lon="14.494037700841275"><ele>4.0</ele><time>2026-04-06T06:52:35.999Z</time></trkpt><trkpt lat="42.27654011566565" lon="14.494145977384935"><ele>4.0</ele><time>2026-04-06T06:52:37.999Z</time></trkpt><trkpt lat="42.2764568716016" lon="14.49425772500112"><ele>5.25</ele><time>2026-04-06T06:52:39.999Z</time></trkpt><trkpt lat="42.27637407240424" lon="14.494368361319106"><ele>6.5</ele><time>2026-04-06T06:52:41.998Z</time></trkpt><trkpt lat="42.276291739089935" lon="14.494481058184473"><ele>7.75</ele><time>2026-04-06T06:52:43.998Z</time></trkpt><trkpt lat="42.27620871186582" lon="14.494594609868946"><ele>9.0</ele><time>2026-04-06T06:52:45.998Z</time></trkpt><trkpt lat="42.276124653108006" lon="14.494706026738372"><ele>9.0</ele><time>2026-04-06T06:52:47.998Z</time></trkpt><trkpt lat="42.27603799981087" lon="14.494819270613833"><ele>9.0</ele><time>2026-04-06T06:52:49.998Z</time></trkpt><trkpt lat="42.275956236487566" lon="14.49493414369946"><ele>9.0</ele><time>2026-04-06T06:52:51.998Z</time></trkpt><trkpt lat="42.27587298512536" lon="14.495048593344025"><ele>9.0</ele><time>2026-04-06T06:52:53.998Z</time></trkpt><trkpt lat="42.275786435630415" lon="14.495163917081964"><ele>9.0</ele><time>2026-04-06T06:52:55.998Z</time></trkpt><trkpt lat="42.2756996099133" lon="14.495270827856206"><ele>9.0</ele><time>2026-04-06T06:52:57.998Z</time></trkpt><trkpt lat="42.27561836625851" lon="14.495386293653949"><ele>9.0</ele><time>2026-04-06T06:52:59.998Z</time></trkpt><trkpt lat="42.27553586645616" lon="14.495500286931454"><ele>9.0</ele><time>2026-04-06T06:53:01.998Z</time></trkpt><trkpt lat="42.27545022100164" lon="14.495612223196781"><ele>10.5</ele><time>2026-04-06T06:53:03.998Z</time></trkpt><trkpt lat="42.27536946999074" lon="14.495727065224546"><ele>12.0</ele><time>2026-04-06T06:53:05.998Z</time></trkpt><trkpt lat="42.27528514445261" lon="14.495840126683333"><ele>13.5</ele><time>2026-04-06T06:53:07.998Z</time></trkpt><trkpt lat="42.275201607330516" lon="14.495951542705601"><ele>15.0</ele><time>2026-04-06T06:53:09.998Z</time></trkpt><trkpt lat="42.275118976570774" lon="14.496064578041363"><ele>15.0</ele><time>2026-04-06T06:53:11.998Z</time></trkpt><trkpt lat="42.27503664520991" lon="14.49617905813112"><ele>15.0</ele><time>2026-04-06T06:53:13.998Z</time></trkpt><trkpt lat="42.27495141871029" lon="14.496290506152507"><ele>15.0</ele><time>2026-04-06T06:53:15.998Z</time></trkpt><trkpt lat="42.27486785523404" lon="14.496401310626872"><ele>15.0</ele><time>2026-04-06T06:53:17.998Z</time></trkpt><trkpt lat="42.274783069475944" lon="14.496515545463668"><ele>16.0</ele><time>2026-04-06T06:53:20Z</time></trkpt><trkpt lat="42.274699913052935" lon="14.496630485833096"><ele>17.0</ele><time>2026-04-06T06:53:22Z</time></trkpt><trkpt lat="42.274617671787" lon="14.49675045143643"><ele>18.0</ele><time>2026-04-06T06:53:24Z</time></trkpt><trkpt lat="42.27453819365153" lon="14.49687156333985"><ele>19.0</ele><time>2026-04-06T06:53:26Z</time></trkpt><trkpt lat="42.274459985295294" lon="14.49699087586446"><ele>16.0</ele><time>2026-04-06T06:53:28Z</time></trkpt><trkpt lat="42.274388664987335" lon="14.497111739647863"><ele>13.0</ele><time>2026-04-06T06:53:30Z</time></trkpt><trkpt lat="42.274320778172346" lon="14.497233888757155"><ele>10.0</ele><time>2026-04-06T06:53:32Z</time></trkpt><trkpt lat="42.27425262764458" lon="14.497357196044947"><ele>7.0</ele><time>2026-04-06T06:53:34Z</time></trkpt><trkpt lat="42.27418909006157" lon="14.497487265788262"><ele>7.0</ele><time>2026-04-06T06:53:36Z</time></trkpt><trkpt lat="42.27412471123165" lon="14.497613652887557"><ele>6.999999999999999</ele><time>2026-04-06T06:53:38Z</time></trkpt><trkpt lat="42.27406728103526" lon="14.497742788289594"><ele>6.999999999999999</ele><time>2026-04-06T06:53:40Z</time></trkpt><trkpt lat="42.27401029468325" lon="14.497871437746944"><ele>7.0</ele><time>2026-04-06T06:53:42Z</time></trkpt><trkpt lat="42.27395939771784" lon="14.498003793140967"><ele>7.0</ele><time>2026-04-06T06:53:44Z</time></trkpt><trkpt lat="42.27390708905512" lon="14.498135875516496"><ele>7.199999999999999</ele><time>2026-04-06T06:53:46Z</time></trkpt><trkpt lat="42.27385913751201" lon="14.49826840012571"><ele>7.3999999999999995</ele><time>2026-04-06T06:53:47.999Z</time></trkpt><trkpt lat="42.27381188708867" lon="14.498403513854173"><ele>7.6000000000000005</ele><time>2026-04-06T06:53:49.999Z</time></trkpt><trkpt lat="42.27376419073051" lon="14.498539658474769"><ele>7.800000000000001</ele><time>2026-04-06T06:53:51.999Z</time></trkpt><trkpt lat="42.27371470323698" lon="14.498675771277691"><ele>8.0</ele><time>2026-04-06T06:53:53.999Z</time></trkpt><trkpt lat="42.27366571409841" lon="14.498812282540891"><ele>8.0</ele><time>2026-04-06T06:53:55.999Z</time></trkpt><trkpt lat="42.27361706591059" lon="14.498948434351231"><ele>8.0</ele><time>2026-04-06T06:53:57.999Z</time></trkpt><trkpt lat="42.2735682201071" lon="14.499084796455044"><ele>8.0</ele><time>2026-04-06T06:53:59.999Z</time></trkpt><trkpt lat="42.273520762389644" lon="14.499219464185167"><ele>8.0</ele><time>2026-04-06T06:54:01.999Z</time></trkpt><trkpt lat="42.273469240740724" lon="14.499349264917665"><ele>8.0</ele><time>2026-04-06T06:54:03.999Z</time></trkpt><trkpt lat="42.27341794842435" lon="14.499475216250946"><ele>7.2</ele><time>2026-04-06T06:54:05.999Z</time></trkpt><trkpt lat="42.2733665667962" lon="14.499603125443596"><ele>6.4</ele><time>2026-04-06T06:54:07.999Z</time></trkpt><trkpt lat="42.27331031093635" lon="14.499728141813467"><ele>5.6000000000000005</ele><time>2026-04-06T06:54:09.999Z</time></trkpt><trkpt lat="42.27324868521013" lon="14.499852791060304"><ele>4.800000000000001</ele><time>2026-04-06T06:54:11.999Z</time></trkpt><trkpt lat="42.27318567110058" lon="14.499975330041657"><ele>4.0</ele><time>2026-04-06T06:54:13.999Z</time></trkpt><trkpt lat="42.27311956955745" lon="14.500097220372405"><ele>5.5</ele><time>2026-04-06T06:54:15.999Z</time></trkpt><trkpt lat="42.27305156582096" lon="14.500219913475808"><ele>7.0</ele><time>2026-04-06T06:54:17.999Z</time></trkpt><trkpt lat="42.272981209763316" lon="14.50033755329943"><ele>8.5</ele><time>2026-04-06T06:54:19.999Z</time></trkpt><trkpt lat="42.272910077145845" lon="14.500454798398325"><ele>10.0</ele><time>2026-04-06T06:54:21.999Z</time></trkpt><trkpt lat="42.27282990110339" lon="14.500567652072567"><ele>10.0</ele><time>2026-04-06T06:54:23.999Z</time></trkpt><trkpt lat="42.272751399898944" lon="14.500683793133053"><ele>10.0</ele><time>2026-04-06T06:54:25.999Z</time></trkpt><trkpt lat="42.272670459700855" lon="14.500794741742247"><ele>10.0</ele><time>2026-04-06T06:54:27.999Z</time></trkpt><trkpt lat="42.27258915364241" lon="14.500907487156082"><ele>10.0</ele><time>2026-04-06T06:54:29.999Z</time></trkpt><trkpt lat="42.272504610098295" lon="14.50101763024836"><ele>10.0</ele><time>2026-04-06T06:54:31.999Z</time></trkpt><trkpt lat="42.27241378700126" lon="14.501117475328723"><ele>10.0</ele><time>2026-04-06T06:54:33.999Z</time></trkpt><trkpt lat="42.27232411386527" lon="14.501214709964076"><ele>10.0</ele><time>2026-04-06T06:54:35.999Z</time></trkpt><trkpt lat="42.272231369253454" lon="14.501309662778922"><ele>10.0</ele><time>2026-04-06T06:54:37.999Z</time></trkpt><trkpt lat="42.27213811667339" lon="14.50140667637654"><ele>10.5</ele><time>2026-04-06T06:54:39.999Z</time></trkpt><trkpt lat="42.27204371278191" lon="14.501493165756306"><ele>11.0</ele><time>2026-04-06T06:54:41.998Z</time></trkpt><trkpt lat="42.27194797235112" lon="14.501575995626231"><ele>11.5</ele><time>2026-04-06T06:54:43.998Z</time></trkpt><trkpt lat="42.27184915611602" lon="14.50165643661101"><ele>12.0</ele><time>2026-04-06T06:54:45.998Z</time></trkpt><trkpt lat="42.27174811101733" lon="14.501736108213047"><ele>12.0</ele><time>2026-04-06T06:54:47.998Z</time></trkpt><trkpt lat="42.2716451359685" lon="14.501811595589661"><ele>12.0</ele><time>2026-04-06T06:54:49.998Z</time></trkpt><trkpt lat="42.271541604577955" lon="14.50188661686277"><ele>12.0</ele><time>2026-04-06T06:54:51.998Z</time></trkpt><trkpt lat="42.27143592749073" lon="14.501954541078817"><ele>12.0</ele><time>2026-04-06T06:54:53.998Z</time></trkpt><trkpt lat="42.27132822760539" lon="14.50202014151641"><ele>10.75</ele><time>2026-04-06T06:54:55.998Z</time></trkpt><trkpt lat="42.271220956047735" lon="14.502078324660172"><ele>9.5</ele><time>2026-04-06T06:54:57.998Z</time></trkpt><trkpt lat="42.27111567215464" lon="14.502133760140502"><ele>8.25</ele><time>2026-04-06T06:54:59.998Z</time></trkpt><trkpt lat="42.271009665515834" lon="14.502186765252608"><ele>7.0</ele><time>2026-04-06T06:55:01.998Z</time></trkpt><trkpt lat="42.27090331587153" lon="14.502238430926417"><ele>7.0</ele><time>2026-04-06T06:55:03.998Z</time></trkpt><trkpt lat="42.2707922885201" lon="14.502274929320036"><ele>7.0</ele><time>2026-04-06T06:55:05.998Z</time></trkpt><trkpt lat="42.2706797629466" lon="14.502315047101566"><ele>7.0</ele><time>2026-04-06T06:55:07.998Z</time></trkpt><trkpt lat="42.27056892133012" lon="14.502350734312941"><ele>7.0</ele><time>2026-04-06T06:55:09.998Z</time></trkpt><trkpt lat="42.27045609039995" lon="14.502385970590996"><ele>7.0</ele><time>2026-04-06T06:55:11.998Z</time></trkpt><trkpt lat="42.270343275551205" lon="14.502410391537886"><ele>7.0</ele><time>2026-04-06T06:55:13.998Z</time></trkpt><trkpt lat="42.27023139524754" lon="14.502440768088059"><ele>7.0</ele><time>2026-04-06T06:55:15.998Z</time></trkpt><trkpt lat="42.27011868717895" lon="14.50246655396118"><ele>7.0</ele><time>2026-04-06T06:55:17.998Z</time></trkpt><trkpt lat="42.27000547494254" lon="14.502491896374957"><ele>7.0</ele><time>2026-04-06T06:55:19.998Z</time></trkpt><trkpt lat="42.26989413635802" lon="14.502510108425076"><ele>7.0</ele><time>2026-04-06T06:55:21.998Z</time></trkpt><trkpt lat="42.269782818534395" lon="14.502520203834221"><ele>7.0</ele><time>2026-04-06T06:55:23.998Z</time></trkpt><trkpt lat="42.26967024503869" lon="14.502524722603669"><ele>7.0</ele><time>2026-04-06T06:55:26Z</time></trkpt><trkpt lat="42.26955639000218" lon="14.502530060123668"><ele>7.5</ele><time>2026-04-06T06:55:28Z</time></trkpt><trkpt lat="42.269443407607916" lon="14.502529814756292"><ele>8.0</ele><time>2026-04-06T06:55:30Z</time></trkpt><trkpt lat="42.269330504475015" lon="14.50252556299397"><ele>8.5</ele><time>2026-04-06T06:55:32Z</time></trkpt><trkpt lat="42.269218344841626" lon="14.502513790622189"><ele>9.0</ele><time>2026-04-06T06:55:34Z</time></trkpt><trkpt lat="42.269103549452446" lon="14.502503628811452"><ele>9.0</ele><time>2026-04-06T06:55:36Z</time></trkpt><trkpt lat="42.2689897352963" lon="14.502481690337081"><ele>9.0</ele><time>2026-04-06T06:55:38Z</time></trkpt><trkpt lat="42.26888107331912" lon="14.502451004252435"><ele>9.0</ele><time>2026-04-06T06:55:40Z</time></trkpt><trkpt lat="42.268772794529234" lon="14.50242248866526"><ele>9.0</ele><time>2026-04-06T06:55:42Z</time></trkpt><trkpt lat="42.268663398394125" lon="14.502393669623899"><ele>9.0</ele><time>2026-04-06T06:55:44Z</time></trkpt><trkpt lat="42.26855225664385" lon="14.502365301269151"><ele>8.4</ele><time>2026-04-06T06:55:46Z</time></trkpt><trkpt lat="42.268444779701774" lon="14.502325940961406"><ele>7.800000000000001</ele><time>2026-04-06T06:55:47.999Z</time></trkpt><trkpt lat="42.26833880853622" lon="14.50229130730352"><ele>7.199999999999999</ele><time>2026-04-06T06:55:49.999Z</time></trkpt><trkpt lat="42.26823197516025" lon="14.502250549990862"><ele>6.6</ele><time>2026-04-06T06:55:51.999Z</time></trkpt><trkpt lat="42.26812819794042" lon="14.502207021278249"><ele>6.0</ele><time>2026-04-06T06:55:53.999Z</time></trkpt><trkpt lat="42.2680249422003" lon="14.502157483573852"><ele>5.3999999999999995</ele><time>2026-04-06T06:55:55.999Z</time></trkpt><trkpt lat="42.267923641632095" lon="14.502100898956362"><ele>4.8</ele><time>2026-04-06T06:55:57.999Z</time></trkpt><trkpt lat="42.26782604698712" lon="14.50204283289916"><ele>4.199999999999999</ele><time>2026-04-06T06:55:59.999Z</time></trkpt><trkpt lat="42.267724953312644" lon="14.501981971740019"><ele>3.5999999999999996</ele><time>2026-04-06T06:56:01.999Z</time></trkpt><trkpt lat="42.26762279221773" lon="14.501921341136153"><ele>3.0</ele><time>2026-04-06T06:56:03.999Z</time></trkpt><trkpt lat="42.2675252646588" lon="14.501855726343601"><ele>3.4</ele><time>2026-04-06T06:56:05.999Z</time></trkpt><trkpt lat="42.26743065454539" lon="14.501788072556124"><ele>3.8</ele><time>2026-04-06T06:56:07.999Z</time></trkpt><trkpt lat="42.26733568340112" lon="14.501730362544142"><ele>4.2</ele><time>2026-04-06T06:56:09.999Z</time></trkpt><trkpt lat="42.267242579287654" lon="14.50167062273566"><ele>4.6</ele><time>2026-04-06T06:56:11.999Z</time></trkpt><trkpt lat="42.267148737715765" lon="14.501610815920605"><ele>5.0</ele><time>2026-04-06T06:56:13.999Z</time></trkpt><trkpt lat="42.26705578667136" lon="14.501554573122062"><ele>5.0</ele><time>2026-04-06T06:56:15.999Z</time></trkpt><trkpt lat="42.26696210640179" lon="14.501498580541579"><ele>5.0</ele><time>2026-04-06T06:56:17.999Z</time></trkpt><trkpt lat="42.26686694965303" lon="14.50144335621675"><ele>5.0</ele><time>2026-04-06T06:56:19.999Z</time></trkpt><trkpt lat="42.266765708602" lon="14.501385161494305"><ele>5.0</ele><time>2026-04-06T06:56:21.999Z</time></trkpt><trkpt lat="42.266662063752584" lon="14.501322748551193"><ele>5.0</ele><time>2026-04-06T06:56:23.999Z</time></trkpt><trkpt lat="42.266558979705835" lon="14.501259506776325"><ele>7.5</ele><time>2026-04-06T06:56:25.999Z</time></trkpt><trkpt lat="42.266453316338335" lon="14.501205273610372"><ele>10.0</ele><time>2026-04-06T06:56:27.999Z</time></trkpt><trkpt lat="42.26634592265067" lon="14.501155403331143"><ele>12.5</ele><time>2026-04-06T06:56:29.999Z</time></trkpt><trkpt lat="42.26623680161544" lon="14.501113455966866"><ele>15.0</ele><time>2026-04-06T06:56:31.999Z</time></trkpt><trkpt lat="42.2661285541491" lon="14.50107842614503"><ele>15.0</ele><time>2026-04-06T06:56:33.999Z</time></trkpt><trkpt lat="42.26601830764487" lon="14.501041257848161"><ele>15.0</ele><time>2026-04-06T06:56:35.999Z</time></trkpt><trkpt lat="42.265906046062526" lon="14.50100968796438"><ele>15.0</ele><time>2026-04-06T06:56:37.999Z</time></trkpt><trkpt lat="42.265793616568" lon="14.50097523189538"><ele>15.0</ele><time>2026-04-06T06:56:39.999Z</time></trkpt><trkpt lat="42.26568419384458" lon="14.500946364599343"><ele>13.8</ele><time>2026-04-06T06:56:41.998Z</time></trkpt><trkpt lat="42.26558147968417" lon="14.500930204708322"><ele>12.6</ele><time>2026-04-06T06:56:43.998Z</time></trkpt><trkpt lat="42.265483720821656" lon="14.50091207265509"><ele>11.4</ele><time>2026-04-06T06:56:45.998Z</time></trkpt><trkpt lat="42.26538888869956" lon="14.50089893492971"><ele>10.2</ele><time>2026-04-06T06:56:47.998Z</time></trkpt><trkpt lat="42.26529757881829" lon="14.50088653642029"><ele>9.0</ele><time>2026-04-06T06:56:49.998Z</time></trkpt><trkpt lat="42.26520037591073" lon="14.500871195058194"><ele>9.0</ele><time>2026-04-06T06:56:51.998Z</time></trkpt><trkpt lat="42.26509405981429" lon="14.500866663053632"><ele>9.0</ele><time>2026-04-06T06:56:53.998Z</time></trkpt><trkpt lat="42.26497894762718" lon="14.500862104885714"><ele>9.0</ele><time>2026-04-06T06:56:55.998Z</time></trkpt><trkpt lat="42.26486424203153" lon="14.500851872718595"><ele>9.0</ele><time>2026-04-06T06:56:57.998Z</time></trkpt><trkpt lat="42.26474723264187" lon="14.500842738941008"><ele>8.25</ele><time>2026-04-06T06:56:59.998Z</time></trkpt><trkpt lat="42.26463289982585" lon="14.500839091204124"><ele>7.5</ele><time>2026-04-06T06:57:01.998Z</time></trkpt><trkpt lat="42.26452056310486" lon="14.500833823220681"><ele>6.75</ele><time>2026-04-06T06:57:03.998Z</time></trkpt><trkpt lat="42.264406159483485" lon="14.50082469301677"><ele>6.0</ele><time>2026-04-06T06:57:05.998Z</time></trkpt><trkpt lat="42.264291057539616" lon="14.500814634587321"><ele>6.0</ele><time>2026-04-06T06:57:07.998Z</time></trkpt><trkpt lat="42.26418106034132" lon="14.500807713390344"><ele>6.0</ele><time>2026-04-06T06:57:09.998Z</time></trkpt><trkpt lat="42.26407289723787" lon="14.500800732837952"><ele>6.0</ele><time>2026-04-06T06:57:11.998Z</time></trkpt><trkpt lat="42.263961429653946" lon="14.500798241723732"><ele>6.0</ele><time>2026-04-06T06:57:13.998Z</time></trkpt><trkpt lat="42.263851326210606" lon="14.500791862796206"><ele>6.0</ele><time>2026-04-06T06:57:15.998Z</time></trkpt><trkpt lat="42.26374082208416" lon="14.500786798927658"><ele>6.4</ele><time>2026-04-06T06:57:17.998Z</time></trkpt><trkpt lat="42.263629912204934" lon="14.500783117130458"><ele>6.8</ele><time>2026-04-06T06:57:19.998Z</time></trkpt><trkpt lat="42.26351826992168" lon="14.500777504068553"><ele>7.200000000000001</ele><time>2026-04-06T06:57:21.998Z</time></trkpt><trkpt lat="42.263405441270166" lon="14.500770389684176"><ele>7.6000000000000005</ele><time>2026-04-06T06:57:23.998Z</time></trkpt><trkpt lat="42.263292285628" lon="14.500765271317308"><ele>8.0</ele><time>2026-04-06T06:57:25.998Z</time></trkpt><trkpt lat="42.26317716011664" lon="14.500758128787032"><ele>7.5</ele><time>2026-04-06T06:57:27.998Z</time></trkpt><trkpt lat="42.26306000929865" lon="14.500755142219672"><ele>7.0</ele><time>2026-04-06T06:57:29.998Z</time></trkpt><trkpt lat="42.26294106964474" lon="14.50074607643668"><ele>6.5</ele><time>2026-04-06T06:57:32Z</time></trkpt><trkpt lat="42.26282220505208" lon="14.500740430923603"><ele>6.0</ele><time>2026-04-06T06:57:34Z</time></trkpt><trkpt lat="42.2627051690581" lon="14.50074202642902"><ele>6.0</ele><time>2026-04-06T06:57:36Z</time></trkpt><trkpt lat="42.262641818654686" lon="14.50073790409609"><ele>6.0</ele><time>2026-04-06T06:57:37Z</time></trkpt><trkpt lat="42.262525799937784" lon="14.50072573755404"><ele>6.0</ele><time>2026-04-06T06:57:39Z</time></trkpt><trkpt lat="42.26241194371495" lon="14.500716985895133"><ele>6.0</ele><time>2026-04-06T06:57:41Z</time></trkpt><trkpt lat="42.26229825531471" lon="14.50071226704034"><ele>6.0</ele><time>2026-04-06T06:57:43Z</time></trkpt><trkpt lat="42.262182159704416" lon="14.500703051297739"><ele>6.0</ele><time>2026-04-06T06:57:45Z</time></trkpt><trkpt lat="42.262067813483704" lon="14.500695999870338"><ele>6.0</ele><time>2026-04-06T06:57:47Z</time></trkpt><trkpt lat="42.26194988665339" lon="14.500691773426157"><ele>6.0</ele><time>2026-04-06T06:57:48.999Z</time></trkpt><trkpt lat="42.26183079689219" lon="14.500697056006578"><ele>6.0</ele><time>2026-04-06T06:57:50.999Z</time></trkpt><trkpt lat="42.26171069723685" lon="14.500698715835357"><ele>6.0</ele><time>2026-04-06T06:57:52.999Z</time></trkpt><trkpt lat="42.26159023031894" lon="14.50070536196638"><ele>6.0</ele><time>2026-04-06T06:57:54.999Z</time></trkpt><trkpt lat="42.26147036191974" lon="14.50071745581209"><ele>6.0</ele><time>2026-04-06T06:57:56.999Z</time></trkpt><trkpt lat="42.261351998816" lon="14.500727137760734"><ele>6.0</ele><time>2026-04-06T06:57:58.999Z</time></trkpt><trkpt lat="42.26123301929428" lon="14.500741862458169"><ele>6.0</ele><time>2026-04-06T06:58:00.999Z</time></trkpt><trkpt lat="42.261115458760806" lon="14.500759975146746"><ele>6.0</ele><time>2026-04-06T06:58:02.999Z</time></trkpt><trkpt lat="42.26099664201805" lon="14.500780544244785"><ele>6.0</ele><time>2026-04-06T06:58:04.999Z</time></trkpt><trkpt lat="42.26087879795419" lon="14.500799439875015"><ele>6.0</ele><time>2026-04-06T06:58:06.999Z</time></trkpt><trkpt lat="42.260762834884076" lon="14.500830743492399"><ele>6.0</ele><time>2026-04-06T06:58:08.999Z</time></trkpt><trkpt lat="42.26064924962974" lon="14.50086848368538"><ele>6.0</ele><time>2026-04-06T06:58:10.999Z</time></trkpt><trkpt lat="42.26053409326951" lon="14.500914049647903"><ele>6.0</ele><time>2026-04-06T06:58:12.999Z</time></trkpt><trkpt lat="42.26041940536997" lon="14.500958507671173"><ele>6.0</ele><time>2026-04-06T06:58:14.999Z</time></trkpt><trkpt lat="42.26030457978744" lon="14.50101168297486"><ele>5.25</ele><time>2026-04-06T06:58:16.999Z</time></trkpt><trkpt lat="42.260188877819466" lon="14.50106696063645"><ele>4.5</ele><time>2026-04-06T06:58:18.999Z</time></trkpt><trkpt lat="42.26007716296512" lon="14.50112407086167"><ele>3.75</ele><time>2026-04-06T06:58:20.999Z</time></trkpt><trkpt lat="42.25996460964649" lon="14.501183929531575"><ele>3.0</ele><time>2026-04-06T06:58:22.999Z</time></trkpt><trkpt lat="42.25985399815676" lon="14.501253279543025"><ele>3.75</ele><time>2026-04-06T06:58:24.999Z</time></trkpt><trkpt lat="42.25974658129667" lon="14.501326749837203"><ele>4.5</ele><time>2026-04-06T06:58:26.999Z</time></trkpt><trkpt lat="42.25963927152897" lon="14.501401282991226"><ele>5.25</ele><time>2026-04-06T06:58:28.999Z</time></trkpt><trkpt lat="42.259534406987186" lon="14.501479045824961"><ele>6.0</ele><time>2026-04-06T06:58:30.999Z</time></trkpt><trkpt lat="42.259431393602185" lon="14.501555691804903"><ele>6.0</ele><time>2026-04-06T06:58:32.999Z</time></trkpt><trkpt lat="42.25933051191573" lon="14.501635687500329"><ele>6.0</ele><time>2026-04-06T06:58:34.999Z</time></trkpt><trkpt lat="42.25923400238723" lon="14.501717903320554"><ele>6.0</ele><time>2026-04-06T06:58:36.999Z</time></trkpt><trkpt lat="42.259139621226225" lon="14.501799898982517"><ele>6.0</ele><time>2026-04-06T06:58:38.999Z</time></trkpt><trkpt lat="42.25904145527084" lon="14.501878874364818"><ele>6.25</ele><time>2026-04-06T06:58:40.999Z</time></trkpt><trkpt lat="42.25894323572126" lon="14.501958256368427"><ele>6.5</ele><time>2026-04-06T06:58:42.998Z</time></trkpt><trkpt lat="42.25884456209265" lon="14.502037762538432"><ele>6.75</ele><time>2026-04-06T06:58:44.998Z</time></trkpt><trkpt lat="42.25874602277679" lon="14.502125142877437"><ele>7.0</ele><time>2026-04-06T06:58:46.998Z</time></trkpt><trkpt lat="42.2586467827399" lon="14.502209347801593"><ele>7.0</ele><time>2026-04-06T06:58:48.998Z</time></trkpt><trkpt lat="42.258545627679645" lon="14.502291456655195"><ele>7.0</ele><time>2026-04-06T06:58:50.998Z</time></trkpt><trkpt lat="42.258445393106534" lon="14.50237998117774"><ele>7.0</ele><time>2026-04-06T06:58:52.998Z</time></trkpt><trkpt lat="42.25834629437285" lon="14.502462261382599"><ele>7.0</ele><time>2026-04-06T06:58:54.998Z</time></trkpt><trkpt lat="42.25824828110612" lon="14.50255488247624"><ele>7.0</ele><time>2026-04-06T06:58:56.998Z</time></trkpt><trkpt lat="42.258147170610506" lon="14.50263669581442"><ele>7.0</ele><time>2026-04-06T06:58:58.998Z</time></trkpt><trkpt lat="42.25804530199313" lon="14.502721813520807"><ele>7.0</ele><time>2026-04-06T06:59:00.998Z</time></trkpt><trkpt lat="42.257944747239435" lon="14.502808863408934"><ele>7.0</ele><time>2026-04-06T06:59:02.998Z</time></trkpt><trkpt lat="42.25784215122908" lon="14.502894810498018"><ele>6.75</ele><time>2026-04-06T06:59:04.998Z</time></trkpt><trkpt lat="42.2577409035578" lon="14.502984087993182"><ele>6.5</ele><time>2026-04-06T06:59:06.998Z</time></trkpt><trkpt lat="42.25763966660077" lon="14.503073791684816"><ele>6.25</ele><time>2026-04-06T06:59:08.998Z</time></trkpt><trkpt lat="42.257538397788004" lon="14.503160286077653"><ele>6.0</ele><time>2026-04-06T06:59:10.998Z</time></trkpt><trkpt lat="42.25743557659378" lon="14.503241094556728"><ele>6.0</ele><time>2026-04-06T06:59:12.998Z</time></trkpt><trkpt lat="42.25733599339006" lon="14.503331630624881"><ele>6.0</ele><time>2026-04-06T06:59:14.998Z</time></trkpt><trkpt lat="42.257233222672994" lon="14.50341308199442"><ele>6.0</ele><time>2026-04-06T06:59:16.998Z</time></trkpt><trkpt lat="42.25713070872991" lon="14.503500598616457"><ele>6.0</ele><time>2026-04-06T06:59:18.999Z</time></trkpt><trkpt lat="42.257028295862455" lon="14.503588591548338"><ele>5.75</ele><time>2026-04-06T06:59:20.999Z</time></trkpt><trkpt lat="42.25692614209008" lon="14.50367525028886"><ele>5.5</ele><time>2026-04-06T06:59:22.999Z</time></trkpt><trkpt lat="42.25682317618762" lon="14.503760549104264"><ele>5.25</ele><time>2026-04-06T06:59:24.999Z</time></trkpt><trkpt lat="42.25672161294838" lon="14.503846692960087"><ele>5.0</ele><time>2026-04-06T06:59:26.999Z</time></trkpt><trkpt lat="42.25662160117816" lon="14.503933250276575"><ele>5.0</ele><time>2026-04-06T06:59:28.999Z</time></trkpt><trkpt lat="42.25652201040217" lon="14.50401705093588"><ele>5.0</ele><time>2026-04-06T06:59:30.999Z</time></trkpt><trkpt lat="42.25642194597441" lon="14.504101715427227"><ele>5.0</ele><time>2026-04-06T06:59:32.999Z</time></trkpt><trkpt lat="42.256322492269085" lon="14.50419014126566"><ele>5.0</ele><time>2026-04-06T06:59:34.999Z</time></trkpt><trkpt lat="42.25621882683706" lon="14.504274464335758"><ele>5.0</ele><time>2026-04-06T06:59:37.001Z</time></trkpt><trkpt lat="42.25611703347957" lon="14.5043581303633"><ele>5.0</ele><time>2026-04-06T06:59:39.001Z</time></trkpt><trkpt lat="42.25601548659833" lon="14.504444068458943"><ele>5.0</ele><time>2026-04-06T06:59:41.001Z</time></trkpt><trkpt lat="42.2559145615495" lon="14.504531236660014"><ele>5.0</ele><time>2026-04-06T06:59:43.001Z</time></trkpt><trkpt lat="42.2558156814641" lon="14.504618238162474"><ele>5.0</ele><time>2026-04-06T06:59:45.001Z</time></trkpt><trkpt lat="42.255713792152456" lon="14.504702634355429"><ele>5.0</ele><time>2026-04-06T06:59:47.001Z</time></trkpt><trkpt lat="42.25561415775244" lon="14.50478757748584"><ele>5.0</ele><time>2026-04-06T06:59:49.001Z</time></trkpt><trkpt lat="42.255513626796265" lon="14.504871824404267"><ele>5.0</ele><time>2026-04-06T06:59:51.001Z</time></trkpt><trkpt lat="42.25541440479759" lon="14.504961828340722"><ele>7.0</ele><time>2026-04-06T06:59:53Z</time></trkpt><trkpt lat="42.255313392069795" lon="14.505047643926058"><ele>9.0</ele><time>2026-04-06T06:59:55Z</time></trkpt><trkpt lat="42.25521495649396" lon="14.505141758509128"><ele>11.0</ele><time>2026-04-06T06:59:57Z</time></trkpt><trkpt lat="42.2551115185349" lon="14.505226674497242"><ele>13.0</ele><time>2026-04-06T06:59:59Z</time></trkpt><trkpt lat="42.25501044799963" lon="14.505323073468364"><ele>12.0</ele><time>2026-04-06T07:00:01Z</time></trkpt><trkpt lat="42.254907249395735" lon="14.50541262432879"><ele>11.0</ele><time>2026-04-06T07:00:03Z</time></trkpt><trkpt lat="42.254804936754894" lon="14.505504403909548"><ele>10.0</ele><time>2026-04-06T07:00:05Z</time></trkpt><trkpt lat="42.25470379737083" lon="14.50559296444199"><ele>9.0</ele><time>2026-04-06T07:00:07Z</time></trkpt><trkpt lat="42.254601626786446" lon="14.50568057781751"><ele>9.0</ele><time>2026-04-06T07:00:09Z</time></trkpt><trkpt lat="42.25449954353851" lon="14.505767916005448"><ele>9.0</ele><time>2026-04-06T07:00:11Z</time></trkpt><trkpt lat="42.25439893731515" lon="14.505855177709327"><ele>9.0</ele><time>2026-04-06T07:00:13Z</time></trkpt><trkpt lat="42.25430037053906" lon="14.505937635558913"><ele>9.0</ele><time>2026-04-06T07:00:15Z</time></trkpt><trkpt lat="42.25420473934869" lon="14.506016631405545"><ele>9.0</ele><time>2026-04-06T07:00:17Z</time></trkpt><trkpt lat="42.254114674333806" lon="14.506093223698281"><ele>9.0</ele><time>2026-04-06T07:00:19Z</time></trkpt><trkpt lat="42.25402486845777" lon="14.50616647538943"><ele>9.0</ele><time>2026-04-06T07:00:21Z</time></trkpt><trkpt lat="42.25393680216435" lon="14.506240174421583"><ele>9.0</ele><time>2026-04-06T07:00:23Z</time></trkpt><trkpt lat="42.25384797967256" lon="14.506309107003565"><ele>9.0</ele><time>2026-04-06T07:00:25Z</time></trkpt><trkpt lat="42.253764030722415" lon="14.506377043484754"><ele>8.666666666666666</ele><time>2026-04-06T07:00:27Z</time></trkpt><trkpt lat="42.253685147368714" lon="14.50643807572143"><ele>8.333333333333334</ele><time>2026-04-06T07:00:29Z</time></trkpt><trkpt lat="42.25361186079473" lon="14.50649987915547"><ele>8.0</ele><time>2026-04-06T07:00:31Z</time></trkpt><trkpt lat="42.25354696380871" lon="14.506562049304772"><ele>7.666666666666667</ele><time>2026-04-06T07:00:33Z</time></trkpt><trkpt lat="42.253480242043395" lon="14.506637100560305"><ele>7.333333333333334</ele><time>2026-04-06T07:00:36Z</time></trkpt><trkpt lat="42.25342191573732" lon="14.506688899628331"><ele>7.0</ele><time>2026-04-06T07:00:40Z</time></trkpt><trkpt lat="42.253449115551824" lon="14.506777262836732"><ele>7.000000000000001</ele><time>2026-04-06T07:00:45Z</time></trkpt><trkpt lat="42.2534198820741" lon="14.50669169497227"><ele>7.0</ele><time>2026-04-06T07:07:10.999Z</time></trkpt><trkpt lat="42.253475635978454" lon="14.506632928958734"><ele>7.0</ele><time>2026-04-06T07:07:15.999Z</time></trkpt><trkpt lat="42.253392437032005" lon="14.506677372975515"><ele>7.0</ele><time>2026-04-06T07:07:20.999Z</time></trkpt><trkpt lat="42.25333723873399" lon="14.506724239313415"><ele>7.000000000000001</ele><time>2026-04-06T07:07:22.999Z</time></trkpt><trkpt lat="42.253266236935474" lon="14.506783091428463"><ele>7.0</ele><time>2026-04-06T07:07:24.999Z</time></trkpt><trkpt lat="42.25318546341341" lon="14.506849340822368"><ele>6.8</ele><time>2026-04-06T07:07:26.999Z</time></trkpt><trkpt lat="42.25308084258896" lon="14.506929075384535"><ele>6.6</ele><time>2026-04-06T07:07:28.999Z</time></trkpt><trkpt lat="42.25302373887793" lon="14.506969070962587"><ele>6.3999999999999995</ele><time>2026-04-06T07:07:29.999Z</time></trkpt><trkpt lat="42.25291900043555" lon="14.507060266075323"><ele>6.199999999999999</ele><time>2026-04-06T07:07:31.999Z</time></trkpt><trkpt lat="42.25281062062421" lon="14.50714111747421"><ele>6.0</ele><time>2026-04-06T07:07:33.999Z</time></trkpt><trkpt lat="42.25270656746929" lon="14.507226833053702"><ele>6.0</ele><time>2026-04-06T07:07:35.999Z</time></trkpt><trkpt lat="42.25260235328964" lon="14.507314236113194"><ele>6.0</ele><time>2026-04-06T07:07:37.999Z</time></trkpt><trkpt lat="42.2524995337621" lon="14.50740579616923"><ele>6.0</ele><time>2026-04-06T07:07:39.999Z</time></trkpt><trkpt lat="42.25239752486329" lon="14.50749422333129"><ele>6.0</ele><time>2026-04-06T07:07:41.999Z</time></trkpt><trkpt lat="42.25229861445847" lon="14.507583251593635"><ele>6.25</ele><time>2026-04-06T07:07:43.998Z</time></trkpt><trkpt lat="42.25220126130734" lon="14.507673148838155"><ele>6.5</ele><time>2026-04-06T07:07:45.998Z</time></trkpt><trkpt lat="42.252107692228236" lon="14.507763706477121"><ele>6.75</ele><time>2026-04-06T07:07:47.998Z</time></trkpt><trkpt lat="42.252015536823734" lon="14.507857666045574"><ele>7.0</ele><time>2026-04-06T07:07:49.998Z</time></trkpt><trkpt lat="42.251923923987846" lon="14.50795428363595"><ele>7.0</ele><time>2026-04-06T07:07:51.998Z</time></trkpt><trkpt lat="42.25183542218568" lon="14.508052030038922"><ele>6.999999999999999</ele><time>2026-04-06T07:07:53.998Z</time></trkpt><trkpt lat="42.25174949857036" lon="14.508145429466753"><ele>6.999999999999999</ele><time>2026-04-06T07:07:55.998Z</time></trkpt><trkpt lat="42.251667979533934" lon="14.508235124723521"><ele>7.0</ele><time>2026-04-06T07:07:57.998Z</time></trkpt><trkpt lat="42.25159920714918" lon="14.508312197783264"><ele>7.0</ele><time>2026-04-06T07:08:00Z</time></trkpt><trkpt lat="42.25154326555126" lon="14.508364339684627"><ele>7.0</ele><time>2026-04-06T07:08:02Z</time></trkpt><trkpt lat="42.25153106006684" lon="14.508469008359274"><ele>6.999999999999999</ele><time>2026-04-06T07:08:05Z</time></trkpt><trkpt lat="42.25160304904626" lon="14.508547723078935"><ele>6.999999999999999</ele><time>2026-04-06T07:08:07Z</time></trkpt><trkpt lat="42.25169101988639" lon="14.508679507129877"><ele>7.0</ele><time>2026-04-06T07:08:09Z</time></trkpt><trkpt lat="42.25173375012174" lon="14.508758880789106"><ele>7.0</ele><time>2026-04-06T07:08:10Z</time></trkpt><trkpt lat="42.251786957801166" lon="14.508891796865809"><ele>6.666666666666667</ele><time>2026-04-06T07:08:12Z</time></trkpt><trkpt lat="42.25173206667057" lon="14.509041968601267"><ele>6.333333333333334</ele><time>2026-04-06T07:08:14Z</time></trkpt><trkpt lat="42.25167061544626" lon="14.509093464390075"><ele>6.0</ele><time>2026-04-06T07:08:15Z</time></trkpt><trkpt lat="42.25161737199458" lon="14.509147323853059"><ele>5.666666666666667</ele><time>2026-04-06T07:08:16Z</time></trkpt><trkpt lat="42.25157147578372" lon="14.509209090438306"><ele>5.333333333333334</ele><time>2026-04-06T07:08:17Z</time></trkpt><trkpt lat="42.251523717391855" lon="14.50927518719909"><ele>5.0</ele><time>2026-04-06T07:08:18Z</time></trkpt><trkpt lat="42.25147359897923" lon="14.509338234325519"><ele>5.0</ele><time>2026-04-06T07:08:19Z</time></trkpt><trkpt lat="42.251424233368546" lon="14.509403696608565"><ele>5.0</ele><time>2026-04-06T07:08:20Z</time></trkpt><trkpt lat="42.2513749808047" lon="14.50946830195293"><ele>5.0</ele><time>2026-04-06T07:08:21Z</time></trkpt><trkpt lat="42.251328573702" lon="14.509534178938337"><ele>5.0</ele><time>2026-04-06T07:08:22Z</time></trkpt><trkpt lat="42.25128140579878" lon="14.509595687397377"><ele>5.0</ele><time>2026-04-06T07:08:23Z</time></trkpt><trkpt lat="42.25123697015756" lon="14.50965792997651"><ele>5.0</ele><time>2026-04-06T07:08:24Z</time></trkpt><trkpt lat="42.25114962445304" lon="14.5097746576945"><ele>5.0</ele><time>2026-04-06T07:08:26Z</time></trkpt><trkpt lat="42.25106027003478" lon="14.509890202588657"><ele>5.0</ele><time>2026-04-06T07:08:28Z</time></trkpt><trkpt lat="42.25101383356879" lon="14.5099504148544"><ele>5.0</ele><time>2026-04-06T07:08:29Z</time></trkpt><trkpt lat="42.25096809414704" lon="14.510010396091884"><ele>5.0</ele><time>2026-04-06T07:08:30Z</time></trkpt><trkpt lat="42.250923075399555" lon="14.510070873349822"><ele>5.0</ele><time>2026-04-06T07:08:31Z</time></trkpt><trkpt lat="42.250879914775574" lon="14.510133238411107"><ele>5.0</ele><time>2026-04-06T07:08:32Z</time></trkpt><trkpt lat="42.25083414522188" lon="14.510193334640137"><ele>5.0</ele><time>2026-04-06T07:08:33Z</time></trkpt><trkpt lat="42.25078828790514" lon="14.510253017775616"><ele>5.0</ele><time>2026-04-06T07:08:34Z</time></trkpt><trkpt lat="42.25074390064137" lon="14.510314272386074"><ele>5.0</ele><time>2026-04-06T07:08:35Z</time></trkpt><trkpt lat="42.25069746087042" lon="14.510373063655758"><ele>5.0</ele><time>2026-04-06T07:08:36Z</time></trkpt><trkpt lat="42.25060626567629" lon="14.510493764650866"><ele>5.0</ele><time>2026-04-06T07:08:38Z</time></trkpt><trkpt lat="42.25056158459739" lon="14.51055514853807"><ele>5.0</ele><time>2026-04-06T07:08:39Z</time></trkpt><trkpt lat="42.25051616053094" lon="14.51061520488118"><ele>5.0</ele><time>2026-04-06T07:08:40Z</time></trkpt><trkpt lat="42.250471508307285" lon="14.51067560685227"><ele>5.0</ele><time>2026-04-06T07:08:41Z</time></trkpt><trkpt lat="42.250426455494726" lon="14.51073659066699"><ele>5.166666666666667</ele><time>2026-04-06T07:08:42Z</time></trkpt><trkpt lat="42.25038232524039" lon="14.510799022179189"><ele>5.333333333333334</ele><time>2026-04-06T07:08:43Z</time></trkpt><trkpt lat="42.25029518458565" lon="14.510923008952313"><ele>5.5</ele><time>2026-04-06T07:08:45Z</time></trkpt><trkpt lat="42.25024820591713" lon="14.51098414201075"><ele>5.666666666666667</ele><time>2026-04-06T07:08:46Z</time></trkpt><trkpt lat="42.25015581757423" lon="14.511105045216404"><ele>5.833333333333333</ele><time>2026-04-06T07:08:48Z</time></trkpt><trkpt lat="42.250112148799516" lon="14.511166844709342"><ele>6.0</ele><time>2026-04-06T07:08:49Z</time></trkpt><trkpt lat="42.2500663880479" lon="14.511230443227976"><ele>5.999999999999999</ele><time>2026-04-06T07:08:50Z</time></trkpt><trkpt lat="42.25002301665244" lon="14.51129258374118"><ele>6.0</ele><time>2026-04-06T07:08:51Z</time></trkpt><trkpt lat="42.249976405394584" lon="14.511352413243138"><ele>6.0</ele><time>2026-04-06T07:08:52Z</time></trkpt><trkpt lat="42.24993031202122" lon="14.511413581310357"><ele>6.0</ele><time>2026-04-06T07:08:53Z</time></trkpt><trkpt lat="42.2498853350096" lon="14.511475717080636"><ele>6.0</ele><time>2026-04-06T07:08:54Z</time></trkpt><trkpt lat="42.249838374976626" lon="14.511537306430677"><ele>5.999999999999999</ele><time>2026-04-06T07:08:54.999Z</time></trkpt><trkpt lat="42.24979162093308" lon="14.51160085143842"><ele>6.0</ele><time>2026-04-06T07:08:55.999Z</time></trkpt><trkpt lat="42.249745715545394" lon="14.511661864451172"><ele>5.999999999999999</ele><time>2026-04-06T07:08:56.999Z</time></trkpt><trkpt lat="42.249701998887026" lon="14.511726210409769"><ele>6.0</ele><time>2026-04-06T07:08:57.999Z</time></trkpt><trkpt lat="42.24965083010761" lon="14.511785475692227"><ele>6.0</ele><time>2026-04-06T07:08:58.999Z</time></trkpt><trkpt lat="42.24960402891212" lon="14.51184840280591"><ele>6.0</ele><time>2026-04-06T07:08:59.999Z</time></trkpt><trkpt lat="42.24955768677862" lon="14.511913208112679"><ele>6.0</ele><time>2026-04-06T07:09:00.999Z</time></trkpt><trkpt lat="42.24951407199531" lon="14.511981794380166"><ele>5.999999999999999</ele><time>2026-04-06T07:09:01.999Z</time></trkpt><trkpt lat="42.249466379155926" lon="14.512044468065657"><ele>6.0</ele><time>2026-04-06T07:09:02.999Z</time></trkpt><trkpt lat="42.24941870401226" lon="14.512105214742554"><ele>5.571428571428571</ele><time>2026-04-06T07:09:03.999Z</time></trkpt><trkpt lat="42.24937203422235" lon="14.512169575834278"><ele>5.142857142857142</ele><time>2026-04-06T07:09:04.999Z</time></trkpt><trkpt lat="42.249324602146636" lon="14.512230880201033"><ele>4.7142857142857135</ele><time>2026-04-06T07:09:05.999Z</time></trkpt><trkpt lat="42.24927830795833" lon="14.512293960236343"><ele>4.285714285714286</ele><time>2026-04-06T07:09:06.999Z</time></trkpt><trkpt lat="42.24923257398705" lon="14.512358465581082"><ele>3.8571428571428568</ele><time>2026-04-06T07:09:07.999Z</time></trkpt><trkpt lat="42.249186674914405" lon="14.512421633784866"><ele>3.4285714285714284</ele><time>2026-04-06T07:09:08.999Z</time></trkpt><trkpt lat="42.2491414582729" lon="14.512485528429156"><ele>3.0</ele><time>2026-04-06T07:09:09.999Z</time></trkpt><trkpt lat="42.249097737770896" lon="14.512550299743813"><ele>2.9999999999999996</ele><time>2026-04-06T07:09:10.999Z</time></trkpt><trkpt lat="42.24905389328587" lon="14.512613961437001"><ele>3.0</ele><time>2026-04-06T07:09:11.999Z</time></trkpt><trkpt lat="42.24901283704135" lon="14.512679231929786"><ele>3.0</ele><time>2026-04-06T07:09:12.999Z</time></trkpt><trkpt lat="42.24897034715731" lon="14.51274586500276"><ele>3.0</ele><time>2026-04-06T07:09:13.999Z</time></trkpt><trkpt lat="42.24892882043547" lon="14.512812447028768"><ele>3.0</ele><time>2026-04-06T07:09:14.999Z</time></trkpt><trkpt lat="42.248886590537104" lon="14.512879728884966"><ele>2.9999999999999996</ele><time>2026-04-06T07:09:15.999Z</time></trkpt><trkpt lat="42.24884580249212" lon="14.512948455825164"><ele>3.0</ele><time>2026-04-06T07:09:16.999Z</time></trkpt><trkpt lat="42.2488069767056" lon="14.513018147070653"><ele>3.4285714285714284</ele><time>2026-04-06T07:09:17.999Z</time></trkpt><trkpt lat="42.24876928420586" lon="14.513088618811178"><ele>3.8571428571428568</ele><time>2026-04-06T07:09:18.999Z</time></trkpt><trkpt lat="42.24873241701578" lon="14.513163021522532"><ele>4.285714285714286</ele><time>2026-04-06T07:09:19.999Z</time></trkpt><trkpt lat="42.24869348511112" lon="14.51323661241745"><ele>4.7142857142857135</ele><time>2026-04-06T07:09:20.999Z</time></trkpt><trkpt lat="42.24865475021617" lon="14.513308620632161"><ele>5.142857142857142</ele><time>2026-04-06T07:09:21.999Z</time></trkpt><trkpt lat="42.248614503617276" lon="14.513380841598764"><ele>5.571428571428571</ele><time>2026-04-06T07:09:22.999Z</time></trkpt><trkpt lat="42.24857299166466" lon="14.513451760138777"><ele>6.0</ele><time>2026-04-06T07:09:23.999Z</time></trkpt><trkpt lat="42.248532214405216" lon="14.513523681846864"><ele>5.999999999999999</ele><time>2026-04-06T07:09:24.999Z</time></trkpt><trkpt lat="42.24849381702924" lon="14.513597002479303"><ele>6.0</ele><time>2026-04-06T07:09:25.999Z</time></trkpt><trkpt lat="42.24845572938309" lon="14.513669117995132"><ele>6.0</ele><time>2026-04-06T07:09:26.999Z</time></trkpt><trkpt lat="42.24841907261673" lon="14.513740681591766"><ele>6.0</ele><time>2026-04-06T07:09:27.999Z</time></trkpt><trkpt lat="42.248380867247405" lon="14.513810022606727"><ele>6.0</ele><time>2026-04-06T07:09:28.999Z</time></trkpt><trkpt lat="42.248341545921" lon="14.51387893751644"><ele>5.999999999999999</ele><time>2026-04-06T07:09:29.999Z</time></trkpt><trkpt lat="42.24830281367699" lon="14.513947237688496"><ele>6.0</ele><time>2026-04-06T07:09:30.999Z</time></trkpt><trkpt lat="42.24826592626553" lon="14.514018226354171"><ele>5.999999999999999</ele><time>2026-04-06T07:09:31.999Z</time></trkpt><trkpt lat="42.24822811067829" lon="14.514086401051552"><ele>6.0</ele><time>2026-04-06T07:09:32.999Z</time></trkpt><trkpt lat="42.24819234822319" lon="14.51415759165996"><ele>6.0</ele><time>2026-04-06T07:09:33.999Z</time></trkpt><trkpt lat="42.24815638233855" lon="14.514228192964024"><ele>6.0</ele><time>2026-04-06T07:09:34.999Z</time></trkpt><trkpt lat="42.24811614168692" lon="14.514297553340114"><ele>6.0</ele><time>2026-04-06T07:09:35.999Z</time></trkpt><trkpt lat="42.24804308057785" lon="14.51443790145697"><ele>5.999999999999999</ele><time>2026-04-06T07:09:37.999Z</time></trkpt><trkpt lat="42.24800579428793" lon="14.514506859278061"><ele>6.0</ele><time>2026-04-06T07:09:38.999Z</time></trkpt><trkpt lat="42.24796739488877" lon="14.514576809304002"><ele>6.0</ele><time>2026-04-06T07:09:39.999Z</time></trkpt><trkpt lat="42.24793015170409" lon="14.514646027972482"><ele>6.0</ele><time>2026-04-06T07:09:40.999Z</time></trkpt><trkpt lat="42.24785208436036" lon="14.514781840795042"><ele>6.0</ele><time>2026-04-06T07:09:42.999Z</time></trkpt><trkpt lat="42.24777533609786" lon="14.514920580865988"><ele>6.0</ele><time>2026-04-06T07:09:44.999Z</time></trkpt><trkpt lat="42.24773768355205" lon="14.514989135197704"><ele>6.0</ele><time>2026-04-06T07:09:45.999Z</time></trkpt><trkpt lat="42.24769864788464" lon="14.515060093779049"><ele>6.0</ele><time>2026-04-06T07:09:46.999Z</time></trkpt><trkpt lat="42.24766224646223" lon="14.515129738244363"><ele>6.0</ele><time>2026-04-06T07:09:47.999Z</time></trkpt><trkpt lat="42.24762551570729" lon="14.515200077262849"><ele>6.0</ele><time>2026-04-06T07:09:48.999Z</time></trkpt><trkpt lat="42.247588895300744" lon="14.515271261348815"><ele>6.0</ele><time>2026-04-06T07:09:49.999Z</time></trkpt><trkpt lat="42.24755030939124" lon="14.515339915509134"><ele>6.0</ele><time>2026-04-06T07:09:50.999Z</time></trkpt><trkpt lat="42.24751403862424" lon="14.515411107013042"><ele>6.0</ele><time>2026-04-06T07:09:51.999Z</time></trkpt><trkpt lat="42.24747631474926" lon="14.515480782997011"><ele>6.0</ele><time>2026-04-06T07:09:52.999Z</time></trkpt><trkpt lat="42.247438139395804" lon="14.515550873312709"><ele>6.0</ele><time>2026-04-06T07:09:53.998Z</time></trkpt><trkpt lat="42.247403442846654" lon="14.51562434110755"><ele>6.0</ele><time>2026-04-06T07:09:54.998Z</time></trkpt><trkpt lat="42.24733086543304" lon="14.51575925498877"><ele>5.8</ele><time>2026-04-06T07:09:56.998Z</time></trkpt><trkpt lat="42.24725891703607" lon="14.51589429600082"><ele>5.6</ele><time>2026-04-06T07:09:58.998Z</time></trkpt><trkpt lat="42.247221696691675" lon="14.515964132394096"><ele>5.4</ele><time>2026-04-06T07:09:59.998Z</time></trkpt><trkpt lat="42.24714886307872" lon="14.516100927404125"><ele>5.2</ele><time>2026-04-06T07:10:01.998Z</time></trkpt><trkpt lat="42.24707576324858" lon="14.5162354667782"><ele>5.0</ele><time>2026-04-06T07:10:03.998Z</time></trkpt><trkpt lat="42.24700218584763" lon="14.51636899466266"><ele>5.0</ele><time>2026-04-06T07:10:06Z</time></trkpt><trkpt lat="42.24696599327939" lon="14.516439670649591"><ele>5.0</ele><time>2026-04-06T07:10:07Z</time></trkpt><trkpt lat="42.24689407100769" lon="14.516575375145242"><ele>5.0</ele><time>2026-04-06T07:10:09Z</time></trkpt><trkpt lat="42.246820893528586" lon="14.516706479849782"><ele>5.0</ele><time>2026-04-06T07:10:11Z</time></trkpt><trkpt lat="42.24675039415848" lon="14.516843032471378"><ele>5.0</ele><time>2026-04-06T07:10:13Z</time></trkpt><trkpt lat="42.24667976763183" lon="14.516977451752739"><ele>5.25</ele><time>2026-04-06T07:10:15Z</time></trkpt><trkpt lat="42.2466094785285" lon="14.51711178124834"><ele>5.5</ele><time>2026-04-06T07:10:17Z</time></trkpt><trkpt lat="42.24653826620524" lon="14.517243704273275"><ele>5.75</ele><time>2026-04-06T07:10:19Z</time></trkpt><trkpt lat="42.246466713058346" lon="14.51737608773818"><ele>6.0</ele><time>2026-04-06T07:10:21Z</time></trkpt><trkpt lat="42.24639330413505" lon="14.517504769489275"><ele>6.0</ele><time>2026-04-06T07:10:23Z</time></trkpt><trkpt lat="42.24632196260405" lon="14.517636626065396"><ele>6.0</ele><time>2026-04-06T07:10:25Z</time></trkpt><trkpt lat="42.24625339928516" lon="14.517768362349168"><ele>6.0</ele><time>2026-04-06T07:10:27Z</time></trkpt><trkpt lat="42.24618471942369" lon="14.517897819742744"><ele>6.0</ele><time>2026-04-06T07:10:29Z</time></trkpt><trkpt lat="42.24611353673721" lon="14.518030098235881"><ele>5.5</ele><time>2026-04-06T07:10:31Z</time></trkpt><trkpt lat="42.24604211147892" lon="14.518162279366864"><ele>5.0</ele><time>2026-04-06T07:10:33Z</time></trkpt><trkpt lat="42.245974077649485" lon="14.518300850017727"><ele>4.5</ele><time>2026-04-06T07:10:35Z</time></trkpt><trkpt lat="42.24590943240539" lon="14.518439845225897"><ele>4.0</ele><time>2026-04-06T07:10:37Z</time></trkpt><trkpt lat="42.2458334498798" lon="14.518563435288629"><ele>4.0</ele><time>2026-04-06T07:10:39Z</time></trkpt><trkpt lat="42.24575918401416" lon="14.518687799257096"><ele>4.0</ele><time>2026-04-06T07:10:41Z</time></trkpt><trkpt lat="42.2456926132684" lon="14.518817427387733"><ele>4.0</ele><time>2026-04-06T07:10:43Z</time></trkpt><trkpt lat="42.24562813641249" lon="14.518950761320006"><ele>4.0</ele><time>2026-04-06T07:10:45Z</time></trkpt><trkpt lat="42.24557129269459" lon="14.519088116268186"><ele>4.5</ele><time>2026-04-06T07:10:47Z</time></trkpt><trkpt lat="42.24550724986019" lon="14.519221976829868"><ele>5.0</ele><time>2026-04-06T07:10:49Z</time></trkpt><trkpt lat="42.24544620878888" lon="14.519363461124716"><ele>5.5</ele><time>2026-04-06T07:10:51Z</time></trkpt><trkpt lat="42.245387331304514" lon="14.51950538822459"><ele>6.0</ele><time>2026-04-06T07:10:53Z</time></trkpt><trkpt lat="42.24532723534175" lon="14.5196467230654"><ele>6.25</ele><time>2026-04-06T07:10:55Z</time></trkpt><trkpt lat="42.24526913903998" lon="14.519787785890786"><ele>6.5</ele><time>2026-04-06T07:10:57Z</time></trkpt><trkpt lat="42.245205188491425" lon="14.519924509397761"><ele>6.75</ele><time>2026-04-06T07:10:59Z</time></trkpt><trkpt lat="42.24513921330326" lon="14.52006141866607"><ele>7.0</ele><time>2026-04-06T07:11:01Z</time></trkpt><trkpt lat="42.245067988258626" lon="14.520187864145958"><ele>7.0</ele><time>2026-04-06T07:11:02.999Z</time></trkpt><trkpt lat="42.24500008200962" lon="14.52032049690167"><ele>7.0</ele><time>2026-04-06T07:11:04.999Z</time></trkpt><trkpt lat="42.24492603761651" lon="14.52044229545906"><ele>7.0</ele><time>2026-04-06T07:11:06.999Z</time></trkpt><trkpt lat="42.2448427844142" lon="14.520550721617035"><ele>7.0</ele><time>2026-04-06T07:11:08.999Z</time></trkpt><trkpt lat="42.244771428064375" lon="14.520677524762677"><ele>6.75</ele><time>2026-04-06T07:11:10.999Z</time></trkpt><trkpt lat="42.24469354709939" lon="14.520798229258276"><ele>6.5</ele><time>2026-04-06T07:11:12.999Z</time></trkpt><trkpt lat="42.24461035868149" lon="14.520906601614717"><ele>6.25</ele><time>2026-04-06T07:11:14.999Z</time></trkpt><trkpt lat="42.24452650312621" lon="14.521014955406072"><ele>6.0</ele><time>2026-04-06T07:11:16.999Z</time></trkpt><trkpt lat="42.244446185276814" lon="14.521132764065937"><ele>4.75</ele><time>2026-04-06T07:11:18.999Z</time></trkpt><trkpt lat="42.24436640259929" lon="14.521250581503946"><ele>3.5</ele><time>2026-04-06T07:11:20.999Z</time></trkpt><trkpt lat="42.244286481976076" lon="14.521367471504654"><ele>2.25</ele><time>2026-04-06T07:11:22.999Z</time></trkpt><trkpt lat="42.244207750299765" lon="14.52148645353647"><ele>1.0</ele><time>2026-04-06T07:11:24.999Z</time></trkpt><trkpt lat="42.24412754460713" lon="14.521602300664378"><ele>1.0</ele><time>2026-04-06T07:11:26.999Z</time></trkpt><trkpt lat="42.244047665529706" lon="14.521717588648224"><ele>1.0</ele><time>2026-04-06T07:11:28.999Z</time></trkpt><trkpt lat="42.24396791449986" lon="14.521835576918956"><ele>1.0</ele><time>2026-04-06T07:11:30.999Z</time></trkpt><trkpt lat="42.24388353944788" lon="14.52194655499522"><ele>1.0</ele><time>2026-04-06T07:11:32.999Z</time></trkpt><trkpt lat="42.24380952841761" lon="14.522066452767612"><ele>1.25</ele><time>2026-04-06T07:11:34.999Z</time></trkpt><trkpt lat="42.24373850228776" lon="14.522186052884665"><ele>1.5</ele><time>2026-04-06T07:11:36.999Z</time></trkpt><trkpt lat="42.243658646520444" lon="14.522290637758868"><ele>1.75</ele><time>2026-04-06T07:11:38.999Z</time></trkpt><trkpt lat="42.24358017106055" lon="14.522399725680144"><ele>2.0</ele><time>2026-04-06T07:11:40.999Z</time></trkpt><trkpt lat="42.243504880791505" lon="14.522513433914577"><ele>2.0</ele><time>2026-04-06T07:11:42.999Z</time></trkpt><trkpt lat="42.243437877438005" lon="14.522638688640413"><ele>2.0</ele><time>2026-04-06T07:11:44.999Z</time></trkpt><trkpt lat="42.24336163633641" lon="14.522759689220656"><ele>2.0</ele><time>2026-04-06T07:11:46.999Z</time></trkpt><trkpt lat="42.243282810314156" lon="14.522882887844295"><ele>2.0</ele><time>2026-04-06T07:11:48.999Z</time></trkpt><trkpt lat="42.243209158705085" lon="14.52301264221175"><ele>1.75</ele><time>2026-04-06T07:11:50.999Z</time></trkpt><trkpt lat="42.243135165813534" lon="14.52313810658958"><ele>1.5</ele><time>2026-04-06T07:11:52.999Z</time></trkpt><trkpt lat="42.24306106110393" lon="14.52326497707406"><ele>1.25</ele><time>2026-04-06T07:11:54.999Z</time></trkpt><trkpt lat="42.242987484017576" lon="14.52339545050517"><ele>1.0</ele><time>2026-04-06T07:11:56.999Z</time></trkpt><trkpt lat="42.24291713751306" lon="14.523529790940415"><ele>1.0</ele><time>2026-04-06T07:11:58.999Z</time></trkpt><trkpt lat="42.24284796782699" lon="14.523662889488882"><ele>1.0</ele><time>2026-04-06T07:12:00.998Z</time></trkpt><trkpt lat="42.24278313029098" lon="14.523795364582288"><ele>1.0</ele><time>2026-04-06T07:12:02.998Z</time></trkpt><trkpt lat="42.24271525003582" lon="14.523930504701182"><ele>1.0</ele><time>2026-04-06T07:12:04.998Z</time></trkpt><trkpt lat="42.24265246001606" lon="14.524074012202979"><ele>1.25</ele><time>2026-04-06T07:12:06.998Z</time></trkpt><trkpt lat="42.24259423096026" lon="14.524220231537937"><ele>1.5</ele><time>2026-04-06T07:12:08.998Z</time></trkpt><trkpt lat="42.24253640996221" lon="14.524364145531738"><ele>1.75</ele><time>2026-04-06T07:12:10.998Z</time></trkpt><trkpt lat="42.24247748538277" lon="14.524507473763196"><ele>2.0</ele><time>2026-04-06T07:12:13Z</time></trkpt><trkpt lat="42.24241800939915" lon="14.524648433579872"><ele>1.75</ele><time>2026-04-06T07:12:15Z</time></trkpt><trkpt lat="42.242352531906306" lon="14.524783445887628"><ele>1.5</ele><time>2026-04-06T07:12:17Z</time></trkpt><trkpt lat="42.242298452199066" lon="14.524925343662437"><ele>1.25</ele><time>2026-04-06T07:12:19Z</time></trkpt><trkpt lat="42.242242251944525" lon="14.525065868081711"><ele>1.0</ele><time>2026-04-06T07:12:21Z</time></trkpt><trkpt lat="42.24219045206676" lon="14.525203549495515"><ele>1.0</ele><time>2026-04-06T07:12:23Z</time></trkpt><trkpt lat="42.24213555405584" lon="14.525342117864984"><ele>1.0</ele><time>2026-04-06T07:12:25Z</time></trkpt><trkpt lat="42.24207862859586" lon="14.525477810469297"><ele>1.0</ele><time>2026-04-06T07:12:27Z</time></trkpt><trkpt lat="42.2420237024538" lon="14.52561304587523"><ele>1.0</ele><time>2026-04-06T07:12:29Z</time></trkpt><trkpt lat="42.24197104348165" lon="14.525754199387352"><ele>1.25</ele><time>2026-04-06T07:12:31Z</time></trkpt><trkpt lat="42.241915298140576" lon="14.525895393080791"><ele>1.5</ele><time>2026-04-06T07:12:33Z</time></trkpt><trkpt lat="42.241854654479965" lon="14.526037707641121"><ele>1.75</ele><time>2026-04-06T07:12:35Z</time></trkpt><trkpt lat="42.24179707147616" lon="14.526183131010821"><ele>2.0</ele><time>2026-04-06T07:12:37Z</time></trkpt><trkpt lat="42.24173659076254" lon="14.526325501803761"><ele>2.0</ele><time>2026-04-06T07:12:39Z</time></trkpt><trkpt lat="42.24167939080311" lon="14.526472436663337"><ele>2.0</ele><time>2026-04-06T07:12:41Z</time></trkpt><trkpt lat="42.241619442852326" lon="14.526619491780341"><ele>2.0</ele><time>2026-04-06T07:12:43Z</time></trkpt><trkpt lat="42.2415591211809" lon="14.526767796622233"><ele>2.0</ele><time>2026-04-06T07:12:45Z</time></trkpt><trkpt lat="42.24150214296002" lon="14.526918945830896"><ele>2.0</ele><time>2026-04-06T07:12:47Z</time></trkpt><trkpt lat="42.24147078471674" lon="14.5269947379747"><ele>2.0</ele><time>2026-04-06T07:12:48Z</time></trkpt><trkpt lat="42.24141080237282" lon="14.527140683011476"><ele>2.0</ele><time>2026-04-06T07:12:50Z</time></trkpt><trkpt lat="42.24135406665021" lon="14.527289450186325"><ele>2.0</ele><time>2026-04-06T07:12:52Z</time></trkpt><trkpt lat="42.24132271040026" lon="14.527363914081398"><ele>2.0</ele><time>2026-04-06T07:12:53Z</time></trkpt><trkpt lat="42.24126285185799" lon="14.527513736848801"><ele>1.6</ele><time>2026-04-06T07:12:55Z</time></trkpt><trkpt lat="42.24120293419147" lon="14.527661232639216"><ele>1.2000000000000002</ele><time>2026-04-06T07:12:57Z</time></trkpt><trkpt lat="42.24114377923563" lon="14.527812536514592"><ele>0.8</ele><time>2026-04-06T07:12:59Z</time></trkpt><trkpt lat="42.24108421181156" lon="14.52796227815356"><ele>0.4</ele><time>2026-04-06T07:13:01Z</time></trkpt><trkpt lat="42.24105383382564" lon="14.52803817491283"><ele>0.0</ele><time>2026-04-06T07:13:02Z</time></trkpt><trkpt lat="42.24102276065487" lon="14.528113768760393"><ele>-0.16666666666666666</ele><time>2026-04-06T07:13:03Z</time></trkpt><trkpt lat="42.24096244585265" lon="14.528265329206343"><ele>-0.3333333333333333</ele><time>2026-04-06T07:13:05Z</time></trkpt><trkpt lat="42.24093446998799" lon="14.528345147191292"><ele>-0.5</ele><time>2026-04-06T07:13:06Z</time></trkpt><trkpt lat="42.24090338703237" lon="14.528422759929796"><ele>-0.6666666666666666</ele><time>2026-04-06T07:13:07Z</time></trkpt><trkpt lat="42.24087270460509" lon="14.528499365321"><ele>-0.8333333333333333</ele><time>2026-04-06T07:13:07.999Z</time></trkpt><trkpt lat="42.24084194856455" lon="14.528574754370121"><ele>-1.0</ele><time>2026-04-06T07:13:08.999Z</time></trkpt><trkpt lat="42.240781334993756" lon="14.52872390176919"><ele>-0.8</ele><time>2026-04-06T07:13:10.999Z</time></trkpt><trkpt lat="42.2407527373557" lon="14.5287997481544"><ele>-0.6000000000000001</ele><time>2026-04-06T07:13:11.999Z</time></trkpt><trkpt lat="42.240723612606914" lon="14.528875643969496"><ele>-0.4</ele><time>2026-04-06T07:13:12.999Z</time></trkpt><trkpt lat="42.24066633990421" lon="14.529025539265087"><ele>-0.2</ele><time>2026-04-06T07:13:14.999Z</time></trkpt><trkpt lat="42.24060596745227" lon="14.529169652973753"><ele>0.0</ele><time>2026-04-06T07:13:16.999Z</time></trkpt><trkpt lat="42.24054778085798" lon="14.529316070554625"><ele>0.2</ele><time>2026-04-06T07:13:18.999Z</time></trkpt><trkpt lat="42.24048841446131" lon="14.529460667010774"><ele>0.4</ele><time>2026-04-06T07:13:20.999Z</time></trkpt><trkpt lat="42.2404188359189" lon="14.529599607249214"><ele>0.6000000000000001</ele><time>2026-04-06T07:13:22.999Z</time></trkpt><trkpt lat="42.240382471943775" lon="14.529670819861872"><ele>0.8</ele><time>2026-04-06T07:13:23.999Z</time></trkpt><trkpt lat="42.24031560960954" lon="14.529807496699016"><ele>1.0</ele><time>2026-04-06T07:13:25.999Z</time></trkpt><trkpt lat="42.24024163588977" lon="14.529937910556365"><ele>1.0</ele><time>2026-04-06T07:13:27.999Z</time></trkpt><trkpt lat="42.240184767073025" lon="14.530073214444688"><ele>1.0</ele><time>2026-04-06T07:13:29.999Z</time></trkpt><trkpt lat="42.24013029098837" lon="14.530208590309028"><ele>1.0</ele><time>2026-04-06T07:13:31.999Z</time></trkpt><trkpt lat="42.24007531499196" lon="14.530331890553887"><ele>1.0</ele><time>2026-04-06T07:13:33.999Z</time></trkpt><trkpt lat="42.24002334127742" lon="14.530451135658353"><ele>1.0</ele><time>2026-04-06T07:13:35.999Z</time></trkpt><trkpt lat="42.239963562548056" lon="14.530572394483125"><ele>1.0</ele><time>2026-04-06T07:13:37.999Z</time></trkpt><trkpt lat="42.23989916539877" lon="14.530701628514624"><ele>1.0</ele><time>2026-04-06T07:13:39.999Z</time></trkpt><trkpt lat="42.23984379971797" lon="14.530842392075117"><ele>1.0</ele><time>2026-04-06T07:13:41.999Z</time></trkpt><trkpt lat="42.23978273683025" lon="14.530977807029117"><ele>1.0</ele><time>2026-04-06T07:13:43.999Z</time></trkpt><trkpt lat="42.23972462216663" lon="14.531114353963554"><ele>1.0</ele><time>2026-04-06T07:13:45.999Z</time></trkpt><trkpt lat="42.239657484211826" lon="14.53123676111393"><ele>1.0</ele><time>2026-04-06T07:13:47.999Z</time></trkpt><trkpt lat="42.239598899343015" lon="14.531359671002484"><ele>1.0</ele><time>2026-04-06T07:13:49.999Z</time></trkpt><trkpt lat="42.23954430456639" lon="14.531483827981553"><ele>1.0</ele><time>2026-04-06T07:13:51.999Z</time></trkpt><trkpt lat="42.23948647895208" lon="14.531606261143143"><ele>1.0</ele><time>2026-04-06T07:13:53.999Z</time></trkpt><trkpt lat="42.239435566219626" lon="14.531733084982818"><ele>1.0</ele><time>2026-04-06T07:13:55.999Z</time></trkpt><trkpt lat="42.239384238020776" lon="14.531859904486405"><ele>1.0</ele><time>2026-04-06T07:13:57.999Z</time></trkpt><trkpt lat="42.23933425237657" lon="14.531985845221877"><ele>1.0</ele><time>2026-04-06T07:13:59.999Z</time></trkpt><trkpt lat="42.239280647557656" lon="14.532114276940154"><ele>1.0</ele><time>2026-04-06T07:14:01.999Z</time></trkpt><trkpt lat="42.23922158382323" lon="14.532243433067336"><ele>1.0</ele><time>2026-04-06T07:14:03.999Z</time></trkpt><trkpt lat="42.239160841807056" lon="14.53237429576491"><ele>1.0</ele><time>2026-04-06T07:14:05.998Z</time></trkpt><trkpt lat="42.23909998711253" lon="14.532508104659275"><ele>1.0</ele><time>2026-04-06T07:14:07.998Z</time></trkpt><trkpt lat="42.239042111554596" lon="14.532643148147052"><ele>1.0</ele><time>2026-04-06T07:14:09.998Z</time></trkpt><trkpt lat="42.23898228442976" lon="14.532782342374194"><ele>1.0</ele><time>2026-04-06T07:14:11.998Z</time></trkpt><trkpt lat="42.23890525233514" lon="14.532913268062261"><ele>1.0</ele><time>2026-04-06T07:14:13.998Z</time></trkpt><trkpt lat="42.238839759990434" lon="14.53305189032018"><ele>1.0</ele><time>2026-04-06T07:14:15.998Z</time></trkpt><trkpt lat="42.238776161932435" lon="14.533192635042996"><ele>1.0</ele><time>2026-04-06T07:14:18Z</time></trkpt><trkpt lat="42.238715443901796" lon="14.533335756901192"><ele>1.0</ele><time>2026-04-06T07:14:20Z</time></trkpt><trkpt lat="42.23865090634535" lon="14.533477934200155"><ele>1.0</ele><time>2026-04-06T07:14:22Z</time></trkpt><trkpt lat="42.238586022043" lon="14.533618775399011"><ele>1.0</ele><time>2026-04-06T07:14:24Z</time></trkpt><trkpt lat="42.23852243546863" lon="14.533764548651627"><ele>1.0</ele><time>2026-04-06T07:14:26Z</time></trkpt><trkpt lat="42.23845576529823" lon="14.533907097928392"><ele>1.0</ele><time>2026-04-06T07:14:28Z</time></trkpt><trkpt lat="42.238391918291576" lon="14.534049517012857"><ele>1.0</ele><time>2026-04-06T07:14:30Z</time></trkpt><trkpt lat="42.23832562540041" lon="14.534187014416972"><ele>1.0</ele><time>2026-04-06T07:14:32Z</time></trkpt><trkpt lat="42.238267370812295" lon="14.534328545604918"><ele>1.0</ele><time>2026-04-06T07:14:34Z</time></trkpt><trkpt lat="42.23820189805565" lon="14.534468458966478"><ele>1.0</ele><time>2026-04-06T07:14:36Z</time></trkpt><trkpt lat="42.23813672960849" lon="14.534609499479334"><ele>1.0</ele><time>2026-04-06T07:14:38Z</time></trkpt><trkpt lat="42.23807161669663" lon="14.53475392043968"><ele>1.0</ele><time>2026-04-06T07:14:40Z</time></trkpt><trkpt lat="42.23800231084884" lon="14.53489249935324"><ele>1.0</ele><time>2026-04-06T07:14:42Z</time></trkpt><trkpt lat="42.23793830031606" lon="14.535033920464839"><ele>1.0</ele><time>2026-04-06T07:14:44Z</time></trkpt><trkpt lat="42.237874086302526" lon="14.535172528969879"><ele>1.0</ele><time>2026-04-06T07:14:46Z</time></trkpt><trkpt lat="42.23780419789166" lon="14.535301254765413"><ele>1.0</ele><time>2026-04-06T07:14:48Z</time></trkpt><trkpt lat="42.23772271884473" lon="14.535411517365057"><ele>1.0</ele><time>2026-04-06T07:14:50Z</time></trkpt><trkpt lat="42.23763930364528" lon="14.53551565749321"><ele>1.0</ele><time>2026-04-06T07:14:52Z</time></trkpt><trkpt lat="42.237531454467785" lon="14.535532017939225"><ele>0.8</ele><time>2026-04-06T07:14:54Z</time></trkpt><trkpt lat="42.23742835957394" lon="14.53544736654087"><ele>0.6000000000000001</ele><time>2026-04-06T07:14:56Z</time></trkpt><trkpt lat="42.237315050156816" lon="14.53542092617178"><ele>0.4</ele><time>2026-04-06T07:14:58Z</time></trkpt><trkpt lat="42.23721531886365" lon="14.535418742979601"><ele>0.2</ele><time>2026-04-06T07:15:00Z</time></trkpt><trkpt lat="42.23714295644587" lon="14.535409847313906"><ele>0.0</ele><time>2026-04-06T07:15:02Z</time></trkpt><trkpt lat="42.23707337598435" lon="14.535432182167087"><ele>0.6</ele><time>2026-04-06T07:15:04Z</time></trkpt><trkpt lat="42.237022855987824" lon="14.535527373780129"><ele>1.2</ele><time>2026-04-06T07:15:06Z</time></trkpt><trkpt lat="42.23698400494418" lon="14.535640739958055"><ele>1.7999999999999998</ele><time>2026-04-06T07:15:08Z</time></trkpt><trkpt lat="42.23693899850847" lon="14.53575064957925"><ele>2.4</ele><time>2026-04-06T07:15:10Z</time></trkpt><trkpt lat="42.23689297620433" lon="14.53586779747982"><ele>3.0</ele><time>2026-04-06T07:15:11.999Z</time></trkpt><trkpt lat="42.23684560662536" lon="14.535987451144715"><ele>3.0</ele><time>2026-04-06T07:15:13.999Z</time></trkpt><trkpt lat="42.23679834384842" lon="14.536106550809759"><ele>3.0</ele><time>2026-04-06T07:15:15.999Z</time></trkpt><trkpt lat="42.23675319253189" lon="14.536228212007163"><ele>3.0</ele><time>2026-04-06T07:15:17.999Z</time></trkpt><trkpt lat="42.23670422904371" lon="14.536350599532945"><ele>3.0</ele><time>2026-04-06T07:15:19.999Z</time></trkpt><trkpt lat="42.2366566053299" lon="14.536473601566604"><ele>3.0</ele><time>2026-04-06T07:15:21.999Z</time></trkpt><trkpt lat="42.23660883068829" lon="14.536598348581663"><ele>2.8</ele><time>2026-04-06T07:15:23.999Z</time></trkpt><trkpt lat="42.236558762140035" lon="14.536720016772055"><ele>2.5999999999999996</ele><time>2026-04-06T07:15:25.999Z</time></trkpt><trkpt lat="42.23651220880305" lon="14.536849129700617"><ele>2.4000000000000004</ele><time>2026-04-06T07:15:27.999Z</time></trkpt><trkpt lat="42.23646308326099" lon="14.53697459040504"><ele>2.2</ele><time>2026-04-06T07:15:29.999Z</time></trkpt><trkpt lat="42.23641259979112" lon="14.537100790298119"><ele>2.0</ele><time>2026-04-06T07:15:31.999Z</time></trkpt><trkpt lat="42.23635903514798" lon="14.537226371616963"><ele>2.6</ele><time>2026-04-06T07:15:33.999Z</time></trkpt><trkpt lat="42.23630287519015" lon="14.537349079438338"><ele>3.2</ele><time>2026-04-06T07:15:35.999Z</time></trkpt><trkpt lat="42.23624826640388" lon="14.537474245896822"><ele>3.8</ele><time>2026-04-06T07:15:37.999Z</time></trkpt><trkpt lat="42.2361892680999" lon="14.537593878363161"><ele>4.4</ele><time>2026-04-06T07:15:39.999Z</time></trkpt><trkpt lat="42.236129307662736" lon="14.537710811462357"><ele>5.0</ele><time>2026-04-06T07:15:41.999Z</time></trkpt><trkpt lat="42.23606980611107" lon="14.537832731848585"><ele>5.0</ele><time>2026-04-06T07:15:43.999Z</time></trkpt><trkpt lat="42.23601432391825" lon="14.537957881288055"><ele>5.0</ele><time>2026-04-06T07:15:45.999Z</time></trkpt><trkpt lat="42.235958932545664" lon="14.538083006508227"><ele>5.0</ele><time>2026-04-06T07:15:47.999Z</time></trkpt><trkpt lat="42.23590059443154" lon="14.538205226696707"><ele>5.0</ele><time>2026-04-06T07:15:49.999Z</time></trkpt><trkpt lat="42.23584457577034" lon="14.538329275748067"><ele>5.0</ele><time>2026-04-06T07:15:51.999Z</time></trkpt><trkpt lat="42.235786318692135" lon="14.538455197595182"><ele>5.0</ele><time>2026-04-06T07:15:53.999Z</time></trkpt><trkpt lat="42.23572705990918" lon="14.538583790531336"><ele>5.0</ele><time>2026-04-06T07:15:55.999Z</time></trkpt><trkpt lat="42.235669202975345" lon="14.53870858122192"><ele>5.0</ele><time>2026-04-06T07:15:57.999Z</time></trkpt><trkpt lat="42.23560931092818" lon="14.538840348048893"><ele>5.0</ele><time>2026-04-06T07:15:59.999Z</time></trkpt><trkpt lat="42.235551744810955" lon="14.53897295346337"><ele>5.0</ele><time>2026-04-06T07:16:01.999Z</time></trkpt><trkpt lat="42.235492120427" lon="14.539102063833246"><ele>5.0</ele><time>2026-04-06T07:16:03.999Z</time></trkpt><trkpt lat="42.23543283997635" lon="14.539231820926718"><ele>5.0</ele><time>2026-04-06T07:16:05.999Z</time></trkpt><trkpt lat="42.23537299605747" lon="14.539361856341747"><ele>5.0</ele><time>2026-04-06T07:16:07.998Z</time></trkpt><trkpt lat="42.235314631653104" lon="14.53948985786268"><ele>5.0</ele><time>2026-04-06T07:16:09.998Z</time></trkpt><trkpt lat="42.23525579147704" lon="14.539617584193975"><ele>5.0</ele><time>2026-04-06T07:16:11.998Z</time></trkpt><trkpt lat="42.235200265720906" lon="14.539750898677477"><ele>5.0</ele><time>2026-04-06T07:16:13.998Z</time></trkpt><trkpt lat="42.23514063955801" lon="14.539885733157254"><ele>5.0</ele><time>2026-04-06T07:16:15.998Z</time></trkpt><trkpt lat="42.23507912740581" lon="14.540011083877795"><ele>5.0</ele><time>2026-04-06T07:16:17.998Z</time></trkpt><trkpt lat="42.23502033677176" lon="14.54014204458653"><ele>5.0</ele><time>2026-04-06T07:16:19.998Z</time></trkpt><trkpt lat="42.23495801330918" lon="14.540273173596475"><ele>4.75</ele><time>2026-04-06T07:16:21.998Z</time></trkpt><trkpt lat="42.234897702084645" lon="14.540410184373318"><ele>4.5</ele><time>2026-04-06T07:16:24Z</time></trkpt><trkpt lat="42.234834485869754" lon="14.54054218128311"><ele>4.25</ele><time>2026-04-06T07:16:26Z</time></trkpt><trkpt lat="42.234774866153764" lon="14.540674616754945"><ele>4.0</ele><time>2026-04-06T07:16:28Z</time></trkpt><trkpt lat="42.23471435099384" lon="14.540807203617682"><ele>4.0</ele><time>2026-04-06T07:16:30Z</time></trkpt><trkpt lat="42.234654100202924" lon="14.540937390531663"><ele>4.0</ele><time>2026-04-06T07:16:32Z</time></trkpt><trkpt lat="42.234593186631855" lon="14.541067938943923"><ele>4.0</ele><time>2026-04-06T07:16:34Z</time></trkpt><trkpt lat="42.2345339497907" lon="14.541198596249057"><ele>4.0</ele><time>2026-04-06T07:16:36Z</time></trkpt><trkpt lat="42.23447364428186" lon="14.54132852798961"><ele>4.0</ele><time>2026-04-06T07:16:38Z</time></trkpt><trkpt lat="42.23441581912748" lon="14.541457934365022"><ele>4.0</ele><time>2026-04-06T07:16:40Z</time></trkpt><trkpt lat="42.234358044558306" lon="14.54158505081485"><ele>4.0</ele><time>2026-04-06T07:16:42Z</time></trkpt><trkpt lat="42.23429933857928" lon="14.541709016184148"><ele>4.0</ele><time>2026-04-06T07:16:44Z</time></trkpt><trkpt lat="42.23424438806248" lon="14.541830853578928"><ele>4.0</ele><time>2026-04-06T07:16:46Z</time></trkpt><trkpt lat="42.23419648157154" lon="14.541955456650607"><ele>3.8000000000000003</ele><time>2026-04-06T07:16:48Z</time></trkpt><trkpt lat="42.2341401719695" lon="14.542071957382184"><ele>3.6000000000000005</ele><time>2026-04-06T07:16:50Z</time></trkpt><trkpt lat="42.23408202000672" lon="14.542189500308941"><ele>3.4</ele><time>2026-04-06T07:16:52Z</time></trkpt><trkpt lat="42.23402807909257" lon="14.542314776513356"><ele>3.2</ele><time>2026-04-06T07:16:54Z</time></trkpt><trkpt lat="42.23396883221461" lon="14.54243456828857"><ele>3.0</ele><time>2026-04-06T07:16:56Z</time></trkpt><trkpt lat="42.23391488448907" lon="14.542557411899699"><ele>4.6</ele><time>2026-04-06T07:16:58Z</time></trkpt><trkpt lat="42.23385553661383" lon="14.5426821626037"><ele>6.2</ele><time>2026-04-06T07:17:00Z</time></trkpt><trkpt lat="42.23379558043694" lon="14.542809520300956"><ele>7.800000000000001</ele><time>2026-04-06T07:17:02Z</time></trkpt><trkpt lat="42.23373205349756" lon="14.542932033905824"><ele>9.4</ele><time>2026-04-06T07:17:04Z</time></trkpt><trkpt lat="42.23365675763708" lon="14.54304296070966"><ele>11.0</ele><time>2026-04-06T07:17:06Z</time></trkpt><trkpt lat="42.23357310198267" lon="14.543133966274457"><ele>11.0</ele><time>2026-04-06T07:17:08Z</time></trkpt><trkpt lat="42.23349255496515" lon="14.543220722905934"><ele>11.0</ele><time>2026-04-06T07:17:10Z</time></trkpt><trkpt lat="42.23342070182827" lon="14.543308803469902"><ele>11.0</ele><time>2026-04-06T07:17:12Z</time></trkpt><trkpt lat="42.23335044069917" lon="14.543391212404227"><ele>11.0</ele><time>2026-04-06T07:17:13.999Z</time></trkpt><trkpt lat="42.233287143431056" lon="14.543474569969245"><ele>11.0</ele><time>2026-04-06T07:17:15.999Z</time></trkpt><trkpt lat="42.23323063928253" lon="14.54354572604187"><ele>11.0</ele><time>2026-04-06T07:17:17.999Z</time></trkpt><trkpt lat="42.23318382831196" lon="14.543614734573609"><ele>11.0</ele><time>2026-04-06T07:17:19.999Z</time></trkpt><trkpt lat="42.23310776272597" lon="14.543659849516997"><ele>11.0</ele><time>2026-04-06T07:17:22.999Z</time></trkpt><trkpt lat="42.233098358076816" lon="14.543565529962343"><ele>11.0</ele><time>2026-04-06T07:17:25.999Z</time></trkpt><trkpt lat="42.23314939653396" lon="14.543504109292442"><ele>11.0</ele><time>2026-04-06T07:17:27.999Z</time></trkpt><trkpt lat="42.23318762413519" lon="14.543425399859336"><ele>11.0</ele><time>2026-04-06T07:17:29.999Z</time></trkpt><trkpt lat="42.23323275444103" lon="14.543343219859594"><ele>11.0</ele><time>2026-04-06T07:17:31.999Z</time></trkpt><trkpt lat="42.2332795103065" lon="14.543251309903539"><ele>11.0</ele><time>2026-04-06T07:17:33.999Z</time></trkpt><trkpt lat="42.23333072343038" lon="14.543160614705831"><ele>11.0</ele><time>2026-04-06T07:17:35.999Z</time></trkpt><trkpt lat="42.233379324679014" lon="14.543064333941222"><ele>11.0</ele><time>2026-04-06T07:17:37.999Z</time></trkpt><trkpt lat="42.23343159821465" lon="14.542968183829482"><ele>11.0</ele><time>2026-04-06T07:17:39.999Z</time></trkpt><trkpt lat="42.233484184357565" lon="14.54287204174155"><ele>11.0</ele><time>2026-04-06T07:17:41.999Z</time></trkpt><trkpt lat="42.23353675301426" lon="14.542774690025928"><ele>11.0</ele><time>2026-04-06T07:17:43.999Z</time></trkpt><trkpt lat="42.233589402211116" lon="14.54267507025401"><ele>13.200000000000001</ele><time>2026-04-06T07:17:45.999Z</time></trkpt><trkpt lat="42.23363784936518" lon="14.542574161014574"><ele>15.400000000000002</ele><time>2026-04-06T07:17:47.999Z</time></trkpt><trkpt lat="42.23367724484859" lon="14.542466953323691"><ele>17.6</ele><time>2026-04-06T07:17:49.999Z</time></trkpt><trkpt lat="42.23370589989782" lon="14.542352319450877"><ele>19.8</ele><time>2026-04-06T07:17:51.999Z</time></trkpt><trkpt lat="42.233748788639815" lon="14.542241135161674"><ele>22.0</ele><time>2026-04-06T07:17:53.999Z</time></trkpt><trkpt lat="42.233794242678506" lon="14.54213577546701"><ele>22.400000000000002</ele><time>2026-04-06T07:17:55.999Z</time></trkpt><trkpt lat="42.23384020039653" lon="14.542027718946567"><ele>22.8</ele><time>2026-04-06T07:17:57.999Z</time></trkpt><trkpt lat="42.23388774159423" lon="14.541899539406852"><ele>23.2</ele><time>2026-04-06T07:17:59.999Z</time></trkpt><trkpt lat="42.233878403340036" lon="14.541750097655358"><ele>23.6</ele><time>2026-04-06T07:18:01.999Z</time></trkpt><trkpt lat="42.23378816496005" lon="14.541650419940803"><ele>24.0</ele><time>2026-04-06T07:18:03.999Z</time></trkpt><trkpt lat="42.23371754454163" lon="14.541588810292096"><ele>23.999999999999996</ele><time>2026-04-06T07:18:05.999Z</time></trkpt><trkpt lat="42.23366720694199" lon="14.541518234197051"><ele>24.0</ele><time>2026-04-06T07:18:07.999Z</time></trkpt><trkpt lat="42.233612670519356" lon="14.541452275005371"><ele>24.0</ele><time>2026-04-06T07:18:09.998Z</time></trkpt><trkpt lat="42.233556424247624" lon="14.541392149669763"><ele>24.0</ele><time>2026-04-06T07:18:11.998Z</time></trkpt><trkpt lat="42.23350259443595" lon="14.541333084520941"><ele>24.0</ele><time>2026-04-06T07:18:13.998Z</time></trkpt><trkpt lat="42.23344620905101" lon="14.5412874618936"><ele>23.999999999999996</ele><time>2026-04-06T07:18:15.998Z</time></trkpt><trkpt lat="42.23338675907156" lon="14.541252928290156"><ele>24.0</ele><time>2026-04-06T07:18:17.998Z</time></trkpt><trkpt lat="42.23330494524254" lon="14.541209758403713"><ele>24.142857142857142</ele><time>2026-04-06T07:18:20.998Z</time></trkpt><trkpt lat="42.233218765151456" lon="14.541175803986048"><ele>24.285714285714285</ele><time>2026-04-06T07:18:23.998Z</time></trkpt><trkpt lat="42.23315663853407" lon="14.541153600855662"><ele>24.42857142857143</ele><time>2026-04-06T07:18:25.998Z</time></trkpt><trkpt lat="42.23309562531347" lon="14.541117790040897"><ele>24.57142857142857</ele><time>2026-04-06T07:18:28Z</time></trkpt><trkpt lat="42.23303577730005" lon="14.541081036048695"><ele>24.714285714285715</ele><time>2026-04-06T07:18:30Z</time></trkpt><trkpt lat="42.23297926334513" lon="14.54103560907814"><ele>24.857142857142858</ele><time>2026-04-06T07:18:32Z</time></trkpt><trkpt lat="42.232915975270124" lon="14.540991657038791"><ele>25.0</ele><time>2026-04-06T07:18:34Z</time></trkpt><trkpt lat="42.232853325264934" lon="14.540956230532853"><ele>25.000000000000004</ele><time>2026-04-06T07:18:36Z</time></trkpt><trkpt lat="42.23278940981172" lon="14.54093385381359"><ele>25.0</ele><time>2026-04-06T07:18:38Z</time></trkpt><trkpt lat="42.23272634317703" lon="14.540905704452939"><ele>25.0</ele><time>2026-04-06T07:18:40Z</time></trkpt><trkpt lat="42.23265994906915" lon="14.540889259937586"><ele>25.0</ele><time>2026-04-06T07:18:42Z</time></trkpt><trkpt lat="42.23258611500118" lon="14.54087577493735"><ele>25.0</ele><time>2026-04-06T07:18:44Z</time></trkpt><trkpt lat="42.23251935360219" lon="14.540859292606726"><ele>25.000000000000004</ele><time>2026-04-06T07:18:46Z</time></trkpt><trkpt lat="42.232448757695025" lon="14.5408390594721"><ele>25.0</ele><time>2026-04-06T07:18:48Z</time></trkpt><trkpt lat="42.23238132783829" lon="14.540819088185104"><ele>25.000000000000004</ele><time>2026-04-06T07:18:50Z</time></trkpt><trkpt lat="42.23231356108898" lon="14.540787842819888"><ele>25.0</ele><time>2026-04-06T07:18:52Z</time></trkpt><trkpt lat="42.23224976996408" lon="14.540751489593708"><ele>25.0</ele><time>2026-04-06T07:18:54Z</time></trkpt><trkpt lat="42.232189673766065" lon="14.540706951841182"><ele>25.0</ele><time>2026-04-06T07:18:56Z</time></trkpt><trkpt lat="42.23213220296079" lon="14.540657467345284"><ele>25.0</ele><time>2026-04-06T07:18:58Z</time></trkpt><trkpt lat="42.23207391655534" lon="14.540600066064489"><ele>25.000000000000004</ele><time>2026-04-06T07:19:00Z</time></trkpt><trkpt lat="42.232021281736486" lon="14.54053639627412"><ele>25.0</ele><time>2026-04-06T07:19:02Z</time></trkpt><trkpt lat="42.23197421894713" lon="14.540467438253277"><ele>26.0</ele><time>2026-04-06T07:19:04Z</time></trkpt><trkpt lat="42.23193379689356" lon="14.540389399393954"><ele>27.0</ele><time>2026-04-06T07:19:06Z</time></trkpt><trkpt lat="42.231904754316474" lon="14.540298396257242"><ele>28.0</ele><time>2026-04-06T07:19:08Z</time></trkpt><trkpt lat="42.231880661330294" lon="14.540207723650205"><ele>29.0</ele><time>2026-04-06T07:19:10Z</time></trkpt><trkpt lat="42.23186378914936" lon="14.540116977695947"><ele>29.999999999999996</ele><time>2026-04-06T07:19:12Z</time></trkpt><trkpt lat="42.23185128101203" lon="14.540023735202718"><ele>31.0</ele><time>2026-04-06T07:19:13.999Z</time></trkpt><trkpt lat="42.23184323931042" lon="14.539927508350265"><ele>32.0</ele><time>2026-04-06T07:19:15.999Z</time></trkpt><trkpt lat="42.23183620090189" lon="14.53983509143883"><ele>32.0</ele><time>2026-04-06T07:19:17.999Z</time></trkpt><trkpt lat="42.23182679900681" lon="14.539738328448822"><ele>31.999999999999996</ele><time>2026-04-06T07:19:19.999Z</time></trkpt><trkpt lat="42.23181001732066" lon="14.539643354164"><ele>32.0</ele><time>2026-04-06T07:19:21.999Z</time></trkpt><trkpt lat="42.2317842144444" lon="14.539549832511282"><ele>32.0</ele><time>2026-04-06T07:19:23.999Z</time></trkpt><trkpt lat="42.231751420956364" lon="14.539460898039142"><ele>31.999999999999996</ele><time>2026-04-06T07:19:25.999Z</time></trkpt><trkpt lat="42.23171372334851" lon="14.539378868864155"><ele>32.0</ele><time>2026-04-06T07:19:27.999Z</time></trkpt><trkpt lat="42.23166788674559" lon="14.539309270685987"><ele>32.0</ele><time>2026-04-06T07:19:29.999Z</time></trkpt><trkpt lat="42.23161973968257" lon="14.53923863781556"><ele>32.57142857142857</ele><time>2026-04-06T07:19:31.999Z</time></trkpt><trkpt lat="42.231568192779186" lon="14.539170225090011"><ele>33.14285714285714</ele><time>2026-04-06T07:19:33.999Z</time></trkpt><trkpt lat="42.23151102871673" lon="14.539102908077238"><ele>33.714285714285715</ele><time>2026-04-06T07:19:35.999Z</time></trkpt><trkpt lat="42.23145897546099" lon="14.539036185190476"><ele>34.285714285714285</ele><time>2026-04-06T07:19:37.999Z</time></trkpt><trkpt lat="42.23140554104059" lon="14.538969865272598"><ele>34.85714285714286</ele><time>2026-04-06T07:19:39.999Z</time></trkpt><trkpt lat="42.23135049356986" lon="14.5389098327947"><ele>35.42857142857143</ele><time>2026-04-06T07:19:41.999Z</time></trkpt><trkpt lat="42.23129046420791" lon="14.538850621869503"><ele>36.0</ele><time>2026-04-06T07:19:43.999Z</time></trkpt><trkpt lat="42.23122852874007" lon="14.538797882610181"><ele>36.00000000000001</ele><time>2026-04-06T07:19:45.999Z</time></trkpt><trkpt lat="42.231168084532804" lon="14.538746299952084"><ele>36.0</ele><time>2026-04-06T07:19:47.999Z</time></trkpt><trkpt lat="42.231098858913704" lon="14.538701019609503"><ele>36.0</ele><time>2026-04-06T07:19:49.999Z</time></trkpt><trkpt lat="42.23103155426609" lon="14.538658988692248"><ele>36.0</ele><time>2026-04-06T07:19:51.999Z</time></trkpt><trkpt lat="42.23096311601503" lon="14.538619344308154"><ele>36.0</ele><time>2026-04-06T07:19:53.999Z</time></trkpt><trkpt lat="42.23089216944504" lon="14.538590827864104"><ele>36.00000000000001</ele><time>2026-04-06T07:19:55.999Z</time></trkpt><trkpt lat="42.23081783859604" lon="14.538567942618126"><ele>36.0</ele><time>2026-04-06T07:19:57.999Z</time></trkpt><trkpt lat="42.23074545249526" lon="14.538543171648564"><ele>35.142857142857146</ele><time>2026-04-06T07:19:59.999Z</time></trkpt><trkpt lat="42.23067327574429" lon="14.538524262032572"><ele>34.285714285714285</ele><time>2026-04-06T07:20:01.999Z</time></trkpt><trkpt lat="42.230599803159585" lon="14.538503432672991"><ele>33.42857142857143</ele><time>2026-04-06T07:20:03.999Z</time></trkpt><trkpt lat="42.23052718673882" lon="14.538480958780719"><ele>32.57142857142857</ele><time>2026-04-06T07:20:05.999Z</time></trkpt><trkpt lat="42.23045523085822" lon="14.538455450294709"><ele>31.714285714285715</ele><time>2026-04-06T07:20:07.999Z</time></trkpt><trkpt lat="42.23038271213834" lon="14.53843102966911"><ele>30.857142857142858</ele><time>2026-04-06T07:20:09.998Z</time></trkpt><trkpt lat="42.23031014260812" lon="14.538408822903994"><ele>30.0</ele><time>2026-04-06T07:20:11.998Z</time></trkpt><trkpt lat="42.23023938701875" lon="14.53838484207425"><ele>30.0</ele><time>2026-04-06T07:20:13.998Z</time></trkpt><trkpt lat="42.23017013412431" lon="14.53835679024969"><ele>30.0</ele><time>2026-04-06T07:20:15.998Z</time></trkpt><trkpt lat="42.230071574503704" lon="14.538315334312838"><ele>30.0</ele><time>2026-04-06T07:20:18.998Z</time></trkpt><trkpt lat="42.23000780834393" lon="14.538285317664606"><ele>30.0</ele><time>2026-04-06T07:20:20.998Z</time></trkpt><trkpt lat="42.22993989206785" lon="14.53825587938704"><ele>30.0</ele><time>2026-04-06T07:20:22.998Z</time></trkpt><trkpt lat="42.229877390952026" lon="14.538227236106442"><ele>30.0</ele><time>2026-04-06T07:20:24.998Z</time></trkpt><trkpt lat="42.229795311084054" lon="14.538189850999869"><ele>30.857142857142858</ele><time>2026-04-06T07:20:26.998Z</time></trkpt><trkpt lat="42.22972268535796" lon="14.538167257289857"><ele>31.714285714285715</ele><time>2026-04-06T07:20:28.998Z</time></trkpt><trkpt lat="42.22965251113847" lon="14.538142824910182"><ele>32.57142857142857</ele><time>2026-04-06T07:20:30.998Z</time></trkpt><trkpt lat="42.22958019161199" lon="14.538139743331525"><ele>33.42857142857143</ele><time>2026-04-06T07:20:32.998Z</time></trkpt><trkpt lat="42.22950934755202" lon="14.538151936865559"><ele>34.285714285714285</ele><time>2026-04-06T07:20:35Z</time></trkpt><trkpt lat="42.22943860557828" lon="14.538170707062484"><ele>35.142857142857146</ele><time>2026-04-06T07:20:37Z</time></trkpt><trkpt lat="42.22937106602008" lon="14.538204440525764"><ele>36.0</ele><time>2026-04-06T07:20:39Z</time></trkpt><trkpt lat="42.22930535404473" lon="14.538240678977798"><ele>36.00000000000001</ele><time>2026-04-06T07:20:41Z</time></trkpt><trkpt lat="42.22924089943856" lon="14.53827989005647"><ele>36.0</ele><time>2026-04-06T07:20:43Z</time></trkpt><trkpt lat="42.22917478392466" lon="14.538318818977508"><ele>36.0</ele><time>2026-04-06T07:20:45Z</time></trkpt><trkpt lat="42.22910875421703" lon="14.53835138148739"><ele>36.0</ele><time>2026-04-06T07:20:47Z</time></trkpt><trkpt lat="42.22904141083999" lon="14.538361909125886"><ele>36.0</ele><time>2026-04-06T07:20:49Z</time></trkpt><trkpt lat="42.22897544875088" lon="14.538368900940759"><ele>36.00000000000001</ele><time>2026-04-06T07:20:51Z</time></trkpt><trkpt lat="42.228909160334005" lon="14.538364581174227"><ele>36.0</ele><time>2026-04-06T07:20:53Z</time></trkpt><trkpt lat="42.22884299773575" lon="14.538348901998864"><ele>37.714285714285715</ele><time>2026-04-06T07:20:55Z</time></trkpt><trkpt lat="42.22878183630292" lon="14.538318693913432"><ele>39.42857142857143</ele><time>2026-04-06T07:20:57Z</time></trkpt><trkpt lat="42.22872564152918" lon="14.538278882658693"><ele>41.14285714285714</ele><time>2026-04-06T07:20:59Z</time></trkpt><trkpt lat="42.22866119492635" lon="14.538229172848562"><ele>42.85714285714286</ele><time>2026-04-06T07:21:01Z</time></trkpt><trkpt lat="42.22860078385962" lon="14.53818827706926"><ele>44.57142857142857</ele><time>2026-04-06T07:21:03Z</time></trkpt><trkpt lat="42.22854876260334" lon="14.538125317033558"><ele>46.285714285714285</ele><time>2026-04-06T07:21:05Z</time></trkpt><trkpt lat="42.22849430236129" lon="14.53806151065056"><ele>48.0</ele><time>2026-04-06T07:21:07Z</time></trkpt><trkpt lat="42.22843799778896" lon="14.538002362098961"><ele>47.99999999999999</ele><time>2026-04-06T07:21:09Z</time></trkpt><trkpt lat="42.228381561844884" lon="14.537943097695923"><ele>48.0</ele><time>2026-04-06T07:21:11Z</time></trkpt><trkpt lat="42.228328242037236" lon="14.537886106036266"><ele>48.0</ele><time>2026-04-06T07:21:12.999Z</time></trkpt><trkpt lat="42.22827328730534" lon="14.537829411267413"><ele>48.0</ele><time>2026-04-06T07:21:14.999Z</time></trkpt><trkpt lat="42.228219021741296" lon="14.537774476659239"><ele>48.0</ele><time>2026-04-06T07:21:16.999Z</time></trkpt><trkpt lat="42.22816156607569" lon="14.537709028727805"><ele>47.99999999999999</ele><time>2026-04-06T07:21:18.999Z</time></trkpt><trkpt lat="42.228098748847" lon="14.537651679107887"><ele>48.0</ele><time>2026-04-06T07:21:20.999Z</time></trkpt><trkpt lat="42.22803915876144" lon="14.537606244792311"><ele>47.42857142857142</ele><time>2026-04-06T07:21:22.999Z</time></trkpt><trkpt lat="42.22797713352321" lon="14.53757240506847"><ele>46.857142857142854</ele><time>2026-04-06T07:21:24.999Z</time></trkpt><trkpt lat="42.227914498596085" lon="14.537543948998783"><ele>46.285714285714285</ele><time>2026-04-06T07:21:26.999Z</time></trkpt><trkpt lat="42.227853044591185" lon="14.537520838929197"><ele>45.71428571428571</ele><time>2026-04-06T07:21:28.999Z</time></trkpt><trkpt lat="42.22779128920683" lon="14.5375021765132"><ele>45.14285714285714</ele><time>2026-04-06T07:21:30.999Z</time></trkpt><trkpt lat="42.227728662698134" lon="14.537483695192918"><ele>44.57142857142857</ele><time>2026-04-06T07:21:32.999Z</time></trkpt><trkpt lat="42.227660910536144" lon="14.537476769334168"><ele>44.0</ele><time>2026-04-06T07:21:34.999Z</time></trkpt><trkpt lat="42.22759460724887" lon="14.537461464409391"><ele>44.0</ele><time>2026-04-06T07:21:36.999Z</time></trkpt><trkpt lat="42.227527870894086" lon="14.537440806120143"><ele>44.0</ele><time>2026-04-06T07:21:38.999Z</time></trkpt><trkpt lat="42.22746019115766" lon="14.537420679343915"><ele>44.0</ele><time>2026-04-06T07:21:40.999Z</time></trkpt><trkpt lat="42.227394215086974" lon="14.537395077845845"><ele>44.0</ele><time>2026-04-06T07:21:42.999Z</time></trkpt><trkpt lat="42.227328316737704" lon="14.537373459631132"><ele>44.0</ele><time>2026-04-06T07:21:44.999Z</time></trkpt><trkpt lat="42.2272645426373" lon="14.537341996518549"><ele>44.0</ele><time>2026-04-06T07:21:46.999Z</time></trkpt><trkpt lat="42.227199149491945" lon="14.537311581195857"><ele>44.0</ele><time>2026-04-06T07:21:48.999Z</time></trkpt><trkpt lat="42.22713149788586" lon="14.537276508472809"><ele>44.42857142857143</ele><time>2026-04-06T07:21:50.999Z</time></trkpt><trkpt lat="42.22706269564239" lon="14.537244161796027"><ele>44.857142857142854</ele><time>2026-04-06T07:21:52.999Z</time></trkpt><trkpt lat="42.226994454786016" lon="14.537217378102218"><ele>45.285714285714285</ele><time>2026-04-06T07:21:54.999Z</time></trkpt><trkpt lat="42.22692930820442" lon="14.537189465969899"><ele>45.714285714285715</ele><time>2026-04-06T07:21:56.999Z</time></trkpt><trkpt lat="42.226860289847295" lon="14.537168715422505"><ele>46.14285714285714</ele><time>2026-04-06T07:21:58.999Z</time></trkpt><trkpt lat="42.22679008222235" lon="14.537132694700594"><ele>46.57142857142857</ele><time>2026-04-06T07:22:00.999Z</time></trkpt><trkpt lat="42.2267210403507" lon="14.537111356321361"><ele>47.0</ele><time>2026-04-06T07:22:02.999Z</time></trkpt><trkpt lat="42.22664991869179" lon="14.537092543256062"><ele>47.0</ele><time>2026-04-06T07:22:04.999Z</time></trkpt><trkpt lat="42.2265815937398" lon="14.53708200921699"><ele>47.0</ele><time>2026-04-06T07:22:06.998Z</time></trkpt><trkpt lat="42.22650956364276" lon="14.537087301541101"><ele>47.0</ele><time>2026-04-06T07:22:08.998Z</time></trkpt><trkpt lat="42.22644465887814" lon="14.537106082710089"><ele>47.0</ele><time>2026-04-06T07:22:10.998Z</time></trkpt><trkpt lat="42.226379091881526" lon="14.537145245343314"><ele>47.0</ele><time>2026-04-06T07:22:12.998Z</time></trkpt><trkpt lat="42.22631722555267" lon="14.537187916938596"><ele>47.0</ele><time>2026-04-06T07:22:14.998Z</time></trkpt><trkpt lat="42.22626051258824" lon="14.537238242390435"><ele>47.0</ele><time>2026-04-06T07:22:16.998Z</time></trkpt><trkpt lat="42.22620159038055" lon="14.537289261550317"><ele>47.14285714285714</ele><time>2026-04-06T07:22:18.998Z</time></trkpt><trkpt lat="42.22614247051442" lon="14.537337066642026"><ele>47.285714285714285</ele><time>2026-04-06T07:22:20.998Z</time></trkpt><trkpt lat="42.2260825156838" lon="14.537379305105624"><ele>47.42857142857143</ele><time>2026-04-06T07:22:22.998Z</time></trkpt><trkpt lat="42.22601875906434" lon="14.537412283985752"><ele>47.57142857142857</ele><time>2026-04-06T07:22:24.998Z</time></trkpt><trkpt lat="42.22595319161207" lon="14.537442679185057"><ele>47.714285714285715</ele><time>2026-04-06T07:22:26.998Z</time></trkpt><trkpt lat="42.22588824609968" lon="14.537469340275765"><ele>47.857142857142854</ele><time>2026-04-06T07:22:28.998Z</time></trkpt><trkpt lat="42.225821611901566" lon="14.537490833371868"><ele>48.0</ele><time>2026-04-06T07:22:30.998Z</time></trkpt><trkpt lat="42.22575576446697" lon="14.53750916419791"><ele>47.99999999999999</ele><time>2026-04-06T07:22:32.998Z</time></trkpt><trkpt lat="42.22568889123483" lon="14.537522680908289"><ele>48.0</ele><time>2026-04-06T07:22:34.998Z</time></trkpt><trkpt lat="42.225619308797555" lon="14.537536266321744"><ele>48.0</ele><time>2026-04-06T07:22:36.998Z</time></trkpt><trkpt lat="42.225550877852726" lon="14.537545901281009"><ele>48.0</ele><time>2026-04-06T07:22:39Z</time></trkpt><trkpt lat="42.22548287476497" lon="14.537550708418856"><ele>48.0</ele><time>2026-04-06T07:22:41Z</time></trkpt><trkpt lat="42.225414811433566" lon="14.537562092035083"><ele>47.99999999999999</ele><time>2026-04-06T07:22:43Z</time></trkpt><trkpt lat="42.22534582136456" lon="14.537563528132655"><ele>48.0</ele><time>2026-04-06T07:22:45Z</time></trkpt><trkpt lat="42.225276541551864" lon="14.537563202345419"><ele>48.57142857142857</ele><time>2026-04-06T07:22:47Z</time></trkpt><trkpt lat="42.2252076349283" lon="14.53756755598701"><ele>49.14285714285714</ele><time>2026-04-06T07:22:49Z</time></trkpt><trkpt lat="42.22513764821411" lon="14.537565065271538"><ele>49.71428571428571</ele><time>2026-04-06T07:22:51Z</time></trkpt><trkpt lat="42.22507047460224" lon="14.537571131847344"><ele>50.285714285714285</ele><time>2026-04-06T07:22:53Z</time></trkpt><trkpt lat="42.22499657138918" lon="14.537569836721199"><ele>50.85714285714286</ele><time>2026-04-06T07:22:55Z</time></trkpt><trkpt lat="42.224929112192356" lon="14.537574881455956"><ele>51.42857142857142</ele><time>2026-04-06T07:22:57Z</time></trkpt><trkpt lat="42.2248641969019" lon="14.537574291028537"><ele>52.0</ele><time>2026-04-06T07:22:59Z</time></trkpt><trkpt lat="42.224796829197935" lon="14.537565397231734"><ele>53.0</ele><time>2026-04-06T07:23:01Z</time></trkpt><trkpt lat="42.22473077068693" lon="14.537550466350579"><ele>54.0</ele><time>2026-04-06T07:23:03Z</time></trkpt><trkpt lat="42.22466219578413" lon="14.537528771305688"><ele>55.0</ele><time>2026-04-06T07:23:05Z</time></trkpt><trkpt lat="42.22460125822292" lon="14.537480947608284"><ele>56.0</ele><time>2026-04-06T07:23:07Z</time></trkpt><trkpt lat="42.22454240852173" lon="14.537432383710183"><ele>57.0</ele><time>2026-04-06T07:23:09Z</time></trkpt><trkpt lat="42.224491687695355" lon="14.537367747173404"><ele>58.0</ele><time>2026-04-06T07:23:11Z</time></trkpt><trkpt lat="42.2244466100073" lon="14.537299188198915"><ele>59.0</ele><time>2026-04-06T07:23:13Z</time></trkpt><trkpt lat="42.22440492967355" lon="14.537221801386593"><ele>59.0</ele><time>2026-04-06T07:23:15Z</time></trkpt><trkpt lat="42.22437312292418" lon="14.537133992592373"><ele>59.0</ele><time>2026-04-06T07:23:16.999Z</time></trkpt><trkpt lat="42.22434833813061" lon="14.537040483533723"><ele>59.0</ele><time>2026-04-06T07:23:18.999Z</time></trkpt><trkpt lat="42.224326160259295" lon="14.536960214060546"><ele>59.0</ele><time>2026-04-06T07:23:20.999Z</time></trkpt><trkpt lat="42.22430375933479" lon="14.536872214672837"><ele>59.0</ele><time>2026-04-06T07:23:22.999Z</time></trkpt><trkpt lat="42.22428503590857" lon="14.536783930296927"><ele>59.0</ele><time>2026-04-06T07:23:24.999Z</time></trkpt><trkpt lat="42.2242628704876" lon="14.536697280179704"><ele>59.0</ele><time>2026-04-06T07:23:26.999Z</time></trkpt><trkpt lat="42.22423182504915" lon="14.536611187101691"><ele>59.857142857142854</ele><time>2026-04-06T07:23:28.999Z</time></trkpt><trkpt lat="42.224186598092" lon="14.53653400329161"><ele>60.71428571428572</ele><time>2026-04-06T07:23:30.999Z</time></trkpt><trkpt lat="42.224132785280766" lon="14.53646570423671"><ele>61.57142857142858</ele><time>2026-04-06T07:23:32.999Z</time></trkpt><trkpt lat="42.22407180267197" lon="14.536413632725065"><ele>62.42857142857143</ele><time>2026-04-06T07:23:34.999Z</time></trkpt><trkpt lat="42.22400371762993" lon="14.536374973784463"><ele>63.28571428571429</ele><time>2026-04-06T07:23:36.999Z</time></trkpt><trkpt lat="42.22393557660258" lon="14.536351431857058"><ele>64.14285714285715</ele><time>2026-04-06T07:23:38.999Z</time></trkpt><trkpt lat="42.22386693272972" lon="14.536333408082156"><ele>65.0</ele><time>2026-04-06T07:23:40.999Z</time></trkpt><trkpt lat="42.22379795812009" lon="14.536319633066594"><ele>65.00000000000001</ele><time>2026-04-06T07:23:42.999Z</time></trkpt><trkpt lat="42.22373068905969" lon="14.536308445517252"><ele>65.0</ele><time>2026-04-06T07:23:44.999Z</time></trkpt><trkpt lat="42.22366088278949" lon="14.536295782990216"><ele>65.0</ele><time>2026-04-06T07:23:46.999Z</time></trkpt><trkpt lat="42.223589229502494" lon="14.536284992009465"><ele>65.0</ele><time>2026-04-06T07:23:48.999Z</time></trkpt><trkpt lat="42.223519637728515" lon="14.536267755551181"><ele>65.0</ele><time>2026-04-06T07:23:50.999Z</time></trkpt><trkpt lat="42.22344992414935" lon="14.536250138911198"><ele>65.00000000000001</ele><time>2026-04-06T07:23:52.999Z</time></trkpt><trkpt lat="42.22338187604293" lon="14.53622672137468"><ele>65.0</ele><time>2026-04-06T07:23:54.999Z</time></trkpt><trkpt lat="42.223316186131015" lon="14.536206035114217"><ele>64.42857142857143</ele><time>2026-04-06T07:23:56.999Z</time></trkpt><trkpt lat="42.223252076479525" lon="14.536179463886741"><ele>63.85714285714286</ele><time>2026-04-06T07:23:58.999Z</time></trkpt><trkpt lat="42.22318964666292" lon="14.536144227450393"><ele>63.285714285714285</ele><time>2026-04-06T07:24:00.999Z</time></trkpt><trkpt lat="42.223125703028856" lon="14.536110810304864"><ele>62.714285714285715</ele><time>2026-04-06T07:24:02.999Z</time></trkpt><trkpt lat="42.223062737201495" lon="14.536071863755735"><ele>62.14285714285714</ele><time>2026-04-06T07:24:04.999Z</time></trkpt><trkpt lat="42.22299972815758" lon="14.536026010054231"><ele>61.57142857142856</ele><time>2026-04-06T07:24:06.999Z</time></trkpt><trkpt lat="42.222934549326695" lon="14.53598211393895"><ele>60.99999999999999</ele><time>2026-04-06T07:24:08.999Z</time></trkpt><trkpt lat="42.22287223768167" lon="14.535936197156785"><ele>60.99999999999999</ele><time>2026-04-06T07:24:10.999Z</time></trkpt><trkpt lat="42.22281352945993" lon="14.5358806035331"><ele>61.0</ele><time>2026-04-06T07:24:12.998Z</time></trkpt><trkpt lat="42.2227547196941" lon="14.535825158696332"><ele>60.99999999999999</ele><time>2026-04-06T07:24:14.998Z</time></trkpt><trkpt lat="42.22269562226271" lon="14.535768811083264"><ele>60.99999999999999</ele><time>2026-04-06T07:24:16.998Z</time></trkpt><trkpt lat="42.2226448995294" lon="14.535697122954268"><ele>61.0</ele><time>2026-04-06T07:24:18.998Z</time></trkpt><trkpt lat="42.2225892847722" lon="14.535630910319567"><ele>60.99999999999999</ele><time>2026-04-06T07:24:20.998Z</time></trkpt><trkpt lat="42.22253335707505" lon="14.535564518458933"><ele>60.99999999999999</ele><time>2026-04-06T07:24:22.998Z</time></trkpt><trkpt lat="42.22248276333786" lon="14.535492389219112"><ele>60.99999999999999</ele><time>2026-04-06T07:24:24.998Z</time></trkpt><trkpt lat="42.222428778749304" lon="14.535421541550349"><ele>61.0</ele><time>2026-04-06T07:24:26.998Z</time></trkpt><trkpt lat="42.22237390862209" lon="14.535351880177416"><ele>61.0</ele><time>2026-04-06T07:24:28.998Z</time></trkpt><trkpt lat="42.22231918087718" lon="14.535282835931136"><ele>61.0</ele><time>2026-04-06T07:24:30.998Z</time></trkpt><trkpt lat="42.22226437203554" lon="14.535211118429146"><ele>60.99999999999999</ele><time>2026-04-06T07:24:32.998Z</time></trkpt><trkpt lat="42.222205891174255" lon="14.535144167601596"><ele>61.0</ele><time>2026-04-06T07:24:34.998Z</time></trkpt><trkpt lat="42.222145754190585" lon="14.535071315517449"><ele>61.0</ele><time>2026-04-06T07:24:36.998Z</time></trkpt><trkpt lat="42.22207812088621" lon="14.534998571388538"><ele>60.99999999999999</ele><time>2026-04-06T07:24:38.998Z</time></trkpt><trkpt lat="42.222001890381854" lon="14.53492822281508"><ele>60.99999999999999</ele><time>2026-04-06T07:24:40.998Z</time></trkpt><trkpt lat="42.22192359592745" lon="14.534859654363375"><ele>61.0</ele><time>2026-04-06T07:24:42.998Z</time></trkpt><trkpt lat="42.22184163891421" lon="14.53480168022062"><ele>61.0</ele><time>2026-04-06T07:24:45Z</time></trkpt><trkpt lat="42.221758557282485" lon="14.534751066982537"><ele>61.0</ele><time>2026-04-06T07:24:47Z</time></trkpt><trkpt lat="42.221674675105696" lon="14.534706136265825"><ele>60.99999999999999</ele><time>2026-04-06T07:24:49Z</time></trkpt><trkpt lat="42.22158552683108" lon="14.534668436622727"><ele>60.99999999999999</ele><time>2026-04-06T07:24:51Z</time></trkpt><trkpt lat="42.22149436156966" lon="14.534632630760258"><ele>61.0</ele><time>2026-04-06T07:24:53Z</time></trkpt><trkpt lat="42.22140483013164" lon="14.534590076029884"><ele>61.0</ele><time>2026-04-06T07:24:55Z</time></trkpt><trkpt lat="42.22131896479981" lon="14.534539639061943"><ele>61.599999999999994</ele><time>2026-04-06T07:24:57Z</time></trkpt><trkpt lat="42.22123914524359" lon="14.534476713733062"><ele>62.199999999999996</ele><time>2026-04-06T07:24:59Z</time></trkpt><trkpt lat="42.22116982258397" lon="14.534391033730685"><ele>62.800000000000004</ele><time>2026-04-06T07:25:01Z</time></trkpt><trkpt lat="42.221109741478266" lon="14.534288765723618"><ele>63.400000000000006</ele><time>2026-04-06T07:25:03Z</time></trkpt><trkpt lat="42.22105315488358" lon="14.534175256511293"><ele>64.0</ele><time>2026-04-06T07:25:05Z</time></trkpt><trkpt lat="42.2210122508402" lon="14.534034217113689"><ele>63.99999999999999</ele><time>2026-04-06T07:25:07Z</time></trkpt><trkpt lat="42.220948726438166" lon="14.533888925565732"><ele>64.0</ele><time>2026-04-06T07:25:09Z</time></trkpt><trkpt lat="42.2209106587212" lon="14.533817712343257"><ele>64.0</ele><time>2026-04-06T07:25:10Z</time></trkpt><trkpt lat="42.220868491856635" lon="14.533746738394196"><ele>64.0</ele><time>2026-04-06T07:25:11Z</time></trkpt><trkpt lat="42.22082300580005" lon="14.533679857164495"><ele>63.99999999999999</ele><time>2026-04-06T07:25:12Z</time></trkpt><trkpt lat="42.2207754870505" lon="14.53361451883003"><ele>64.0</ele><time>2026-04-06T07:25:13Z</time></trkpt><trkpt lat="42.22072148097704" lon="14.533551985773457"><ele>64.0</ele><time>2026-04-06T07:25:14Z</time></trkpt><trkpt lat="42.220667240903126" lon="14.53349289322475"><ele>63.99999999999999</ele><time>2026-04-06T07:25:15Z</time></trkpt><trkpt lat="42.22061040097237" lon="14.533439122448646"><ele>64.0</ele><time>2026-04-06T07:25:16Z</time></trkpt><trkpt lat="42.22055334164319" lon="14.533387310332516"><ele>64.0</ele><time>2026-04-06T07:25:16.999Z</time></trkpt><trkpt lat="42.22049915329559" lon="14.533335318675233"><ele>63.99999999999999</ele><time>2026-04-06T07:25:17.999Z</time></trkpt><trkpt lat="42.22044725763774" lon="14.533277820336693"><ele>64.0</ele><time>2026-04-06T07:25:18.999Z</time></trkpt><trkpt lat="42.220400456161805" lon="14.533217098310004"><ele>64.0</ele><time>2026-04-06T07:25:19.999Z</time></trkpt><trkpt lat="42.220321418295484" lon="14.533090767122886"><ele>64.0</ele><time>2026-04-06T07:25:21.999Z</time></trkpt><trkpt lat="42.22025430838011" lon="14.532959128417092"><ele>64.0</ele><time>2026-04-06T07:25:23.999Z</time></trkpt><trkpt lat="42.22018172799386" lon="14.532833996464174"><ele>64.0</ele><time>2026-04-06T07:25:25.999Z</time></trkpt><trkpt lat="42.220097966812794" lon="14.532718528178437"><ele>64.0</ele><time>2026-04-06T07:25:27.999Z</time></trkpt><trkpt lat="42.22000735748481" lon="14.532609761979678"><ele>61.5</ele><time>2026-04-06T07:25:29.999Z</time></trkpt><trkpt lat="42.219900933218305" lon="14.532533028004538"><ele>59.0</ele><time>2026-04-06T07:25:31.999Z</time></trkpt><trkpt lat="42.219782615307246" lon="14.53247882581664"><ele>56.5</ele><time>2026-04-06T07:25:33.999Z</time></trkpt><trkpt lat="42.21966272271771" lon="14.53245561772157"><ele>54.0</ele><time>2026-04-06T07:25:35.999Z</time></trkpt><trkpt lat="42.219537799188096" lon="14.532456139865106"><ele>54.0</ele><time>2026-04-06T07:25:37.999Z</time></trkpt><trkpt lat="42.219410686703654" lon="14.532449473335358"><ele>54.0</ele><time>2026-04-06T07:25:39.999Z</time></trkpt><trkpt lat="42.21928447026551" lon="14.532418179945234"><ele>54.0</ele><time>2026-04-06T07:25:41.999Z</time></trkpt><trkpt lat="42.219161130633154" lon="14.532359645354628"><ele>54.0</ele><time>2026-04-06T07:25:43.999Z</time></trkpt><trkpt lat="42.21910159618465" lon="14.532322694110338"><ele>54.0</ele><time>2026-04-06T07:25:44.999Z</time></trkpt><trkpt lat="42.21904201113671" lon="14.532283383174128"><ele>54.0</ele><time>2026-04-06T07:25:45.999Z</time></trkpt><trkpt lat="42.21898123776727" lon="14.53224159522156"><ele>54.0</ele><time>2026-04-06T07:25:46.999Z</time></trkpt><trkpt lat="42.21892264388046" lon="14.532199466952797"><ele>54.0</ele><time>2026-04-06T07:25:47.999Z</time></trkpt><trkpt lat="42.21886480473433" lon="14.532155138951264"><ele>54.0</ele><time>2026-04-06T07:25:48.999Z</time></trkpt><trkpt lat="42.21881025074323" lon="14.532104724777119"><ele>54.0</ele><time>2026-04-06T07:25:49.999Z</time></trkpt><trkpt lat="42.218753202826946" lon="14.532058492352661"><ele>54.0</ele><time>2026-04-06T07:25:50.999Z</time></trkpt><trkpt lat="42.21869223486227" lon="14.53201681191089"><ele>53.0</ele><time>2026-04-06T07:25:51.999Z</time></trkpt><trkpt lat="42.2186293563419" lon="14.53198000573874"><ele>52.0</ele><time>2026-04-06T07:25:52.999Z</time></trkpt><trkpt lat="42.218564511384564" lon="14.531944629787079"><ele>51.0</ele><time>2026-04-06T07:25:53.999Z</time></trkpt><trkpt lat="42.218500840898066" lon="14.531913455170141"><ele>50.0</ele><time>2026-04-06T07:25:54.999Z</time></trkpt><trkpt lat="42.2184366836955" lon="14.531881304510359"><ele>49.0</ele><time>2026-04-06T07:25:55.999Z</time></trkpt><trkpt lat="42.218371854186515" lon="14.53184908533921"><ele>48.0</ele><time>2026-04-06T07:25:56.999Z</time></trkpt><trkpt lat="42.21830898278718" lon="14.531821720481172"><ele>47.0</ele><time>2026-04-06T07:25:57.999Z</time></trkpt><trkpt lat="42.21824496730248" lon="14.53179710800474"><ele>47.0</ele><time>2026-04-06T07:25:58.999Z</time></trkpt><trkpt lat="42.2181799427359" lon="14.531776315166544"><ele>47.0</ele><time>2026-04-06T07:25:59.999Z</time></trkpt><trkpt lat="42.21805332436949" lon="14.531744910024141"><ele>47.0</ele><time>2026-04-06T07:26:01.999Z</time></trkpt><trkpt lat="42.21798931081941" lon="14.531738802947293"><ele>47.0</ele><time>2026-04-06T07:26:02.999Z</time></trkpt><trkpt lat="42.21792374428201" lon="14.531736845844987"><ele>47.0</ele><time>2026-04-06T07:26:03.999Z</time></trkpt><trkpt lat="42.217797433193105" lon="14.53173536607281"><ele>48.6</ele><time>2026-04-06T07:26:05.999Z</time></trkpt><trkpt lat="42.21773310161656" lon="14.531734581870245"><ele>50.2</ele><time>2026-04-06T07:26:06.999Z</time></trkpt><trkpt lat="42.21766966118339" lon="14.531730285583743"><ele>51.8</ele><time>2026-04-06T07:26:07.999Z</time></trkpt><trkpt lat="42.217544963858884" lon="14.531715168886441"><ele>53.4</ele><time>2026-04-06T07:26:09.999Z</time></trkpt><trkpt lat="42.217428867958226" lon="14.53165594553259"><ele>55.0</ele><time>2026-04-06T07:26:11.998Z</time></trkpt><trkpt lat="42.21733894230366" lon="14.531551404404041"><ele>54.4</ele><time>2026-04-06T07:26:13.998Z</time></trkpt><trkpt lat="42.21727068353514" lon="14.531421371010417"><ele>53.8</ele><time>2026-04-06T07:26:15.998Z</time></trkpt><trkpt lat="42.2172319790334" lon="14.53126432421446"><ele>53.2</ele><time>2026-04-06T07:26:17.998Z</time></trkpt><trkpt lat="42.217199456204256" lon="14.5311039357851"><ele>52.6</ele><time>2026-04-06T07:26:19.998Z</time></trkpt><trkpt lat="42.217178923333826" lon="14.53102215058261"><ele>52.0</ele><time>2026-04-06T07:26:20.998Z</time></trkpt><trkpt lat="42.2171507937646" lon="14.53094316097911"><ele>52.0</ele><time>2026-04-06T07:26:21.998Z</time></trkpt><trkpt lat="42.21711595256591" lon="14.530863546441612"><ele>52.0</ele><time>2026-04-06T07:26:22.998Z</time></trkpt><trkpt lat="42.21707483649817" lon="14.530791309733837"><ele>52.0</ele><time>2026-04-06T07:26:23.998Z</time></trkpt><trkpt lat="42.21702806775523" lon="14.53072457933133"><ele>52.0</ele><time>2026-04-06T07:26:24.998Z</time></trkpt><trkpt lat="42.216977518908365" lon="14.530662470071757"><ele>52.0</ele><time>2026-04-06T07:26:25.998Z</time></trkpt><trkpt lat="42.21692448945575" lon="14.530605550565417"><ele>52.0</ele><time>2026-04-06T07:26:26.998Z</time></trkpt><trkpt lat="42.21686968852882" lon="14.530551505813406"><ele>52.0</ele><time>2026-04-06T07:26:27.998Z</time></trkpt><trkpt lat="42.21681421383165" lon="14.530496906933744"><ele>52.0</ele><time>2026-04-06T07:26:28.998Z</time></trkpt><trkpt lat="42.21675653798251" lon="14.530442833970193"><ele>52.0</ele><time>2026-04-06T07:26:29.998Z</time></trkpt><trkpt lat="42.216700272332055" lon="14.530394178092477"><ele>52.0</ele><time>2026-04-06T07:26:30.998Z</time></trkpt><trkpt lat="42.216641808038304" lon="14.530350345025548"><ele>52.0</ele><time>2026-04-06T07:26:31.998Z</time></trkpt><trkpt lat="42.21658244763326" lon="14.530311119744558"><ele>52.0</ele><time>2026-04-06T07:26:32.998Z</time></trkpt><trkpt lat="42.21652280916294" lon="14.53027111505874"><ele>52.0</ele><time>2026-04-06T07:26:33.998Z</time></trkpt><trkpt lat="42.21646471233551" lon="14.530231686673934"><ele>52.0</ele><time>2026-04-06T07:26:34.998Z</time></trkpt><trkpt lat="42.216403022575975" lon="14.530192754291502"><ele>51.83333333333333</ele><time>2026-04-06T07:26:35.998Z</time></trkpt><trkpt lat="42.216341529876516" lon="14.530153298262151"><ele>51.666666666666664</ele><time>2026-04-06T07:26:36.998Z</time></trkpt><trkpt lat="42.21628067945654" lon="14.53011031380171"><ele>51.5</ele><time>2026-04-06T07:26:37.998Z</time></trkpt><trkpt lat="42.216219340159235" lon="14.53007061025773"><ele>51.33333333333333</ele><time>2026-04-06T07:26:38.998Z</time></trkpt><trkpt lat="42.216159363712855" lon="14.53002705760703"><ele>51.166666666666664</ele><time>2026-04-06T07:26:39.998Z</time></trkpt><trkpt lat="42.21610097386033" lon="14.529978057183776"><ele>51.0</ele><time>2026-04-06T07:26:40.998Z</time></trkpt><trkpt lat="42.21600249520695" lon="14.529864991464787"><ele>51.0</ele><time>2026-04-06T07:26:42.998Z</time></trkpt><trkpt lat="42.21595810664945" lon="14.529785534487658"><ele>51.0</ele><time>2026-04-06T07:26:43.998Z</time></trkpt><trkpt lat="42.215923110554044" lon="14.529703575440195"><ele>51.0</ele><time>2026-04-06T07:26:44.998Z</time></trkpt><trkpt lat="42.21588743435358" lon="14.529621553054318"><ele>51.0</ele><time>2026-04-06T07:26:45.998Z</time></trkpt><trkpt lat="42.215851753826264" lon="14.529542598469048"><ele>51.0</ele><time>2026-04-06T07:26:46.998Z</time></trkpt><trkpt lat="42.21580925749682" lon="14.529472911057775"><ele>51.0</ele><time>2026-04-06T07:26:47.998Z</time></trkpt><trkpt lat="42.21575710651118" lon="14.529412808922832"><ele>51.0</ele><time>2026-04-06T07:26:48.998Z</time></trkpt><trkpt lat="42.215697753132616" lon="14.529369590028807"><ele>50.0</ele><time>2026-04-06T07:26:49.998Z</time></trkpt><trkpt lat="42.21563398715883" lon="14.529337403970926"><ele>49.0</ele><time>2026-04-06T07:26:51Z</time></trkpt><trkpt lat="42.21557151404224" lon="14.5293158647515"><ele>48.0</ele><time>2026-04-06T07:26:52Z</time></trkpt><trkpt lat="42.215506006266025" lon="14.52931584523507"><ele>47.0</ele><time>2026-04-06T07:26:53Z</time></trkpt><trkpt lat="42.21543970049318" lon="14.529330034057233"><ele>46.0</ele><time>2026-04-06T07:26:54Z</time></trkpt><trkpt lat="42.21537461519526" lon="14.5293384350435"><ele>45.0</ele><time>2026-04-06T07:26:55Z</time></trkpt><trkpt lat="42.21530940175391" lon="14.52934557297409"><ele>44.0</ele><time>2026-04-06T07:26:56Z</time></trkpt><trkpt lat="42.21524364881657" lon="14.529350004556154"><ele>44.0</ele><time>2026-04-06T07:26:57Z</time></trkpt><trkpt lat="42.21517815373175" lon="14.52935026328373"><ele>44.0</ele><time>2026-04-06T07:26:58Z</time></trkpt><trkpt lat="42.21511461318657" lon="14.529337154210456"><ele>44.0</ele><time>2026-04-06T07:26:59Z</time></trkpt><trkpt lat="42.21499120729902" lon="14.529292178982486"><ele>44.0</ele><time>2026-04-06T07:27:01Z</time></trkpt><trkpt lat="42.21493205078455" lon="14.529261530373184"><ele>44.0</ele><time>2026-04-06T07:27:02Z</time></trkpt><trkpt lat="42.214872167608455" lon="14.529220370471092"><ele>44.0</ele><time>2026-04-06T07:27:03Z</time></trkpt><trkpt lat="42.214812906884404" lon="14.52917897386878"><ele>45.57142857142857</ele><time>2026-04-06T07:27:04Z</time></trkpt><trkpt lat="42.21475544185603" lon="14.52913710520587"><ele>47.14285714285714</ele><time>2026-04-06T07:27:05Z</time></trkpt><trkpt lat="42.21469989483188" lon="14.529088905693893"><ele>48.71428571428571</ele><time>2026-04-06T07:27:06Z</time></trkpt><trkpt lat="42.21464621066174" lon="14.52904066143672"><ele>50.285714285714285</ele><time>2026-04-06T07:27:07Z</time></trkpt><trkpt lat="42.214596440598534" lon="14.52898745119832"><ele>51.857142857142854</ele><time>2026-04-06T07:27:08Z</time></trkpt><trkpt lat="42.214546336142114" lon="14.528933854365441"><ele>53.42857142857142</ele><time>2026-04-06T07:27:09Z</time></trkpt><trkpt lat="42.214499033044476" lon="14.528874543188566"><ele>55.0</ele><time>2026-04-06T07:27:10Z</time></trkpt><trkpt lat="42.21445713053325" lon="14.528809753869238"><ele>54.99999999999999</ele><time>2026-04-06T07:27:11Z</time></trkpt><trkpt lat="42.214423930383944" lon="14.528735556598743"><ele>55.0</ele><time>2026-04-06T07:27:12Z</time></trkpt><trkpt lat="42.21439845591322" lon="14.528655424219155"><ele>55.0</ele><time>2026-04-06T07:27:13Z</time></trkpt><trkpt lat="42.2143801617563" lon="14.52857228640271"><ele>55.0</ele><time>2026-04-06T07:27:14Z</time></trkpt><trkpt lat="42.21436810639981" lon="14.528485626719583"><ele>55.0</ele><time>2026-04-06T07:27:15Z</time></trkpt><trkpt lat="42.21435874486633" lon="14.52839849503649"><ele>54.99999999999999</ele><time>2026-04-06T07:27:16Z</time></trkpt><trkpt lat="42.214347313381566" lon="14.528312092056927"><ele>55.0</ele><time>2026-04-06T07:27:17Z</time></trkpt><trkpt lat="42.214334775556814" lon="14.528225189177626"><ele>53.71428571428571</ele><time>2026-04-06T07:27:18Z</time></trkpt><trkpt lat="42.21431940594756" lon="14.52813911581956"><ele>52.42857142857143</ele><time>2026-04-06T07:27:18.999Z</time></trkpt><trkpt lat="42.2142985236378" lon="14.528056865495167"><ele>51.14285714285714</ele><time>2026-04-06T07:27:19.999Z</time></trkpt><trkpt lat="42.21426872881248" lon="14.527980827939471"><ele>49.857142857142854</ele><time>2026-04-06T07:27:20.999Z</time></trkpt><trkpt lat="42.21422879452942" lon="14.52790555877852"><ele>48.57142857142857</ele><time>2026-04-06T07:27:21.999Z</time></trkpt><trkpt lat="42.214183479812604" lon="14.5278394620526"><ele>47.285714285714285</ele><time>2026-04-06T07:27:22.999Z</time></trkpt><trkpt lat="42.21413475514422" lon="14.52777857231818"><ele>46.0</ele><time>2026-04-06T07:27:23.999Z</time></trkpt><trkpt lat="42.21408528935017" lon="14.527718851418019"><ele>46.142857142857146</ele><time>2026-04-06T07:27:24.999Z</time></trkpt><trkpt lat="42.21402937172177" lon="14.527670047254755"><ele>46.285714285714285</ele><time>2026-04-06T07:27:25.999Z</time></trkpt><trkpt lat="42.21397123050148" lon="14.52762522690266"><ele>46.42857142857143</ele><time>2026-04-06T07:27:26.999Z</time></trkpt><trkpt lat="42.21390941327533" lon="14.527581552056345"><ele>46.57142857142857</ele><time>2026-04-06T07:27:27.999Z</time></trkpt><trkpt lat="42.21385140616711" lon="14.527535922590596"><ele>46.71428571428571</ele><time>2026-04-06T07:27:28.999Z</time></trkpt><trkpt lat="42.213792135785276" lon="14.527490269407597"><ele>46.857142857142854</ele><time>2026-04-06T07:27:29.999Z</time></trkpt><trkpt lat="42.213731876443795" lon="14.527443938516825"><ele>47.0</ele><time>2026-04-06T07:27:30.999Z</time></trkpt><trkpt lat="42.213673256814594" lon="14.52739958649423"><ele>47.0</ele><time>2026-04-06T07:27:31.999Z</time></trkpt><trkpt lat="42.21361394773249" lon="14.527351496416314"><ele>47.0</ele><time>2026-04-06T07:27:32.999Z</time></trkpt><trkpt lat="42.21355749360105" lon="14.527299794154292"><ele>47.0</ele><time>2026-04-06T07:27:33.999Z</time></trkpt><trkpt lat="42.213506490294876" lon="14.527237988328032"><ele>47.0</ele><time>2026-04-06T07:27:34.999Z</time></trkpt><trkpt lat="42.21346143865636" lon="14.527167482590809"><ele>47.0</ele><time>2026-04-06T07:27:35.999Z</time></trkpt><trkpt lat="42.21342227074269" lon="14.5270904365986"><ele>47.0</ele><time>2026-04-06T07:27:36.999Z</time></trkpt><trkpt lat="42.213389988108204" lon="14.527010259242012"><ele>47.0</ele><time>2026-04-06T07:27:37.999Z</time></trkpt><trkpt lat="42.213364552633266" lon="14.526922666904333"><ele>45.857142857142854</ele><time>2026-04-06T07:27:38.999Z</time></trkpt><trkpt lat="42.213348606651685" lon="14.52683386864938"><ele>44.71428571428571</ele><time>2026-04-06T07:27:39.999Z</time></trkpt><trkpt lat="42.21333972822297" lon="14.526744008544357"><ele>43.57142857142857</ele><time>2026-04-06T07:27:40.999Z</time></trkpt><trkpt lat="42.21332718371653" lon="14.526654344120015"><ele>42.42857142857143</ele><time>2026-04-06T07:27:41.999Z</time></trkpt><trkpt lat="42.21331639121693" lon="14.526568143237382"><ele>41.285714285714285</ele><time>2026-04-06T07:27:42.999Z</time></trkpt><trkpt lat="42.21329733149861" lon="14.526478428318146"><ele>40.142857142857146</ele><time>2026-04-06T07:27:43.999Z</time></trkpt><trkpt lat="42.21327365033066" lon="14.526390181610683"><ele>39.0</ele><time>2026-04-06T07:27:44.999Z</time></trkpt><trkpt lat="42.21324205745701" lon="14.526309577027453"><ele>39.0</ele><time>2026-04-06T07:27:45.999Z</time></trkpt><trkpt lat="42.2132035139736" lon="14.526231979319217"><ele>39.0</ele><time>2026-04-06T07:27:46.999Z</time></trkpt><trkpt lat="42.213158162021635" lon="14.52616387775637"><ele>39.0</ele><time>2026-04-06T07:27:47.999Z</time></trkpt><trkpt lat="42.21310684577733" lon="14.526100567716165"><ele>39.0</ele><time>2026-04-06T07:27:48.999Z</time></trkpt><trkpt lat="42.21305525510454" lon="14.526039177269142"><ele>39.0</ele><time>2026-04-06T07:27:49.999Z</time></trkpt><trkpt lat="42.21300324038031" lon="14.52598419778531"><ele>39.0</ele><time>2026-04-06T07:27:50.999Z</time></trkpt><trkpt lat="42.21294896653675" lon="14.525928063257682"><ele>39.0</ele><time>2026-04-06T07:27:51.999Z</time></trkpt><trkpt lat="42.21289816369123" lon="14.525875468367932"><ele>38.714285714285715</ele><time>2026-04-06T07:27:52.999Z</time></trkpt><trkpt lat="42.212847546404255" lon="14.525815250885392"><ele>38.42857142857142</ele><time>2026-04-06T07:27:53.999Z</time></trkpt><trkpt lat="42.21280286504098" lon="14.525747272439386"><ele>38.14285714285714</ele><time>2026-04-06T07:27:54.999Z</time></trkpt><trkpt lat="42.21276474560105" lon="14.525670454922897"><ele>37.85714285714286</ele><time>2026-04-06T07:27:55.999Z</time></trkpt><trkpt lat="42.212731745079985" lon="14.52558851433478"><ele>37.57142857142857</ele><time>2026-04-06T07:27:56.999Z</time></trkpt><trkpt lat="42.212705801081164" lon="14.52550417659058"><ele>37.285714285714285</ele><time>2026-04-06T07:27:57.999Z</time></trkpt><trkpt lat="42.212684688049" lon="14.52541607904965"><ele>37.0</ele><time>2026-04-06T07:27:58.999Z</time></trkpt><trkpt lat="42.212656447051515" lon="14.525334409505056"><ele>37.0</ele><time>2026-04-06T07:27:59.999Z</time></trkpt><trkpt lat="42.21263063123938" lon="14.525253457255957"><ele>37.0</ele><time>2026-04-06T07:28:00.999Z</time></trkpt><trkpt lat="42.21255195010303" lon="14.525116031707393"><ele>37.0</ele><time>2026-04-06T07:28:02.999Z</time></trkpt><trkpt lat="42.21250316461408" lon="14.525055858930793"><ele>37.0</ele><time>2026-04-06T07:28:03.999Z</time></trkpt><trkpt lat="42.212442861725805" lon="14.525010343907514"><ele>37.0</ele><time>2026-04-06T07:28:04.999Z</time></trkpt><trkpt lat="42.21237439729527" lon="14.524981282872943"><ele>37.0</ele><time>2026-04-06T07:28:05.999Z</time></trkpt><trkpt lat="42.21230750779428" lon="14.524955844775654"><ele>37.57142857142857</ele><time>2026-04-06T07:28:06.999Z</time></trkpt><trkpt lat="42.21223953842467" lon="14.524934226813697"><ele>38.14285714285714</ele><time>2026-04-06T07:28:07.999Z</time></trkpt><trkpt lat="42.212169615598434" lon="14.524916540003385"><ele>38.71428571428571</ele><time>2026-04-06T07:28:08.999Z</time></trkpt><trkpt lat="42.21210267004634" lon="14.524898877931008"><ele>39.285714285714285</ele><time>2026-04-06T07:28:09.999Z</time></trkpt><trkpt lat="42.21203477792453" lon="14.524876156307217"><ele>39.857142857142854</ele><time>2026-04-06T07:28:10.999Z</time></trkpt><trkpt lat="42.21197171396833" lon="14.524854818078747"><ele>40.42857142857142</ele><time>2026-04-06T07:28:11.999Z</time></trkpt><trkpt lat="42.21190735274568" lon="14.524825217013728"><ele>41.0</ele><time>2026-04-06T07:28:12.999Z</time></trkpt><trkpt lat="42.211848483026436" lon="14.524784570048537"><ele>40.99999999999999</ele><time>2026-04-06T07:28:13.999Z</time></trkpt><trkpt lat="42.21178849602348" lon="14.524742695043221"><ele>41.0</ele><time>2026-04-06T07:28:14.998Z</time></trkpt><trkpt lat="42.2117301555785" lon="14.524701570767853"><ele>41.0</ele><time>2026-04-06T07:28:15.998Z</time></trkpt><trkpt lat="42.21167244230387" lon="14.52465532484822"><ele>41.0</ele><time>2026-04-06T07:28:16.998Z</time></trkpt><trkpt lat="42.211617770917265" lon="14.524602307547031"><ele>41.0</ele><time>2026-04-06T07:28:17.998Z</time></trkpt><trkpt lat="42.211563909214654" lon="14.524547734771916"><ele>40.99999999999999</ele><time>2026-04-06T07:28:18.998Z</time></trkpt><trkpt lat="42.21150993807983" lon="14.524493996713876"><ele>41.0</ele><time>2026-04-06T07:28:19.998Z</time></trkpt><trkpt lat="42.21145678873403" lon="14.524435710838954"><ele>40.857142857142854</ele><time>2026-04-06T07:28:20.998Z</time></trkpt><trkpt lat="42.21140115888754" lon="14.524379116276458"><ele>40.714285714285715</ele><time>2026-04-06T07:28:21.998Z</time></trkpt><trkpt lat="42.21134423630457" lon="14.524329112581762"><ele>40.57142857142857</ele><time>2026-04-06T07:28:22.998Z</time></trkpt><trkpt lat="42.21128911471587" lon="14.524277500589244"><ele>40.42857142857143</ele><time>2026-04-06T07:28:23.998Z</time></trkpt><trkpt lat="42.21123451068491" lon="14.524221791706395"><ele>40.285714285714285</ele><time>2026-04-06T07:28:24.998Z</time></trkpt><trkpt lat="42.21117668489924" lon="14.52416523411829"><ele>40.14285714285714</ele><time>2026-04-06T07:28:25.998Z</time></trkpt><trkpt lat="42.211121949009126" lon="14.52411421539347"><ele>40.0</ele><time>2026-04-06T07:28:26.998Z</time></trkpt><trkpt lat="42.21106460625408" lon="14.52406261525721"><ele>40.0</ele><time>2026-04-06T07:28:27.998Z</time></trkpt><trkpt lat="42.2110042132995" lon="14.524005577945621"><ele>40.0</ele><time>2026-04-06T07:28:28.998Z</time></trkpt><trkpt lat="42.210951135023194" lon="14.523953738237992"><ele>40.0</ele><time>2026-04-06T07:28:29.998Z</time></trkpt><trkpt lat="42.21089803735483" lon="14.523898330470287"><ele>40.0</ele><time>2026-04-06T07:28:30.998Z</time></trkpt><trkpt lat="42.210844333956636" lon="14.523846140793628"><ele>40.0</ele><time>2026-04-06T07:28:31.998Z</time></trkpt><trkpt lat="42.21078856341376" lon="14.52379206127292"><ele>40.0</ele><time>2026-04-06T07:28:32.998Z</time></trkpt><trkpt lat="42.21073348309749" lon="14.523740136354265"><ele>40.0</ele><time>2026-04-06T07:28:33.998Z</time></trkpt><trkpt lat="42.210681406410636" lon="14.523686386454612"><ele>39.714285714285715</ele><time>2026-04-06T07:28:34.998Z</time></trkpt><trkpt lat="42.21062623923781" lon="14.523632883615544"><ele>39.42857142857143</ele><time>2026-04-06T07:28:35.998Z</time></trkpt><trkpt lat="42.21057109236047" lon="14.523581171795017"><ele>39.14285714285714</ele><time>2026-04-06T07:28:36.998Z</time></trkpt><trkpt lat="42.21051732666114" lon="14.523530146703662"><ele>38.85714285714286</ele><time>2026-04-06T07:28:37.998Z</time></trkpt><trkpt lat="42.2104636617188" lon="14.523478428972878"><ele>38.57142857142858</ele><time>2026-04-06T07:28:38.998Z</time></trkpt><trkpt lat="42.21040792521752" lon="14.523425500603636"><ele>38.285714285714285</ele><time>2026-04-06T07:28:39.998Z</time></trkpt><trkpt lat="42.210355111079224" lon="14.523376504303235"><ele>38.0</ele><time>2026-04-06T07:28:40.998Z</time></trkpt><trkpt lat="42.21029907475217" lon="14.523325021700533"><ele>38.0</ele><time>2026-04-06T07:28:41.998Z</time></trkpt><trkpt lat="42.21024478135489" lon="14.523269093049484"><ele>38.0</ele><time>2026-04-06T07:28:42.998Z</time></trkpt><trkpt lat="42.21019008646792" lon="14.523215404610937"><ele>38.0</ele><time>2026-04-06T07:28:43.998Z</time></trkpt><trkpt lat="42.21013590762354" lon="14.523162753893168"><ele>38.0</ele><time>2026-04-06T07:28:44.998Z</time></trkpt><trkpt lat="42.21008176150541" lon="14.523110413182001"><ele>38.0</ele><time>2026-04-06T07:28:45.998Z</time></trkpt><trkpt lat="42.210027741184355" lon="14.523059876460259"><ele>38.0</ele><time>2026-04-06T07:28:46.998Z</time></trkpt><trkpt lat="42.20997356929451" lon="14.523007079162454"><ele>38.0</ele><time>2026-04-06T07:28:47.998Z</time></trkpt><trkpt lat="42.20991776504392" lon="14.522951722935415"><ele>38.0</ele><time>2026-04-06T07:28:48.998Z</time></trkpt><trkpt lat="42.209862575098235" lon="14.522898455857112"><ele>38.0</ele><time>2026-04-06T07:28:49.998Z</time></trkpt><trkpt lat="42.209806616934756" lon="14.522845478722958"><ele>38.0</ele><time>2026-04-06T07:28:50.998Z</time></trkpt><trkpt lat="42.20975352747382" lon="14.522790779111002"><ele>38.0</ele><time>2026-04-06T07:28:51.998Z</time></trkpt><trkpt lat="42.209699038655174" lon="14.522736962617293"><ele>38.0</ele><time>2026-04-06T07:28:52.998Z</time></trkpt><trkpt lat="42.20964627393295" lon="14.522681765779302"><ele>38.0</ele><time>2026-04-06T07:28:53.998Z</time></trkpt><trkpt lat="42.20959467262681" lon="14.52262321310096"><ele>38.0</ele><time>2026-04-06T07:28:54.998Z</time></trkpt><trkpt lat="42.20954478362724" lon="14.5225640477656"><ele>37.83333333333333</ele><time>2026-04-06T07:28:55.998Z</time></trkpt><trkpt lat="42.209491761639626" lon="14.522489545642843"><ele>37.666666666666664</ele><time>2026-04-06T07:28:57Z</time></trkpt><trkpt lat="42.20939586652939" lon="14.522362374364551"><ele>37.5</ele><time>2026-04-06T07:28:59Z</time></trkpt><trkpt lat="42.209345112205206" lon="14.522298480022588"><ele>37.333333333333336</ele><time>2026-04-06T07:29:00Z</time></trkpt><trkpt lat="42.20929705730728" lon="14.522232599362553"><ele>37.16666666666667</ele><time>2026-04-06T07:29:01Z</time></trkpt><trkpt lat="42.20924946530203" lon="14.5221619320225"><ele>37.0</ele><time>2026-04-06T07:29:02Z</time></trkpt><trkpt lat="42.20920228910565" lon="14.522092749059572"><ele>36.85714285714286</ele><time>2026-04-06T07:29:03Z</time></trkpt><trkpt lat="42.209154425104174" lon="14.522024363462528"><ele>36.714285714285715</ele><time>2026-04-06T07:29:04Z</time></trkpt><trkpt lat="42.209111684761325" lon="14.521955272810871"><ele>36.57142857142857</ele><time>2026-04-06T07:29:05Z</time></trkpt><trkpt lat="42.20907282877768" lon="14.521881344513869"><ele>36.42857142857143</ele><time>2026-04-06T07:29:06Z</time></trkpt><trkpt lat="42.209036548815014" lon="14.521806334304722"><ele>36.285714285714285</ele><time>2026-04-06T07:29:07Z</time></trkpt><trkpt lat="42.20900628499774" lon="14.521723547680123"><ele>36.142857142857146</ele><time>2026-04-06T07:29:08Z</time></trkpt><trkpt lat="42.20897898478162" lon="14.52164001502404"><ele>36.0</ele><time>2026-04-06T07:29:09Z</time></trkpt><trkpt lat="42.20895194449477" lon="14.521557701055562"><ele>36.00000000000001</ele><time>2026-04-06T07:29:10Z</time></trkpt><trkpt lat="42.208929180708886" lon="14.521473595906865"><ele>36.0</ele><time>2026-04-06T07:29:11Z</time></trkpt><trkpt lat="42.20890326924127" lon="14.5213892047489"><ele>36.0</ele><time>2026-04-06T07:29:12Z</time></trkpt><trkpt lat="42.2088732381801" lon="14.521312412230396"><ele>36.0</ele><time>2026-04-06T07:29:13Z</time></trkpt><trkpt lat="42.20883694686732" lon="14.521235461006722"><ele>36.0</ele><time>2026-04-06T07:29:14Z</time></trkpt><trkpt lat="42.20879305367159" lon="14.521162565255871"><ele>36.00000000000001</ele><time>2026-04-06T07:29:15Z</time></trkpt><trkpt lat="42.208746754998145" lon="14.521093294609978"><ele>36.0</ele><time>2026-04-06T07:29:16Z</time></trkpt><trkpt lat="42.20869564885687" lon="14.521028163450687"><ele>35.142857142857146</ele><time>2026-04-06T07:29:17Z</time></trkpt><trkpt lat="42.20864063640199" lon="14.520972077205062"><ele>34.285714285714285</ele><time>2026-04-06T07:29:18Z</time></trkpt><trkpt lat="42.20858028275137" lon="14.520922938227793"><ele>33.42857142857143</ele><time>2026-04-06T07:29:19Z</time></trkpt><trkpt lat="42.208518975584" lon="14.520882140891704"><ele>32.57142857142857</ele><time>2026-04-06T07:29:20Z</time></trkpt><trkpt lat="42.20845347232101" lon="14.520849312333006"><ele>31.714285714285715</ele><time>2026-04-06T07:29:20.999Z</time></trkpt><trkpt lat="42.208384228564135" lon="14.520820714217969"><ele>30.857142857142858</ele><time>2026-04-06T07:29:21.999Z</time></trkpt><trkpt lat="42.208311602700554" lon="14.520795783965402"><ele>30.0</ele><time>2026-04-06T07:29:22.999Z</time></trkpt><trkpt lat="42.208238723082445" lon="14.520770540505229"><ele>30.0</ele><time>2026-04-06T07:29:23.999Z</time></trkpt><trkpt lat="42.20816984056447" lon="14.520741268159595"><ele>30.0</ele><time>2026-04-06T07:29:24.999Z</time></trkpt><trkpt lat="42.20810078600283" lon="14.520710757512074"><ele>30.0</ele><time>2026-04-06T07:29:25.999Z</time></trkpt><trkpt lat="42.208036489642524" lon="14.520675442072259"><ele>30.0</ele><time>2026-04-06T07:29:26.999Z</time></trkpt><trkpt lat="42.20797874127295" lon="14.520625941066399"><ele>30.0</ele><time>2026-04-06T07:29:27.999Z</time></trkpt><trkpt lat="42.20792778717829" lon="14.520563322879699"><ele>30.0</ele><time>2026-04-06T07:29:28.999Z</time></trkpt><trkpt lat="42.2078802862835" lon="14.520495299436552"><ele>30.0</ele><time>2026-04-06T07:29:29.999Z</time></trkpt><trkpt lat="42.20783572188452" lon="14.520424828528096"><ele>30.0</ele><time>2026-04-06T07:29:30.999Z</time></trkpt><trkpt lat="42.207794714762805" lon="14.520354678828095"><ele>30.0</ele><time>2026-04-06T07:29:31.999Z</time></trkpt><trkpt lat="42.20775531664949" lon="14.520281925421589"><ele>30.0</ele><time>2026-04-06T07:29:32.999Z</time></trkpt><trkpt lat="42.20771787406503" lon="14.520207646138005"><ele>30.0</ele><time>2026-04-06T07:29:33.999Z</time></trkpt><trkpt lat="42.20767598360399" lon="14.520133548153817"><ele>30.0</ele><time>2026-04-06T07:29:34.999Z</time></trkpt><trkpt lat="42.20763187306716" lon="14.520062158090747"><ele>30.0</ele><time>2026-04-06T07:29:35.999Z</time></trkpt><trkpt lat="42.207589392088934" lon="14.519994634000884"><ele>30.0</ele><time>2026-04-06T07:29:36.999Z</time></trkpt><trkpt lat="42.207545929882876" lon="14.51992559677201"><ele>30.0</ele><time>2026-04-06T07:29:37.999Z</time></trkpt><trkpt lat="42.20750069430303" lon="14.519858354508054"><ele>30.0</ele><time>2026-04-06T07:29:38.999Z</time></trkpt><trkpt lat="42.207453090455566" lon="14.519793728804585"><ele>30.0</ele><time>2026-04-06T07:29:39.999Z</time></trkpt><trkpt lat="42.2074060013676" lon="14.51973102897406"><ele>30.0</ele><time>2026-04-06T07:29:40.999Z</time></trkpt><trkpt lat="42.207358839040175" lon="14.519671615209107"><ele>30.0</ele><time>2026-04-06T07:29:41.999Z</time></trkpt><trkpt lat="42.20730897462645" lon="14.519616247093762"><ele>30.0</ele><time>2026-04-06T07:29:42.999Z</time></trkpt><trkpt lat="42.2072072130862" lon="14.519512170084864"><ele>30.2</ele><time>2026-04-06T07:29:44.999Z</time></trkpt><trkpt lat="42.20715570394456" lon="14.519461316785376"><ele>30.4</ele><time>2026-04-06T07:29:45.999Z</time></trkpt><trkpt lat="42.20710407736989" lon="14.519411307616041"><ele>30.6</ele><time>2026-04-06T07:29:46.999Z</time></trkpt><trkpt lat="42.207003759683154" lon="14.519314126257528"><ele>30.8</ele><time>2026-04-06T07:29:48.999Z</time></trkpt><trkpt lat="42.20691032030669" lon="14.519204454598384"><ele>31.0</ele><time>2026-04-06T07:29:50.999Z</time></trkpt><trkpt lat="42.20683804493704" lon="14.519072117333138"><ele>31.0</ele><time>2026-04-06T07:29:52.999Z</time></trkpt><trkpt lat="42.20679155081258" lon="14.518923351237648"><ele>31.0</ele><time>2026-04-06T07:29:54.999Z</time></trkpt><trkpt lat="42.206769088590164" lon="14.518762097440586"><ele>31.0</ele><time>2026-04-06T07:29:56.999Z</time></trkpt><trkpt lat="42.20675126466727" lon="14.518600339945593"><ele>31.0</ele><time>2026-04-06T07:29:58.999Z</time></trkpt><trkpt lat="42.2067234956641" lon="14.518442813494483"><ele>32.0</ele><time>2026-04-06T07:30:00.999Z</time></trkpt><trkpt lat="42.20667513337655" lon="14.518293074708634"><ele>33.0</ele><time>2026-04-06T07:30:02.999Z</time></trkpt><trkpt lat="42.20660555306043" lon="14.51816586905492"><ele>34.0</ele><time>2026-04-06T07:30:04.999Z</time></trkpt><trkpt lat="42.2065078026609" lon="14.518077206232764"><ele>35.0</ele><time>2026-04-06T07:30:06.999Z</time></trkpt><trkpt lat="42.20640398660943" lon="14.51799314924208"><ele>35.0</ele><time>2026-04-06T07:30:08.999Z</time></trkpt><trkpt lat="42.20629248395023" lon="14.51792174647767"><ele>35.0</ele><time>2026-04-06T07:30:10.999Z</time></trkpt><trkpt lat="42.20617495311513" lon="14.517859039924522"><ele>35.0</ele><time>2026-04-06T07:30:12.999Z</time></trkpt><trkpt lat="42.206112738995536" lon="14.517823203591012"><ele>35.0</ele><time>2026-04-06T07:30:13.998Z</time></trkpt><trkpt lat="42.20604828792501" lon="14.517787888452261"><ele>35.0</ele><time>2026-04-06T07:30:14.998Z</time></trkpt><trkpt lat="42.205979774526746" lon="14.51775745975464"><ele>34.142857142857146</ele><time>2026-04-06T07:30:15.998Z</time></trkpt><trkpt lat="42.20591109484595" lon="14.517725348991437"><ele>33.285714285714285</ele><time>2026-04-06T07:30:16.998Z</time></trkpt><trkpt lat="42.20584242753981" lon="14.517691085800353"><ele>32.42857142857143</ele><time>2026-04-06T07:30:17.998Z</time></trkpt><trkpt lat="42.20577232243986" lon="14.517662374133595"><ele>31.571428571428573</ele><time>2026-04-06T07:30:18.998Z</time></trkpt><trkpt lat="42.20570152042964" lon="14.517639345463643"><ele>30.714285714285715</ele><time>2026-04-06T07:30:19.998Z</time></trkpt><trkpt lat="42.205632153914834" lon="14.517619523136315"><ele>29.85714285714286</ele><time>2026-04-06T07:30:20.998Z</time></trkpt><trkpt lat="42.20556271077518" lon="14.517597589499655"><ele>29.000000000000004</ele><time>2026-04-06T07:30:21.998Z</time></trkpt><trkpt lat="42.20549458452237" lon="14.517577698604729"><ele>29.000000000000004</ele><time>2026-04-06T07:30:22.998Z</time></trkpt><trkpt lat="42.205427006987556" lon="14.517559434986829"><ele>29.0</ele><time>2026-04-06T07:30:23.998Z</time></trkpt><trkpt lat="42.205360823271995" lon="14.517537176738077"><ele>29.000000000000004</ele><time>2026-04-06T07:30:24.998Z</time></trkpt><trkpt lat="42.2052950159892" lon="14.517517071463521"><ele>29.000000000000004</ele><time>2026-04-06T07:30:25.998Z</time></trkpt><trkpt lat="42.20523017302751" lon="14.517500030956421"><ele>29.0</ele><time>2026-04-06T07:30:26.998Z</time></trkpt><trkpt lat="42.205167723889865" lon="14.517476425469654"><ele>29.000000000000004</ele><time>2026-04-06T07:30:27.998Z</time></trkpt><trkpt lat="42.20510567628062" lon="14.517450040281423"><ele>29.000000000000004</ele><time>2026-04-06T07:30:28.998Z</time></trkpt><trkpt lat="42.20504382144734" lon="14.517421149469515"><ele>29.000000000000004</ele><time>2026-04-06T07:30:29.998Z</time></trkpt><trkpt lat="42.204984095296844" lon="14.517383892392521"><ele>29.0</ele><time>2026-04-06T07:30:30.998Z</time></trkpt><trkpt lat="42.204925346054736" lon="14.51734255914349"><ele>29.000000000000004</ele><time>2026-04-06T07:30:31.998Z</time></trkpt><trkpt lat="42.20486978222823" lon="14.517293707612483"><ele>29.000000000000004</ele><time>2026-04-06T07:30:32.998Z</time></trkpt><trkpt lat="42.20481840752924" lon="14.51723103857044"><ele>29.0</ele><time>2026-04-06T07:30:33.998Z</time></trkpt><trkpt lat="42.20477318469172" lon="14.517160146315803"><ele>29.000000000000004</ele><time>2026-04-06T07:30:34.998Z</time></trkpt><trkpt lat="42.20473532726442" lon="14.517079947234608"><ele>29.000000000000004</ele><time>2026-04-06T07:30:35.998Z</time></trkpt><trkpt lat="42.204699153967134" lon="14.516999808415951"><ele>29.142857142857146</ele><time>2026-04-06T07:30:36.998Z</time></trkpt><trkpt lat="42.204661608440645" lon="14.516921866175508"><ele>29.285714285714285</ele><time>2026-04-06T07:30:37.998Z</time></trkpt><trkpt lat="42.204621142283436" lon="14.516847106619874"><ele>29.42857142857143</ele><time>2026-04-06T07:30:38.998Z</time></trkpt><trkpt lat="42.204580145381435" lon="14.51677325169985"><ele>29.571428571428573</ele><time>2026-04-06T07:30:39.998Z</time></trkpt><trkpt lat="42.204534352174626" lon="14.516704741317234"><ele>29.714285714285715</ele><time>2026-04-06T07:30:40.998Z</time></trkpt><trkpt lat="42.20448064812706" lon="14.516645558154911"><ele>29.857142857142858</ele><time>2026-04-06T07:30:41.998Z</time></trkpt><trkpt lat="42.20442659584792" lon="14.516594667786796"><ele>30.0</ele><time>2026-04-06T07:30:42.998Z</time></trkpt><trkpt lat="42.204363438782224" lon="14.51653927266738"><ele>30.0</ele><time>2026-04-06T07:30:43.998Z</time></trkpt><trkpt lat="42.204304671348574" lon="14.516490998655085"><ele>30.0</ele><time>2026-04-06T07:30:44.998Z</time></trkpt><trkpt lat="42.204242439300906" lon="14.516447889286304"><ele>30.0</ele><time>2026-04-06T07:30:45.998Z</time></trkpt><trkpt lat="42.20417845676915" lon="14.516408370530932"><ele>30.0</ele><time>2026-04-06T07:30:46.998Z</time></trkpt><trkpt lat="42.20411385844399" lon="14.516368059719188"><ele>30.0</ele><time>2026-04-06T07:30:47.998Z</time></trkpt><trkpt lat="42.204049293396956" lon="14.51632633657636"><ele>30.0</ele><time>2026-04-06T07:30:48.998Z</time></trkpt><trkpt lat="42.20398920432671" lon="14.516280222788462"><ele>30.0</ele><time>2026-04-06T07:30:49.998Z</time></trkpt><trkpt lat="42.203931844642376" lon="14.51622991014178"><ele>29.857142857142858</ele><time>2026-04-06T07:30:50.998Z</time></trkpt><trkpt lat="42.203875853328974" lon="14.516175637450198"><ele>29.714285714285715</ele><time>2026-04-06T07:30:51.998Z</time></trkpt><trkpt lat="42.2038246189228" lon="14.51611524150153"><ele>29.571428571428573</ele><time>2026-04-06T07:30:52.998Z</time></trkpt><trkpt lat="42.20377655608646" lon="14.516052109291097"><ele>29.42857142857143</ele><time>2026-04-06T07:30:53.998Z</time></trkpt><trkpt lat="42.20372881343927" lon="14.515985982791637"><ele>29.285714285714285</ele><time>2026-04-06T07:30:54.998Z</time></trkpt><trkpt lat="42.20368280779982" lon="14.515915042594207"><ele>29.142857142857146</ele><time>2026-04-06T07:30:55.998Z</time></trkpt><trkpt lat="42.20363515814721" lon="14.51584578967785"><ele>29.000000000000004</ele><time>2026-04-06T07:30:56.998Z</time></trkpt><trkpt lat="42.20358959801089" lon="14.51577635904377"><ele>29.000000000000004</ele><time>2026-04-06T07:30:57.998Z</time></trkpt><trkpt lat="42.20354188870879" lon="14.515709167142857"><ele>29.0</ele><time>2026-04-06T07:30:58.998Z</time></trkpt><trkpt lat="42.203496169061204" lon="14.515641782925426"><ele>29.000000000000004</ele><time>2026-04-06T07:30:59.998Z</time></trkpt><trkpt lat="42.20344875487044" lon="14.515574715254525"><ele>29.000000000000004</ele><time>2026-04-06T07:31:00.998Z</time></trkpt><trkpt lat="42.203400425223066" lon="14.51551125828739"><ele>29.0</ele><time>2026-04-06T07:31:01.998Z</time></trkpt><trkpt lat="42.203349583514246" lon="14.51544742241832"><ele>29.000000000000004</ele><time>2026-04-06T07:31:03Z</time></trkpt><trkpt lat="42.20329912741653" lon="14.515384953366048"><ele>29.000000000000004</ele><time>2026-04-06T07:31:04Z</time></trkpt><trkpt lat="42.203247898611544" lon="14.515322444137988"><ele>29.000000000000004</ele><time>2026-04-06T07:31:05Z</time></trkpt><trkpt lat="42.20319863697787" lon="14.515257813308152"><ele>29.0</ele><time>2026-04-06T07:31:06Z</time></trkpt><trkpt lat="42.203150843955335" lon="14.515191503485367"><ele>29.000000000000004</ele><time>2026-04-06T07:31:07Z</time></trkpt><trkpt lat="42.203103179008934" lon="14.515124797786159"><ele>29.000000000000004</ele><time>2026-04-06T07:31:08Z</time></trkpt><trkpt lat="42.20305720616793" lon="14.515055684724539"><ele>29.0</ele><time>2026-04-06T07:31:09Z</time></trkpt><trkpt lat="42.20300980982135" lon="14.5149791837116"><ele>29.000000000000004</ele><time>2026-04-06T07:31:10Z</time></trkpt><trkpt lat="42.20296625658082" lon="14.514910210679307"><ele>29.000000000000004</ele><time>2026-04-06T07:31:11Z</time></trkpt><trkpt lat="42.202921156967705" lon="14.51483914131586"><ele>29.000000000000004</ele><time>2026-04-06T07:31:12Z</time></trkpt><trkpt lat="42.20287832187744" lon="14.51476145040118"><ele>29.0</ele><time>2026-04-06T07:31:13Z</time></trkpt><trkpt lat="42.202838803616174" lon="14.514686060664188"><ele>29.000000000000004</ele><time>2026-04-06T07:31:14Z</time></trkpt><trkpt lat="42.202798525752236" lon="14.51461175445572"><ele>29.000000000000004</ele><time>2026-04-06T07:31:15Z</time></trkpt><trkpt lat="42.20275801007844" lon="14.514538656943582"><ele>29.0</ele><time>2026-04-06T07:31:16Z</time></trkpt><trkpt lat="42.20271769950878" lon="14.514464715843838"><ele>29.000000000000004</ele><time>2026-04-06T07:31:17Z</time></trkpt><trkpt lat="42.20267715546633" lon="14.514393168074855"><ele>29.000000000000004</ele><time>2026-04-06T07:31:18Z</time></trkpt><trkpt lat="42.2026329090044" lon="14.51432573495201"><ele>29.142857142857146</ele><time>2026-04-06T07:31:19Z</time></trkpt><trkpt lat="42.20258749438502" lon="14.51425592195959"><ele>29.285714285714285</ele><time>2026-04-06T07:31:20Z</time></trkpt><trkpt lat="42.20254333021432" lon="14.514188471427842"><ele>29.42857142857143</ele><time>2026-04-06T07:31:21Z</time></trkpt><trkpt lat="42.202496010839525" lon="14.514119794246144"><ele>29.571428571428573</ele><time>2026-04-06T07:31:22Z</time></trkpt><trkpt lat="42.20244822189563" lon="14.514053195614695"><ele>29.714285714285715</ele><time>2026-04-06T07:31:23Z</time></trkpt><trkpt lat="42.20239701739533" lon="14.51398823721573"><ele>29.857142857142858</ele><time>2026-04-06T07:31:23.999Z</time></trkpt><trkpt lat="42.202352239783785" lon="14.513917217768489"><ele>30.0</ele><time>2026-04-06T07:31:24.999Z</time></trkpt><trkpt lat="42.20230378809986" lon="14.513854098793335"><ele>30.0</ele><time>2026-04-06T07:31:25.999Z</time></trkpt><trkpt lat="42.202255983277624" lon="14.513791322322296"><ele>30.0</ele><time>2026-04-06T07:31:26.999Z</time></trkpt><trkpt lat="42.20220870546023" lon="14.513729097376565"><ele>30.0</ele><time>2026-04-06T07:31:27.999Z</time></trkpt><trkpt lat="42.20216609902019" lon="14.513666377173887"><ele>30.0</ele><time>2026-04-06T07:31:28.999Z</time></trkpt><trkpt lat="42.20212216802663" lon="14.513604984489856"><ele>30.0</ele><time>2026-04-06T07:31:29.999Z</time></trkpt><trkpt lat="42.20207741001684" lon="14.513543648436718"><ele>30.0</ele><time>2026-04-06T07:31:30.999Z</time></trkpt><trkpt lat="42.201990772040126" lon="14.513425829288105"><ele>30.0</ele><time>2026-04-06T07:31:32.999Z</time></trkpt><trkpt lat="42.201904591344984" lon="14.513305746539492"><ele>28.0</ele><time>2026-04-06T07:31:34.999Z</time></trkpt><trkpt lat="42.20181977569944" lon="14.513186313820363"><ele>26.0</ele><time>2026-04-06T07:31:36.999Z</time></trkpt><trkpt lat="42.201736980236596" lon="14.513071776401091"><ele>24.0</ele><time>2026-04-06T07:31:38.999Z</time></trkpt><trkpt lat="42.20165518591558" lon="14.512963887727167"><ele>22.0</ele><time>2026-04-06T07:31:40.999Z</time></trkpt><trkpt lat="42.201578910152165" lon="14.512851956475867"><ele>22.6</ele><time>2026-04-06T07:31:42.999Z</time></trkpt><trkpt lat="42.20149912575438" lon="14.512745345049048"><ele>23.200000000000003</ele><time>2026-04-06T07:31:44.999Z</time></trkpt><trkpt lat="42.20142186360675" lon="14.512638040037992"><ele>23.8</ele><time>2026-04-06T07:31:46.999Z</time></trkpt><trkpt lat="42.20134883459761" lon="14.512538000098267"><ele>24.4</ele><time>2026-04-06T07:31:48.999Z</time></trkpt><trkpt lat="42.20127548085713" lon="14.512435552228308"><ele>25.0</ele><time>2026-04-06T07:31:50.999Z</time></trkpt><trkpt lat="42.20120364064292" lon="14.512333219985516"><ele>25.0</ele><time>2026-04-06T07:31:52.999Z</time></trkpt><trkpt lat="42.201128464212225" lon="14.512230942750778"><ele>25.0</ele><time>2026-04-06T07:31:54.999Z</time></trkpt><trkpt lat="42.20105498954928" lon="14.512130300882433"><ele>25.0</ele><time>2026-04-06T07:31:56.999Z</time></trkpt><trkpt lat="42.200982433457156" lon="14.512034036733567"><ele>25.0</ele><time>2026-04-06T07:31:58.999Z</time></trkpt><trkpt lat="42.20091335073405" lon="14.511938120584372"><ele>25.0</ele><time>2026-04-06T07:32:00.999Z</time></trkpt><trkpt lat="42.20084669244574" lon="14.511843860161667"><ele>24.8</ele><time>2026-04-06T07:32:02.999Z</time></trkpt><trkpt lat="42.20078040618774" lon="14.511752233743776"><ele>24.6</ele><time>2026-04-06T07:32:04.999Z</time></trkpt><trkpt lat="42.200715540886684" lon="14.511664553391975"><ele>24.4</ele><time>2026-04-06T07:32:06.999Z</time></trkpt><trkpt lat="42.200648336375345" lon="14.51157413538749"><ele>24.2</ele><time>2026-04-06T07:32:08.999Z</time></trkpt><trkpt lat="42.20058019991153" lon="14.511477954761029"><ele>24.0</ele><time>2026-04-06T07:32:10.999Z</time></trkpt><trkpt lat="42.200512627675224" lon="14.51138277987523"><ele>24.6</ele><time>2026-04-06T07:32:12.999Z</time></trkpt><trkpt lat="42.20045021694964" lon="14.511284882207583"><ele>25.2</ele><time>2026-04-06T07:32:14.999Z</time></trkpt><trkpt lat="42.20038156846296" lon="14.511199163773869"><ele>25.800000000000004</ele><time>2026-04-06T07:32:16.999Z</time></trkpt><trkpt lat="42.20031050310727" lon="14.511110175917763"><ele>26.400000000000002</ele><time>2026-04-06T07:32:18.999Z</time></trkpt><trkpt lat="42.200243597715286" lon="14.511013130551394"><ele>27.0</ele><time>2026-04-06T07:32:20.999Z</time></trkpt><trkpt lat="42.20017451757327" lon="14.510918272725775"><ele>27.0</ele><time>2026-04-06T07:32:22.998Z</time></trkpt><trkpt lat="42.20010629309206" lon="14.510820987394755"><ele>27.000000000000004</ele><time>2026-04-06T07:32:24.998Z</time></trkpt><trkpt lat="42.20003636068263" lon="14.510725397564185"><ele>27.000000000000004</ele><time>2026-04-06T07:32:26.998Z</time></trkpt><trkpt lat="42.19996548385889" lon="14.510629370558703"><ele>27.0</ele><time>2026-04-06T07:32:28.998Z</time></trkpt><trkpt lat="42.19989506119265" lon="14.510532321628915"><ele>27.0</ele><time>2026-04-06T07:32:30.998Z</time></trkpt><trkpt lat="42.19982560920799" lon="14.510438230623352"><ele>27.0</ele><time>2026-04-06T07:32:32.998Z</time></trkpt><trkpt lat="42.19975728874028" lon="14.510346552962247"><ele>27.000000000000004</ele><time>2026-04-06T07:32:34.998Z</time></trkpt><trkpt lat="42.19968821384944" lon="14.510250582608963"><ele>27.000000000000004</ele><time>2026-04-06T07:32:36.998Z</time></trkpt><trkpt lat="42.19961733054669" lon="14.510160641538798"><ele>27.0</ele><time>2026-04-06T07:32:38.998Z</time></trkpt><trkpt lat="42.19954117271592" lon="14.510073831823467"><ele>27.0</ele><time>2026-04-06T07:32:40.998Z</time></trkpt><trkpt lat="42.199466702083406" lon="14.509990611806376"><ele>27.0</ele><time>2026-04-06T07:32:42.998Z</time></trkpt><trkpt lat="42.19939130691514" lon="14.509911256242395"><ele>27.000000000000004</ele><time>2026-04-06T07:32:44.998Z</time></trkpt><trkpt lat="42.19930780174546" lon="14.509837981672304"><ele>27.000000000000004</ele><time>2026-04-06T07:32:46.998Z</time></trkpt><trkpt lat="42.199226826734574" lon="14.509763929740828"><ele>27.0</ele><time>2026-04-06T07:32:48.998Z</time></trkpt><trkpt lat="42.19914299415066" lon="14.509699520022501"><ele>27.0</ele><time>2026-04-06T07:32:50.998Z</time></trkpt><trkpt lat="42.19905447149649" lon="14.509636892272756"><ele>26.8</ele><time>2026-04-06T07:32:52.998Z</time></trkpt><trkpt lat="42.19896252085373" lon="14.509585707314448"><ele>26.6</ele><time>2026-04-06T07:32:54.998Z</time></trkpt><trkpt lat="42.19887121113463" lon="14.509529237527076"><ele>26.400000000000002</ele><time>2026-04-06T07:32:56.998Z</time></trkpt><trkpt lat="42.198779627128424" lon="14.509472622725157"><ele>26.200000000000003</ele><time>2026-04-06T07:32:58.998Z</time></trkpt><trkpt lat="42.19868930533265" lon="14.509418862078194"><ele>26.0</ele><time>2026-04-06T07:33:00.998Z</time></trkpt><trkpt lat="42.19860109165082" lon="14.509363871822096"><ele>26.0</ele><time>2026-04-06T07:33:02.998Z</time></trkpt><trkpt lat="42.1985131694962" lon="14.509314505681406"><ele>26.0</ele><time>2026-04-06T07:33:04.998Z</time></trkpt><trkpt lat="42.19842378044705" lon="14.50927624280885"><ele>26.0</ele><time>2026-04-06T07:33:06.998Z</time></trkpt><trkpt lat="42.198343786288724" lon="14.509230141575369"><ele>26.0</ele><time>2026-04-06T07:33:09Z</time></trkpt><trkpt lat="42.198252406912005" lon="14.509171245903618"><ele>26.0</ele><time>2026-04-06T07:33:11Z</time></trkpt><trkpt lat="42.19816121947813" lon="14.509115854822065"><ele>26.0</ele><time>2026-04-06T07:33:13Z</time></trkpt><trkpt lat="42.198070653464924" lon="14.509056459113449"><ele>26.0</ele><time>2026-04-06T07:33:15Z</time></trkpt><trkpt lat="42.197980635861484" lon="14.509003172992365"><ele>26.0</ele><time>2026-04-06T07:33:17Z</time></trkpt><trkpt lat="42.197889904407184" lon="14.508945676642591"><ele>26.0</ele><time>2026-04-06T07:33:19Z</time></trkpt><trkpt lat="42.19779938413948" lon="14.508890767842047"><ele>26.0</ele><time>2026-04-06T07:33:21Z</time></trkpt><trkpt lat="42.19770713733841" lon="14.508834008556155"><ele>26.0</ele><time>2026-04-06T07:33:23Z</time></trkpt><trkpt lat="42.19761242690401" lon="14.508776727333963"><ele>26.0</ele><time>2026-04-06T07:33:25Z</time></trkpt><trkpt lat="42.19751555784627" lon="14.508716646488221"><ele>26.0</ele><time>2026-04-06T07:33:27Z</time></trkpt><trkpt lat="42.19741695372814" lon="14.50865694715063"><ele>26.0</ele><time>2026-04-06T07:33:28.999Z</time></trkpt><trkpt lat="42.19731750618853" lon="14.508596132561149"><ele>26.0</ele><time>2026-04-06T07:33:30.999Z</time></trkpt><trkpt lat="42.19721672886429" lon="14.508537730248566"><ele>26.200000000000003</ele><time>2026-04-06T07:33:32.999Z</time></trkpt><trkpt lat="42.197116587236465" lon="14.508474701494388"><ele>26.400000000000002</ele><time>2026-04-06T07:33:34.999Z</time></trkpt><trkpt lat="42.19701581945186" lon="14.508414355498646"><ele>26.6</ele><time>2026-04-06T07:33:36.999Z</time></trkpt><trkpt lat="42.19691515446044" lon="14.508353335732224"><ele>26.8</ele><time>2026-04-06T07:33:38.999Z</time></trkpt><trkpt lat="42.196815323006064" lon="14.50829140714227"><ele>27.0</ele><time>2026-04-06T07:33:40.999Z</time></trkpt><trkpt lat="42.19671339272755" lon="14.508233164644341"><ele>27.0</ele><time>2026-04-06T07:33:42.999Z</time></trkpt><trkpt lat="42.19661286027452" lon="14.508174632994473"><ele>27.000000000000004</ele><time>2026-04-06T07:33:44.999Z</time></trkpt><trkpt lat="42.196513023171526" lon="14.508117689895796"><ele>27.000000000000004</ele><time>2026-04-06T07:33:46.999Z</time></trkpt><trkpt lat="42.1964167689198" lon="14.508056712374888"><ele>27.0</ele><time>2026-04-06T07:33:48.999Z</time></trkpt><trkpt lat="42.19631647375751" lon="14.507997687702415"><ele>27.0</ele><time>2026-04-06T07:33:50.999Z</time></trkpt><trkpt lat="42.19621783729447" lon="14.507945671768207"><ele>26.400000000000002</ele><time>2026-04-06T07:33:52.999Z</time></trkpt><trkpt lat="42.1961240771254" lon="14.50789005322434"><ele>25.800000000000004</ele><time>2026-04-06T07:33:54.999Z</time></trkpt><trkpt lat="42.19603320307232" lon="14.507829668664423"><ele>25.2</ele><time>2026-04-06T07:33:56.999Z</time></trkpt><trkpt lat="42.1959452785399" lon="14.507764638728792"><ele>24.6</ele><time>2026-04-06T07:33:58.999Z</time></trkpt><trkpt lat="42.19585207229586" lon="14.507705280336612"><ele>24.0</ele><time>2026-04-06T07:34:00.999Z</time></trkpt><trkpt lat="42.19576186088332" lon="14.507637946776272"><ele>24.0</ele><time>2026-04-06T07:34:02.999Z</time></trkpt><trkpt lat="42.19567261232285" lon="14.507572065727036"><ele>24.0</ele><time>2026-04-06T07:34:04.999Z</time></trkpt><trkpt lat="42.19558509345725" lon="14.507501086162204"><ele>24.0</ele><time>2026-04-06T07:34:06.999Z</time></trkpt><trkpt lat="42.19549695122558" lon="14.507425413528665"><ele>24.0</ele><time>2026-04-06T07:34:08.999Z</time></trkpt><trkpt lat="42.19540695098549" lon="14.507347290123624"><ele>24.0</ele><time>2026-04-06T07:34:10.999Z</time></trkpt><trkpt lat="42.19531702571768" lon="14.507265904515663"><ele>24.2</ele><time>2026-04-06T07:34:12.999Z</time></trkpt><trkpt lat="42.19522834926213" lon="14.507189067972288"><ele>24.4</ele><time>2026-04-06T07:34:14.999Z</time></trkpt><trkpt lat="42.195143178844255" lon="14.507108820951638"><ele>24.6</ele><time>2026-04-06T07:34:16.999Z</time></trkpt><trkpt lat="42.19506031265214" lon="14.507033308859551"><ele>24.8</ele><time>2026-04-06T07:34:18.999Z</time></trkpt><trkpt lat="42.194975502397526" lon="14.506962301839113"><ele>25.0</ele><time>2026-04-06T07:34:20.999Z</time></trkpt><trkpt lat="42.19488878559435" lon="14.506891649445038"><ele>24.6</ele><time>2026-04-06T07:34:22.998Z</time></trkpt><trkpt lat="42.19480130367378" lon="14.506821652790729"><ele>24.2</ele><time>2026-04-06T07:34:24.998Z</time></trkpt><trkpt lat="42.19472146190726" lon="14.506738491503192"><ele>23.799999999999997</ele><time>2026-04-06T07:34:26.998Z</time></trkpt><trkpt lat="42.19463972413746" lon="14.506656662129302"><ele>23.4</ele><time>2026-04-06T07:34:28.998Z</time></trkpt><trkpt lat="42.194554019722226" lon="14.506582579988768"><ele>23.0</ele><time>2026-04-06T07:34:30.998Z</time></trkpt><trkpt lat="42.194469436804226" lon="14.50650359945872"><ele>23.0</ele><time>2026-04-06T07:34:32.998Z</time></trkpt><trkpt lat="42.194383422040744" lon="14.506427344280498"><ele>23.0</ele><time>2026-04-06T07:34:34.998Z</time></trkpt><trkpt lat="42.194297679689726" lon="14.506350316179532"><ele>23.0</ele><time>2026-04-06T07:34:36.998Z</time></trkpt><trkpt lat="42.19421071540422" lon="14.506272618839729"><ele>23.0</ele><time>2026-04-06T07:34:38.998Z</time></trkpt><trkpt lat="42.19412412013935" lon="14.506193239731044"><ele>23.0</ele><time>2026-04-06T07:34:40.998Z</time></trkpt><trkpt lat="42.19403712974212" lon="14.50611631006413"><ele>23.0</ele><time>2026-04-06T07:34:42.998Z</time></trkpt><trkpt lat="42.19395026056579" lon="14.506037761303658"><ele>23.0</ele><time>2026-04-06T07:34:44.998Z</time></trkpt><trkpt lat="42.19386198451791" lon="14.505962514410337"><ele>23.0</ele><time>2026-04-06T07:34:46.998Z</time></trkpt><trkpt lat="42.19377531091333" lon="14.505884600573903"><ele>23.0</ele><time>2026-04-06T07:34:48.998Z</time></trkpt><trkpt lat="42.19368872812404" lon="14.505807495881706"><ele>23.0</ele><time>2026-04-06T07:34:50.998Z</time></trkpt><trkpt lat="42.193603176837705" lon="14.505726074784802"><ele>23.0</ele><time>2026-04-06T07:34:52.998Z</time></trkpt><trkpt lat="42.19351678153036" lon="14.50564662003128"><ele>23.0</ele><time>2026-04-06T07:34:54.998Z</time></trkpt><trkpt lat="42.19343001050398" lon="14.505569445741726"><ele>23.0</ele><time>2026-04-06T07:34:56.998Z</time></trkpt><trkpt lat="42.193342813772766" lon="14.505491240540579"><ele>23.0</ele><time>2026-04-06T07:34:58.998Z</time></trkpt><trkpt lat="42.19325733571652" lon="14.505413243714969"><ele>23.0</ele><time>2026-04-06T07:35:00.998Z</time></trkpt><trkpt lat="42.19317282652389" lon="14.505338034503213"><ele>23.2</ele><time>2026-04-06T07:35:02.998Z</time></trkpt><trkpt lat="42.19308606766621" lon="14.505261203778526"><ele>23.4</ele><time>2026-04-06T07:35:04.998Z</time></trkpt><trkpt lat="42.19300329354436" lon="14.505188817712714"><ele>23.599999999999998</ele><time>2026-04-06T07:35:06.998Z</time></trkpt><trkpt lat="42.19292261355742" lon="14.505119390909048"><ele>23.799999999999997</ele><time>2026-04-06T07:35:08.998Z</time></trkpt><trkpt lat="42.19284494243087" lon="14.5050465617301"><ele>24.0</ele><time>2026-04-06T07:35:10.998Z</time></trkpt><trkpt lat="42.19276172873985" lon="14.504981947350682"><ele>24.0</ele><time>2026-04-06T07:35:12.998Z</time></trkpt><trkpt lat="42.1926775665928" lon="14.504907860332315"><ele>24.0</ele><time>2026-04-06T07:35:15Z</time></trkpt><trkpt lat="42.192592762998956" lon="14.50482632041141"><ele>24.0</ele><time>2026-04-06T07:35:17Z</time></trkpt><trkpt lat="42.19250765427493" lon="14.504751970441196"><ele>24.0</ele><time>2026-04-06T07:35:19Z</time></trkpt><trkpt lat="42.192423104639005" lon="14.504675739670382"><ele>24.0</ele><time>2026-04-06T07:35:21Z</time></trkpt><trkpt lat="42.19233702970228" lon="14.504610562303464"><ele>24.4</ele><time>2026-04-06T07:35:23Z</time></trkpt><trkpt lat="42.19224948793947" lon="14.50454437353865"><ele>24.799999999999997</ele><time>2026-04-06T07:35:25Z</time></trkpt><trkpt lat="42.19217218644014" lon="14.504466134044222"><ele>25.200000000000003</ele><time>2026-04-06T07:35:27Z</time></trkpt><trkpt lat="42.1920933156545" lon="14.504383309425906"><ele>25.6</ele><time>2026-04-06T07:35:29Z</time></trkpt><trkpt lat="42.19200868156507" lon="14.504309611128402"><ele>26.0</ele><time>2026-04-06T07:35:30.999Z</time></trkpt><trkpt lat="42.19192378383552" lon="14.504235563862482"><ele>26.0</ele><time>2026-04-06T07:35:32.999Z</time></trkpt><trkpt lat="42.19183959762214" lon="14.504157187638313"><ele>26.0</ele><time>2026-04-06T07:35:34.999Z</time></trkpt><trkpt lat="42.19175612347225" lon="14.504080137533407"><ele>26.0</ele><time>2026-04-06T07:35:36.999Z</time></trkpt><trkpt lat="42.191671958862294" lon="14.504005739819217"><ele>26.0</ele><time>2026-04-06T07:35:38.999Z</time></trkpt><trkpt lat="42.19158898883563" lon="14.503931135763276"><ele>26.0</ele><time>2026-04-06T07:35:40.999Z</time></trkpt><trkpt lat="42.19150936869248" lon="14.503855628536696"><ele>25.8</ele><time>2026-04-06T07:35:42.999Z</time></trkpt><trkpt lat="42.19142384849674" lon="14.503782406206666"><ele>25.6</ele><time>2026-04-06T07:35:44.999Z</time></trkpt><trkpt lat="42.191343064176245" lon="14.503706797689278"><ele>25.4</ele><time>2026-04-06T07:35:46.999Z</time></trkpt><trkpt lat="42.191262666659654" lon="14.503635064863689"><ele>25.2</ele><time>2026-04-06T07:35:48.999Z</time></trkpt><trkpt lat="42.19118037537953" lon="14.503562515728083"><ele>25.0</ele><time>2026-04-06T07:35:51Z</time></trkpt><trkpt lat="42.19109976957353" lon="14.503488297769733"><ele>25.0</ele><time>2026-04-06T07:35:53Z</time></trkpt><trkpt lat="42.19102080713976" lon="14.50341489925968"><ele>25.0</ele><time>2026-04-06T07:35:55Z</time></trkpt><trkpt lat="42.19094110150822" lon="14.503341157948425"><ele>25.0</ele><time>2026-04-06T07:35:57Z</time></trkpt><trkpt lat="42.19086139348329" lon="14.50327037215328"><ele>25.0</ele><time>2026-04-06T07:35:59Z</time></trkpt><trkpt lat="42.19077729059075" lon="14.503203428305499"><ele>25.0</ele><time>2026-04-06T07:36:01Z</time></trkpt><trkpt lat="42.19069758516815" lon="14.503128368488609"><ele>25.4</ele><time>2026-04-06T07:36:03Z</time></trkpt><trkpt lat="42.1906176554688" lon="14.50305213524307"><ele>25.8</ele><time>2026-04-06T07:36:05Z</time></trkpt><trkpt lat="42.190536190553495" lon="14.50298157771432"><ele>26.200000000000003</ele><time>2026-04-06T07:36:07Z</time></trkpt><trkpt lat="42.1904563408677" lon="14.50291151864159"><ele>26.6</ele><time>2026-04-06T07:36:09Z</time></trkpt><trkpt lat="42.19037818704961" lon="14.50283974253182"><ele>27.0</ele><time>2026-04-06T07:36:11Z</time></trkpt><trkpt lat="42.190299080331535" lon="14.50276921725752"><ele>27.0</ele><time>2026-04-06T07:36:13Z</time></trkpt><trkpt lat="42.1902216645841" lon="14.502699539000716"><ele>27.000000000000004</ele><time>2026-04-06T07:36:15Z</time></trkpt><trkpt lat="42.190140175020574" lon="14.50263163161394"><ele>27.000000000000004</ele><time>2026-04-06T07:36:17Z</time></trkpt><trkpt lat="42.19005865105243" lon="14.502559406607425"><ele>27.0</ele><time>2026-04-06T07:36:19Z</time></trkpt><trkpt lat="42.18997680998818" lon="14.50248910603934"><ele>27.0</ele><time>2026-04-06T07:36:21Z</time></trkpt><trkpt lat="42.18989663825746" lon="14.50242014141332"><ele>27.400000000000002</ele><time>2026-04-06T07:36:23Z</time></trkpt><trkpt lat="42.189817339792654" lon="14.502345580648884"><ele>27.800000000000004</ele><time>2026-04-06T07:36:24.999Z</time></trkpt><trkpt lat="42.189736980034006" lon="14.502272677370735"><ele>28.2</ele><time>2026-04-06T07:36:26.999Z</time></trkpt><trkpt lat="42.18965702406631" lon="14.502199839670514"><ele>28.6</ele><time>2026-04-06T07:36:28.999Z</time></trkpt><trkpt lat="42.18957637036579" lon="14.50212686657172"><ele>29.0</ele><time>2026-04-06T07:36:30.999Z</time></trkpt><trkpt lat="42.189495145096245" lon="14.502053724666155"><ele>29.0</ele><time>2026-04-06T07:36:32.999Z</time></trkpt><trkpt lat="42.18941226000469" lon="14.501982985977413"><ele>29.0</ele><time>2026-04-06T07:36:34.999Z</time></trkpt><trkpt lat="42.18933266972034" lon="14.501911956847689"><ele>29.0</ele><time>2026-04-06T07:36:36.999Z</time></trkpt><trkpt lat="42.18925298833101" lon="14.501839001890323"><ele>29.0</ele><time>2026-04-06T07:36:38.999Z</time></trkpt><trkpt lat="42.18917616859771" lon="14.501764938025918"><ele>29.0</ele><time>2026-04-06T07:36:40.999Z</time></trkpt><trkpt lat="42.189093541264796" lon="14.501695014753682"><ele>29.0</ele><time>2026-04-06T07:36:42.999Z</time></trkpt><trkpt lat="42.18901212186835" lon="14.501626588947508"><ele>29.0</ele><time>2026-04-06T07:36:44.999Z</time></trkpt><trkpt lat="42.18893451692737" lon="14.50155555986891"><ele>29.0</ele><time>2026-04-06T07:36:46.999Z</time></trkpt><trkpt lat="42.18885558195457" lon="14.501488507441877"><ele>29.0</ele><time>2026-04-06T07:36:48.999Z</time></trkpt><trkpt lat="42.188777386775655" lon="14.501419030632672"><ele>29.0</ele><time>2026-04-06T07:36:50.999Z</time></trkpt><trkpt lat="42.18870001431809" lon="14.501348891773562"><ele>29.166666666666664</ele><time>2026-04-06T07:36:52.999Z</time></trkpt><trkpt lat="42.188624865375054" lon="14.501280480874378"><ele>29.333333333333332</ele><time>2026-04-06T07:36:54.999Z</time></trkpt><trkpt lat="42.188548692100994" lon="14.501214728724092"><ele>29.5</ele><time>2026-04-06T07:36:56.999Z</time></trkpt><trkpt lat="42.18847479252072" lon="14.501146936478676"><ele>29.666666666666664</ele><time>2026-04-06T07:36:58.999Z</time></trkpt><trkpt lat="42.18840101541262" lon="14.501079208701572"><ele>29.833333333333332</ele><time>2026-04-06T07:37:00.999Z</time></trkpt><trkpt lat="42.18832639231493" lon="14.501012638724394"><ele>30.0</ele><time>2026-04-06T07:37:02.999Z</time></trkpt><trkpt lat="42.18825050222691" lon="14.500946229970074"><ele>30.0</ele><time>2026-04-06T07:37:04.999Z</time></trkpt><trkpt lat="42.18817853544862" lon="14.500879877409197"><ele>30.0</ele><time>2026-04-06T07:37:06.999Z</time></trkpt><trkpt lat="42.18810338538641" lon="14.500811670733887"><ele>30.0</ele><time>2026-04-06T07:37:08.999Z</time></trkpt><trkpt lat="42.18802683667673" lon="14.50074663910426"><ele>30.0</ele><time>2026-04-06T07:37:10.999Z</time></trkpt><trkpt lat="42.187953339584894" lon="14.500679885034328"><ele>30.0</ele><time>2026-04-06T07:37:12.999Z</time></trkpt><trkpt lat="42.18787776194657" lon="14.500611580538507"><ele>30.0</ele><time>2026-04-06T07:37:14.999Z</time></trkpt><trkpt lat="42.187800292443946" lon="14.500541385170303"><ele>29.8</ele><time>2026-04-06T07:37:16.999Z</time></trkpt><trkpt lat="42.18772418107877" lon="14.50047330932151"><ele>29.6</ele><time>2026-04-06T07:37:18.999Z</time></trkpt><trkpt lat="42.18764935412626" lon="14.500405376764512"><ele>29.4</ele><time>2026-04-06T07:37:21Z</time></trkpt><trkpt lat="42.18757365440193" lon="14.500334980266777"><ele>29.2</ele><time>2026-04-06T07:37:23Z</time></trkpt><trkpt lat="42.18749662405476" lon="14.500264413630289"><ele>29.0</ele><time>2026-04-06T07:37:25Z</time></trkpt><trkpt lat="42.18741863689467" lon="14.500195128072063"><ele>29.6</ele><time>2026-04-06T07:37:27Z</time></trkpt><trkpt lat="42.1873401405948" lon="14.500124917323017"><ele>30.2</ele><time>2026-04-06T07:37:29Z</time></trkpt><trkpt lat="42.18725763586777" lon="14.500055798461469"><ele>30.800000000000004</ele><time>2026-04-06T07:37:31Z</time></trkpt><trkpt lat="42.1871752467876" lon="14.499983921007793"><ele>31.400000000000002</ele><time>2026-04-06T07:37:33Z</time></trkpt><trkpt lat="42.18709409624198" lon="14.499911665166005"><ele>32.0</ele><time>2026-04-06T07:37:35Z</time></trkpt><trkpt lat="42.18701261911405" lon="14.499839574626318"><ele>32.0</ele><time>2026-04-06T07:37:37Z</time></trkpt><trkpt lat="42.186930308472604" lon="14.499768194378385"><ele>32.0</ele><time>2026-04-06T07:37:39Z</time></trkpt><trkpt lat="42.18684711490074" lon="14.499696441274141"><ele>32.0</ele><time>2026-04-06T07:37:41Z</time></trkpt><trkpt lat="42.186766446108116" lon="14.499622857078835"><ele>32.0</ele><time>2026-04-06T07:37:43Z</time></trkpt><trkpt lat="42.18668751829774" lon="14.49955140404126"><ele>32.0</ele><time>2026-04-06T07:37:45Z</time></trkpt><trkpt lat="42.186607024856315" lon="14.4994781092759"><ele>31.8</ele><time>2026-04-06T07:37:47Z</time></trkpt><trkpt lat="42.18652873107922" lon="14.499405872999303"><ele>31.6</ele><time>2026-04-06T07:37:49Z</time></trkpt><trkpt lat="42.18644981727996" lon="14.499336861605494"><ele>31.400000000000002</ele><time>2026-04-06T07:37:51Z</time></trkpt><trkpt lat="42.1863716992717" lon="14.499265216500394"><ele>31.200000000000003</ele><time>2026-04-06T07:37:53Z</time></trkpt><trkpt lat="42.18629039454806" lon="14.499198171544801"><ele>31.0</ele><time>2026-04-06T07:37:55Z</time></trkpt><trkpt lat="42.18621045059881" lon="14.49913000242734"><ele>31.0</ele><time>2026-04-06T07:37:57Z</time></trkpt><trkpt lat="42.18613304864492" lon="14.499054560434848"><ele>31.0</ele><time>2026-04-06T07:37:59Z</time></trkpt><trkpt lat="42.18605230978699" lon="14.49898073700172"><ele>31.0</ele><time>2026-04-06T07:38:01Z</time></trkpt><trkpt lat="42.18597101768121" lon="14.498907098837657"><ele>31.0</ele><time>2026-04-06T07:38:03Z</time></trkpt><trkpt lat="42.18588900067228" lon="14.498834742295609"><ele>31.0</ele><time>2026-04-06T07:38:05Z</time></trkpt><trkpt lat="42.18581092620451" lon="14.498760945513126"><ele>31.0</ele><time>2026-04-06T07:38:07Z</time></trkpt><trkpt lat="42.18572782259657" lon="14.498689094282756"><ele>31.0</ele><time>2026-04-06T07:38:09Z</time></trkpt><trkpt lat="42.185646710298776" lon="14.498617028740727"><ele>31.0</ele><time>2026-04-06T07:38:11Z</time></trkpt><trkpt lat="42.18556686542963" lon="14.4985429072968"><ele>31.0</ele><time>2026-04-06T07:38:13Z</time></trkpt><trkpt lat="42.18548653640354" lon="14.498469087710902"><ele>31.0</ele><time>2026-04-06T07:38:15Z</time></trkpt><trkpt lat="42.185405614363184" lon="14.498395425210001"><ele>31.0</ele><time>2026-04-06T07:38:17Z</time></trkpt><trkpt lat="42.18532500942126" lon="14.498327245045402"><ele>31.0</ele><time>2026-04-06T07:38:19Z</time></trkpt><trkpt lat="42.185246837756544" lon="14.498253645320617"><ele>31.0</ele><time>2026-04-06T07:38:21Z</time></trkpt><trkpt lat="42.18516530822691" lon="14.498182718165282"><ele>31.0</ele><time>2026-04-06T07:38:23Z</time></trkpt><trkpt lat="42.18508369038578" lon="14.498111805986989"><ele>31.0</ele><time>2026-04-06T07:38:25Z</time></trkpt><trkpt lat="42.18500406267221" lon="14.498037982252207"><ele>31.0</ele><time>2026-04-06T07:38:27Z</time></trkpt><trkpt lat="42.1849257588769" lon="14.497964820044594"><ele>31.0</ele><time>2026-04-06T07:38:28.999Z</time></trkpt><trkpt lat="42.1848459957364" lon="14.497896527466269"><ele>31.0</ele><time>2026-04-06T07:38:30.999Z</time></trkpt><trkpt lat="42.184765527988844" lon="14.497823735100885"><ele>31.0</ele><time>2026-04-06T07:38:32.999Z</time></trkpt><trkpt lat="42.18468320187135" lon="14.497753813875407"><ele>31.0</ele><time>2026-04-06T07:38:34.999Z</time></trkpt><trkpt lat="42.184600391772214" lon="14.497677478492543"><ele>31.4</ele><time>2026-04-06T07:38:36.999Z</time></trkpt><trkpt lat="42.184516253788104" lon="14.497600938367112"><ele>31.8</ele><time>2026-04-06T07:38:38.999Z</time></trkpt><trkpt lat="42.184434709350334" lon="14.497524607117906"><ele>32.199999999999996</ele><time>2026-04-06T07:38:40.999Z</time></trkpt><trkpt lat="42.18435001117812" lon="14.49745227808038"><ele>32.6</ele><time>2026-04-06T07:38:42.999Z</time></trkpt><trkpt lat="42.18426620706262" lon="14.497378420919972"><ele>33.0</ele><time>2026-04-06T07:38:44.999Z</time></trkpt><trkpt lat="42.18418291535711" lon="14.497305345323843"><ele>33.0</ele><time>2026-04-06T07:38:46.999Z</time></trkpt><trkpt lat="42.184101285467" lon="14.497232552414415"><ele>33.0</ele><time>2026-04-06T07:38:48.999Z</time></trkpt><trkpt lat="42.18401869414241" lon="14.497162534408103"><ele>33.0</ele><time>2026-04-06T07:38:50.999Z</time></trkpt><trkpt lat="42.18394064978444" lon="14.497090334343866"><ele>33.0</ele><time>2026-04-06T07:38:52.999Z</time></trkpt><trkpt lat="42.18386216399727" lon="14.49702116307435"><ele>33.0</ele><time>2026-04-06T07:38:54.999Z</time></trkpt><trkpt lat="42.183783539869225" lon="14.496949710030455"><ele>33.8</ele><time>2026-04-06T07:38:56.999Z</time></trkpt><trkpt lat="42.18370461985455" lon="14.496879541405171"><ele>34.599999999999994</ele><time>2026-04-06T07:38:58.999Z</time></trkpt><trkpt lat="42.18362632776513" lon="14.496806798378179"><ele>35.400000000000006</ele><time>2026-04-06T07:39:00.999Z</time></trkpt><trkpt lat="42.183548061520575" lon="14.496737631621748"><ele>36.2</ele><time>2026-04-06T07:39:02.999Z</time></trkpt><trkpt lat="42.183469653857934" lon="14.49666365516056"><ele>37.0</ele><time>2026-04-06T07:39:04.999Z</time></trkpt><trkpt lat="42.183389641353926" lon="14.496588868187862"><ele>37.0</ele><time>2026-04-06T07:39:06.999Z</time></trkpt><trkpt lat="42.183306877150265" lon="14.496522189927695"><ele>37.0</ele><time>2026-04-06T07:39:08.999Z</time></trkpt><trkpt lat="42.18322744005281" lon="14.496448240022078"><ele>37.0</ele><time>2026-04-06T07:39:10.999Z</time></trkpt><trkpt lat="42.1831476439967" lon="14.496376700445841"><ele>37.0</ele><time>2026-04-06T07:39:12.999Z</time></trkpt><trkpt lat="42.18306630575568" lon="14.496301779983934"><ele>37.0</ele><time>2026-04-06T07:39:14.999Z</time></trkpt><trkpt lat="42.18298592287127" lon="14.496229354080798"><ele>36.4</ele><time>2026-04-06T07:39:16.999Z</time></trkpt><trkpt lat="42.18290227605536" lon="14.496151093892394"><ele>35.800000000000004</ele><time>2026-04-06T07:39:18.999Z</time></trkpt><trkpt lat="42.18281371295981" lon="14.496074203980118"><ele>35.2</ele><time>2026-04-06T07:39:20.999Z</time></trkpt><trkpt lat="42.18272717897311" lon="14.49599838612778"><ele>34.6</ele><time>2026-04-06T07:39:22.998Z</time></trkpt><trkpt lat="42.18264165198823" lon="14.495922544132297"><ele>34.0</ele><time>2026-04-06T07:39:24.998Z</time></trkpt><trkpt lat="42.182554011589346" lon="14.495845139184972"><ele>34.0</ele><time>2026-04-06T07:39:27Z</time></trkpt><trkpt lat="42.182465505057294" lon="14.49577014638589"><ele>34.0</ele><time>2026-04-06T07:39:29Z</time></trkpt><trkpt lat="42.18237904251038" lon="14.495688845092488"><ele>34.0</ele><time>2026-04-06T07:39:31Z</time></trkpt><trkpt lat="42.18229215676187" lon="14.495605920048694"><ele>34.0</ele><time>2026-04-06T07:39:33Z</time></trkpt><trkpt lat="42.18219901166019" lon="14.495522603799913"><ele>34.0</ele><time>2026-04-06T07:39:35Z</time></trkpt><trkpt lat="42.182108191608364" lon="14.495440738061694"><ele>33.6</ele><time>2026-04-06T07:39:37Z</time></trkpt><trkpt lat="42.18201629792981" lon="14.495360095632648"><ele>33.2</ele><time>2026-04-06T07:39:39Z</time></trkpt><trkpt lat="42.18192640968011" lon="14.495276587506124"><ele>32.800000000000004</ele><time>2026-04-06T07:39:41Z</time></trkpt><trkpt lat="42.18183466256361" lon="14.49519548149659"><ele>32.4</ele><time>2026-04-06T07:39:43Z</time></trkpt><trkpt lat="42.181743615816345" lon="14.495114775993796"><ele>32.0</ele><time>2026-04-06T07:39:45Z</time></trkpt><trkpt lat="42.181652050323514" lon="14.495034608493524"><ele>32.0</ele><time>2026-04-06T07:39:47Z</time></trkpt><trkpt lat="42.18156058265378" lon="14.494951476429396"><ele>32.0</ele><time>2026-04-06T07:39:49Z</time></trkpt><trkpt lat="42.181467702137866" lon="14.49487064130414"><ele>32.0</ele><time>2026-04-06T07:39:51Z</time></trkpt><trkpt lat="42.1813739156224" lon="14.494785933460728"><ele>32.0</ele><time>2026-04-06T07:39:53Z</time></trkpt><trkpt lat="42.18127831015195" lon="14.494700773434598"><ele>32.0</ele><time>2026-04-06T07:39:55Z</time></trkpt><trkpt lat="42.18118460233838" lon="14.494617743032252"><ele>32.0</ele><time>2026-04-06T07:39:57Z</time></trkpt><trkpt lat="42.18109159932043" lon="14.494531505087142"><ele>32.0</ele><time>2026-04-06T07:39:59Z</time></trkpt><trkpt lat="42.18099727143206" lon="14.494449876996589"><ele>32.0</ele><time>2026-04-06T07:40:01Z</time></trkpt><trkpt lat="42.18090398062996" lon="14.49437145460756"><ele>32.0</ele><time>2026-04-06T07:40:03Z</time></trkpt><trkpt lat="42.18081264020014" lon="14.494291971402648"><ele>32.0</ele><time>2026-04-06T07:40:05Z</time></trkpt><trkpt lat="42.180728370424774" lon="14.494205299029604"><ele>32.4</ele><time>2026-04-06T07:40:07Z</time></trkpt><trkpt lat="42.18064409268361" lon="14.494121732116271"><ele>32.800000000000004</ele><time>2026-04-06T07:40:09Z</time></trkpt><trkpt lat="42.18056037048379" lon="14.494037423804755"><ele>33.2</ele><time>2026-04-06T07:40:11Z</time></trkpt><trkpt lat="42.18047817012143" lon="14.493948574748195"><ele>33.6</ele><time>2026-04-06T07:40:13Z</time></trkpt><trkpt lat="42.180395007249956" lon="14.493856758628436"><ele>34.0</ele><time>2026-04-06T07:40:15Z</time></trkpt><trkpt lat="42.18031031556855" lon="14.493760581819418"><ele>34.0</ele><time>2026-04-06T07:40:17Z</time></trkpt><trkpt lat="42.18022833996499" lon="14.493660504650483"><ele>34.0</ele><time>2026-04-06T07:40:19Z</time></trkpt><trkpt lat="42.18014885429874" lon="14.49356047949879"><ele>34.0</ele><time>2026-04-06T07:40:21Z</time></trkpt><trkpt lat="42.180068421747215" lon="14.493464692828155"><ele>34.0</ele><time>2026-04-06T07:40:23Z</time></trkpt><trkpt lat="42.17999517156269" lon="14.493358289164856"><ele>34.0</ele><time>2026-04-06T07:40:25Z</time></trkpt><trkpt lat="42.17992011469676" lon="14.493255134916684"><ele>34.0</ele><time>2026-04-06T07:40:27Z</time></trkpt><trkpt lat="42.17984779309341" lon="14.49314783408671"><ele>34.0</ele><time>2026-04-06T07:40:29Z</time></trkpt><trkpt lat="42.179775901947885" lon="14.493040152147469"><ele>34.0</ele><time>2026-04-06T07:40:31Z</time></trkpt><trkpt lat="42.17970304846173" lon="14.492934325951746"><ele>34.0</ele><time>2026-04-06T07:40:32.999Z</time></trkpt><trkpt lat="42.17963030078777" lon="14.492832015090002"><ele>34.0</ele><time>2026-04-06T07:40:34.999Z</time></trkpt><trkpt lat="42.17956047839756" lon="14.492728215980744"><ele>34.2</ele><time>2026-04-06T07:40:36.999Z</time></trkpt><trkpt lat="42.179489045816666" lon="14.49262253687661"><ele>34.4</ele><time>2026-04-06T07:40:38.999Z</time></trkpt><trkpt lat="42.17941741079892" lon="14.49251956942231"><ele>34.6</ele><time>2026-04-06T07:40:40.999Z</time></trkpt><trkpt lat="42.17934369004296" lon="14.49241714899417"><ele>34.8</ele><time>2026-04-06T07:40:42.999Z</time></trkpt><trkpt lat="42.17927456067087" lon="14.492301587893683"><ele>35.0</ele><time>2026-04-06T07:40:44.999Z</time></trkpt><trkpt lat="42.17920124880847" lon="14.492186326833332"><ele>34.6</ele><time>2026-04-06T07:40:46.999Z</time></trkpt><trkpt lat="42.17912569785218" lon="14.492081038193627"><ele>34.2</ele><time>2026-04-06T07:40:48.999Z</time></trkpt><trkpt lat="42.17905240908596" lon="14.491976381721862"><ele>33.8</ele><time>2026-04-06T07:40:50.999Z</time></trkpt><trkpt lat="42.178983236547154" lon="14.491866890045761"><ele>33.4</ele><time>2026-04-06T07:40:52.999Z</time></trkpt><trkpt lat="42.178911117441906" lon="14.49176313644672"><ele>33.0</ele><time>2026-04-06T07:40:54.999Z</time></trkpt><trkpt lat="42.17884014047728" lon="14.491660936454943"><ele>33.0</ele><time>2026-04-06T07:40:56.999Z</time></trkpt><trkpt lat="42.17877103687997" lon="14.491555463105128"><ele>33.0</ele><time>2026-04-06T07:40:58.999Z</time></trkpt><trkpt lat="42.17870067479632" lon="14.491454545467787"><ele>33.0</ele><time>2026-04-06T07:41:00.999Z</time></trkpt><trkpt lat="42.17863354219396" lon="14.491353559302658"><ele>33.0</ele><time>2026-04-06T07:41:02.999Z</time></trkpt><trkpt lat="42.17856519356375" lon="14.491251660511477"><ele>33.0</ele><time>2026-04-06T07:41:04.999Z</time></trkpt><trkpt lat="42.17849414590079" lon="14.491145933760773"><ele>32.8</ele><time>2026-04-06T07:41:06.999Z</time></trkpt><trkpt lat="42.17842573599203" lon="14.491039678075875"><ele>32.599999999999994</ele><time>2026-04-06T07:41:08.999Z</time></trkpt><trkpt lat="42.178355051158064" lon="14.490938284775206"><ele>32.400000000000006</ele><time>2026-04-06T07:41:10.999Z</time></trkpt><trkpt lat="42.178285142143196" lon="14.490835559527383"><ele>32.2</ele><time>2026-04-06T07:41:12.999Z</time></trkpt><trkpt lat="42.17821750693988" lon="14.490731175796023"><ele>32.0</ele><time>2026-04-06T07:41:14.999Z</time></trkpt><trkpt lat="42.17814637427236" lon="14.49062902563812"><ele>32.2</ele><time>2026-04-06T07:41:16.999Z</time></trkpt><trkpt lat="42.178076235435796" lon="14.490526929201224"><ele>32.400000000000006</ele><time>2026-04-06T07:41:18.999Z</time></trkpt><trkpt lat="42.17800780998047" lon="14.490424509860052"><ele>32.599999999999994</ele><time>2026-04-06T07:41:20.999Z</time></trkpt><trkpt lat="42.177941530753984" lon="14.490325192563859"><ele>32.8</ele><time>2026-04-06T07:41:22.999Z</time></trkpt><trkpt lat="42.177873690356506" lon="14.49022153054028"><ele>33.0</ele><time>2026-04-06T07:41:24.999Z</time></trkpt><trkpt lat="42.17780336342937" lon="14.490121095997269"><ele>33.0</ele><time>2026-04-06T07:41:26.998Z</time></trkpt><trkpt lat="42.177737177589734" lon="14.490022331797853"><ele>33.0</ele><time>2026-04-06T07:41:28.998Z</time></trkpt><trkpt lat="42.177671218899945" lon="14.489921359130532"><ele>33.0</ele><time>2026-04-06T07:41:30.998Z</time></trkpt><trkpt lat="42.17760435116974" lon="14.489821265718039"><ele>33.0</ele><time>2026-04-06T07:41:33Z</time></trkpt><trkpt lat="42.17753940074711" lon="14.489722456344001"><ele>33.0</ele><time>2026-04-06T07:41:35Z</time></trkpt><trkpt lat="42.17747266931109" lon="14.489622982738865"><ele>33.0</ele><time>2026-04-06T07:41:37Z</time></trkpt><trkpt lat="42.177404361268806" lon="14.489526748872015"><ele>33.0</ele><time>2026-04-06T07:41:39Z</time></trkpt><trkpt lat="42.177336216268316" lon="14.489427582920031"><ele>33.0</ele><time>2026-04-06T07:41:41Z</time></trkpt><trkpt lat="42.17726869845067" lon="14.489327128327242"><ele>33.0</ele><time>2026-04-06T07:41:43Z</time></trkpt><trkpt lat="42.1772027748183" lon="14.489226413450284"><ele>33.0</ele><time>2026-04-06T07:41:45Z</time></trkpt><trkpt lat="42.17713446271594" lon="14.48912597319004"><ele>33.0</ele><time>2026-04-06T07:41:47Z</time></trkpt><trkpt lat="42.17706926862709" lon="14.489026448011433"><ele>33.0</ele><time>2026-04-06T07:41:49Z</time></trkpt><trkpt lat="42.17700239211444" lon="14.488926747553172"><ele>33.0</ele><time>2026-04-06T07:41:51Z</time></trkpt><trkpt lat="42.17693401554526" lon="14.488826978095709"><ele>33.0</ele><time>2026-04-06T07:41:53Z</time></trkpt><trkpt lat="42.17686802722721" lon="14.488726674526015"><ele>33.0</ele><time>2026-04-06T07:41:55Z</time></trkpt><trkpt lat="42.17680506259858" lon="14.488633731573056"><ele>33.0</ele><time>2026-04-06T07:41:57Z</time></trkpt><trkpt lat="42.17677940002034" lon="14.488524148600678"><ele>33.0</ele><time>2026-04-06T07:41:59Z</time></trkpt><trkpt lat="42.176813539690144" lon="14.488412701167126"><ele>33.0</ele><time>2026-04-06T07:42:01Z</time></trkpt><trkpt lat="42.17688025049193" lon="14.488327577132301"><ele>33.0</ele><time>2026-04-06T07:42:03Z</time></trkpt><trkpt lat="42.17695819888021" lon="14.488260102710456"><ele>33.0</ele><time>2026-04-06T07:42:05Z</time></trkpt><trkpt lat="42.17703649160944" lon="14.488192662140248"><ele>33.0</ele><time>2026-04-06T07:42:07Z</time></trkpt><trkpt lat="42.17711543382514" lon="14.488131212310524"><ele>33.0</ele><time>2026-04-06T07:42:09Z</time></trkpt><trkpt lat="42.17719351884827" lon="14.488061780367195"><ele>33.0</ele><time>2026-04-06T07:42:11Z</time></trkpt><trkpt lat="42.17727295179881" lon="14.487995969148923"><ele>33.0</ele><time>2026-04-06T07:42:13Z</time></trkpt><trkpt lat="42.17735335010075" lon="14.487926936568766"><ele>33.0</ele><time>2026-04-06T07:42:15Z</time></trkpt><trkpt lat="42.17743413956709" lon="14.487853859289674"><ele>32.8</ele><time>2026-04-06T07:42:17Z</time></trkpt><trkpt lat="42.177520407471185" lon="14.487788321315758"><ele>32.599999999999994</ele><time>2026-04-06T07:42:19Z</time></trkpt><trkpt lat="42.17760658253107" lon="14.487718027393589"><ele>32.400000000000006</ele><time>2026-04-06T07:42:21Z</time></trkpt><trkpt lat="42.17768976915827" lon="14.487646190096855"><ele>32.2</ele><time>2026-04-06T07:42:23Z</time></trkpt><trkpt lat="42.17777163125855" lon="14.487573263884201"><ele>32.0</ele><time>2026-04-06T07:42:25Z</time></trkpt><trkpt lat="42.17785757594972" lon="14.48750573461197"><ele>32.0</ele><time>2026-04-06T07:42:27Z</time></trkpt><trkpt lat="42.1779430275008" lon="14.48743651766445"><ele>32.0</ele><time>2026-04-06T07:42:29Z</time></trkpt><trkpt lat="42.17802843153172" lon="14.487366031643852"><ele>32.0</ele><time>2026-04-06T07:42:31Z</time></trkpt><trkpt lat="42.178112617551484" lon="14.487293750202605"><ele>32.0</ele><time>2026-04-06T07:42:33Z</time></trkpt><trkpt lat="42.17819851631843" lon="14.487221936378996"><ele>32.0</ele><time>2026-04-06T07:42:34.999Z</time></trkpt><trkpt lat="42.17828565685072" lon="14.487149482979932"><ele>31.8</ele><time>2026-04-06T07:42:36.999Z</time></trkpt><trkpt lat="42.17837377289775" lon="14.487078665941002"><ele>31.6</ele><time>2026-04-06T07:42:38.999Z</time></trkpt><trkpt lat="42.17845986142911" lon="14.487005995045575"><ele>31.400000000000002</ele><time>2026-04-06T07:42:40.999Z</time></trkpt><trkpt lat="42.17854819834001" lon="14.486933077375541"><ele>31.200000000000003</ele><time>2026-04-06T07:42:42.999Z</time></trkpt><trkpt lat="42.17863854903809" lon="14.486860334112384"><ele>31.0</ele><time>2026-04-06T07:42:44.999Z</time></trkpt><trkpt lat="42.17872803693484" lon="14.486788120919519"><ele>31.0</ele><time>2026-04-06T07:42:46.999Z</time></trkpt><trkpt lat="42.178817054879346" lon="14.486710774004601"><ele>31.0</ele><time>2026-04-06T07:42:48.999Z</time></trkpt><trkpt lat="42.17890670416009" lon="14.486636646967508"><ele>31.0</ele><time>2026-04-06T07:42:50.999Z</time></trkpt><trkpt lat="42.17899459165491" lon="14.486566467137704"><ele>31.0</ele><time>2026-04-06T07:42:52.999Z</time></trkpt><trkpt lat="42.17908423977866" lon="14.486490394411245"><ele>31.0</ele><time>2026-04-06T07:42:54.999Z</time></trkpt><trkpt lat="42.179174857467466" lon="14.486415553087314"><ele>31.0</ele><time>2026-04-06T07:42:56.999Z</time></trkpt><trkpt lat="42.17926441016858" lon="14.486344083788056"><ele>31.0</ele><time>2026-04-06T07:42:58.999Z</time></trkpt><trkpt lat="42.17935500034991" lon="14.486268335344375"><ele>31.0</ele><time>2026-04-06T07:43:00.999Z</time></trkpt><trkpt lat="42.1794483880192" lon="14.486194156228315"><ele>31.0</ele><time>2026-04-06T07:43:02.999Z</time></trkpt><trkpt lat="42.17953879230691" lon="14.486115781409312"><ele>31.0</ele><time>2026-04-06T07:43:04.999Z</time></trkpt><trkpt lat="42.17962842549213" lon="14.486041082591232"><ele>31.200000000000003</ele><time>2026-04-06T07:43:06.999Z</time></trkpt><trkpt lat="42.17971528533224" lon="14.485963352959807"><ele>31.400000000000002</ele><time>2026-04-06T07:43:08.999Z</time></trkpt><trkpt lat="42.17980480814106" lon="14.485889904715114"><ele>31.6</ele><time>2026-04-06T07:43:10.999Z</time></trkpt><trkpt lat="42.17989388885642" lon="14.485818542480713"><ele>31.8</ele><time>2026-04-06T07:43:12.999Z</time></trkpt><trkpt lat="42.179983141700454" lon="14.48574666854721"><ele>32.0</ele><time>2026-04-06T07:43:14.999Z</time></trkpt><trkpt lat="42.18007323028381" lon="14.48567036913711"><ele>32.0</ele><time>2026-04-06T07:43:16.999Z</time></trkpt><trkpt lat="42.18016278692213" lon="14.485594917046763"><ele>32.0</ele><time>2026-04-06T07:43:18.999Z</time></trkpt><trkpt lat="42.18025421986513" lon="14.485518868219343"><ele>32.0</ele><time>2026-04-06T07:43:20.999Z</time></trkpt><trkpt lat="42.180346171513456" lon="14.48544502735404"><ele>32.0</ele><time>2026-04-06T07:43:22.999Z</time></trkpt><trkpt lat="42.18043736725134" lon="14.485367246536953"><ele>32.0</ele><time>2026-04-06T07:43:24.999Z</time></trkpt><trkpt lat="42.18052940811324" lon="14.485292293046426"><ele>32.0</ele><time>2026-04-06T07:43:26.999Z</time></trkpt><trkpt lat="42.18061786862802" lon="14.485214461045416"><ele>32.0</ele><time>2026-04-06T07:43:28.998Z</time></trkpt><trkpt lat="42.18070617431207" lon="14.48513619055788"><ele>32.0</ele><time>2026-04-06T07:43:30.998Z</time></trkpt><trkpt lat="42.18079713410838" lon="14.485066141937544"><ele>32.0</ele><time>2026-04-06T07:43:32.998Z</time></trkpt><trkpt lat="42.18088837777411" lon="14.484987111878054"><ele>32.0</ele><time>2026-04-06T07:43:34.998Z</time></trkpt><trkpt lat="42.180979091561284" lon="14.484909142357367"><ele>32.2</ele><time>2026-04-06T07:43:36.998Z</time></trkpt><trkpt lat="42.1810730569179" lon="14.484836073355744"><ele>32.400000000000006</ele><time>2026-04-06T07:43:39Z</time></trkpt><trkpt lat="42.1811629514301" lon="14.484756265569228"><ele>32.599999999999994</ele><time>2026-04-06T07:43:41Z</time></trkpt><trkpt lat="42.18125422805106" lon="14.48468122379447"><ele>32.8</ele><time>2026-04-06T07:43:43Z</time></trkpt><trkpt lat="42.18134678521654" lon="14.484605872676063"><ele>33.0</ele><time>2026-04-06T07:43:45Z</time></trkpt><trkpt lat="42.18143941098385" lon="14.484531736216638"><ele>33.4</ele><time>2026-04-06T07:43:47Z</time></trkpt><trkpt lat="42.181531225053895" lon="14.48445835975348"><ele>33.8</ele><time>2026-04-06T07:43:49Z</time></trkpt><trkpt lat="42.18162107187931" lon="14.484381554550007"><ele>34.2</ele><time>2026-04-06T07:43:51Z</time></trkpt><trkpt lat="42.18170793221817" lon="14.484308826358319"><ele>34.6</ele><time>2026-04-06T07:43:53Z</time></trkpt><trkpt lat="42.181795106094185" lon="14.484234941157839"><ele>35.0</ele><time>2026-04-06T07:43:55Z</time></trkpt><trkpt lat="42.181882706055156" lon="14.484161403451274"><ele>35.0</ele><time>2026-04-06T07:43:57Z</time></trkpt><trkpt lat="42.18197196936928" lon="14.484084000502136"><ele>35.0</ele><time>2026-04-06T07:43:59Z</time></trkpt><trkpt lat="42.182060724610174" lon="14.484016769444073"><ele>35.0</ele><time>2026-04-06T07:44:01Z</time></trkpt><trkpt lat="42.182152806379804" lon="14.483942213918763"><ele>35.0</ele><time>2026-04-06T07:44:03Z</time></trkpt><trkpt lat="42.18224175712573" lon="14.483864173278748"><ele>35.0</ele><time>2026-04-06T07:44:05Z</time></trkpt><trkpt lat="42.18233518965359" lon="14.483788011336571"><ele>34.8</ele><time>2026-04-06T07:44:07Z</time></trkpt><trkpt lat="42.182424491304225" lon="14.483712603960969"><ele>34.6</ele><time>2026-04-06T07:44:09Z</time></trkpt><trkpt lat="42.18251232961271" lon="14.483637200110511"><ele>34.4</ele><time>2026-04-06T07:44:11Z</time></trkpt><trkpt lat="42.182601590626064" lon="14.483565037629837"><ele>34.2</ele><time>2026-04-06T07:44:13Z</time></trkpt><trkpt lat="42.18269049281088" lon="14.48349001548813"><ele>34.0</ele><time>2026-04-06T07:44:15Z</time></trkpt><trkpt lat="42.18278031241737" lon="14.483416761720543"><ele>34.0</ele><time>2026-04-06T07:44:17Z</time></trkpt><trkpt lat="42.182869657745364" lon="14.483341160877448"><ele>34.0</ele><time>2026-04-06T07:44:19Z</time></trkpt><trkpt lat="42.182957617667725" lon="14.483264720001163"><ele>34.0</ele><time>2026-04-06T07:44:21Z</time></trkpt><trkpt lat="42.18304839771548" lon="14.483190419039971"><ele>34.0</ele><time>2026-04-06T07:44:23Z</time></trkpt><trkpt lat="42.18313535965154" lon="14.483110363197078"><ele>34.0</ele><time>2026-04-06T07:44:25Z</time></trkpt><trkpt lat="42.183225068957576" lon="14.48303595845319"><ele>34.0</ele><time>2026-04-06T07:44:27Z</time></trkpt><trkpt lat="42.18329765357377" lon="14.48294572352388"><ele>34.0</ele><time>2026-04-06T07:44:29Z</time></trkpt><trkpt lat="42.18333850535203" lon="14.482829581889698"><ele>34.0</ele><time>2026-04-06T07:44:30.999Z</time></trkpt><trkpt lat="42.183314651740474" lon="14.482691055345756"><ele>34.0</ele><time>2026-04-06T07:44:32.999Z</time></trkpt><trkpt lat="42.18327691909713" lon="14.482554775379961"><ele>34.0</ele><time>2026-04-06T07:44:34.999Z</time></trkpt><trkpt lat="42.18327841118251" lon="14.48239217314327"><ele>33.5</ele><time>2026-04-06T07:44:36.999Z</time></trkpt><trkpt lat="42.18330382594289" lon="14.482229090139864"><ele>33.0</ele><time>2026-04-06T07:44:38.999Z</time></trkpt><trkpt lat="42.18333655096935" lon="14.48207210404607"><ele>32.5</ele><time>2026-04-06T07:44:40.999Z</time></trkpt><trkpt lat="42.1833557489252" lon="14.48191877347557"><ele>32.0</ele><time>2026-04-06T07:44:42.999Z</time></trkpt><trkpt lat="42.18339953191175" lon="14.48177245601554"><ele>32.0</ele><time>2026-04-06T07:44:44.999Z</time></trkpt><trkpt lat="42.18340612916091" lon="14.481622368657023"><ele>32.0</ele><time>2026-04-06T07:44:46.999Z</time></trkpt><trkpt lat="42.183402420939444" lon="14.48147179283959"><ele>32.0</ele><time>2026-04-06T07:44:48.999Z</time></trkpt><trkpt lat="42.18339652401113" lon="14.48132476539226"><ele>32.0</ele><time>2026-04-06T07:44:50.999Z</time></trkpt><trkpt lat="42.18339055984101" lon="14.48117606143825"><ele>32.0</ele><time>2026-04-06T07:44:52.999Z</time></trkpt><trkpt lat="42.183390284714534" lon="14.481032378601942"><ele>32.0</ele><time>2026-04-06T07:44:54.999Z</time></trkpt><trkpt lat="42.18337795987044" lon="14.480886586007093"><ele>32.0</ele><time>2026-04-06T07:44:56.999Z</time></trkpt><trkpt lat="42.18342310428808" lon="14.480754402994913"><ele>32.0</ele><time>2026-04-06T07:44:58.999Z</time></trkpt><trkpt lat="42.18349147908439" lon="14.480637814947075"><ele>32.0</ele><time>2026-04-06T07:45:00.999Z</time></trkpt><trkpt lat="42.1835675460808" lon="14.480527279259196"><ele>32.0</ele><time>2026-04-06T07:45:02.999Z</time></trkpt><trkpt lat="42.18363650063147" lon="14.48040914066012"><ele>32.6</ele><time>2026-04-06T07:45:04.999Z</time></trkpt><trkpt lat="42.18372829140728" lon="14.480318431431977"><ele>33.2</ele><time>2026-04-06T07:45:06.999Z</time></trkpt><trkpt lat="42.18379068563275" lon="14.480197484588262"><ele>33.8</ele><time>2026-04-06T07:45:08.999Z</time></trkpt><trkpt lat="42.183820445134934" lon="14.480045468848006"><ele>34.4</ele><time>2026-04-06T07:45:10.999Z</time></trkpt><trkpt lat="42.18380514383311" lon="14.479959076609685"><ele>35.0</ele><time>2026-04-06T07:45:11.999Z</time></trkpt><trkpt lat="42.18377429265276" lon="14.479883389739449"><ele>35.0</ele><time>2026-04-06T07:45:12.999Z</time></trkpt><trkpt lat="42.18368290449715" lon="14.479801488265265"><ele>35.0</ele><time>2026-04-06T07:45:14.999Z</time></trkpt><trkpt lat="42.183583971380486" lon="14.479757581046549"><ele>35.0</ele><time>2026-04-06T07:45:16.999Z</time></trkpt><trkpt lat="42.18348820040803" lon="14.479705786711508"><ele>35.0</ele><time>2026-04-06T07:45:18.999Z</time></trkpt><trkpt lat="42.18339300473855" lon="14.47965580347669"><ele>35.0</ele><time>2026-04-06T07:45:20.999Z</time></trkpt><trkpt lat="42.18329791352947" lon="14.479605041924541"><ele>35.0</ele><time>2026-04-06T07:45:22.999Z</time></trkpt><trkpt lat="42.18320218099641" lon="14.47955604685442"><ele>35.0</ele><time>2026-04-06T07:45:24.999Z</time></trkpt><trkpt lat="42.183108296266255" lon="14.47950666677051"><ele>35.0</ele><time>2026-04-06T07:45:26.998Z</time></trkpt><trkpt lat="42.18301801430426" lon="14.47945413739787"><ele>35.0</ele><time>2026-04-06T07:45:28.998Z</time></trkpt><trkpt lat="42.18292712744411" lon="14.479404237358265"><ele>35.0</ele><time>2026-04-06T07:45:30.998Z</time></trkpt><trkpt lat="42.182838122458385" lon="14.479351379223644"><ele>35.0</ele><time>2026-04-06T07:45:32.998Z</time></trkpt><trkpt lat="42.182751175050875" lon="14.479293713359835"><ele>35.0</ele><time>2026-04-06T07:45:34.998Z</time></trkpt><trkpt lat="42.182662745576046" lon="14.479241179929218"><ele>35.0</ele><time>2026-04-06T07:45:36.998Z</time></trkpt><trkpt lat="42.18257662740662" lon="14.479184239024642"><ele>35.0</ele><time>2026-04-06T07:45:38.998Z</time></trkpt><trkpt lat="42.18248993885272" lon="14.479126000333826"><ele>35.0</ele><time>2026-04-06T07:45:40.998Z</time></trkpt><trkpt lat="42.18240910283849" lon="14.479055661974698"><ele>34.8</ele><time>2026-04-06T07:45:42.998Z</time></trkpt><trkpt lat="42.182332365481486" lon="14.478979870918291"><ele>34.6</ele><time>2026-04-06T07:45:45Z</time></trkpt><trkpt lat="42.182260507361136" lon="14.478900629630465"><ele>34.4</ele><time>2026-04-06T07:45:47Z</time></trkpt><trkpt lat="42.182193529660836" lon="14.478810174823916"><ele>34.2</ele><time>2026-04-06T07:45:49Z</time></trkpt><trkpt lat="42.18213809700464" lon="14.478706320137615"><ele>34.0</ele><time>2026-04-06T07:45:51Z</time></trkpt><trkpt lat="42.182087693796994" lon="14.478598932266978"><ele>34.6</ele><time>2026-04-06T07:45:53Z</time></trkpt><trkpt lat="42.18204376818089" lon="14.478490768008283"><ele>35.2</ele><time>2026-04-06T07:45:55Z</time></trkpt><trkpt lat="42.18199852398527" lon="14.478384320756408"><ele>35.800000000000004</ele><time>2026-04-06T07:45:57Z</time></trkpt><trkpt lat="42.18194976075398" lon="14.478278539397149"><ele>36.4</ele><time>2026-04-06T07:45:59Z</time></trkpt><trkpt lat="42.18190077004437" lon="14.478172168172984"><ele>37.0</ele><time>2026-04-06T07:46:01Z</time></trkpt><trkpt lat="42.18184774494292" lon="14.47807268548086"><ele>37.0</ele><time>2026-04-06T07:46:03Z</time></trkpt><trkpt lat="42.18178312594219" lon="14.477992041749538"><ele>37.0</ele><time>2026-04-06T07:46:05Z</time></trkpt><trkpt lat="42.18170765342212" lon="14.477924306455213"><ele>37.0</ele><time>2026-04-06T07:46:07Z</time></trkpt><trkpt lat="42.18161962117403" lon="14.477875233781218"><ele>37.0</ele><time>2026-04-06T07:46:09Z</time></trkpt><trkpt lat="42.18153200226032" lon="14.477831536862984"><ele>37.0</ele><time>2026-04-06T07:46:11Z</time></trkpt><trkpt lat="42.18144068035783" lon="14.477787764311724"><ele>37.0</ele><time>2026-04-06T07:46:13Z</time></trkpt><trkpt lat="42.18134677375636" lon="14.477751046961348"><ele>37.0</ele><time>2026-04-06T07:46:15Z</time></trkpt><trkpt lat="42.18125576896222" lon="14.477704134992914"><ele>37.0</ele><time>2026-04-06T07:46:17Z</time></trkpt><trkpt lat="42.181164714135015" lon="14.47766120867719"><ele>37.0</ele><time>2026-04-06T07:46:19Z</time></trkpt><trkpt lat="42.18107406549469" lon="14.477616282246936"><ele>37.0</ele><time>2026-04-06T07:46:21Z</time></trkpt><trkpt lat="42.18098680383607" lon="14.477574453598187"><ele>37.0</ele><time>2026-04-06T07:46:23Z</time></trkpt><trkpt lat="42.180903881280706" lon="14.477521103153364"><ele>37.0</ele><time>2026-04-06T07:46:25Z</time></trkpt><trkpt lat="42.180823347660436" lon="14.477465503875715"><ele>37.0</ele><time>2026-04-06T07:46:27Z</time></trkpt><trkpt lat="42.18074168100135" lon="14.477410605280642"><ele>37.0</ele><time>2026-04-06T07:46:29Z</time></trkpt><trkpt lat="42.180663611264436" lon="14.477348075644827"><ele>37.0</ele><time>2026-04-06T07:46:31Z</time></trkpt><trkpt lat="42.18058378611729" lon="14.47729027173629"><ele>37.0</ele><time>2026-04-06T07:46:32.999Z</time></trkpt><trkpt lat="42.180505918583115" lon="14.477226817469743"><ele>37.0</ele><time>2026-04-06T07:46:34.999Z</time></trkpt><trkpt lat="42.180423739254394" lon="14.477167602212027"><ele>37.0</ele><time>2026-04-06T07:46:36.999Z</time></trkpt><trkpt lat="42.18034061602387" lon="14.477109196634997"><ele>37.0</ele><time>2026-04-06T07:46:38.999Z</time></trkpt><trkpt lat="42.18025592715685" lon="14.477048094715407"><ele>37.0</ele><time>2026-04-06T07:46:40.999Z</time></trkpt><trkpt lat="42.18016761413921" lon="14.476988942984535"><ele>37.0</ele><time>2026-04-06T07:46:42.999Z</time></trkpt><trkpt lat="42.18008243231732" lon="14.476924896987674"><ele>37.0</ele><time>2026-04-06T07:46:44.999Z</time></trkpt><trkpt lat="42.17999712137076" lon="14.476862518924293"><ele>37.0</ele><time>2026-04-06T07:46:46.999Z</time></trkpt><trkpt lat="42.17991278891434" lon="14.476797985590558"><ele>37.0</ele><time>2026-04-06T07:46:48.999Z</time></trkpt><trkpt lat="42.17983063850714" lon="14.476729556706122"><ele>37.0</ele><time>2026-04-06T07:46:50.999Z</time></trkpt><trkpt lat="42.17975437325695" lon="14.476651323041192"><ele>37.0</ele><time>2026-04-06T07:46:52.999Z</time></trkpt><trkpt lat="42.179679682979824" lon="14.476567387458209"><ele>37.0</ele><time>2026-04-06T07:46:54.999Z</time></trkpt><trkpt lat="42.17961298151485" lon="14.476476521349122"><ele>37.0</ele><time>2026-04-06T07:46:56.999Z</time></trkpt><trkpt lat="42.179546891295246" lon="14.476383052070299"><ele>37.0</ele><time>2026-04-06T07:46:58.999Z</time></trkpt><trkpt lat="42.17948722877613" lon="14.476284601131498"><ele>37.0</ele><time>2026-04-06T07:47:00.999Z</time></trkpt><trkpt lat="42.179432233737856" lon="14.476178783953246"><ele>37.2</ele><time>2026-04-06T07:47:02.999Z</time></trkpt><trkpt lat="42.179388047532456" lon="14.4760650967501"><ele>37.400000000000006</ele><time>2026-04-06T07:47:04.999Z</time></trkpt><trkpt lat="42.17934903745997" lon="14.475948847568189"><ele>37.599999999999994</ele><time>2026-04-06T07:47:06.999Z</time></trkpt><trkpt lat="42.179318757431936" lon="14.475834218550172"><ele>37.8</ele><time>2026-04-06T07:47:08.999Z</time></trkpt><trkpt lat="42.179281663979395" lon="14.47571888681903"><ele>38.0</ele><time>2026-04-06T07:47:10.999Z</time></trkpt><trkpt lat="42.17923702281024" lon="14.475607505080234"><ele>38.0</ele><time>2026-04-06T07:47:12.999Z</time></trkpt><trkpt lat="42.17918907308502" lon="14.475498153754994"><ele>38.0</ele><time>2026-04-06T07:47:14.999Z</time></trkpt><trkpt lat="42.17913263793103" lon="14.475393714824278"><ele>38.0</ele><time>2026-04-06T07:47:16.999Z</time></trkpt><trkpt lat="42.17907298717662" lon="14.475291729402128"><ele>38.0</ele><time>2026-04-06T07:47:18.999Z</time></trkpt><trkpt lat="42.179007785291866" lon="14.475192991691051"><ele>38.0</ele><time>2026-04-06T07:47:20.999Z</time></trkpt><trkpt lat="42.178945880875794" lon="14.475094122607196"><ele>38.0</ele><time>2026-04-06T07:47:22.999Z</time></trkpt><trkpt lat="42.17889652023199" lon="14.474983721200099"><ele>38.0</ele><time>2026-04-06T07:47:24.999Z</time></trkpt><trkpt lat="42.17886697793992" lon="14.474858657267346"><ele>38.0</ele><time>2026-04-06T07:47:26.999Z</time></trkpt><trkpt lat="42.1788489020115" lon="14.474732177592681"><ele>38.0</ele><time>2026-04-06T07:47:28.998Z</time></trkpt><trkpt lat="42.17883912620419" lon="14.474597675557122"><ele>38.0</ele><time>2026-04-06T07:47:30.998Z</time></trkpt><trkpt lat="42.17882318147832" lon="14.474464004865405"><ele>38.599999999999994</ele><time>2026-04-06T07:47:32.998Z</time></trkpt><trkpt lat="42.17878857195466" lon="14.474341115770837"><ele>39.199999999999996</ele><time>2026-04-06T07:47:34.998Z</time></trkpt><trkpt lat="42.17871757095605" lon="14.474251836822182"><ele>39.8</ele><time>2026-04-06T07:47:36.998Z</time></trkpt><trkpt lat="42.17862643659589" lon="14.47420377893246"><ele>40.4</ele><time>2026-04-06T07:47:38.998Z</time></trkpt><trkpt lat="42.178531534486176" lon="14.474169938297596"><ele>41.0</ele><time>2026-04-06T07:47:40.998Z</time></trkpt><trkpt lat="42.17843565858077" lon="14.474141294462092"><ele>41.0</ele><time>2026-04-06T07:47:42.998Z</time></trkpt><trkpt lat="42.178339055928916" lon="14.47412423122559"><ele>41.0</ele><time>2026-04-06T07:47:44.998Z</time></trkpt><trkpt lat="42.17824196799926" lon="14.47411157178991"><ele>41.0</ele><time>2026-04-06T07:47:46.998Z</time></trkpt><trkpt lat="42.17814573999876" lon="14.47409552257292"><ele>41.0</ele><time>2026-04-06T07:47:48.998Z</time></trkpt><trkpt lat="42.17804863232015" lon="14.47407982013883"><ele>41.0</ele><time>2026-04-06T07:47:51Z</time></trkpt><trkpt lat="42.177952056759594" lon="14.474061740781806"><ele>40.8</ele><time>2026-04-06T07:47:53Z</time></trkpt><trkpt lat="42.17785337447718" lon="14.47404781932329"><ele>40.599999999999994</ele><time>2026-04-06T07:47:55Z</time></trkpt><trkpt lat="42.17775680354966" lon="14.474031229009713"><ele>40.4</ele><time>2026-04-06T07:47:57Z</time></trkpt><trkpt lat="42.17765849626133" lon="14.474013694318856"><ele>40.2</ele><time>2026-04-06T07:47:59Z</time></trkpt><trkpt lat="42.177557521397475" lon="14.474001761364725"><ele>40.0</ele><time>2026-04-06T07:48:01Z</time></trkpt><trkpt lat="42.17745975434066" lon="14.47398250554265"><ele>40.0</ele><time>2026-04-06T07:48:03Z</time></trkpt><trkpt lat="42.177360474051" lon="14.473964040425937"><ele>40.0</ele><time>2026-04-06T07:48:05Z</time></trkpt><trkpt lat="42.17725982089884" lon="14.473948677322538"><ele>40.0</ele><time>2026-04-06T07:48:07Z</time></trkpt><trkpt lat="42.17715816136327" lon="14.473930938869312"><ele>40.0</ele><time>2026-04-06T07:48:09Z</time></trkpt><trkpt lat="42.17705814254878" lon="14.473912389393186"><ele>40.0</ele><time>2026-04-06T07:48:11Z</time></trkpt><trkpt lat="42.176959377595175" lon="14.473879359426588"><ele>40.0</ele><time>2026-04-06T07:48:13Z</time></trkpt><trkpt lat="42.17686573862384" lon="14.473836634494743"><ele>40.0</ele><time>2026-04-06T07:48:15Z</time></trkpt><trkpt lat="42.17677913363004" lon="14.473783578224339"><ele>40.0</ele><time>2026-04-06T07:48:17Z</time></trkpt><trkpt lat="42.17668981886631" lon="14.47372857299424"><ele>40.0</ele><time>2026-04-06T07:48:19Z</time></trkpt><trkpt lat="42.17660403890782" lon="14.473671316219928"><ele>40.0</ele><time>2026-04-06T07:48:21Z</time></trkpt><trkpt lat="42.176516853549934" lon="14.473613456806127"><ele>40.0</ele><time>2026-04-06T07:48:23Z</time></trkpt><trkpt lat="42.17643147666719" lon="14.473556348068154"><ele>40.0</ele><time>2026-04-06T07:48:25Z</time></trkpt><trkpt lat="42.17634689284497" lon="14.473502178407355"><ele>40.0</ele><time>2026-04-06T07:48:27Z</time></trkpt><trkpt lat="42.176263233161315" lon="14.47344543021448"><ele>40.0</ele><time>2026-04-06T07:48:29Z</time></trkpt><trkpt lat="42.176178309564364" lon="14.473387218376574"><ele>40.0</ele><time>2026-04-06T07:48:31Z</time></trkpt><trkpt lat="42.1760951771231" lon="14.473327920026213"><ele>40.0</ele><time>2026-04-06T07:48:33Z</time></trkpt><trkpt lat="42.176010962363684" lon="14.473264101038241"><ele>40.0</ele><time>2026-04-06T07:48:35Z</time></trkpt><trkpt lat="42.17592490063951" lon="14.473204628969032"><ele>40.0</ele><time>2026-04-06T07:48:37Z</time></trkpt><trkpt lat="42.175841731015296" lon="14.473144002514001"><ele>40.0</ele><time>2026-04-06T07:48:38.999Z</time></trkpt><trkpt lat="42.17576126107555" lon="14.47308732563464"><ele>40.0</ele><time>2026-04-06T07:48:40.999Z</time></trkpt><trkpt lat="42.17567259904843" lon="14.473035454339014"><ele>39.8</ele><time>2026-04-06T07:48:42.999Z</time></trkpt><trkpt lat="42.17558139165175" lon="14.472987295535857"><ele>39.6</ele><time>2026-04-06T07:48:44.999Z</time></trkpt><trkpt lat="42.17548974568239" lon="14.472947281831487"><ele>39.4</ele><time>2026-04-06T07:48:46.999Z</time></trkpt><trkpt lat="42.175394848687425" lon="14.472907614977428"><ele>39.2</ele><time>2026-04-06T07:48:48.999Z</time></trkpt><trkpt lat="42.17529880025565" lon="14.472872038825347"><ele>39.0</ele><time>2026-04-06T07:48:50.999Z</time></trkpt><trkpt lat="42.17520371478447" lon="14.472835792727121"><ele>39.0</ele><time>2026-04-06T07:48:52.999Z</time></trkpt><trkpt lat="42.175111206003145" lon="14.472797082993687"><ele>39.0</ele><time>2026-04-06T07:48:54.999Z</time></trkpt><trkpt lat="42.175015860621514" lon="14.472766885923354"><ele>39.0</ele><time>2026-04-06T07:48:56.999Z</time></trkpt><trkpt lat="42.174917629701646" lon="14.472739100290093"><ele>39.0</ele><time>2026-04-06T07:48:58.999Z</time></trkpt><trkpt lat="42.17481822228878" lon="14.472717808393835"><ele>39.0</ele><time>2026-04-06T07:49:00.999Z</time></trkpt><trkpt lat="42.1747169018844" lon="14.472709902715362"><ele>39.4</ele><time>2026-04-06T07:49:02.999Z</time></trkpt><trkpt lat="42.174618479006284" lon="14.472706923007348"><ele>39.8</ele><time>2026-04-06T07:49:04.999Z</time></trkpt><trkpt lat="42.17452187841633" lon="14.472700927102364"><ele>40.199999999999996</ele><time>2026-04-06T07:49:06.999Z</time></trkpt><trkpt lat="42.17442614285074" lon="14.472699835914321"><ele>40.599999999999994</ele><time>2026-04-06T07:49:08.999Z</time></trkpt><trkpt lat="42.17432723363584" lon="14.472705121223946"><ele>41.0</ele><time>2026-04-06T07:49:10.999Z</time></trkpt><trkpt lat="42.17423031696453" lon="14.4727058551546"><ele>41.0</ele><time>2026-04-06T07:49:12.999Z</time></trkpt><trkpt lat="42.17413199008561" lon="14.47270550155922"><ele>41.0</ele><time>2026-04-06T07:49:14.999Z</time></trkpt><trkpt lat="42.17403206212266" lon="14.472707238927285"><ele>41.0</ele><time>2026-04-06T07:49:16.999Z</time></trkpt><trkpt lat="42.17393527823995" lon="14.472707006272872"><ele>41.0</ele><time>2026-04-06T07:49:18.999Z</time></trkpt><trkpt lat="42.173836981777384" lon="14.47270612415578"><ele>41.0</ele><time>2026-04-06T07:49:20.999Z</time></trkpt><trkpt lat="42.17373802480483" lon="14.47269770612535"><ele>41.199999999999996</ele><time>2026-04-06T07:49:22.999Z</time></trkpt><trkpt lat="42.17363848225397" lon="14.472689258064014"><ele>41.4</ele><time>2026-04-06T07:49:24.999Z</time></trkpt><trkpt lat="42.17353702801136" lon="14.47268544438829"><ele>41.6</ele><time>2026-04-06T07:49:26.999Z</time></trkpt><trkpt lat="42.1734382174258" lon="14.47268039238838"><ele>41.8</ele><time>2026-04-06T07:49:28.999Z</time></trkpt><trkpt lat="42.17333680018672" lon="14.472673972519903"><ele>42.0</ele><time>2026-04-06T07:49:30.999Z</time></trkpt><trkpt lat="42.17323637770377" lon="14.47265773788813"><ele>41.6</ele><time>2026-04-06T07:49:32.999Z</time></trkpt><trkpt lat="42.17313659702385" lon="14.47263504614411"><ele>41.2</ele><time>2026-04-06T07:49:34.998Z</time></trkpt><trkpt lat="42.17303848075707" lon="14.472607791746462"><ele>40.8</ele><time>2026-04-06T07:49:36.998Z</time></trkpt><trkpt lat="42.172945220640194" lon="14.472571279343974"><ele>40.4</ele><time>2026-04-06T07:49:38.998Z</time></trkpt><trkpt lat="42.17285202577586" lon="14.472531605785983"><ele>40.0</ele><time>2026-04-06T07:49:40.998Z</time></trkpt><trkpt lat="42.17275898629553" lon="14.472493004574316"><ele>40.0</ele><time>2026-04-06T07:49:42.998Z</time></trkpt><trkpt lat="42.17266275717344" lon="14.472456770941848"><ele>40.0</ele><time>2026-04-06T07:49:44.998Z</time></trkpt><trkpt lat="42.17256876489176" lon="14.472418922406186"><ele>40.0</ele><time>2026-04-06T07:49:46.998Z</time></trkpt><trkpt lat="42.17247745476333" lon="14.472370297832532"><ele>40.0</ele><time>2026-04-06T07:49:48.998Z</time></trkpt><trkpt lat="42.172381841757314" lon="14.472327110871344"><ele>40.0</ele><time>2026-04-06T07:49:50.998Z</time></trkpt><trkpt lat="42.17228955331483" lon="14.472286092672299"><ele>40.0</ele><time>2026-04-06T07:49:52.998Z</time></trkpt><trkpt lat="42.1721992279682" lon="14.472244640415902"><ele>40.0</ele><time>2026-04-06T07:49:54.998Z</time></trkpt><trkpt lat="42.172109419036964" lon="14.472201464298626"><ele>40.0</ele><time>2026-04-06T07:49:57Z</time></trkpt><trkpt lat="42.172018457170374" lon="14.472153851122268"><ele>40.0</ele><time>2026-04-06T07:49:59Z</time></trkpt><trkpt lat="42.17192865445746" lon="14.472096026721944"><ele>40.0</ele><time>2026-04-06T07:50:01Z</time></trkpt><trkpt lat="42.171837839000574" lon="14.472039613902624"><ele>40.0</ele><time>2026-04-06T07:50:03Z</time></trkpt><trkpt lat="42.17174651928283" lon="14.471983031820274"><ele>40.0</ele><time>2026-04-06T07:50:05Z</time></trkpt><trkpt lat="42.171655011062434" lon="14.471921615146195"><ele>40.0</ele><time>2026-04-06T07:50:07Z</time></trkpt><trkpt lat="42.17156384680504" lon="14.471867123200331"><ele>40.0</ele><time>2026-04-06T07:50:09Z</time></trkpt><trkpt lat="42.17147249714767" lon="14.471810703549622"><ele>40.0</ele><time>2026-04-06T07:50:11Z</time></trkpt><trkpt lat="42.17138221927474" lon="14.471756073758915"><ele>39.8</ele><time>2026-04-06T07:50:13Z</time></trkpt><trkpt lat="42.171292894824774" lon="14.471705452469553"><ele>39.6</ele><time>2026-04-06T07:50:15Z</time></trkpt><trkpt lat="42.17120145959162" lon="14.47165510466588"><ele>39.4</ele><time>2026-04-06T07:50:17Z</time></trkpt><trkpt lat="42.17111109572145" lon="14.471602464570788"><ele>39.2</ele><time>2026-04-06T07:50:19Z</time></trkpt><trkpt lat="42.171022093855335" lon="14.471536745312777"><ele>39.0</ele><time>2026-04-06T07:50:21Z</time></trkpt><trkpt lat="42.17094240754399" lon="14.471450386218294"><ele>39.0</ele><time>2026-04-06T07:50:23Z</time></trkpt><trkpt lat="42.170873807677125" lon="14.47135214366486"><ele>39.0</ele><time>2026-04-06T07:50:25Z</time></trkpt><trkpt lat="42.17081124581604" lon="14.471254697965897"><ele>39.0</ele><time>2026-04-06T07:50:27Z</time></trkpt><trkpt lat="42.17075366214251" lon="14.471151923708586"><ele>39.0</ele><time>2026-04-06T07:50:29Z</time></trkpt><trkpt lat="42.17070332550849" lon="14.471043304289836"><ele>39.0</ele><time>2026-04-06T07:50:31Z</time></trkpt><trkpt lat="42.17065001121132" lon="14.47093519948973"><ele>39.6</ele><time>2026-04-06T07:50:33Z</time></trkpt><trkpt lat="42.17060113764924" lon="14.470827501999931"><ele>40.2</ele><time>2026-04-06T07:50:35Z</time></trkpt><trkpt lat="42.17054790783241" lon="14.470719147440395"><ele>40.800000000000004</ele><time>2026-04-06T07:50:37Z</time></trkpt><trkpt lat="42.170495115936035" lon="14.470611577661577"><ele>41.4</ele><time>2026-04-06T07:50:39Z</time></trkpt><trkpt lat="42.17044417913276" lon="14.470501119794354"><ele>42.0</ele><time>2026-04-06T07:50:40.999Z</time></trkpt><trkpt lat="42.170391213213215" lon="14.470390997968854"><ele>42.6</ele><time>2026-04-06T07:50:42.999Z</time></trkpt><trkpt lat="42.17034262178275" lon="14.470277570677151"><ele>43.2</ele><time>2026-04-06T07:50:44.999Z</time></trkpt><trkpt lat="42.17028873069754" lon="14.470165450060692"><ele>43.8</ele><time>2026-04-06T07:50:46.999Z</time></trkpt><trkpt lat="42.170232937354385" lon="14.470059022624689"><ele>44.4</ele><time>2026-04-06T07:50:48.999Z</time></trkpt><trkpt lat="42.17017185021248" lon="14.469956484899832"><ele>45.0</ele><time>2026-04-06T07:50:50.999Z</time></trkpt><trkpt lat="42.1700971483649" lon="14.469876436867693"><ele>45.0</ele><time>2026-04-06T07:50:52.999Z</time></trkpt><trkpt lat="42.17001156599521" lon="14.46981238181902"><ele>45.0</ele><time>2026-04-06T07:50:54.999Z</time></trkpt><trkpt lat="42.169917739724006" lon="14.469768337426679"><ele>45.0</ele><time>2026-04-06T07:50:56.999Z</time></trkpt><trkpt lat="42.169824925964015" lon="14.469738075629351"><ele>45.0</ele><time>2026-04-06T07:50:58.999Z</time></trkpt><trkpt lat="42.16973146472797" lon="14.46971121202168"><ele>45.0</ele><time>2026-04-06T07:51:00.999Z</time></trkpt><trkpt lat="42.169636774311115" lon="14.469686542514529"><ele>44.2</ele><time>2026-04-06T07:51:02.999Z</time></trkpt><trkpt lat="42.16954257195458" lon="14.469656614635053"><ele>43.4</ele><time>2026-04-06T07:51:04.999Z</time></trkpt><trkpt lat="42.16944442624299" lon="14.469627640863617"><ele>42.599999999999994</ele><time>2026-04-06T07:51:06.999Z</time></trkpt><trkpt lat="42.16935094906022" lon="14.469581352601484"><ele>41.8</ele><time>2026-04-06T07:51:08.999Z</time></trkpt><trkpt lat="42.16926210698779" lon="14.46951820330339"><ele>41.0</ele><time>2026-04-06T07:51:10.999Z</time></trkpt><trkpt lat="42.16917754885408" lon="14.469446989047883"><ele>41.0</ele><time>2026-04-06T07:51:12.999Z</time></trkpt><trkpt lat="42.16909594046878" lon="14.469377267636334"><ele>41.0</ele><time>2026-04-06T07:51:14.999Z</time></trkpt><trkpt lat="42.16901538094721" lon="14.469309841157193"><ele>41.0</ele><time>2026-04-06T07:51:16.999Z</time></trkpt><trkpt lat="42.16893387030554" lon="14.469244799207535"><ele>41.0</ele><time>2026-04-06T07:51:18.999Z</time></trkpt><trkpt lat="42.168853690257215" lon="14.469180931611096"><ele>41.0</ele><time>2026-04-06T07:51:20.999Z</time></trkpt><trkpt lat="42.168766454979185" lon="14.469150159707795"><ele>41.0</ele><time>2026-04-06T07:51:22.999Z</time></trkpt><trkpt lat="42.16868247712317" lon="14.469149912263005"><ele>41.0</ele><time>2026-04-06T07:51:24.999Z</time></trkpt><trkpt lat="42.16860351234395" lon="14.469182635633214"><ele>41.0</ele><time>2026-04-06T07:51:26.999Z</time></trkpt><trkpt lat="42.16852353123958" lon="14.4692213527451"><ele>41.0</ele><time>2026-04-06T07:51:28.999Z</time></trkpt><trkpt lat="42.168445291617026" lon="14.46927202070243"><ele>41.0</ele><time>2026-04-06T07:51:30.999Z</time></trkpt><trkpt lat="42.168366552265915" lon="14.469325106257093"><ele>41.0</ele><time>2026-04-06T07:51:32.999Z</time></trkpt><trkpt lat="42.16828632038749" lon="14.46937884513591"><ele>41.0</ele><time>2026-04-06T07:51:34.998Z</time></trkpt><trkpt lat="42.16820962188645" lon="14.469436108854824"><ele>41.0</ele><time>2026-04-06T07:51:36.998Z</time></trkpt><trkpt lat="42.16813391951844" lon="14.469488209504407"><ele>41.0</ele><time>2026-04-06T07:51:38.998Z</time></trkpt><trkpt lat="42.16805764077523" lon="14.469548049679739"><ele>41.0</ele><time>2026-04-06T07:51:40.998Z</time></trkpt><trkpt lat="42.167980286574966" lon="14.469602841414765"><ele>41.0</ele><time>2026-04-06T07:51:42.998Z</time></trkpt><trkpt lat="42.16790141495158" lon="14.469657964865084"><ele>41.0</ele><time>2026-04-06T07:51:44.998Z</time></trkpt><trkpt lat="42.16782174163757" lon="14.46971476422168"><ele>40.83333333333333</ele><time>2026-04-06T07:51:46.998Z</time></trkpt><trkpt lat="42.16774171708627" lon="14.469770123623183"><ele>40.666666666666664</ele><time>2026-04-06T07:51:48.998Z</time></trkpt><trkpt lat="42.16766341354861" lon="14.469824680700897"><ele>40.5</ele><time>2026-04-06T07:51:50.998Z</time></trkpt><trkpt lat="42.16758614519904" lon="14.469880589235522"><ele>40.333333333333336</ele><time>2026-04-06T07:51:52.998Z</time></trkpt><trkpt lat="42.16750600156554" lon="14.469934300824889"><ele>40.16666666666667</ele><time>2026-04-06T07:51:54.998Z</time></trkpt><trkpt lat="42.167428712318866" lon="14.469990509144312"><ele>40.0</ele><time>2026-04-06T07:51:56.998Z</time></trkpt><trkpt lat="42.16735021590275" lon="14.470046778010545"><ele>40.0</ele><time>2026-04-06T07:51:58.998Z</time></trkpt><trkpt lat="42.16727363112401" lon="14.470101730645435"><ele>40.0</ele><time>2026-04-06T07:52:00.998Z</time></trkpt><trkpt lat="42.167197869622484" lon="14.470154012412511"><ele>40.0</ele><time>2026-04-06T07:52:03Z</time></trkpt><trkpt lat="42.16712210376491" lon="14.470212114520956"><ele>40.0</ele><time>2026-04-06T07:52:05Z</time></trkpt><trkpt lat="42.16704315341472" lon="14.470266154824007"><ele>40.0</ele><time>2026-04-06T07:52:07Z</time></trkpt><trkpt lat="42.166962966882075" lon="14.470316047535723"><ele>40.0</ele><time>2026-04-06T07:52:09Z</time></trkpt><trkpt lat="42.166890448971955" lon="14.470372614667037"><ele>40.0</ele><time>2026-04-06T07:52:11Z</time></trkpt><trkpt lat="42.166817998303614" lon="14.470425498326698"><ele>40.0</ele><time>2026-04-06T07:52:13Z</time></trkpt><trkpt lat="42.16674374824269" lon="14.470490792220145"><ele>40.0</ele><time>2026-04-06T07:52:15Z</time></trkpt><trkpt lat="42.16666721039801" lon="14.470556630589023"><ele>40.0</ele><time>2026-04-06T07:52:17Z</time></trkpt><trkpt lat="42.1665927083412" lon="14.470625477653195"><ele>40.0</ele><time>2026-04-06T07:52:19Z</time></trkpt><trkpt lat="42.16651995789219" lon="14.470697268882908"><ele>40.0</ele><time>2026-04-06T07:52:21Z</time></trkpt><trkpt lat="42.16644670618235" lon="14.470768764317645"><ele>40.2</ele><time>2026-04-06T07:52:23Z</time></trkpt><trkpt lat="42.166375614118984" lon="14.470847775788997"><ele>40.4</ele><time>2026-04-06T07:52:25Z</time></trkpt><trkpt lat="42.166303407645174" lon="14.470929080901346"><ele>40.599999999999994</ele><time>2026-04-06T07:52:27Z</time></trkpt><trkpt lat="42.16622913171631" lon="14.471004046361678"><ele>40.8</ele><time>2026-04-06T07:52:29Z</time></trkpt><trkpt lat="42.16616085926025" lon="14.471083806222389"><ele>41.0</ele><time>2026-04-06T07:52:31Z</time></trkpt><trkpt lat="42.16609254109619" lon="14.471163439614344"><ele>41.0</ele><time>2026-04-06T07:52:33Z</time></trkpt><trkpt lat="42.16602389844901" lon="14.471240176993682"><ele>41.0</ele><time>2026-04-06T07:52:35Z</time></trkpt><trkpt lat="42.16595315207205" lon="14.471317349928428"><ele>41.0</ele><time>2026-04-06T07:52:37Z</time></trkpt><trkpt lat="42.16588490285765" lon="14.471395035477373"><ele>41.0</ele><time>2026-04-06T07:52:39Z</time></trkpt><trkpt lat="42.1658181044035" lon="14.471473495269237"><ele>41.0</ele><time>2026-04-06T07:52:41Z</time></trkpt><trkpt lat="42.16575348990839" lon="14.47154785430708"><ele>41.0</ele><time>2026-04-06T07:52:43Z</time></trkpt><trkpt lat="42.165696113484735" lon="14.47161996169819"><ele>41.166666666666664</ele><time>2026-04-06T07:52:45Z</time></trkpt><trkpt lat="42.16565041058259" lon="14.471692473406359"><ele>41.33333333333333</ele><time>2026-04-06T07:52:46.999Z</time></trkpt><trkpt lat="42.16560062558508" lon="14.471745498874116"><ele>41.5</ele><time>2026-04-06T07:52:48.999Z</time></trkpt><trkpt lat="42.16552680200041" lon="14.47182122181681"><ele>41.666666666666664</ele><time>2026-04-06T07:52:51.999Z</time></trkpt><trkpt lat="42.16547770292621" lon="14.471879469781209"><ele>41.833333333333336</ele><time>2026-04-06T07:52:53.999Z</time></trkpt><trkpt lat="42.165446041240656" lon="14.471956837018668"><ele>42.0</ele><time>2026-04-06T07:52:55.999Z</time></trkpt><trkpt lat="42.16536909758045" lon="14.472025268490727"><ele>42.0</ele><time>2026-04-06T07:52:58.999Z</time></trkpt><trkpt lat="42.16531132494283" lon="14.47207528469953"><ele>42.0</ele><time>2026-04-06T07:53:00.999Z</time></trkpt><trkpt lat="42.165251892540724" lon="14.47212969244057"><ele>42.0</ele><time>2026-04-06T07:53:02.999Z</time></trkpt><trkpt lat="42.16518765885855" lon="14.472181637170097"><ele>42.0</ele><time>2026-04-06T07:53:04.999Z</time></trkpt><trkpt lat="42.16511965712325" lon="14.472234196104552"><ele>42.0</ele><time>2026-04-06T07:53:06.999Z</time></trkpt><trkpt lat="42.16504883309302" lon="14.472288167434085"><ele>42.0</ele><time>2026-04-06T07:53:08.999Z</time></trkpt><trkpt lat="42.16497000609911" lon="14.472338170079553"><ele>41.833333333333336</ele><time>2026-04-06T07:53:10.999Z</time></trkpt><trkpt lat="42.16489068366611" lon="14.472382888412893"><ele>41.666666666666664</ele><time>2026-04-06T07:53:12.999Z</time></trkpt><trkpt lat="42.1648182174297" lon="14.47243827408944"><ele>41.5</ele><time>2026-04-06T07:53:14.999Z</time></trkpt><trkpt lat="42.16475316544658" lon="14.47248290988888"><ele>41.33333333333333</ele><time>2026-04-06T07:53:16.999Z</time></trkpt><trkpt lat="42.164688527125605" lon="14.472532588870898"><ele>41.166666666666664</ele><time>2026-04-06T07:53:18.999Z</time></trkpt><trkpt lat="42.16461912853488" lon="14.472581807441541"><ele>41.0</ele><time>2026-04-06T07:53:20.999Z</time></trkpt><trkpt lat="42.16454721905177" lon="14.47262920133853"><ele>40.83333333333333</ele><time>2026-04-06T07:53:22.999Z</time></trkpt><trkpt lat="42.16447045612976" lon="14.472669769202303"><ele>40.666666666666664</ele><time>2026-04-06T07:53:24.999Z</time></trkpt><trkpt lat="42.16439344893043" lon="14.472707681231151"><ele>40.5</ele><time>2026-04-06T07:53:26.999Z</time></trkpt><trkpt lat="42.16431413993774" lon="14.47274912407525"><ele>40.333333333333336</ele><time>2026-04-06T07:53:28.999Z</time></trkpt><trkpt lat="42.164233203471" lon="14.472787396140925"><ele>40.16666666666667</ele><time>2026-04-06T07:53:30.999Z</time></trkpt><trkpt lat="42.16415017669854" lon="14.472828921478163"><ele>40.0</ele><time>2026-04-06T07:53:32.999Z</time></trkpt><trkpt lat="42.16406285624674" lon="14.472865020423358"><ele>39.6</ele><time>2026-04-06T07:53:34.999Z</time></trkpt><trkpt lat="42.16397621185404" lon="14.472904739469117"><ele>39.2</ele><time>2026-04-06T07:53:36.999Z</time></trkpt><trkpt lat="42.16388916659253" lon="14.472940237991711"><ele>38.8</ele><time>2026-04-06T07:53:38.999Z</time></trkpt><trkpt lat="42.16380226068544" lon="14.472980272473091"><ele>38.4</ele><time>2026-04-06T07:53:40.999Z</time></trkpt><trkpt lat="42.163716200446466" lon="14.473021701238054"><ele>38.0</ele><time>2026-04-06T07:53:42.998Z</time></trkpt><trkpt lat="42.16363321570654" lon="14.473051808477226"><ele>38.0</ele><time>2026-04-06T07:53:44.998Z</time></trkpt><trkpt lat="42.16356901621201" lon="14.47302980715628"><ele>38.0</ele><time>2026-04-06T07:53:46.998Z</time></trkpt><trkpt lat="42.163551608194716" lon="14.472938741410216"><ele>38.0</ele><time>2026-04-06T07:53:48.998Z</time></trkpt><trkpt lat="42.16355163216845" lon="14.472850387916438"><ele>38.0</ele><time>2026-04-06T07:53:51.998Z</time></trkpt><trkpt lat="42.16354633564465" lon="14.472935236069924"><ele>38.0</ele><time>2026-04-06T07:56:57.999Z</time></trkpt><trkpt lat="42.16357693704054" lon="14.473015313984842"><ele>38.0</ele><time>2026-04-06T07:57:00.999Z</time></trkpt><trkpt lat="42.16353816008609" lon="14.473112996567606"><ele>38.0</ele><time>2026-04-06T07:57:03.999Z</time></trkpt><trkpt lat="42.163471161277066" lon="14.473134720661117"><ele>38.5</ele><time>2026-04-06T07:57:05.999Z</time></trkpt><trkpt lat="42.16339903319068" lon="14.473167912506222"><ele>39.0</ele><time>2026-04-06T07:57:07.999Z</time></trkpt><trkpt lat="42.1633245270642" lon="14.473188007898075"><ele>39.5</ele><time>2026-04-06T07:57:09.999Z</time></trkpt><trkpt lat="42.16324776902548" lon="14.473237718236037"><ele>40.0</ele><time>2026-04-06T07:57:11.999Z</time></trkpt><trkpt lat="42.163170521803686" lon="14.473274037534368"><ele>40.5</ele><time>2026-04-06T07:57:13.999Z</time></trkpt><trkpt lat="42.16309674715733" lon="14.473309661560016"><ele>41.0</ele><time>2026-04-06T07:57:15.999Z</time></trkpt><trkpt lat="42.163025149041275" lon="14.473294458135763"><ele>40.99999999999999</ele><time>2026-04-06T07:57:17.999Z</time></trkpt><trkpt lat="42.162981293441526" lon="14.47321164478086"><ele>41.0</ele><time>2026-04-06T07:57:19.999Z</time></trkpt><trkpt lat="42.162940284685725" lon="14.473139882921249"><ele>41.0</ele><time>2026-04-06T07:57:21.999Z</time></trkpt><trkpt lat="42.162899666449384" lon="14.473065251530718"><ele>41.0</ele><time>2026-04-06T07:57:23.999Z</time></trkpt><trkpt lat="42.162851643416296" lon="14.473002589519563"><ele>41.0</ele><time>2026-04-06T07:57:25.999Z</time></trkpt><trkpt lat="42.16281089948299" lon="14.472935676642487"><ele>40.99999999999999</ele><time>2026-04-06T07:57:27.999Z</time></trkpt><trkpt lat="42.16274564423343" lon="14.472850194430952"><ele>41.0</ele><time>2026-04-06T07:57:30.999Z</time></trkpt><trkpt lat="42.16269413429015" lon="14.472766513248331"><ele>41.0</ele><time>2026-04-06T07:57:33.999Z</time></trkpt><trkpt lat="42.16263632713288" lon="14.472803273391907"><ele>41.0</ele><time>2026-04-06T07:57:36.999Z</time></trkpt><trkpt lat="42.16279482162073" lon="14.472771151963032"><ele>41.0</ele><time>2026-04-06T07:59:20.999Z</time></trkpt><trkpt lat="42.16284273917227" lon="14.472832576609525"><ele>41.0</ele><time>2026-04-06T07:59:31.999Z</time></trkpt><trkpt lat="42.16292319590566" lon="14.472894526873466"><ele>41.0</ele><time>2026-04-06T07:59:34.999Z</time></trkpt><trkpt lat="42.16296487523312" lon="14.472959165400317"><ele>41.0</ele><time>2026-04-06T07:59:36.999Z</time></trkpt><trkpt lat="42.16258842196079" lon="14.472760457294752"><ele>41.0</ele><time>2026-04-06T08:09:35.999Z</time></trkpt><trkpt lat="42.16267351332672" lon="14.472768164960252"><ele>41.0</ele><time>2026-04-06T08:12:19.998Z</time></trkpt><trkpt lat="42.16271772843503" lon="14.472842798157593"><ele>41.0</ele><time>2026-04-06T08:17:14Z</time></trkpt><trkpt lat="42.16278918080381" lon="14.472892213438696"><ele>41.0</ele><time>2026-04-06T08:18:23.999Z</time></trkpt><trkpt lat="42.16282057667517" lon="14.472968113730477"><ele>41.0</ele><time>2026-04-06T08:18:25.999Z</time></trkpt><trkpt lat="42.16287922914995" lon="14.473066363919957"><ele>41.0</ele><time>2026-04-06T08:18:28.999Z</time></trkpt><trkpt lat="42.16291994012801" lon="14.473136714012677"><ele>41.0</ele><time>2026-04-06T08:18:30.999Z</time></trkpt><trkpt lat="42.162964106499274" lon="14.473209943601159"><ele>41.0</ele><time>2026-04-06T08:18:32.999Z</time></trkpt><trkpt lat="42.162997018564916" lon="14.473283656584412"><ele>41.0</ele><time>2026-04-06T08:18:34.999Z</time></trkpt><trkpt lat="42.162967323922274" lon="14.473380824722009"><ele>41.0</ele><time>2026-04-06T08:18:36.999Z</time></trkpt><trkpt lat="42.162882136183114" lon="14.47343093687768"><ele>41.0</ele><time>2026-04-06T08:18:38.999Z</time></trkpt><trkpt lat="42.1628049762242" lon="14.473492733777896"><ele>41.0</ele><time>2026-04-06T08:18:40.999Z</time></trkpt><trkpt lat="42.16272995473858" lon="14.473569964784918"><ele>41.0</ele><time>2026-04-06T08:18:42.999Z</time></trkpt><trkpt lat="42.16265880956502" lon="14.473649574852399"><ele>41.0</ele><time>2026-04-06T08:18:44.999Z</time></trkpt><trkpt lat="42.162587744647084" lon="14.473723576144717"><ele>41.0</ele><time>2026-04-06T08:18:46.999Z</time></trkpt><trkpt lat="42.16252143454851" lon="14.47379771262286"><ele>41.0</ele><time>2026-04-06T08:18:48.999Z</time></trkpt><trkpt lat="42.162457547514954" lon="14.47387686065397"><ele>41.0</ele><time>2026-04-06T08:18:50.999Z</time></trkpt><trkpt lat="42.16238643743244" lon="14.473945716522064"><ele>41.0</ele><time>2026-04-06T08:18:52.999Z</time></trkpt><trkpt lat="42.16232124395691" lon="14.474024068451342"><ele>41.4</ele><time>2026-04-06T08:18:54.999Z</time></trkpt><trkpt lat="42.16225158290738" lon="14.474116557680194"><ele>41.8</ele><time>2026-04-06T08:18:56.999Z</time></trkpt><trkpt lat="42.16218024878495" lon="14.474212323099632"><ele>42.199999999999996</ele><time>2026-04-06T08:18:58.999Z</time></trkpt><trkpt lat="42.16210597322988" lon="14.474307120356166"><ele>42.599999999999994</ele><time>2026-04-06T08:19:00.999Z</time></trkpt><trkpt lat="42.1620423971148" lon="14.474415065823187"><ele>43.0</ele><time>2026-04-06T08:19:02.999Z</time></trkpt><trkpt lat="42.16198686093278" lon="14.474527310231688"><ele>42.8</ele><time>2026-04-06T08:19:04.999Z</time></trkpt><trkpt lat="42.16193518380664" lon="14.47464060548488"><ele>42.599999999999994</ele><time>2026-04-06T08:19:06.999Z</time></trkpt><trkpt lat="42.16188201134805" lon="14.474753822127465"><ele>42.400000000000006</ele><time>2026-04-06T08:19:08.999Z</time></trkpt><trkpt lat="42.16182252385378" lon="14.474861073741705"><ele>42.2</ele><time>2026-04-06T08:19:10.998Z</time></trkpt><trkpt lat="42.161771395872485" lon="14.47497642254925"><ele>42.0</ele><time>2026-04-06T08:19:12.998Z</time></trkpt><trkpt lat="42.16171941802748" lon="14.475091216819923"><ele>42.0</ele><time>2026-04-06T08:19:14.998Z</time></trkpt><trkpt lat="42.16166902435697" lon="14.475208102140325"><ele>42.0</ele><time>2026-04-06T08:19:17Z</time></trkpt><trkpt lat="42.16162094135629" lon="14.475316487140331"><ele>42.0</ele><time>2026-04-06T08:19:19Z</time></trkpt><trkpt lat="42.16157255349174" lon="14.475422998613888"><ele>42.0</ele><time>2026-04-06T08:19:21Z</time></trkpt><trkpt lat="42.16152434973354" lon="14.47552871981099"><ele>42.0</ele><time>2026-04-06T08:19:23Z</time></trkpt><trkpt lat="42.16147857580487" lon="14.475636258233116"><ele>42.400000000000006</ele><time>2026-04-06T08:19:25Z</time></trkpt><trkpt lat="42.16142653598538" lon="14.475745441812721"><ele>42.800000000000004</ele><time>2026-04-06T08:19:27Z</time></trkpt><trkpt lat="42.16137771996696" lon="14.47585664174521"><ele>43.2</ele><time>2026-04-06T08:19:29Z</time></trkpt><trkpt lat="42.16132811428968" lon="14.475966950625416"><ele>43.6</ele><time>2026-04-06T08:19:31Z</time></trkpt><trkpt lat="42.1612816685817" lon="14.476075290553158"><ele>44.0</ele><time>2026-04-06T08:19:33Z</time></trkpt><trkpt lat="42.161236372977676" lon="14.476183583636042"><ele>44.0</ele><time>2026-04-06T08:19:35Z</time></trkpt><trkpt lat="42.161180180630375" lon="14.47628088369113"><ele>44.0</ele><time>2026-04-06T08:19:37Z</time></trkpt><trkpt lat="42.16110581169388" lon="14.476346107476308"><ele>44.0</ele><time>2026-04-06T08:19:39Z</time></trkpt><trkpt lat="42.16100910395181" lon="14.476364043776291"><ele>44.0</ele><time>2026-04-06T08:19:41Z</time></trkpt><trkpt lat="42.160909586722006" lon="14.476335017003827"><ele>44.0</ele><time>2026-04-06T08:19:43Z</time></trkpt><trkpt lat="42.16082088759655" lon="14.476263071570019"><ele>44.0</ele><time>2026-04-06T08:19:45Z</time></trkpt><trkpt lat="42.16074723426307" lon="14.4761986497703"><ele>44.0</ele><time>2026-04-06T08:19:47Z</time></trkpt><trkpt lat="42.16065203556576" lon="14.476123818782956"><ele>44.0</ele><time>2026-04-06T08:19:49Z</time></trkpt><trkpt lat="42.16055407885532" lon="14.476050350163828"><ele>44.0</ele><time>2026-04-06T08:19:51Z</time></trkpt><trkpt lat="42.16045282166431" lon="14.475981426943779"><ele>44.0</ele><time>2026-04-06T08:19:53Z</time></trkpt><trkpt lat="42.160345504074584" lon="14.475928597271922"><ele>44.0</ele><time>2026-04-06T08:19:55Z</time></trkpt><trkpt lat="42.160235887494885" lon="14.475884636420982"><ele>44.0</ele><time>2026-04-06T08:19:57Z</time></trkpt><trkpt lat="42.16012822892477" lon="14.475837490632614"><ele>44.0</ele><time>2026-04-06T08:19:59Z</time></trkpt><trkpt lat="42.16002075931594" lon="14.475790866458802"><ele>44.0</ele><time>2026-04-06T08:20:01Z</time></trkpt><trkpt lat="42.15991402045299" lon="14.475742105174223"><ele>44.2</ele><time>2026-04-06T08:20:03Z</time></trkpt><trkpt lat="42.159805968292126" lon="14.475696809816787"><ele>44.400000000000006</ele><time>2026-04-06T08:20:05Z</time></trkpt><trkpt lat="42.159734545259" lon="14.475662273711672"><ele>44.6</ele><time>2026-04-06T08:20:06Z</time></trkpt><trkpt lat="42.15962681712068" lon="14.475614095712109"><ele>44.8</ele><time>2026-04-06T08:20:08Z</time></trkpt><trkpt lat="42.159522761734955" lon="14.475568198103876"><ele>45.0</ele><time>2026-04-06T08:20:10Z</time></trkpt><trkpt lat="42.15941282526291" lon="14.475519821893634"><ele>45.0</ele><time>2026-04-06T08:20:12Z</time></trkpt><trkpt lat="42.159306698150466" lon="14.475463447173833"><ele>45.0</ele><time>2026-04-06T08:20:14Z</time></trkpt><trkpt lat="42.159206115883" lon="14.475424812045462"><ele>45.0</ele><time>2026-04-06T08:20:16Z</time></trkpt><trkpt lat="42.15909785783353" lon="14.47537316151201"><ele>45.0</ele><time>2026-04-06T08:20:17.999Z</time></trkpt><trkpt lat="42.15899135703268" lon="14.475330000612537"><ele>45.0</ele><time>2026-04-06T08:20:19.999Z</time></trkpt><trkpt lat="42.15888491100855" lon="14.475280187173556"><ele>45.2</ele><time>2026-04-06T08:20:21.999Z</time></trkpt><trkpt lat="42.1587796655572" lon="14.475234475803681"><ele>45.4</ele><time>2026-04-06T08:20:23.999Z</time></trkpt><trkpt lat="42.15867256367567" lon="14.475189497492519"><ele>45.599999999999994</ele><time>2026-04-06T08:20:25.999Z</time></trkpt><trkpt lat="42.15856712029763" lon="14.475140385074392"><ele>45.8</ele><time>2026-04-06T08:20:27.999Z</time></trkpt><trkpt lat="42.158462872395994" lon="14.475093072369946"><ele>46.0</ele><time>2026-04-06T08:20:29.999Z</time></trkpt><trkpt lat="42.15835636189783" lon="14.475036594936919"><ele>46.0</ele><time>2026-04-06T08:20:31.999Z</time></trkpt><trkpt lat="42.158256681356974" lon="14.474972179971235"><ele>46.0</ele><time>2026-04-06T08:20:33.999Z</time></trkpt><trkpt lat="42.1581613741896" lon="14.474900725762085"><ele>46.0</ele><time>2026-04-06T08:20:35.999Z</time></trkpt><trkpt lat="42.15807136964498" lon="14.47481978446208"><ele>46.0</ele><time>2026-04-06T08:20:37.999Z</time></trkpt><trkpt lat="42.15798309498769" lon="14.47474295359292"><ele>46.0</ele><time>2026-04-06T08:20:39.999Z</time></trkpt><trkpt lat="42.15789521924836" lon="14.474660418970599"><ele>45.5</ele><time>2026-04-06T08:20:41.999Z</time></trkpt><trkpt lat="42.15780867443713" lon="14.474567783665563"><ele>45.0</ele><time>2026-04-06T08:20:43.999Z</time></trkpt><trkpt lat="42.15771120053904" lon="14.474474815537329"><ele>44.5</ele><time>2026-04-06T08:20:45.999Z</time></trkpt><trkpt lat="42.157616800373944" lon="14.474385322158312"><ele>44.0</ele><time>2026-04-06T08:20:47.999Z</time></trkpt><trkpt lat="42.15752511251628" lon="14.474297526173963"><ele>44.0</ele><time>2026-04-06T08:20:49.999Z</time></trkpt><trkpt lat="42.157434652563886" lon="14.474214091138686"><ele>44.0</ele><time>2026-04-06T08:20:51.999Z</time></trkpt><trkpt lat="42.15734615375449" lon="14.474127825795234"><ele>44.0</ele><time>2026-04-06T08:20:53.999Z</time></trkpt><trkpt lat="42.15725312633716" lon="14.47406248594535"><ele>44.0</ele><time>2026-04-06T08:20:55.999Z</time></trkpt><trkpt lat="42.157154867103365" lon="14.474006313774872"><ele>44.0</ele><time>2026-04-06T08:20:57.999Z</time></trkpt><trkpt lat="42.157046507070184" lon="14.473981224424188"><ele>44.0</ele><time>2026-04-06T08:20:59.999Z</time></trkpt><trkpt lat="42.156937234412965" lon="14.473987867059419"><ele>44.0</ele><time>2026-04-06T08:21:01.999Z</time></trkpt><trkpt lat="42.156827570469915" lon="14.474012607938517"><ele>44.0</ele><time>2026-04-06T08:21:03.999Z</time></trkpt><trkpt lat="42.15672376652125" lon="14.474040770835204"><ele>44.0</ele><time>2026-04-06T08:21:05.999Z</time></trkpt><trkpt lat="42.15662203615253" lon="14.474070474886762"><ele>44.0</ele><time>2026-04-06T08:21:07.999Z</time></trkpt><trkpt lat="42.15651894232415" lon="14.474092854012916"><ele>44.2</ele><time>2026-04-06T08:21:09.999Z</time></trkpt><trkpt lat="42.15641307474187" lon="14.474117563447466"><ele>44.400000000000006</ele><time>2026-04-06T08:21:11.999Z</time></trkpt><trkpt lat="42.156305038761865" lon="14.474130062831232"><ele>44.6</ele><time>2026-04-06T08:21:13.998Z</time></trkpt><trkpt lat="42.156196128675695" lon="14.474134556717912"><ele>44.8</ele><time>2026-04-06T08:21:15.998Z</time></trkpt><trkpt lat="42.15608616624557" lon="14.474123737645092"><ele>45.0</ele><time>2026-04-06T08:21:17.998Z</time></trkpt><trkpt lat="42.15598375575146" lon="14.47409189709094"><ele>45.0</ele><time>2026-04-06T08:21:19.998Z</time></trkpt><trkpt lat="42.15588140650649" lon="14.474047290662051"><ele>45.0</ele><time>2026-04-06T08:21:21.998Z</time></trkpt><trkpt lat="42.15580353652457" lon="14.474007472173248"><ele>45.0</ele><time>2026-04-06T08:21:24Z</time></trkpt><trkpt lat="42.155704814515985" lon="14.473952642110296"><ele>45.0</ele><time>2026-04-06T08:21:26Z</time></trkpt><trkpt lat="42.15560652976824" lon="14.473906148828084"><ele>45.0</ele><time>2026-04-06T08:21:28Z</time></trkpt><trkpt lat="42.15551051911141" lon="14.473860544382498"><ele>45.8</ele><time>2026-04-06T08:21:30Z</time></trkpt><trkpt lat="42.15540331717091" lon="14.47380214024712"><ele>46.6</ele><time>2026-04-06T08:21:32Z</time></trkpt><trkpt lat="42.155298393251144" lon="14.473754845276616"><ele>47.400000000000006</ele><time>2026-04-06T08:21:34Z</time></trkpt><trkpt lat="42.15519722585401" lon="14.473717418944494"><ele>48.2</ele><time>2026-04-06T08:21:36Z</time></trkpt><trkpt lat="42.15509622366134" lon="14.473699570973363"><ele>49.0</ele><time>2026-04-06T08:21:38Z</time></trkpt><trkpt lat="42.15500143362712" lon="14.473682131904337"><ele>49.0</ele><time>2026-04-06T08:21:40Z</time></trkpt><trkpt lat="42.15490424584681" lon="14.473660321352988"><ele>49.0</ele><time>2026-04-06T08:21:42Z</time></trkpt><trkpt lat="42.15483989944738" lon="14.47363496275719"><ele>49.0</ele><time>2026-04-06T08:21:43Z</time></trkpt><trkpt lat="42.15474072787915" lon="14.473619500642092"><ele>49.0</ele><time>2026-04-06T08:21:45Z</time></trkpt><trkpt lat="42.154638682000545" lon="14.473604009332814"><ele>49.0</ele><time>2026-04-06T08:21:47Z</time></trkpt><trkpt lat="42.154534892232306" lon="14.473585536904102"><ele>48.800000000000004</ele><time>2026-04-06T08:21:49Z</time></trkpt><trkpt lat="42.15443049728004" lon="14.473572864517555"><ele>48.6</ele><time>2026-04-06T08:21:51Z</time></trkpt><trkpt lat="42.15433042876682" lon="14.473557481799638"><ele>48.4</ele><time>2026-04-06T08:21:53Z</time></trkpt><trkpt lat="42.15422923861858" lon="14.473538264241355"><ele>48.2</ele><time>2026-04-06T08:21:55Z</time></trkpt><trkpt lat="42.15413592441002" lon="14.4735183131274"><ele>48.0</ele><time>2026-04-06T08:21:57Z</time></trkpt><trkpt lat="42.154044192131636" lon="14.473499430136297"><ele>48.833333333333336</ele><time>2026-04-06T08:21:59Z</time></trkpt><trkpt lat="42.153955815988716" lon="14.473478900269571"><ele>49.66666666666667</ele><time>2026-04-06T08:22:01Z</time></trkpt><trkpt lat="42.153869407210344" lon="14.473465415297014"><ele>50.5</ele><time>2026-04-06T08:22:03Z</time></trkpt><trkpt lat="42.153783609215374" lon="14.473445742001756"><ele>51.333333333333336</ele><time>2026-04-06T08:22:05Z</time></trkpt><trkpt lat="42.15370941913093" lon="14.473427842777866"><ele>52.16666666666667</ele><time>2026-04-06T08:22:07Z</time></trkpt><trkpt lat="42.15363703653605" lon="14.473417575004182"><ele>53.0</ele><time>2026-04-06T08:22:09Z</time></trkpt><trkpt lat="42.15357092020395" lon="14.473409388266557"><ele>53.0</ele><time>2026-04-06T08:22:11Z</time></trkpt><trkpt lat="42.15350310135142" lon="14.473407750387135"><ele>53.0</ele><time>2026-04-06T08:22:13Z</time></trkpt><trkpt lat="42.153434486766585" lon="14.473408605729947"><ele>53.0</ele><time>2026-04-06T08:22:15Z</time></trkpt><trkpt lat="42.153367505074854" lon="14.473410511787765"><ele>53.0</ele><time>2026-04-06T08:22:17Z</time></trkpt><trkpt lat="42.15330525624316" lon="14.47342433770215"><ele>53.0</ele><time>2026-04-06T08:22:19Z</time></trkpt><trkpt lat="42.153227908482556" lon="14.473475704315765"><ele>53.0</ele><time>2026-04-06T08:22:21.999Z</time></trkpt><trkpt lat="42.153163990422954" lon="14.473515856819365"><ele>53.0</ele><time>2026-04-06T08:22:25.999Z</time></trkpt><trkpt lat="42.15310640757201" lon="14.473566011393892"><ele>54.142857142857146</ele><time>2026-04-06T08:22:28.999Z</time></trkpt><trkpt lat="42.15303778330715" lon="14.473604072924102"><ele>55.28571428571428</ele><time>2026-04-06T08:22:31.999Z</time></trkpt><trkpt lat="42.152981014122055" lon="14.473656831678657"><ele>56.42857142857142</ele><time>2026-04-06T08:22:34.999Z</time></trkpt><trkpt lat="42.152927087740856" lon="14.473702382379516"><ele>57.57142857142857</ele><time>2026-04-06T08:22:37.999Z</time></trkpt><trkpt lat="42.152864830785" lon="14.473754942572013"><ele>58.71428571428571</ele><time>2026-04-06T08:22:40.999Z</time></trkpt><trkpt lat="42.152800217316916" lon="14.473811552791805"><ele>59.85714285714285</ele><time>2026-04-06T08:22:44.999Z</time></trkpt><trkpt lat="42.15273593530628" lon="14.473869269670821"><ele>60.99999999999999</ele><time>2026-04-06T08:22:47.999Z</time></trkpt><trkpt lat="42.152670596662226" lon="14.473924057980923"><ele>61.14285714285714</ele><time>2026-04-06T08:22:51.999Z</time></trkpt><trkpt lat="42.15260951109159" lon="14.473976009756287"><ele>61.285714285714285</ele><time>2026-04-06T08:22:54.999Z</time></trkpt><trkpt lat="42.152546795251965" lon="14.474025449802888"><ele>61.42857142857143</ele><time>2026-04-06T08:22:57.999Z</time></trkpt><trkpt lat="42.152488302288475" lon="14.4740775204205"><ele>61.57142857142857</ele><time>2026-04-06T08:23:00.999Z</time></trkpt><trkpt lat="42.15242167220628" lon="14.474130560704788"><ele>61.71428571428572</ele><time>2026-04-06T08:23:03.999Z</time></trkpt><trkpt lat="42.1523544346678" lon="14.474174308443043"><ele>61.85714285714286</ele><time>2026-04-06T08:23:07.999Z</time></trkpt><trkpt lat="42.152322951878645" lon="14.474252538305928"><ele>62.0</ele><time>2026-04-06T08:23:12.999Z</time></trkpt><trkpt lat="42.15237728994991" lon="14.474311082164501"><ele>62.00000000000001</ele><time>2026-04-06T08:23:16.998Z</time></trkpt><trkpt lat="42.15242923022683" lon="14.474380633978072"><ele>62.0</ele><time>2026-04-06T08:23:20.998Z</time></trkpt><trkpt lat="42.15247008587049" lon="14.474453644756037"><ele>62.0</ele><time>2026-04-06T08:23:24.998Z</time></trkpt><trkpt lat="42.15253241190166" lon="14.474527275773474"><ele>62.0</ele><time>2026-04-06T08:23:29Z</time></trkpt><trkpt lat="42.15257755881353" lon="14.474598041318751"><ele>62.00000000000001</ele><time>2026-04-06T08:23:33Z</time></trkpt><trkpt lat="42.15262977354609" lon="14.474672096820251"><ele>62.0</ele><time>2026-04-06T08:23:37Z</time></trkpt><trkpt lat="42.152686854388016" lon="14.474752112740024"><ele>62.16666666666667</ele><time>2026-04-06T08:23:41Z</time></trkpt><trkpt lat="42.152724258236454" lon="14.474820799376133"><ele>62.333333333333336</ele><time>2026-04-06T08:23:45Z</time></trkpt><trkpt lat="42.15278286644387" lon="14.474905183721356"><ele>62.5</ele><time>2026-04-06T08:23:49Z</time></trkpt><trkpt lat="42.15283136265132" lon="14.47497045647182"><ele>62.66666666666667</ele><time>2026-04-06T08:23:53Z</time></trkpt><trkpt lat="42.15289719570019" lon="14.475049613989494"><ele>62.833333333333336</ele><time>2026-04-06T08:23:57Z</time></trkpt><trkpt lat="42.152948556934945" lon="14.475122384227934"><ele>63.0</ele><time>2026-04-06T08:24:01Z</time></trkpt><trkpt lat="42.15301079883709" lon="14.475189850721678"><ele>63.0</ele><time>2026-04-06T08:24:04Z</time></trkpt><trkpt lat="42.153061489726454" lon="14.475244371900944"><ele>63.0</ele><time>2026-04-06T08:24:08Z</time></trkpt><trkpt lat="42.153109998230654" lon="14.475301592004268"><ele>63.0</ele><time>2026-04-06T08:24:11Z</time></trkpt><trkpt lat="42.15317164167379" lon="14.475374423169388"><ele>63.0</ele><time>2026-04-06T08:24:15Z</time></trkpt><trkpt lat="42.15323703452716" lon="14.475452235239965"><ele>63.0</ele><time>2026-04-06T08:24:18.999Z</time></trkpt><trkpt lat="42.1532843445085" lon="14.47551843496796"><ele>63.0</ele><time>2026-04-06T08:24:21.999Z</time></trkpt><trkpt lat="42.15333295017165" lon="14.475591761967163"><ele>63.0</ele><time>2026-04-06T08:24:25.999Z</time></trkpt><trkpt lat="42.153377299275924" lon="14.475652821419404"><ele>63.85714285714286</ele><time>2026-04-06T08:24:28.999Z</time></trkpt><trkpt lat="42.15341122549415" lon="14.47572624399506"><ele>64.71428571428572</ele><time>2026-04-06T08:24:31.999Z</time></trkpt><trkpt lat="42.153466504981544" lon="14.47581433368535"><ele>65.57142857142857</ele><time>2026-04-06T08:24:35.999Z</time></trkpt><trkpt lat="42.153505487657256" lon="14.475912536953155"><ele>66.42857142857143</ele><time>2026-04-06T08:24:39.999Z</time></trkpt><trkpt lat="42.153535084983375" lon="14.47599739863633"><ele>67.28571428571429</ele><time>2026-04-06T08:24:42.999Z</time></trkpt><trkpt lat="42.15355627295618" lon="14.476093299502036"><ele>68.14285714285714</ele><time>2026-04-06T08:24:46.999Z</time></trkpt><trkpt lat="42.15357488784536" lon="14.476180341638582"><ele>69.0</ele><time>2026-04-06T08:24:49.999Z</time></trkpt><trkpt lat="42.153592331831355" lon="14.476268168181903"><ele>69.57142857142857</ele><time>2026-04-06T08:24:52.999Z</time></trkpt><trkpt lat="42.15359917689348" lon="14.476354115837342"><ele>70.14285714285715</ele><time>2026-04-06T08:24:55.999Z</time></trkpt><trkpt lat="42.15360383002609" lon="14.476442946175107"><ele>70.71428571428572</ele><time>2026-04-06T08:24:58.999Z</time></trkpt><trkpt lat="42.153600298598214" lon="14.476529653464675"><ele>71.28571428571429</ele><time>2026-04-06T08:25:01.999Z</time></trkpt><trkpt lat="42.15358843080301" lon="14.476629237725408"><ele>71.85714285714286</ele><time>2026-04-06T08:25:05.999Z</time></trkpt><trkpt lat="42.15357179633887" lon="14.476739002458409"><ele>72.42857142857143</ele><time>2026-04-06T08:25:09.999Z</time></trkpt><trkpt lat="42.15355044138828" lon="14.476826603320328"><ele>73.0</ele><time>2026-04-06T08:25:13.999Z</time></trkpt><trkpt lat="42.153533094475186" lon="14.476928240792772"><ele>73.0</ele><time>2026-04-06T08:25:17.998Z</time></trkpt><trkpt lat="42.15351981989495" lon="14.477029252000287"><ele>73.0</ele><time>2026-04-06T08:25:21.998Z</time></trkpt><trkpt lat="42.15350520253816" lon="14.477137667379758"><ele>73.0</ele><time>2026-04-06T08:25:25.998Z</time></trkpt><trkpt lat="42.15350178457418" lon="14.477236193161023"><ele>73.0</ele><time>2026-04-06T08:25:29.998Z</time></trkpt><trkpt lat="42.1535006576643" lon="14.477333603770408"><ele>73.0</ele><time>2026-04-06T08:25:33.998Z</time></trkpt><trkpt lat="42.153506403963895" lon="14.477428305728091"><ele>73.0</ele><time>2026-04-06T08:25:38Z</time></trkpt><trkpt lat="42.15350844890664" lon="14.477531955151312"><ele>73.85714285714286</ele><time>2026-04-06T08:25:42Z</time></trkpt><trkpt lat="42.15350788429677" lon="14.477635288541272"><ele>74.71428571428572</ele><time>2026-04-06T08:25:45Z</time></trkpt><trkpt lat="42.15350228323796" lon="14.477738610775422"><ele>75.57142857142858</ele><time>2026-04-06T08:25:49Z</time></trkpt><trkpt lat="42.15350195527388" lon="14.477843501452552"><ele>76.42857142857143</ele><time>2026-04-06T08:25:53Z</time></trkpt><trkpt lat="42.15350338035995" lon="14.477932620673583"><ele>77.28571428571429</ele><time>2026-04-06T08:25:57Z</time></trkpt><trkpt lat="42.15350854587253" lon="14.47802913966712"><ele>78.14285714285715</ele><time>2026-04-06T08:26:01Z</time></trkpt><trkpt lat="42.153526657045845" lon="14.478123647018638"><ele>79.0</ele><time>2026-04-06T08:26:05Z</time></trkpt><trkpt lat="42.15355577248195" lon="14.47821600919733"><ele>80.33333333333333</ele><time>2026-04-06T08:26:09Z</time></trkpt><trkpt lat="42.15359006290918" lon="14.47831698307858"><ele>81.66666666666666</ele><time>2026-04-06T08:26:13Z</time></trkpt><trkpt lat="42.15361222810202" lon="14.478409638286276"><ele>83.0</ele><time>2026-04-06T08:26:17Z</time></trkpt><trkpt lat="42.153635719073826" lon="14.478508295837793"><ele>84.33333333333333</ele><time>2026-04-06T08:26:21Z</time></trkpt><trkpt lat="42.1536433417094" lon="14.478605992185361"><ele>85.66666666666667</ele><time>2026-04-06T08:26:24.999Z</time></trkpt><trkpt lat="42.15362809848694" lon="14.478722041620214"><ele>87.0</ele><time>2026-04-06T08:26:27.999Z</time></trkpt><trkpt lat="42.15359478689339" lon="14.47881032876858"><ele>87.19999999999999</ele><time>2026-04-06T08:26:29.999Z</time></trkpt><trkpt lat="42.153548600258745" lon="14.478911137358125"><ele>87.4</ele><time>2026-04-06T08:26:31.999Z</time></trkpt><trkpt lat="42.15348234619477" lon="14.479032421621048"><ele>87.6</ele><time>2026-04-06T08:26:33.999Z</time></trkpt><trkpt lat="42.15340391014164" lon="14.479164971805101"><ele>87.80000000000001</ele><time>2026-04-06T08:26:35.999Z</time></trkpt><trkpt lat="42.15336337574579" lon="14.479233035822185"><ele>88.0</ele><time>2026-04-06T08:26:36.999Z</time></trkpt><trkpt lat="42.15332723839162" lon="14.47931296393069"><ele>88.0</ele><time>2026-04-06T08:26:37.999Z</time></trkpt><trkpt lat="42.15329529917514" lon="14.479391988743677"><ele>88.0</ele><time>2026-04-06T08:26:38.999Z</time></trkpt><trkpt lat="42.15326283142993" lon="14.479472263164553"><ele>88.0</ele><time>2026-04-06T08:26:39.999Z</time></trkpt><trkpt lat="42.15323914521656" lon="14.47955712474173"><ele>88.0</ele><time>2026-04-06T08:26:40.999Z</time></trkpt><trkpt lat="42.153225807574344" lon="14.47964128036772"><ele>88.0</ele><time>2026-04-06T08:26:41.999Z</time></trkpt><trkpt lat="42.15322643856571" lon="14.479727158540312"><ele>88.0</ele><time>2026-04-06T08:26:42.999Z</time></trkpt><trkpt lat="42.15324289697685" lon="14.479809271437245"><ele>88.0</ele><time>2026-04-06T08:26:43.999Z</time></trkpt><trkpt lat="42.15326813477868" lon="14.479959446231955"><ele>87.0</ele><time>2026-04-06T08:26:45.999Z</time></trkpt><trkpt lat="42.153288554731" lon="14.48009269007764"><ele>86.0</ele><time>2026-04-06T08:26:47.999Z</time></trkpt><trkpt lat="42.15333050624946" lon="14.480208052307534"><ele>85.0</ele><time>2026-04-06T08:26:49.999Z</time></trkpt><trkpt lat="42.15336011448519" lon="14.480315789840635"><ele>84.0</ele><time>2026-04-06T08:26:51.999Z</time></trkpt><trkpt lat="42.153394072639365" lon="14.4804061188647"><ele>83.0</ele><time>2026-04-06T08:26:53.999Z</time></trkpt><trkpt lat="42.15342970364496" lon="14.48048452308607"><ele>82.0</ele><time>2026-04-06T08:26:55.999Z</time></trkpt><trkpt lat="42.15346652495659" lon="14.480590460601404"><ele>81.5</ele><time>2026-04-06T08:26:58.999Z</time></trkpt><trkpt lat="42.15351311755977" lon="14.480691635292509"><ele>81.0</ele><time>2026-04-06T08:27:01.999Z</time></trkpt><trkpt lat="42.1535507131572" lon="14.480765259605752"><ele>80.5</ele><time>2026-04-06T08:27:03.999Z</time></trkpt><trkpt lat="42.15360316242067" lon="14.480855326118183"><ele>80.0</ele><time>2026-04-06T08:27:05.999Z</time></trkpt><trkpt lat="42.15366692840832" lon="14.480955629637041"><ele>79.5</ele><time>2026-04-06T08:27:07.999Z</time></trkpt><trkpt lat="42.1537412814167" lon="14.481061711834688"><ele>79.0</ele><time>2026-04-06T08:27:09.999Z</time></trkpt><trkpt lat="42.153819442230635" lon="14.481181767190606"><ele>79.0</ele><time>2026-04-06T08:27:11.999Z</time></trkpt><trkpt lat="42.15386534888644" lon="14.481242157783374"><ele>79.0</ele><time>2026-04-06T08:27:12.999Z</time></trkpt><trkpt lat="42.15395979459611" lon="14.481340089134138"><ele>79.0</ele><time>2026-04-06T08:27:14.999Z</time></trkpt><trkpt lat="42.15403624475192" lon="14.481458367140966"><ele>79.0</ele><time>2026-04-06T08:27:16.999Z</time></trkpt><trkpt lat="42.15408087232764" lon="14.481587912153836"><ele>79.0</ele><time>2026-04-06T08:27:18.999Z</time></trkpt><trkpt lat="42.15408949046904" lon="14.481716457989181"><ele>79.2</ele><time>2026-04-06T08:27:20.998Z</time></trkpt><trkpt lat="42.154089477871445" lon="14.48182336944857"><ele>79.4</ele><time>2026-04-06T08:27:22.998Z</time></trkpt><trkpt lat="42.154087046201056" lon="14.481911301398775"><ele>79.6</ele><time>2026-04-06T08:27:24.998Z</time></trkpt><trkpt lat="42.15408775545762" lon="14.482005558045588"><ele>79.8</ele><time>2026-04-06T08:27:27.998Z</time></trkpt><trkpt lat="42.15407615722277" lon="14.482093740631509"><ele>80.0</ele><time>2026-04-06T08:27:32.998Z</time></trkpt><trkpt lat="42.15387845981086" lon="14.482138617267777"><ele>80.0</ele><time>2026-04-06T08:27:34.998Z</time></trkpt><trkpt lat="42.153805298047075" lon="14.482186575772612"><ele>80.0</ele><time>2026-04-06T08:27:37.998Z</time></trkpt><trkpt lat="42.153737395768324" lon="14.482147649329791"><ele>80.0</ele><time>2026-04-06T08:27:41Z</time></trkpt><trkpt lat="42.1536866378057" lon="14.482073156757734"><ele>80.0</ele><time>2026-04-06T08:27:43Z</time></trkpt><trkpt lat="42.15361075989588" lon="14.482006686410154"><ele>80.0</ele><time>2026-04-06T08:27:45Z</time></trkpt><trkpt lat="42.15355917443186" lon="14.481931028686875"><ele>80.0</ele><time>2026-04-06T08:27:47Z</time></trkpt><trkpt lat="42.15357374578217" lon="14.481823519778244"><ele>79.0</ele><time>2026-04-06T08:27:50Z</time></trkpt><trkpt lat="42.15354524743535" lon="14.48174517903224"><ele>79.0</ele><time>2026-04-06T08:27:53Z</time></trkpt><trkpt lat="42.15357059542924" lon="14.481843695412865"><ele>79.0</ele><time>2026-04-06T08:29:42.998Z</time></trkpt><trkpt lat="42.15361436258273" lon="14.481916147038165"><ele>79.0</ele><time>2026-04-06T08:29:51Z</time></trkpt><trkpt lat="42.153664340969755" lon="14.481970974085156"><ele>79.0</ele><time>2026-04-06T08:29:59Z</time></trkpt></trkseg></trk></gpx>